<?xml version='1.0' encoding='UTF-8'?><gpx version="1.1" creator="JPX - https://github.com/jenetics/jpx" xmlns="http://www.topografix.com/GPX/1/1"><trk><trkseg><trkpt lat="43.4218767" lon="11.1809194"><ele>174.0</ele><time>2026-04-25T06:17:07.77Z</time></trkpt><trkpt lat="43.4219761" lon="11.1810346"><ele>174.0</ele><time>2026-04-25T06:17:14.806Z</time></trkpt><trkpt lat="43.422085" lon="11.1812492"><ele>174.0</ele><time>2026-04-25T06:17:21.477Z</time></trkpt><trkpt lat="43.4220201" lon="11.1812308"><ele>174.0</ele><time>2026-04-25T06:17:41.735Z</time></trkpt><trkpt lat="43.4220831" lon="11.1812099"><ele>174.0</ele><time>2026-04-25T06:17:48.719Z</time></trkpt><trkpt lat="43.4221404" lon="11.1811671"><ele>174.0</ele><time>2026-04-25T06:17:53.725Z</time></trkpt><trkpt lat="43.4222049" lon="11.1811213"><ele>174.0</ele><time>2026-04-25T06:17:58.724Z</time></trkpt><trkpt lat="43.4222756" lon="11.181158"><ele>174.0</ele><time>2026-04-25T06:18:02.737Z</time></trkpt><trkpt lat="43.4223008" lon="11.1812628"><ele>174.0</ele><time>2026-04-25T06:18:06.735Z</time></trkpt><trkpt lat="43.4223194" lon="11.181347"><ele>174.0</ele><time>2026-04-25T06:18:09.744Z</time></trkpt><trkpt lat="43.4223297" lon="11.1814328"><ele>174.0</ele><time>2026-04-25T06:18:12.736Z</time></trkpt><trkpt lat="43.4223526" lon="11.1815479"><ele>174.16666666666666</ele><time>2026-04-25T06:18:15.726Z</time></trkpt><trkpt lat="43.4223278" lon="11.1816699"><ele>174.33333333333334</ele><time>2026-04-25T06:18:18.712Z</time></trkpt><trkpt lat="43.4222655" lon="11.1817369"><ele>174.5</ele><time>2026-04-25T06:18:21.721Z</time></trkpt><trkpt lat="43.4222048" lon="11.181814"><ele>174.66666666666669</ele><time>2026-04-25T06:18:25.738Z</time></trkpt><trkpt lat="43.4221636" lon="11.1818947"><ele>174.83333333333334</ele><time>2026-04-25T06:18:29.71Z</time></trkpt><trkpt lat="43.4221227" lon="11.1819668"><ele>175.0</ele><time>2026-04-25T06:18:33.736Z</time></trkpt><trkpt lat="43.4220953" lon="11.1820564"><ele>175.0</ele><time>2026-04-25T06:18:37.736Z</time></trkpt><trkpt lat="43.4220996" lon="11.1821509"><ele>175.0</ele><time>2026-04-25T06:18:40.715Z</time></trkpt><trkpt lat="43.4221156" lon="11.1822352"><ele>175.0</ele><time>2026-04-25T06:18:43.731Z</time></trkpt><trkpt lat="43.4221431" lon="11.1823144"><ele>175.0</ele><time>2026-04-25T06:18:46.719Z</time></trkpt><trkpt lat="43.4221656" lon="11.1824083"><ele>175.0</ele><time>2026-04-25T06:18:49.73Z</time></trkpt><trkpt lat="43.4222026" lon="11.1825055"><ele>175.0</ele><time>2026-04-25T06:18:52.715Z</time></trkpt><trkpt lat="43.4222481" lon="11.1826037"><ele>175.0</ele><time>2026-04-25T06:18:55.713Z</time></trkpt><trkpt lat="43.4223266" lon="11.1826025"><ele>174.71428571428572</ele><time>2026-04-25T06:18:58.723Z</time></trkpt><trkpt lat="43.4223845" lon="11.1825662"><ele>174.42857142857144</ele><time>2026-04-25T06:19:00.737Z</time></trkpt><trkpt lat="43.4224477" lon="11.1825142"><ele>174.14285714285714</ele><time>2026-04-25T06:19:02.726Z</time></trkpt><trkpt lat="43.4225203" lon="11.1824642"><ele>173.85714285714286</ele><time>2026-04-25T06:19:04.722Z</time></trkpt><trkpt lat="43.4225847" lon="11.1824095"><ele>173.57142857142858</ele><time>2026-04-25T06:19:06.708Z</time></trkpt><trkpt lat="43.4226504" lon="11.1823714"><ele>173.28571428571428</ele><time>2026-04-25T06:19:08.715Z</time></trkpt><trkpt lat="43.4227161" lon="11.1823608"><ele>173.0</ele><time>2026-04-25T06:19:10.709Z</time></trkpt><trkpt lat="43.4227839" lon="11.1823521"><ele>173.0</ele><time>2026-04-25T06:19:12.714Z</time></trkpt><trkpt lat="43.4228566" lon="11.1823616"><ele>173.0</ele><time>2026-04-25T06:19:14.707Z</time></trkpt><trkpt lat="43.4229301" lon="11.182369"><ele>173.0</ele><time>2026-04-25T06:19:16.729Z</time></trkpt><trkpt lat="43.4230125" lon="11.182381"><ele>173.0</ele><time>2026-04-25T06:19:18.716Z</time></trkpt><trkpt lat="43.4230861" lon="11.1823736"><ele>173.0</ele><time>2026-04-25T06:19:20.723Z</time></trkpt><trkpt lat="43.4231638" lon="11.1823466"><ele>173.0</ele><time>2026-04-25T06:19:22.718Z</time></trkpt><trkpt lat="43.4232368" lon="11.1823148"><ele>172.33333333333331</ele><time>2026-04-25T06:19:24.706Z</time></trkpt><trkpt lat="43.4233061" lon="11.1823029"><ele>171.66666666666666</ele><time>2026-04-25T06:19:26.735Z</time></trkpt><trkpt lat="43.4233727" lon="11.1822955"><ele>171.0</ele><time>2026-04-25T06:19:28.74Z</time></trkpt><trkpt lat="43.4234467" lon="11.1822999"><ele>170.33333333333334</ele><time>2026-04-25T06:19:30.722Z</time></trkpt><trkpt lat="43.4235273" lon="11.1823099"><ele>169.66666666666669</ele><time>2026-04-25T06:19:32.727Z</time></trkpt><trkpt lat="43.4236182" lon="11.1823012"><ele>169.0</ele><time>2026-04-25T06:19:34.725Z</time></trkpt><trkpt lat="43.4237313" lon="11.1822884"><ele>168.33333333333334</ele><time>2026-04-25T06:19:36.721Z</time></trkpt><trkpt lat="43.4238205" lon="11.1822896"><ele>167.66666666666669</ele><time>2026-04-25T06:19:38.729Z</time></trkpt><trkpt lat="43.423901" lon="11.1822758"><ele>167.0</ele><time>2026-04-25T06:19:40.713Z</time></trkpt><trkpt lat="43.423988" lon="11.182243"><ele>166.33333333333334</ele><time>2026-04-25T06:19:42.749Z</time></trkpt><trkpt lat="43.4240748" lon="11.1822831"><ele>165.66666666666666</ele><time>2026-04-25T06:19:44.732Z</time></trkpt><trkpt lat="43.4241567" lon="11.182317"><ele>165.0</ele><time>2026-04-25T06:19:46.729Z</time></trkpt><trkpt lat="43.424246" lon="11.1823504"><ele>165.0</ele><time>2026-04-25T06:19:48.728Z</time></trkpt><trkpt lat="43.4243297" lon="11.1823805"><ele>165.0</ele><time>2026-04-25T06:19:50.706Z</time></trkpt><trkpt lat="43.4243938" lon="11.1823932"><ele>165.0</ele><time>2026-04-25T06:19:52.737Z</time></trkpt><trkpt lat="43.4244709" lon="11.1824136"><ele>165.0</ele><time>2026-04-25T06:19:54.737Z</time></trkpt><trkpt lat="43.424557" lon="11.1824602"><ele>165.0</ele><time>2026-04-25T06:19:56.71Z</time></trkpt><trkpt lat="43.4246274" lon="11.1825292"><ele>165.0</ele><time>2026-04-25T06:19:58.721Z</time></trkpt><trkpt lat="43.4246721" lon="11.1826196"><ele>164.16666666666666</ele><time>2026-04-25T06:20:00.842Z</time></trkpt><trkpt lat="43.4247104" lon="11.1827399"><ele>163.33333333333334</ele><time>2026-04-25T06:20:02.73Z</time></trkpt><trkpt lat="43.4247568" lon="11.1828551"><ele>162.5</ele><time>2026-04-25T06:20:04.822Z</time></trkpt><trkpt lat="43.4248115" lon="11.1829329"><ele>161.66666666666669</ele><time>2026-04-25T06:20:06.734Z</time></trkpt><trkpt lat="43.4248776" lon="11.1830154"><ele>160.83333333333334</ele><time>2026-04-25T06:20:08.725Z</time></trkpt><trkpt lat="43.4249259" lon="11.1831124"><ele>160.0</ele><time>2026-04-25T06:20:11.729Z</time></trkpt><trkpt lat="43.4249937" lon="11.1831697"><ele>159.0</ele><time>2026-04-25T06:20:13.808Z</time></trkpt><trkpt lat="43.4250507" lon="11.1832324"><ele>158.0</ele><time>2026-04-25T06:20:15.811Z</time></trkpt><trkpt lat="43.4251" lon="11.183309"><ele>157.0</ele><time>2026-04-25T06:20:17.732Z</time></trkpt><trkpt lat="43.4251541" lon="11.183368"><ele>156.0</ele><time>2026-04-25T06:20:19.801Z</time></trkpt><trkpt lat="43.425225" lon="11.1833894"><ele>155.0</ele><time>2026-04-25T06:20:21.74Z</time></trkpt><trkpt lat="43.4252829" lon="11.1833045"><ele>154.0</ele><time>2026-04-25T06:20:23.736Z</time></trkpt><trkpt lat="43.4253422" lon="11.1832047"><ele>155.2</ele><time>2026-04-25T06:20:25.731Z</time></trkpt><trkpt lat="43.4253959" lon="11.1831151"><ele>156.4</ele><time>2026-04-25T06:20:27.738Z</time></trkpt><trkpt lat="43.4254454" lon="11.183005"><ele>157.6</ele><time>2026-04-25T06:20:29.726Z</time></trkpt><trkpt lat="43.4255099" lon="11.1828807"><ele>158.8</ele><time>2026-04-25T06:20:31.739Z</time></trkpt><trkpt lat="43.4255792" lon="11.1827436"><ele>160.0</ele><time>2026-04-25T06:20:33.795Z</time></trkpt><trkpt lat="43.4256116" lon="11.1826657"><ele>157.5</ele><time>2026-04-25T06:20:34.8Z</time></trkpt><trkpt lat="43.425647" lon="11.1825895"><ele>155.0</ele><time>2026-04-25T06:20:35.733Z</time></trkpt><trkpt lat="43.4257278" lon="11.1824523"><ele>152.5</ele><time>2026-04-25T06:20:37.731Z</time></trkpt><trkpt lat="43.4257627" lon="11.1823788"><ele>150.0</ele><time>2026-04-25T06:20:38.705Z</time></trkpt><trkpt lat="43.4257947" lon="11.1823037"><ele>147.5</ele><time>2026-04-25T06:20:39.707Z</time></trkpt><trkpt lat="43.4258305" lon="11.1822312"><ele>145.0</ele><time>2026-04-25T06:20:40.786Z</time></trkpt><trkpt lat="43.4258966" lon="11.1820988"><ele>145.0</ele><time>2026-04-25T06:20:42.732Z</time></trkpt><trkpt lat="43.4259608" lon="11.1820705"><ele>145.0</ele><time>2026-04-25T06:20:43.793Z</time></trkpt><trkpt lat="43.4260731" lon="11.1820741"><ele>145.0</ele><time>2026-04-25T06:20:45.801Z</time></trkpt><trkpt lat="43.4261643" lon="11.1820985"><ele>145.0</ele><time>2026-04-25T06:20:47.729Z</time></trkpt><trkpt lat="43.426265" lon="11.182106"><ele>145.0</ele><time>2026-04-25T06:20:49.793Z</time></trkpt><trkpt lat="43.4263611" lon="11.182128"><ele>144.66666666666669</ele><time>2026-04-25T06:20:51.75Z</time></trkpt><trkpt lat="43.4264304" lon="11.1821368"><ele>144.33333333333334</ele><time>2026-04-25T06:20:53.798Z</time></trkpt><trkpt lat="43.4265118" lon="11.1821135"><ele>144.0</ele><time>2026-04-25T06:20:55.8Z</time></trkpt><trkpt lat="43.4265772" lon="11.18209"><ele>143.66666666666666</ele><time>2026-04-25T06:20:57.735Z</time></trkpt><trkpt lat="43.4266402" lon="11.1820703"><ele>143.33333333333331</ele><time>2026-04-25T06:20:59.731Z</time></trkpt><trkpt lat="43.4267244" lon="11.1820472"><ele>143.0</ele><time>2026-04-25T06:21:02.738Z</time></trkpt><trkpt lat="43.4268061" lon="11.1820203"><ele>143.0</ele><time>2026-04-25T06:21:05.721Z</time></trkpt><trkpt lat="43.4268716" lon="11.1819822"><ele>143.0</ele><time>2026-04-25T06:21:08.799Z</time></trkpt><trkpt lat="43.4269355" lon="11.1819387"><ele>143.0</ele><time>2026-04-25T06:21:11.724Z</time></trkpt><trkpt lat="43.4270082" lon="11.181941"><ele>143.0</ele><time>2026-04-25T06:21:14.799Z</time></trkpt><trkpt lat="43.4270921" lon="11.1819559"><ele>143.0</ele><time>2026-04-25T06:21:17.712Z</time></trkpt><trkpt lat="43.4271556" lon="11.1819063"><ele>143.0</ele><time>2026-04-25T06:21:20.801Z</time></trkpt><trkpt lat="43.4272118" lon="11.1818332"><ele>143.7142857142857</ele><time>2026-04-25T06:21:24.81Z</time></trkpt><trkpt lat="43.4272721" lon="11.181808"><ele>144.42857142857142</ele><time>2026-04-25T06:21:29.806Z</time></trkpt><trkpt lat="43.4273483" lon="11.1817748"><ele>145.14285714285714</ele><time>2026-04-25T06:21:33.709Z</time></trkpt><trkpt lat="43.4274046" lon="11.1817115"><ele>145.85714285714283</ele><time>2026-04-25T06:21:35.727Z</time></trkpt><trkpt lat="43.4274834" lon="11.1816911"><ele>146.57142857142856</ele><time>2026-04-25T06:21:37.732Z</time></trkpt><trkpt lat="43.4275613" lon="11.18169"><ele>147.28571428571428</ele><time>2026-04-25T06:21:39.73Z</time></trkpt><trkpt lat="43.427634" lon="11.1817035"><ele>148.0</ele><time>2026-04-25T06:21:41.731Z</time></trkpt><trkpt lat="43.4277019" lon="11.1817527"><ele>148.0</ele><time>2026-04-25T06:21:43.723Z</time></trkpt><trkpt lat="43.4277632" lon="11.1818173"><ele>148.0</ele><time>2026-04-25T06:21:45.792Z</time></trkpt><trkpt lat="43.4278407" lon="11.1818462"><ele>148.0</ele><time>2026-04-25T06:21:48.728Z</time></trkpt><trkpt lat="43.4279187" lon="11.1818173"><ele>148.0</ele><time>2026-04-25T06:21:51.724Z</time></trkpt><trkpt lat="43.4279985" lon="11.1817914"><ele>148.0</ele><time>2026-04-25T06:21:55.737Z</time></trkpt><trkpt lat="43.4280534" lon="11.1817488"><ele>148.0</ele><time>2026-04-25T06:21:58.737Z</time></trkpt><trkpt lat="43.4280984" lon="11.1816538"><ele>148.57142857142858</ele><time>2026-04-25T06:22:02.735Z</time></trkpt><trkpt lat="43.4281207" lon="11.1815667"><ele>149.14285714285714</ele><time>2026-04-25T06:22:05.723Z</time></trkpt><trkpt lat="43.4281604" lon="11.1814927"><ele>149.71428571428572</ele><time>2026-04-25T06:22:08.736Z</time></trkpt><trkpt lat="43.4282013" lon="11.181402"><ele>150.28571428571428</ele><time>2026-04-25T06:22:12.738Z</time></trkpt><trkpt lat="43.4282439" lon="11.1813147"><ele>150.85714285714286</ele><time>2026-04-25T06:22:16.714Z</time></trkpt><trkpt lat="43.4282855" lon="11.1812366"><ele>151.42857142857142</ele><time>2026-04-25T06:22:20.738Z</time></trkpt><trkpt lat="43.4283269" lon="11.1811598"><ele>152.0</ele><time>2026-04-25T06:22:24.727Z</time></trkpt><trkpt lat="43.4283688" lon="11.1810756"><ele>152.0</ele><time>2026-04-25T06:22:28.725Z</time></trkpt><trkpt lat="43.4284165" lon="11.1809936"><ele>152.0</ele><time>2026-04-25T06:22:33.722Z</time></trkpt><trkpt lat="43.4284452" lon="11.1809071"><ele>152.0</ele><time>2026-04-25T06:22:38.707Z</time></trkpt><trkpt lat="43.4285046" lon="11.1808397"><ele>152.0</ele><time>2026-04-25T06:22:42.736Z</time></trkpt><trkpt lat="43.4285429" lon="11.1807655"><ele>152.0</ele><time>2026-04-25T06:22:45.74Z</time></trkpt><trkpt lat="43.4285839" lon="11.180695"><ele>152.0</ele><time>2026-04-25T06:22:49.733Z</time></trkpt><trkpt lat="43.4286395" lon="11.1806368"><ele>152.0</ele><time>2026-04-25T06:22:53.742Z</time></trkpt><trkpt lat="43.4287053" lon="11.1805876"><ele>151.57142857142856</ele><time>2026-04-25T06:22:58.734Z</time></trkpt><trkpt lat="43.4287776" lon="11.1805814"><ele>151.14285714285717</ele><time>2026-04-25T06:23:02.726Z</time></trkpt><trkpt lat="43.4288624" lon="11.1806162"><ele>150.71428571428572</ele><time>2026-04-25T06:23:06.738Z</time></trkpt><trkpt lat="43.4289265" lon="11.1806452"><ele>150.28571428571428</ele><time>2026-04-25T06:23:09.732Z</time></trkpt><trkpt lat="43.4289814" lon="11.1806929"><ele>149.85714285714283</ele><time>2026-04-25T06:23:12.726Z</time></trkpt><trkpt lat="43.4290143" lon="11.1807935"><ele>149.42857142857142</ele><time>2026-04-25T06:23:16.733Z</time></trkpt><trkpt lat="43.4290525" lon="11.1808708"><ele>149.0</ele><time>2026-04-25T06:23:19.805Z</time></trkpt><trkpt lat="43.4290928" lon="11.1809551"><ele>150.66666666666666</ele><time>2026-04-25T06:23:22.731Z</time></trkpt><trkpt lat="43.4291496" lon="11.181031"><ele>152.33333333333331</ele><time>2026-04-25T06:23:25.74Z</time></trkpt><trkpt lat="43.4292096" lon="11.1810872"><ele>154.0</ele><time>2026-04-25T06:23:28.727Z</time></trkpt><trkpt lat="43.4292901" lon="11.1811219"><ele>155.66666666666666</ele><time>2026-04-25T06:23:31.728Z</time></trkpt><trkpt lat="43.4293709" lon="11.1811377"><ele>157.33333333333334</ele><time>2026-04-25T06:23:34.786Z</time></trkpt><trkpt lat="43.4294426" lon="11.1811304"><ele>159.0</ele><time>2026-04-25T06:23:37.728Z</time></trkpt><trkpt lat="43.4295163" lon="11.1811081"><ele>159.0</ele><time>2026-04-25T06:23:40.703Z</time></trkpt><trkpt lat="43.4295878" lon="11.1810958"><ele>159.0</ele><time>2026-04-25T06:23:43.72Z</time></trkpt><trkpt lat="43.4296511" lon="11.1811131"><ele>159.0</ele><time>2026-04-25T06:23:46.731Z</time></trkpt><trkpt lat="43.4297336" lon="11.1810994"><ele>159.0</ele><time>2026-04-25T06:23:50.782Z</time></trkpt><trkpt lat="43.4298149" lon="11.1810549"><ele>159.0</ele><time>2026-04-25T06:23:53.728Z</time></trkpt><trkpt lat="43.4299121" lon="11.1810396"><ele>159.0</ele><time>2026-04-25T06:23:56.74Z</time></trkpt><trkpt lat="43.4299866" lon="11.1810015"><ele>159.66666666666666</ele><time>2026-04-25T06:23:59.725Z</time></trkpt><trkpt lat="43.4300446" lon="11.1809613"><ele>160.33333333333334</ele><time>2026-04-25T06:24:02.732Z</time></trkpt><trkpt lat="43.4301248" lon="11.1809269"><ele>161.0</ele><time>2026-04-25T06:24:06.732Z</time></trkpt><trkpt lat="43.4302094" lon="11.1809319"><ele>161.66666666666669</ele><time>2026-04-25T06:24:09.732Z</time></trkpt><trkpt lat="43.4302828" lon="11.1809457"><ele>162.33333333333334</ele><time>2026-04-25T06:24:11.737Z</time></trkpt><trkpt lat="43.4303625" lon="11.1809928"><ele>163.0</ele><time>2026-04-25T06:24:15.802Z</time></trkpt><trkpt lat="43.4304139" lon="11.1810734"><ele>163.0</ele><time>2026-04-25T06:24:18.728Z</time></trkpt><trkpt lat="43.4304829" lon="11.1811833"><ele>163.0</ele><time>2026-04-25T06:24:21.722Z</time></trkpt><trkpt lat="43.4305679" lon="11.1812864"><ele>163.0</ele><time>2026-04-25T06:24:25.793Z</time></trkpt><trkpt lat="43.4306219" lon="11.1813715"><ele>163.0</ele><time>2026-04-25T06:24:27.722Z</time></trkpt><trkpt lat="43.430683" lon="11.1814505"><ele>163.0</ele><time>2026-04-25T06:24:31.713Z</time></trkpt><trkpt lat="43.4307394" lon="11.181544"><ele>163.83333333333334</ele><time>2026-04-25T06:24:34.728Z</time></trkpt><trkpt lat="43.4307876" lon="11.1816028"><ele>164.66666666666669</ele><time>2026-04-25T06:24:36.714Z</time></trkpt><trkpt lat="43.4308566" lon="11.1816951"><ele>165.5</ele><time>2026-04-25T06:24:39.735Z</time></trkpt><trkpt lat="43.4309037" lon="11.1817867"><ele>166.33333333333334</ele><time>2026-04-25T06:24:41.731Z</time></trkpt><trkpt lat="43.4309433" lon="11.1818917"><ele>167.16666666666666</ele><time>2026-04-25T06:24:43.725Z</time></trkpt><trkpt lat="43.4309839" lon="11.1820071"><ele>168.0</ele><time>2026-04-25T06:24:45.712Z</time></trkpt><trkpt lat="43.4309994" lon="11.1821579"><ele>168.0</ele><time>2026-04-25T06:24:47.738Z</time></trkpt><trkpt lat="43.4309898" lon="11.1822989"><ele>168.0</ele><time>2026-04-25T06:24:49.793Z</time></trkpt><trkpt lat="43.4309635" lon="11.1824349"><ele>168.0</ele><time>2026-04-25T06:24:51.749Z</time></trkpt><trkpt lat="43.4309942" lon="11.1825979"><ele>168.0</ele><time>2026-04-25T06:24:53.805Z</time></trkpt><trkpt lat="43.4310107" lon="11.1826826"><ele>168.0</ele><time>2026-04-25T06:24:54.802Z</time></trkpt><trkpt lat="43.4310388" lon="11.1828329"><ele>168.2</ele><time>2026-04-25T06:24:56.717Z</time></trkpt><trkpt lat="43.431068" lon="11.1829773"><ele>168.4</ele><time>2026-04-25T06:24:58.8Z</time></trkpt><trkpt lat="43.4311039" lon="11.1831127"><ele>168.6</ele><time>2026-04-25T06:25:00.804Z</time></trkpt><trkpt lat="43.4311394" lon="11.1832507"><ele>168.79999999999998</ele><time>2026-04-25T06:25:02.731Z</time></trkpt><trkpt lat="43.4311771" lon="11.1834002"><ele>169.0</ele><time>2026-04-25T06:25:04.73Z</time></trkpt><trkpt lat="43.4312104" lon="11.1834852"><ele>167.83333333333334</ele><time>2026-04-25T06:25:05.798Z</time></trkpt><trkpt lat="43.4312507" lon="11.1835636"><ele>166.66666666666669</ele><time>2026-04-25T06:25:06.704Z</time></trkpt><trkpt lat="43.4312997" lon="11.1836391"><ele>165.5</ele><time>2026-04-25T06:25:07.723Z</time></trkpt><trkpt lat="43.4313626" lon="11.1836949"><ele>164.33333333333334</ele><time>2026-04-25T06:25:08.713Z</time></trkpt><trkpt lat="43.431423" lon="11.1837221"><ele>163.16666666666666</ele><time>2026-04-25T06:25:09.726Z</time></trkpt><trkpt lat="43.4315303" lon="11.1837663"><ele>162.0</ele><time>2026-04-25T06:25:11.73Z</time></trkpt><trkpt lat="43.4316182" lon="11.183804"><ele>160.66666666666666</ele><time>2026-04-25T06:25:13.74Z</time></trkpt><trkpt lat="43.431687" lon="11.1838175"><ele>159.33333333333334</ele><time>2026-04-25T06:25:15.73Z</time></trkpt><trkpt lat="43.4317722" lon="11.183822"><ele>158.0</ele><time>2026-04-25T06:25:18.773Z</time></trkpt><trkpt lat="43.4318434" lon="11.1837994"><ele>156.66666666666669</ele><time>2026-04-25T06:25:21.728Z</time></trkpt><trkpt lat="43.431914" lon="11.1838073"><ele>155.33333333333334</ele><time>2026-04-25T06:25:24.794Z</time></trkpt><trkpt lat="43.4319973" lon="11.1838195"><ele>154.0</ele><time>2026-04-25T06:25:28.796Z</time></trkpt><trkpt lat="43.4320747" lon="11.1838269"><ele>154.83333333333334</ele><time>2026-04-25T06:25:30.8Z</time></trkpt><trkpt lat="43.4321473" lon="11.1838721"><ele>155.66666666666669</ele><time>2026-04-25T06:25:34.801Z</time></trkpt><trkpt lat="43.4322143" lon="11.1838914"><ele>156.5</ele><time>2026-04-25T06:25:37.729Z</time></trkpt><trkpt lat="43.4323042" lon="11.1839155"><ele>157.33333333333334</ele><time>2026-04-25T06:25:41.732Z</time></trkpt><trkpt lat="43.4323795" lon="11.1839414"><ele>158.16666666666666</ele><time>2026-04-25T06:25:45.728Z</time></trkpt><trkpt lat="43.432448" lon="11.1839865"><ele>159.0</ele><time>2026-04-25T06:25:49.727Z</time></trkpt><trkpt lat="43.4325265" lon="11.1840102"><ele>160.66666666666666</ele><time>2026-04-25T06:25:53.731Z</time></trkpt><trkpt lat="43.432594" lon="11.1840428"><ele>162.33333333333334</ele><time>2026-04-25T06:25:56.721Z</time></trkpt><trkpt lat="43.4326634" lon="11.1840833"><ele>164.0</ele><time>2026-04-25T06:25:59.741Z</time></trkpt><trkpt lat="43.4327345" lon="11.1841167"><ele>165.66666666666669</ele><time>2026-04-25T06:26:02.73Z</time></trkpt><trkpt lat="43.4328095" lon="11.1841464"><ele>167.33333333333334</ele><time>2026-04-25T06:26:05.722Z</time></trkpt><trkpt lat="43.4328908" lon="11.1841634"><ele>169.0</ele><time>2026-04-25T06:26:08.728Z</time></trkpt><trkpt lat="43.4329721" lon="11.1841804"><ele>168.66666666666669</ele><time>2026-04-25T06:26:11.724Z</time></trkpt><trkpt lat="43.43305" lon="11.184217"><ele>168.33333333333334</ele><time>2026-04-25T06:26:14.724Z</time></trkpt><trkpt lat="43.4331269" lon="11.1842688"><ele>168.0</ele><time>2026-04-25T06:26:17.727Z</time></trkpt><trkpt lat="43.433205" lon="11.1843036"><ele>167.66666666666666</ele><time>2026-04-25T06:26:20.728Z</time></trkpt><trkpt lat="43.4332774" lon="11.1843448"><ele>167.33333333333331</ele><time>2026-04-25T06:26:23.725Z</time></trkpt><trkpt lat="43.4333482" lon="11.1843642"><ele>167.0</ele><time>2026-04-25T06:26:26.733Z</time></trkpt><trkpt lat="43.4334174" lon="11.1843905"><ele>167.0</ele><time>2026-04-25T06:26:29.729Z</time></trkpt><trkpt lat="43.4334946" lon="11.1844351"><ele>167.0</ele><time>2026-04-25T06:26:32.722Z</time></trkpt><trkpt lat="43.4335768" lon="11.1844545"><ele>167.0</ele><time>2026-04-25T06:26:35.724Z</time></trkpt><trkpt lat="43.43366" lon="11.1844801"><ele>167.0</ele><time>2026-04-25T06:26:38.732Z</time></trkpt><trkpt lat="43.4337427" lon="11.1845311"><ele>167.0</ele><time>2026-04-25T06:26:41.723Z</time></trkpt><trkpt lat="43.4338133" lon="11.1845824"><ele>167.0</ele><time>2026-04-25T06:26:44.731Z</time></trkpt><trkpt lat="43.4338855" lon="11.1845974"><ele>167.28571428571428</ele><time>2026-04-25T06:26:47.722Z</time></trkpt><trkpt lat="43.4339522" lon="11.1846049"><ele>167.57142857142858</ele><time>2026-04-25T06:26:50.733Z</time></trkpt><trkpt lat="43.4340161" lon="11.1846392"><ele>167.85714285714286</ele><time>2026-04-25T06:26:53.721Z</time></trkpt><trkpt lat="43.4340807" lon="11.1846765"><ele>168.14285714285714</ele><time>2026-04-25T06:26:56.741Z</time></trkpt><trkpt lat="43.4341481" lon="11.1847117"><ele>168.42857142857142</ele><time>2026-04-25T06:26:59.734Z</time></trkpt><trkpt lat="43.434213" lon="11.1847376"><ele>168.71428571428572</ele><time>2026-04-25T06:27:02.736Z</time></trkpt><trkpt lat="43.4342916" lon="11.1847585"><ele>169.0</ele><time>2026-04-25T06:27:06.737Z</time></trkpt><trkpt lat="43.4343635" lon="11.1847958"><ele>169.0</ele><time>2026-04-25T06:27:10.804Z</time></trkpt><trkpt lat="43.4344396" lon="11.1848294"><ele>169.0</ele><time>2026-04-25T06:27:14.808Z</time></trkpt><trkpt lat="43.434508" lon="11.1848679"><ele>169.0</ele><time>2026-04-25T06:27:16.725Z</time></trkpt><trkpt lat="43.4345835" lon="11.1848778"><ele>169.0</ele><time>2026-04-25T06:27:20.785Z</time></trkpt><trkpt lat="43.4346484" lon="11.1849311"><ele>169.0</ele><time>2026-04-25T06:27:23.809Z</time></trkpt><trkpt lat="43.4347257" lon="11.1849361"><ele>169.0</ele><time>2026-04-25T06:27:28.735Z</time></trkpt><trkpt lat="43.4347909" lon="11.1849512"><ele>169.0</ele><time>2026-04-25T06:27:32.731Z</time></trkpt><trkpt lat="43.4348564" lon="11.1849578"><ele>171.16666666666669</ele><time>2026-04-25T06:27:36.724Z</time></trkpt><trkpt lat="43.4349653" lon="11.1849777"><ele>173.33333333333334</ele><time>2026-04-25T06:27:44.73Z</time></trkpt><trkpt lat="43.4350331" lon="11.1850269"><ele>175.5</ele><time>2026-04-25T06:27:47.72Z</time></trkpt><trkpt lat="43.4350974" lon="11.1850216"><ele>177.66666666666666</ele><time>2026-04-25T06:27:51.736Z</time></trkpt><trkpt lat="43.4351625" lon="11.1850171"><ele>179.83333333333331</ele><time>2026-04-25T06:27:57.731Z</time></trkpt><trkpt lat="43.4352295" lon="11.1850291"><ele>182.0</ele><time>2026-04-25T06:28:02.719Z</time></trkpt><trkpt lat="43.4352939" lon="11.1850507"><ele>182.0</ele><time>2026-04-25T06:28:07.725Z</time></trkpt><trkpt lat="43.4353674" lon="11.1850729"><ele>182.0</ele><time>2026-04-25T06:28:12.705Z</time></trkpt><trkpt lat="43.4354385" lon="11.1850898"><ele>182.0</ele><time>2026-04-25T06:28:16.732Z</time></trkpt><trkpt lat="43.4355081" lon="11.1850743"><ele>182.0</ele><time>2026-04-25T06:28:19.725Z</time></trkpt><trkpt lat="43.435587" lon="11.1850818"><ele>182.0</ele><time>2026-04-25T06:28:23.741Z</time></trkpt><trkpt lat="43.4356854" lon="11.1851198"><ele>182.0</ele><time>2026-04-25T06:28:26.809Z</time></trkpt><trkpt lat="43.4357542" lon="11.1851203"><ele>182.16666666666666</ele><time>2026-04-25T06:28:29.717Z</time></trkpt><trkpt lat="43.435827" lon="11.1851204"><ele>182.33333333333331</ele><time>2026-04-25T06:28:32.726Z</time></trkpt><trkpt lat="43.4359185" lon="11.1851794"><ele>182.5</ele><time>2026-04-25T06:28:36.718Z</time></trkpt><trkpt lat="43.4359915" lon="11.1851558"><ele>182.66666666666666</ele><time>2026-04-25T06:28:38.797Z</time></trkpt><trkpt lat="43.4360831" lon="11.1851749"><ele>182.83333333333334</ele><time>2026-04-25T06:28:41.721Z</time></trkpt><trkpt lat="43.4361446" lon="11.1852094"><ele>183.0</ele><time>2026-04-25T06:28:43.715Z</time></trkpt><trkpt lat="43.436221" lon="11.1851812"><ele>183.0</ele><time>2026-04-25T06:28:48.73Z</time></trkpt><trkpt lat="43.4362927" lon="11.1851986"><ele>183.0</ele><time>2026-04-25T06:28:52.728Z</time></trkpt><trkpt lat="43.4363612" lon="11.1852205"><ele>183.0</ele><time>2026-04-25T06:28:56.788Z</time></trkpt><trkpt lat="43.4365058" lon="11.1852669"><ele>183.0</ele><time>2026-04-25T06:29:03.792Z</time></trkpt><trkpt lat="43.4365712" lon="11.1852955"><ele>183.0</ele><time>2026-04-25T06:29:06.721Z</time></trkpt><trkpt lat="43.4366345" lon="11.1853271"><ele>183.0</ele><time>2026-04-25T06:29:08.723Z</time></trkpt><trkpt lat="43.4367007" lon="11.1853419"><ele>183.28571428571428</ele><time>2026-04-25T06:29:11.721Z</time></trkpt><trkpt lat="43.4367757" lon="11.1853786"><ele>183.57142857142858</ele><time>2026-04-25T06:29:14.725Z</time></trkpt><trkpt lat="43.4368475" lon="11.1854064"><ele>183.85714285714283</ele><time>2026-04-25T06:29:17.727Z</time></trkpt><trkpt lat="43.4369101" lon="11.1854402"><ele>184.14285714285714</ele><time>2026-04-25T06:29:20.725Z</time></trkpt><trkpt lat="43.436987" lon="11.1854876"><ele>184.42857142857142</ele><time>2026-04-25T06:29:24.738Z</time></trkpt><trkpt lat="43.4370508" lon="11.1855258"><ele>184.7142857142857</ele><time>2026-04-25T06:29:27.734Z</time></trkpt><trkpt lat="43.437116" lon="11.1855742"><ele>185.0</ele><time>2026-04-25T06:29:31.733Z</time></trkpt><trkpt lat="43.4371816" lon="11.1856242"><ele>185.33333333333331</ele><time>2026-04-25T06:29:35.806Z</time></trkpt><trkpt lat="43.4372482" lon="11.1856582"><ele>185.66666666666666</ele><time>2026-04-25T06:29:39.804Z</time></trkpt><trkpt lat="43.4373156" lon="11.1856814"><ele>186.0</ele><time>2026-04-25T06:29:43.733Z</time></trkpt><trkpt lat="43.4374148" lon="11.1856999"><ele>186.33333333333334</ele><time>2026-04-25T06:29:49.715Z</time></trkpt><trkpt lat="43.4374786" lon="11.1857183"><ele>186.66666666666669</ele><time>2026-04-25T06:29:51.722Z</time></trkpt><trkpt lat="43.4375704" lon="11.1857447"><ele>187.0</ele><time>2026-04-25T06:29:54.711Z</time></trkpt><trkpt lat="43.4376413" lon="11.1857813"><ele>189.42857142857142</ele><time>2026-04-25T06:29:56.738Z</time></trkpt><trkpt lat="43.4377129" lon="11.1857896"><ele>191.85714285714286</ele><time>2026-04-25T06:29:59.739Z</time></trkpt><trkpt lat="43.4377819" lon="11.1857754"><ele>194.28571428571428</ele><time>2026-04-25T06:30:02.728Z</time></trkpt><trkpt lat="43.4378528" lon="11.1857661"><ele>196.71428571428572</ele><time>2026-04-25T06:30:05.732Z</time></trkpt><trkpt lat="43.4379292" lon="11.1857493"><ele>199.14285714285717</ele><time>2026-04-25T06:30:08.735Z</time></trkpt><trkpt lat="43.4380024" lon="11.18574"><ele>201.57142857142858</ele><time>2026-04-25T06:30:11.703Z</time></trkpt><trkpt lat="43.4380855" lon="11.1857273"><ele>204.0</ele><time>2026-04-25T06:30:14.719Z</time></trkpt><trkpt lat="43.4381803" lon="11.1857277"><ele>204.0</ele><time>2026-04-25T06:30:17.738Z</time></trkpt><trkpt lat="43.4382474" lon="11.1857195"><ele>204.0</ele><time>2026-04-25T06:30:19.731Z</time></trkpt><trkpt lat="43.438324" lon="11.1856935"><ele>204.0</ele><time>2026-04-25T06:30:22.73Z</time></trkpt><trkpt lat="43.4384038" lon="11.185681"><ele>204.0</ele><time>2026-04-25T06:30:25.805Z</time></trkpt><trkpt lat="43.4384788" lon="11.1856455"><ele>204.0</ele><time>2026-04-25T06:30:29.714Z</time></trkpt><trkpt lat="43.4385538" lon="11.1856502"><ele>204.0</ele><time>2026-04-25T06:30:32.733Z</time></trkpt><trkpt lat="43.4386327" lon="11.1856598"><ele>202.42857142857144</ele><time>2026-04-25T06:30:35.731Z</time></trkpt><trkpt lat="43.438714" lon="11.185641"><ele>200.85714285714286</ele><time>2026-04-25T06:30:38.726Z</time></trkpt><trkpt lat="43.4387733" lon="11.1855995"><ele>199.28571428571428</ele><time>2026-04-25T06:30:40.745Z</time></trkpt><trkpt lat="43.43883" lon="11.1855526"><ele>197.71428571428572</ele><time>2026-04-25T06:30:42.733Z</time></trkpt><trkpt lat="43.4389085" lon="11.1854825"><ele>196.14285714285714</ele><time>2026-04-25T06:30:45.809Z</time></trkpt><trkpt lat="43.4389628" lon="11.185436"><ele>194.57142857142858</ele><time>2026-04-25T06:30:47.728Z</time></trkpt><trkpt lat="43.4390139" lon="11.1853776"><ele>193.0</ele><time>2026-04-25T06:30:49.738Z</time></trkpt><trkpt lat="43.4390657" lon="11.1853169"><ele>192.99999999999997</ele><time>2026-04-25T06:30:51.749Z</time></trkpt><trkpt lat="43.4391291" lon="11.1852466"><ele>193.0</ele><time>2026-04-25T06:30:53.735Z</time></trkpt><trkpt lat="43.4391806" lon="11.1851574"><ele>193.0</ele><time>2026-04-25T06:30:55.808Z</time></trkpt><trkpt lat="43.4392376" lon="11.1850843"><ele>193.0</ele><time>2026-04-25T06:30:57.726Z</time></trkpt><trkpt lat="43.4392752" lon="11.1850132"><ele>192.99999999999997</ele><time>2026-04-25T06:30:59.725Z</time></trkpt><trkpt lat="43.439335" lon="11.184927"><ele>193.0</ele><time>2026-04-25T06:31:01.746Z</time></trkpt><trkpt lat="43.4393825" lon="11.1848469"><ele>191.49999999999997</ele><time>2026-04-25T06:31:03.715Z</time></trkpt><trkpt lat="43.4394289" lon="11.1847625"><ele>190.0</ele><time>2026-04-25T06:31:05.742Z</time></trkpt><trkpt lat="43.4394772" lon="11.1846665"><ele>188.5</ele><time>2026-04-25T06:31:07.739Z</time></trkpt><trkpt lat="43.4395181" lon="11.1845732"><ele>187.0</ele><time>2026-04-25T06:31:09.732Z</time></trkpt><trkpt lat="43.4395625" lon="11.1844817"><ele>185.5</ele><time>2026-04-25T06:31:11.743Z</time></trkpt><trkpt lat="43.439603" lon="11.1843877"><ele>184.0</ele><time>2026-04-25T06:31:13.742Z</time></trkpt><trkpt lat="43.4396604" lon="11.1842898"><ele>184.0</ele><time>2026-04-25T06:31:15.74Z</time></trkpt><trkpt lat="43.4397226" lon="11.1841871"><ele>184.0</ele><time>2026-04-25T06:31:17.739Z</time></trkpt><trkpt lat="43.4397799" lon="11.1840778"><ele>184.0</ele><time>2026-04-25T06:31:19.734Z</time></trkpt><trkpt lat="43.439835" lon="11.1839799"><ele>184.0</ele><time>2026-04-25T06:31:21.731Z</time></trkpt><trkpt lat="43.439885" lon="11.1838825"><ele>184.0</ele><time>2026-04-25T06:31:23.73Z</time></trkpt><trkpt lat="43.4399406" lon="11.1837825"><ele>183.6</ele><time>2026-04-25T06:31:25.728Z</time></trkpt><trkpt lat="43.439993" lon="11.1836675"><ele>183.2</ele><time>2026-04-25T06:31:27.737Z</time></trkpt><trkpt lat="43.4400544" lon="11.1835581"><ele>182.79999999999998</ele><time>2026-04-25T06:31:29.716Z</time></trkpt><trkpt lat="43.4401179" lon="11.1834476"><ele>182.39999999999998</ele><time>2026-04-25T06:31:31.731Z</time></trkpt><trkpt lat="43.4401887" lon="11.1833266"><ele>182.0</ele><time>2026-04-25T06:31:33.737Z</time></trkpt><trkpt lat="43.4402561" lon="11.1832167"><ele>181.8</ele><time>2026-04-25T06:31:35.814Z</time></trkpt><trkpt lat="43.4403184" lon="11.1831055"><ele>181.6</ele><time>2026-04-25T06:31:37.726Z</time></trkpt><trkpt lat="43.4403828" lon="11.1830002"><ele>181.4</ele><time>2026-04-25T06:31:39.736Z</time></trkpt><trkpt lat="43.4404387" lon="11.1828919"><ele>181.20000000000002</ele><time>2026-04-25T06:31:41.751Z</time></trkpt><trkpt lat="43.4404915" lon="11.1827925"><ele>181.0</ele><time>2026-04-25T06:31:43.731Z</time></trkpt><trkpt lat="43.44054" lon="11.1827005"><ele>181.0</ele><time>2026-04-25T06:31:45.762Z</time></trkpt><trkpt lat="43.4405932" lon="11.1826205"><ele>181.0</ele><time>2026-04-25T06:31:47.738Z</time></trkpt><trkpt lat="43.4406424" lon="11.1825383"><ele>181.0</ele><time>2026-04-25T06:31:49.734Z</time></trkpt><trkpt lat="43.4406836" lon="11.1824515"><ele>181.0</ele><time>2026-04-25T06:31:51.734Z</time></trkpt><trkpt lat="43.4407361" lon="11.1823654"><ele>181.0</ele><time>2026-04-25T06:31:53.738Z</time></trkpt><trkpt lat="43.4407866" lon="11.1822818"><ele>181.0</ele><time>2026-04-25T06:31:55.737Z</time></trkpt><trkpt lat="43.44083" lon="11.1822012"><ele>180.42857142857142</ele><time>2026-04-25T06:31:57.731Z</time></trkpt><trkpt lat="43.4408744" lon="11.1821233"><ele>179.85714285714283</ele><time>2026-04-25T06:31:59.737Z</time></trkpt><trkpt lat="43.4409146" lon="11.1820391"><ele>179.28571428571428</ele><time>2026-04-25T06:32:01.741Z</time></trkpt><trkpt lat="43.4409557" lon="11.1819596"><ele>178.71428571428572</ele><time>2026-04-25T06:32:03.74Z</time></trkpt><trkpt lat="43.4409973" lon="11.1818812"><ele>178.14285714285714</ele><time>2026-04-25T06:32:05.745Z</time></trkpt><trkpt lat="43.4410413" lon="11.1818032"><ele>177.57142857142858</ele><time>2026-04-25T06:32:07.734Z</time></trkpt><trkpt lat="43.4410929" lon="11.1817327"><ele>177.0</ele><time>2026-04-25T06:32:09.744Z</time></trkpt><trkpt lat="43.4411452" lon="11.1816521"><ele>177.0</ele><time>2026-04-25T06:32:11.745Z</time></trkpt><trkpt lat="43.4411922" lon="11.1815692"><ele>177.0</ele><time>2026-04-25T06:32:13.74Z</time></trkpt><trkpt lat="43.4412505" lon="11.1814881"><ele>177.0</ele><time>2026-04-25T06:32:16.732Z</time></trkpt><trkpt lat="43.4412896" lon="11.1813934"><ele>177.0</ele><time>2026-04-25T06:32:20.738Z</time></trkpt><trkpt lat="43.4413364" lon="11.181312"><ele>177.0</ele><time>2026-04-25T06:32:25.748Z</time></trkpt><trkpt lat="43.4413945" lon="11.1812357"><ele>177.0</ele><time>2026-04-25T06:32:29.739Z</time></trkpt><trkpt lat="43.4414438" lon="11.1811801"><ele>177.2857142857143</ele><time>2026-04-25T06:32:32.729Z</time></trkpt><trkpt lat="43.441513" lon="11.1811153"><ele>177.57142857142856</ele><time>2026-04-25T06:32:36.744Z</time></trkpt><trkpt lat="43.4415738" lon="11.1810634"><ele>177.85714285714286</ele><time>2026-04-25T06:32:39.745Z</time></trkpt><trkpt lat="43.44163" lon="11.1810111"><ele>178.14285714285717</ele><time>2026-04-25T06:32:42.739Z</time></trkpt><trkpt lat="43.4416813" lon="11.1809397"><ele>178.42857142857144</ele><time>2026-04-25T06:32:45.741Z</time></trkpt><trkpt lat="43.4417381" lon="11.180859"><ele>178.71428571428572</ele><time>2026-04-25T06:32:48.743Z</time></trkpt><trkpt lat="43.441748" lon="11.1807716"><ele>179.0</ele><time>2026-04-25T06:33:03.727Z</time></trkpt><trkpt lat="43.4418134" lon="11.1807781"><ele>179.00000000000003</ele><time>2026-04-25T06:33:39.736Z</time></trkpt><trkpt lat="43.4418616" lon="11.18071"><ele>179.0</ele><time>2026-04-25T06:33:42.711Z</time></trkpt><trkpt lat="43.4419283" lon="11.1806266"><ele>179.0</ele><time>2026-04-25T06:33:45.747Z</time></trkpt><trkpt lat="43.4419791" lon="11.1805714"><ele>179.0</ele><time>2026-04-25T06:33:47.74Z</time></trkpt><trkpt lat="43.4420297" lon="11.1805045"><ele>179.0</ele><time>2026-04-25T06:33:49.743Z</time></trkpt><trkpt lat="43.4420835" lon="11.1804348"><ele>179.00000000000003</ele><time>2026-04-25T06:33:51.749Z</time></trkpt><trkpt lat="43.442147" lon="11.1803707"><ele>179.0</ele><time>2026-04-25T06:33:53.734Z</time></trkpt><trkpt lat="43.4422114" lon="11.1803136"><ele>178.83333333333331</ele><time>2026-04-25T06:33:55.722Z</time></trkpt><trkpt lat="43.4422697" lon="11.1802545"><ele>178.66666666666666</ele><time>2026-04-25T06:33:57.749Z</time></trkpt><trkpt lat="43.442332" lon="11.1801866"><ele>178.5</ele><time>2026-04-25T06:33:59.74Z</time></trkpt><trkpt lat="43.4423812" lon="11.1801172"><ele>178.33333333333334</ele><time>2026-04-25T06:34:01.802Z</time></trkpt><trkpt lat="43.4424418" lon="11.1800335"><ele>178.16666666666669</ele><time>2026-04-25T06:34:03.746Z</time></trkpt><trkpt lat="43.4425073" lon="11.1799608"><ele>178.0</ele><time>2026-04-25T06:34:05.732Z</time></trkpt><trkpt lat="43.442579" lon="11.1798941"><ele>178.0</ele><time>2026-04-25T06:34:08.748Z</time></trkpt><trkpt lat="43.4426476" lon="11.1798327"><ele>178.0</ele><time>2026-04-25T06:34:11.711Z</time></trkpt><trkpt lat="43.4427155" lon="11.1797643"><ele>178.0</ele><time>2026-04-25T06:34:14.742Z</time></trkpt><trkpt lat="43.4427881" lon="11.1796881"><ele>178.0</ele><time>2026-04-25T06:34:17.73Z</time></trkpt><trkpt lat="43.4428334" lon="11.1796007"><ele>178.0</ele><time>2026-04-25T06:34:20.739Z</time></trkpt><trkpt lat="43.4428669" lon="11.1795128"><ele>178.0</ele><time>2026-04-25T06:34:23.73Z</time></trkpt><trkpt lat="43.4428981" lon="11.1794323"><ele>178.0</ele><time>2026-04-25T06:34:26.748Z</time></trkpt><trkpt lat="43.4429526" lon="11.1793475"><ele>178.0</ele><time>2026-04-25T06:34:29.736Z</time></trkpt><trkpt lat="43.4430035" lon="11.1792831"><ele>178.0</ele><time>2026-04-25T06:34:31.732Z</time></trkpt><trkpt lat="43.4430921" lon="11.1792096"><ele>178.0</ele><time>2026-04-25T06:34:33.738Z</time></trkpt><trkpt lat="43.4431744" lon="11.1791509"><ele>178.0</ele><time>2026-04-25T06:34:35.729Z</time></trkpt><trkpt lat="43.443264" lon="11.1791481"><ele>178.0</ele><time>2026-04-25T06:34:37.705Z</time></trkpt><trkpt lat="43.4433236" lon="11.1792541"><ele>178.2</ele><time>2026-04-25T06:34:39.708Z</time></trkpt><trkpt lat="43.4433535" lon="11.1793935"><ele>178.4</ele><time>2026-04-25T06:34:41.79Z</time></trkpt><trkpt lat="43.4433152" lon="11.1794932"><ele>178.6</ele><time>2026-04-25T06:34:43.74Z</time></trkpt><trkpt lat="43.4432931" lon="11.1796218"><ele>178.79999999999998</ele><time>2026-04-25T06:34:45.73Z</time></trkpt><trkpt lat="43.4433446" lon="11.1797664"><ele>179.0</ele><time>2026-04-25T06:34:47.724Z</time></trkpt><trkpt lat="43.4433883" lon="11.1798434"><ele>177.6</ele><time>2026-04-25T06:34:48.739Z</time></trkpt><trkpt lat="43.4434258" lon="11.1799178"><ele>176.2</ele><time>2026-04-25T06:34:49.729Z</time></trkpt><trkpt lat="43.4434673" lon="11.1799861"><ele>174.79999999999998</ele><time>2026-04-25T06:34:50.743Z</time></trkpt><trkpt lat="43.443523" lon="11.1801347"><ele>173.39999999999998</ele><time>2026-04-25T06:34:52.716Z</time></trkpt><trkpt lat="43.443582" lon="11.1802683"><ele>172.0</ele><time>2026-04-25T06:34:54.739Z</time></trkpt><trkpt lat="43.4436408" lon="11.1803903"><ele>172.0</ele><time>2026-04-25T06:34:56.714Z</time></trkpt><trkpt lat="43.4436977" lon="11.1805208"><ele>172.0</ele><time>2026-04-25T06:34:58.749Z</time></trkpt><trkpt lat="43.4437556" lon="11.1806639"><ele>172.0</ele><time>2026-04-25T06:35:00.728Z</time></trkpt><trkpt lat="43.4438175" lon="11.1808066"><ele>172.0</ele><time>2026-04-25T06:35:02.716Z</time></trkpt><trkpt lat="43.4438814" lon="11.1809593"><ele>169.66666666666669</ele><time>2026-04-25T06:35:04.736Z</time></trkpt><trkpt lat="43.4439031" lon="11.1810431"><ele>167.33333333333334</ele><time>2026-04-25T06:35:05.707Z</time></trkpt><trkpt lat="43.4439185" lon="11.1811315"><ele>165.0</ele><time>2026-04-25T06:35:06.744Z</time></trkpt><trkpt lat="43.4439296" lon="11.181223"><ele>162.66666666666666</ele><time>2026-04-25T06:35:07.734Z</time></trkpt><trkpt lat="43.4439349" lon="11.1813848"><ele>160.33333333333331</ele><time>2026-04-25T06:35:09.737Z</time></trkpt><trkpt lat="43.4439391" lon="11.1815415"><ele>158.0</ele><time>2026-04-25T06:35:11.739Z</time></trkpt><trkpt lat="43.4439665" lon="11.1817022"><ele>157.20000000000002</ele><time>2026-04-25T06:35:13.735Z</time></trkpt><trkpt lat="43.444014" lon="11.1818412"><ele>156.4</ele><time>2026-04-25T06:35:15.731Z</time></trkpt><trkpt lat="43.444084" lon="11.1819621"><ele>155.60000000000002</ele><time>2026-04-25T06:35:17.715Z</time></trkpt><trkpt lat="43.4441602" lon="11.1820622"><ele>154.8</ele><time>2026-04-25T06:35:19.716Z</time></trkpt><trkpt lat="43.4442462" lon="11.182156"><ele>154.0</ele><time>2026-04-25T06:35:21.717Z</time></trkpt><trkpt lat="43.4443261" lon="11.1822596"><ele>153.4</ele><time>2026-04-25T06:35:23.71Z</time></trkpt><trkpt lat="43.4443794" lon="11.1823866"><ele>152.8</ele><time>2026-04-25T06:35:25.733Z</time></trkpt><trkpt lat="43.4444101" lon="11.1825361"><ele>152.2</ele><time>2026-04-25T06:35:27.714Z</time></trkpt><trkpt lat="43.4444604" lon="11.1826878"><ele>151.6</ele><time>2026-04-25T06:35:29.73Z</time></trkpt><trkpt lat="43.4445288" lon="11.1828035"><ele>151.0</ele><time>2026-04-25T06:35:31.797Z</time></trkpt><trkpt lat="43.4445761" lon="11.1828636"><ele>149.0</ele><time>2026-04-25T06:35:32.716Z</time></trkpt><trkpt lat="43.4446346" lon="11.1829097"><ele>147.0</ele><time>2026-04-25T06:35:33.734Z</time></trkpt><trkpt lat="43.4447654" lon="11.1829358"><ele>145.0</ele><time>2026-04-25T06:35:35.786Z</time></trkpt><trkpt lat="43.444846" lon="11.1829117"><ele>143.0</ele><time>2026-04-25T06:35:36.797Z</time></trkpt><trkpt lat="43.4449191" lon="11.1828657"><ele>141.0</ele><time>2026-04-25T06:35:37.725Z</time></trkpt><trkpt lat="43.4449836" lon="11.1828035"><ele>139.0</ele><time>2026-04-25T06:35:38.723Z</time></trkpt><trkpt lat="43.4450446" lon="11.1827383"><ele>139.0</ele><time>2026-04-25T06:35:39.722Z</time></trkpt><trkpt lat="43.4451061" lon="11.1826686"><ele>139.0</ele><time>2026-04-25T06:35:40.804Z</time></trkpt><trkpt lat="43.4451611" lon="11.1825952"><ele>139.0</ele><time>2026-04-25T06:35:41.802Z</time></trkpt><trkpt lat="43.4452153" lon="11.1825214"><ele>139.0</ele><time>2026-04-25T06:35:42.725Z</time></trkpt><trkpt lat="43.4452667" lon="11.1824538"><ele>139.0</ele><time>2026-04-25T06:35:43.747Z</time></trkpt><trkpt lat="43.4453145" lon="11.1823951"><ele>139.0</ele><time>2026-04-25T06:35:44.796Z</time></trkpt><trkpt lat="43.4454039" lon="11.1822667"><ele>140.0</ele><time>2026-04-25T06:35:46.806Z</time></trkpt><trkpt lat="43.4454582" lon="11.1822102"><ele>141.0</ele><time>2026-04-25T06:35:47.751Z</time></trkpt><trkpt lat="43.4455178" lon="11.18217"><ele>142.0</ele><time>2026-04-25T06:35:48.729Z</time></trkpt><trkpt lat="43.445586" lon="11.1821509"><ele>143.0</ele><time>2026-04-25T06:35:49.727Z</time></trkpt><trkpt lat="43.445656" lon="11.1821588"><ele>144.0</ele><time>2026-04-25T06:35:50.721Z</time></trkpt><trkpt lat="43.4457162" lon="11.1821915"><ele>145.0</ele><time>2026-04-25T06:35:51.728Z</time></trkpt><trkpt lat="43.4457706" lon="11.1822408"><ele>146.0</ele><time>2026-04-25T06:35:52.733Z</time></trkpt><trkpt lat="43.4458218" lon="11.1822943"><ele>142.5</ele><time>2026-04-25T06:35:53.738Z</time></trkpt><trkpt lat="43.4459158" lon="11.1823989"><ele>139.0</ele><time>2026-04-25T06:35:55.738Z</time></trkpt><trkpt lat="43.4460215" lon="11.1824774"><ele>135.5</ele><time>2026-04-25T06:35:57.744Z</time></trkpt><trkpt lat="43.4461205" lon="11.1825565"><ele>132.0</ele><time>2026-04-25T06:35:59.746Z</time></trkpt><trkpt lat="43.4462122" lon="11.1826128"><ele>132.0</ele><time>2026-04-25T06:36:01.726Z</time></trkpt><trkpt lat="43.446284" lon="11.1826461"><ele>132.0</ele><time>2026-04-25T06:36:03.706Z</time></trkpt><trkpt lat="43.4463535" lon="11.1826839"><ele>132.0</ele><time>2026-04-25T06:36:06.782Z</time></trkpt><trkpt lat="43.4463537" lon="11.1827734"><ele>132.0</ele><time>2026-04-25T06:36:10.8Z</time></trkpt><trkpt lat="43.4463201" lon="11.1828827"><ele>132.0</ele><time>2026-04-25T06:36:13.726Z</time></trkpt><trkpt lat="43.4462886" lon="11.1829817"><ele>132.0</ele><time>2026-04-25T06:36:16.809Z</time></trkpt><trkpt lat="43.4462634" lon="11.1830759"><ele>132.14285714285714</ele><time>2026-04-25T06:36:19.797Z</time></trkpt><trkpt lat="43.4462402" lon="11.1831868"><ele>132.28571428571428</ele><time>2026-04-25T06:36:23.737Z</time></trkpt><trkpt lat="43.4462196" lon="11.1832752"><ele>132.42857142857144</ele><time>2026-04-25T06:36:26.717Z</time></trkpt><trkpt lat="43.446201" lon="11.1833677"><ele>132.57142857142856</ele><time>2026-04-25T06:36:29.74Z</time></trkpt><trkpt lat="43.4461832" lon="11.1834728"><ele>132.71428571428572</ele><time>2026-04-25T06:36:32.71Z</time></trkpt><trkpt lat="43.4461664" lon="11.1835768"><ele>132.85714285714286</ele><time>2026-04-25T06:36:35.736Z</time></trkpt><trkpt lat="43.4461521" lon="11.1836747"><ele>133.0</ele><time>2026-04-25T06:36:38.726Z</time></trkpt><trkpt lat="43.4461295" lon="11.1837706"><ele>133.0</ele><time>2026-04-25T06:36:41.793Z</time></trkpt><trkpt lat="43.4461232" lon="11.1838579"><ele>133.0</ele><time>2026-04-25T06:36:44.804Z</time></trkpt><trkpt lat="43.4461167" lon="11.1839586"><ele>133.0</ele><time>2026-04-25T06:36:47.747Z</time></trkpt><trkpt lat="43.446111" lon="11.1840592"><ele>133.0</ele><time>2026-04-25T06:36:50.809Z</time></trkpt><trkpt lat="43.4460831" lon="11.1841444"><ele>133.0</ele><time>2026-04-25T06:36:52.727Z</time></trkpt><trkpt lat="43.4460663" lon="11.1842486"><ele>133.0</ele><time>2026-04-25T06:36:56.796Z</time></trkpt><trkpt lat="43.4460582" lon="11.1843437"><ele>133.0</ele><time>2026-04-25T06:36:59.795Z</time></trkpt><trkpt lat="43.4460495" lon="11.1844395"><ele>133.71428571428572</ele><time>2026-04-25T06:37:02.715Z</time></trkpt><trkpt lat="43.4460384" lon="11.1845311"><ele>134.42857142857144</ele><time>2026-04-25T06:37:05.709Z</time></trkpt><trkpt lat="43.4460309" lon="11.18462"><ele>135.14285714285714</ele><time>2026-04-25T06:37:08.745Z</time></trkpt><trkpt lat="43.4460033" lon="11.1847189"><ele>135.85714285714286</ele><time>2026-04-25T06:37:12.735Z</time></trkpt><trkpt lat="43.4460077" lon="11.1848072"><ele>136.57142857142858</ele><time>2026-04-25T06:37:17.727Z</time></trkpt><trkpt lat="43.4459938" lon="11.1848989"><ele>137.28571428571428</ele><time>2026-04-25T06:37:20.807Z</time></trkpt><trkpt lat="43.4459568" lon="11.1850152"><ele>138.0</ele><time>2026-04-25T06:37:24.799Z</time></trkpt><trkpt lat="43.4459374" lon="11.1851149"><ele>139.14285714285714</ele><time>2026-04-25T06:37:27.732Z</time></trkpt><trkpt lat="43.4459282" lon="11.1852135"><ele>140.2857142857143</ele><time>2026-04-25T06:37:31.808Z</time></trkpt><trkpt lat="43.4459192" lon="11.1853081"><ele>141.42857142857144</ele><time>2026-04-25T06:37:35.782Z</time></trkpt><trkpt lat="43.445905" lon="11.1854097"><ele>142.57142857142858</ele><time>2026-04-25T06:37:40.747Z</time></trkpt><trkpt lat="43.4458948" lon="11.1854997"><ele>143.71428571428572</ele><time>2026-04-25T06:37:44.73Z</time></trkpt><trkpt lat="43.4458789" lon="11.1856025"><ele>144.85714285714286</ele><time>2026-04-25T06:37:49.799Z</time></trkpt><trkpt lat="43.4458624" lon="11.185702"><ele>146.0</ele><time>2026-04-25T06:37:55.733Z</time></trkpt><trkpt lat="43.4458501" lon="11.1857966"><ele>147.28571428571428</ele><time>2026-04-25T06:38:00.763Z</time></trkpt><trkpt lat="43.4458441" lon="11.1858935"><ele>148.57142857142858</ele><time>2026-04-25T06:38:05.804Z</time></trkpt><trkpt lat="43.4458301" lon="11.1859941"><ele>149.85714285714286</ele><time>2026-04-25T06:38:10.717Z</time></trkpt><trkpt lat="43.445819" lon="11.1860805"><ele>151.14285714285714</ele><time>2026-04-25T06:38:15.716Z</time></trkpt><trkpt lat="43.445817" lon="11.186183"><ele>152.42857142857142</ele><time>2026-04-25T06:38:20.729Z</time></trkpt><trkpt lat="43.445809" lon="11.1862916"><ele>153.71428571428572</ele><time>2026-04-25T06:38:25.745Z</time></trkpt><trkpt lat="43.4458015" lon="11.1863781"><ele>155.0</ele><time>2026-04-25T06:38:29.732Z</time></trkpt><trkpt lat="43.4457823" lon="11.1864673"><ele>156.0</ele><time>2026-04-25T06:38:33.732Z</time></trkpt><trkpt lat="43.4457713" lon="11.1865708"><ele>157.0</ele><time>2026-04-25T06:38:37.733Z</time></trkpt><trkpt lat="43.4457512" lon="11.186678"><ele>158.0</ele><time>2026-04-25T06:38:41.809Z</time></trkpt><trkpt lat="43.4457327" lon="11.1867797"><ele>159.0</ele><time>2026-04-25T06:38:44.8Z</time></trkpt><trkpt lat="43.4457368" lon="11.1868872"><ele>160.0</ele><time>2026-04-25T06:38:48.73Z</time></trkpt><trkpt lat="43.4457286" lon="11.186976"><ele>161.0</ele><time>2026-04-25T06:38:52.729Z</time></trkpt><trkpt lat="43.4457223" lon="11.1870703"><ele>162.0</ele><time>2026-04-25T06:38:56.713Z</time></trkpt><trkpt lat="43.4457145" lon="11.1871614"><ele>162.0</ele><time>2026-04-25T06:39:00.743Z</time></trkpt><trkpt lat="43.4457038" lon="11.1872621"><ele>162.0</ele><time>2026-04-25T06:39:05.74Z</time></trkpt><trkpt lat="43.4456957" lon="11.1873596"><ele>162.0</ele><time>2026-04-25T06:39:09.738Z</time></trkpt><trkpt lat="43.4456867" lon="11.1874607"><ele>162.0</ele><time>2026-04-25T06:39:13.727Z</time></trkpt><trkpt lat="43.4456656" lon="11.1875693"><ele>162.0</ele><time>2026-04-25T06:39:17.717Z</time></trkpt><trkpt lat="43.4456462" lon="11.1876554"><ele>162.0</ele><time>2026-04-25T06:39:20.79Z</time></trkpt><trkpt lat="43.445662" lon="11.1877655"><ele>162.0</ele><time>2026-04-25T06:39:24.799Z</time></trkpt><trkpt lat="43.4456675" lon="11.1878743"><ele>162.33333333333334</ele><time>2026-04-25T06:39:28.717Z</time></trkpt><trkpt lat="43.4456608" lon="11.1879761"><ele>162.66666666666666</ele><time>2026-04-25T06:39:32.734Z</time></trkpt><trkpt lat="43.4456533" lon="11.188082"><ele>163.0</ele><time>2026-04-25T06:39:36.734Z</time></trkpt><trkpt lat="43.4456491" lon="11.1881897"><ele>163.33333333333331</ele><time>2026-04-25T06:39:40.728Z</time></trkpt><trkpt lat="43.4456406" lon="11.1882916"><ele>163.66666666666666</ele><time>2026-04-25T06:39:44.723Z</time></trkpt><trkpt lat="43.4456209" lon="11.1883924"><ele>164.0</ele><time>2026-04-25T06:39:48.71Z</time></trkpt><trkpt lat="43.4456001" lon="11.1884883"><ele>164.66666666666666</ele><time>2026-04-25T06:39:52.73Z</time></trkpt><trkpt lat="43.4455653" lon="11.188595"><ele>165.33333333333331</ele><time>2026-04-25T06:39:56.744Z</time></trkpt><trkpt lat="43.4455473" lon="11.1886962"><ele>166.0</ele><time>2026-04-25T06:39:59.73Z</time></trkpt><trkpt lat="43.4455186" lon="11.1888006"><ele>166.66666666666666</ele><time>2026-04-25T06:40:03.716Z</time></trkpt><trkpt lat="43.4455222" lon="11.1889114"><ele>167.33333333333334</ele><time>2026-04-25T06:40:07.722Z</time></trkpt><trkpt lat="43.445506" lon="11.1890148"><ele>168.0</ele><time>2026-04-25T06:40:11.804Z</time></trkpt><trkpt lat="43.4454942" lon="11.1891263"><ele>168.33333333333334</ele><time>2026-04-25T06:40:15.736Z</time></trkpt><trkpt lat="43.4454892" lon="11.1892149"><ele>168.66666666666666</ele><time>2026-04-25T06:40:18.732Z</time></trkpt><trkpt lat="43.4454736" lon="11.1893225"><ele>169.0</ele><time>2026-04-25T06:40:22.743Z</time></trkpt><trkpt lat="43.4454434" lon="11.1893999"><ele>169.33333333333331</ele><time>2026-04-25T06:40:25.8Z</time></trkpt><trkpt lat="43.4453738" lon="11.1894836"><ele>169.66666666666666</ele><time>2026-04-25T06:40:28.739Z</time></trkpt><trkpt lat="43.4453721" lon="11.189586"><ele>170.0</ele><time>2026-04-25T06:40:32.747Z</time></trkpt><trkpt lat="43.4453614" lon="11.1896891"><ele>170.5</ele><time>2026-04-25T06:40:36.803Z</time></trkpt><trkpt lat="43.4453389" lon="11.1897963"><ele>171.0</ele><time>2026-04-25T06:40:40.739Z</time></trkpt><trkpt lat="43.4453143" lon="11.1898919"><ele>171.5</ele><time>2026-04-25T06:40:44.72Z</time></trkpt><trkpt lat="43.4453053" lon="11.189998"><ele>172.0</ele><time>2026-04-25T06:40:48.744Z</time></trkpt><trkpt lat="43.4452822" lon="11.1901015"><ele>172.5</ele><time>2026-04-25T06:40:52.732Z</time></trkpt><trkpt lat="43.4452572" lon="11.1902117"><ele>173.0</ele><time>2026-04-25T06:40:56.735Z</time></trkpt><trkpt lat="43.4452513" lon="11.1903045"><ele>173.85714285714286</ele><time>2026-04-25T06:41:00.789Z</time></trkpt><trkpt lat="43.4452336" lon="11.1903919"><ele>174.71428571428572</ele><time>2026-04-25T06:41:03.727Z</time></trkpt><trkpt lat="43.4452077" lon="11.190487"><ele>175.57142857142858</ele><time>2026-04-25T06:41:06.803Z</time></trkpt><trkpt lat="43.4451802" lon="11.1905835"><ele>176.42857142857144</ele><time>2026-04-25T06:41:09.731Z</time></trkpt><trkpt lat="43.4451626" lon="11.1906715"><ele>177.28571428571428</ele><time>2026-04-25T06:41:12.713Z</time></trkpt><trkpt lat="43.4451401" lon="11.1907554"><ele>178.14285714285717</ele><time>2026-04-25T06:41:15.798Z</time></trkpt><trkpt lat="43.4450952" lon="11.1908394"><ele>179.0</ele><time>2026-04-25T06:41:19.794Z</time></trkpt><trkpt lat="43.445085" lon="11.1909356"><ele>179.71428571428572</ele><time>2026-04-25T06:41:23.738Z</time></trkpt><trkpt lat="43.4450916" lon="11.1910261"><ele>180.42857142857144</ele><time>2026-04-25T06:41:26.737Z</time></trkpt><trkpt lat="43.4450667" lon="11.1911353"><ele>181.14285714285717</ele><time>2026-04-25T06:41:29.731Z</time></trkpt><trkpt lat="43.445048" lon="11.191242"><ele>181.85714285714286</ele><time>2026-04-25T06:41:32.741Z</time></trkpt><trkpt lat="43.4450306" lon="11.1913388"><ele>182.57142857142856</ele><time>2026-04-25T06:41:35.711Z</time></trkpt><trkpt lat="43.4450109" lon="11.1914263"><ele>183.2857142857143</ele><time>2026-04-25T06:41:38.746Z</time></trkpt><trkpt lat="43.4450064" lon="11.1915211"><ele>184.0</ele><time>2026-04-25T06:41:41.741Z</time></trkpt><trkpt lat="43.4449882" lon="11.1916071"><ele>184.0</ele><time>2026-04-25T06:41:44.734Z</time></trkpt><trkpt lat="43.4449656" lon="11.1917226"><ele>184.0</ele><time>2026-04-25T06:41:48.741Z</time></trkpt><trkpt lat="43.4449537" lon="11.1918085"><ele>184.0</ele><time>2026-04-25T06:41:51.808Z</time></trkpt><trkpt lat="43.4449528" lon="11.1918977"><ele>184.0</ele><time>2026-04-25T06:41:54.803Z</time></trkpt><trkpt lat="43.4449211" lon="11.1919823"><ele>184.0</ele><time>2026-04-25T06:41:57.732Z</time></trkpt><trkpt lat="43.4448916" lon="11.192093"><ele>184.0</ele><time>2026-04-25T06:42:00.735Z</time></trkpt><trkpt lat="43.4448798" lon="11.1922073"><ele>184.0</ele><time>2026-04-25T06:42:03.729Z</time></trkpt><trkpt lat="43.444868" lon="11.1923183"><ele>184.0</ele><time>2026-04-25T06:42:06.741Z</time></trkpt><trkpt lat="43.444853" lon="11.1924226"><ele>184.0</ele><time>2026-04-25T06:42:09.729Z</time></trkpt><trkpt lat="43.4448534" lon="11.1925352"><ele>184.0</ele><time>2026-04-25T06:42:12.736Z</time></trkpt><trkpt lat="43.4448478" lon="11.1926328"><ele>184.0</ele><time>2026-04-25T06:42:15.8Z</time></trkpt><trkpt lat="43.444828" lon="11.1927328"><ele>184.0</ele><time>2026-04-25T06:42:18.741Z</time></trkpt><trkpt lat="43.4448091" lon="11.192845"><ele>184.16666666666669</ele><time>2026-04-25T06:42:21.798Z</time></trkpt><trkpt lat="43.4448028" lon="11.1929364"><ele>184.33333333333334</ele><time>2026-04-25T06:42:24.724Z</time></trkpt><trkpt lat="43.444744" lon="11.1930379"><ele>184.5</ele><time>2026-04-25T06:42:27.718Z</time></trkpt><trkpt lat="43.4447144" lon="11.1931234"><ele>184.66666666666666</ele><time>2026-04-25T06:42:30.801Z</time></trkpt><trkpt lat="43.444686" lon="11.193216"><ele>184.83333333333331</ele><time>2026-04-25T06:42:34.799Z</time></trkpt><trkpt lat="43.4446338" lon="11.1932873"><ele>185.0</ele><time>2026-04-25T06:42:36.729Z</time></trkpt><trkpt lat="43.4446226" lon="11.1933903"><ele>186.14285714285714</ele><time>2026-04-25T06:42:40.737Z</time></trkpt><trkpt lat="43.4446009" lon="11.1934763"><ele>187.28571428571428</ele><time>2026-04-25T06:42:44.727Z</time></trkpt><trkpt lat="43.4445825" lon="11.1935883"><ele>188.42857142857144</ele><time>2026-04-25T06:42:48.729Z</time></trkpt><trkpt lat="43.444569" lon="11.1936837"><ele>189.57142857142856</ele><time>2026-04-25T06:42:51.8Z</time></trkpt><trkpt lat="43.4445476" lon="11.1937711"><ele>190.71428571428572</ele><time>2026-04-25T06:42:56.801Z</time></trkpt><trkpt lat="43.4445327" lon="11.1938699"><ele>191.85714285714286</ele><time>2026-04-25T06:42:59.749Z</time></trkpt><trkpt lat="43.4445248" lon="11.193966"><ele>193.0</ele><time>2026-04-25T06:43:02.72Z</time></trkpt><trkpt lat="43.4445167" lon="11.1940601"><ele>193.57142857142858</ele><time>2026-04-25T06:43:05.792Z</time></trkpt><trkpt lat="43.4445095" lon="11.194174"><ele>194.14285714285714</ele><time>2026-04-25T06:43:09.798Z</time></trkpt><trkpt lat="43.4445051" lon="11.1942849"><ele>194.71428571428572</ele><time>2026-04-25T06:43:13.747Z</time></trkpt><trkpt lat="43.4445028" lon="11.1943722"><ele>195.28571428571428</ele><time>2026-04-25T06:43:16.73Z</time></trkpt><trkpt lat="43.4444962" lon="11.1944664"><ele>195.85714285714286</ele><time>2026-04-25T06:43:19.711Z</time></trkpt><trkpt lat="43.4444949" lon="11.1945566"><ele>196.42857142857144</ele><time>2026-04-25T06:43:22.733Z</time></trkpt><trkpt lat="43.4444993" lon="11.1946445"><ele>197.0</ele><time>2026-04-25T06:43:25.725Z</time></trkpt><trkpt lat="43.4445112" lon="11.1947316"><ele>197.0</ele><time>2026-04-25T06:43:28.731Z</time></trkpt><trkpt lat="43.4445174" lon="11.1948352"><ele>197.0</ele><time>2026-04-25T06:43:31.794Z</time></trkpt><trkpt lat="43.4445086" lon="11.1949222"><ele>197.0</ele><time>2026-04-25T06:43:34.799Z</time></trkpt><trkpt lat="43.4445458" lon="11.1950126"><ele>197.0</ele><time>2026-04-25T06:43:37.744Z</time></trkpt><trkpt lat="43.4445853" lon="11.1950938"><ele>197.0</ele><time>2026-04-25T06:43:40.785Z</time></trkpt><trkpt lat="43.4446211" lon="11.1951694"><ele>197.0</ele><time>2026-04-25T06:43:43.717Z</time></trkpt><trkpt lat="43.4446282" lon="11.1952897"><ele>197.0</ele><time>2026-04-25T06:43:47.713Z</time></trkpt><trkpt lat="43.4446374" lon="11.1953962"><ele>196.50000000000003</ele><time>2026-04-25T06:43:51.737Z</time></trkpt><trkpt lat="43.4446613" lon="11.1954774"><ele>196.0</ele><time>2026-04-25T06:43:54.724Z</time></trkpt><trkpt lat="43.4446799" lon="11.1955865"><ele>195.5</ele><time>2026-04-25T06:43:58.729Z</time></trkpt><trkpt lat="43.4446989" lon="11.1956698"><ele>195.0</ele><time>2026-04-25T06:44:01.79Z</time></trkpt><trkpt lat="43.4447328" lon="11.1957644"><ele>194.50000000000003</ele><time>2026-04-25T06:44:04.728Z</time></trkpt><trkpt lat="43.4447524" lon="11.195883"><ele>194.0</ele><time>2026-04-25T06:44:09.788Z</time></trkpt><trkpt lat="43.4447597" lon="11.195991"><ele>195.14285714285714</ele><time>2026-04-25T06:44:13.735Z</time></trkpt><trkpt lat="43.4447775" lon="11.1961038"><ele>196.2857142857143</ele><time>2026-04-25T06:44:17.718Z</time></trkpt><trkpt lat="43.4447919" lon="11.1961927"><ele>197.42857142857144</ele><time>2026-04-25T06:44:20.797Z</time></trkpt><trkpt lat="43.4448069" lon="11.1963017"><ele>198.57142857142856</ele><time>2026-04-25T06:44:24.744Z</time></trkpt><trkpt lat="43.4448037" lon="11.1963928"><ele>199.71428571428572</ele><time>2026-04-25T06:44:28.713Z</time></trkpt><trkpt lat="43.4448228" lon="11.1965"><ele>200.85714285714286</ele><time>2026-04-25T06:44:33.743Z</time></trkpt><trkpt lat="43.4448477" lon="11.1965831"><ele>202.0</ele><time>2026-04-25T06:44:36.75Z</time></trkpt><trkpt lat="43.4448752" lon="11.1966779"><ele>203.28571428571428</ele><time>2026-04-25T06:44:40.8Z</time></trkpt><trkpt lat="43.4448984" lon="11.1967906"><ele>204.57142857142856</ele><time>2026-04-25T06:44:44.807Z</time></trkpt><trkpt lat="43.4449251" lon="11.1968736"><ele>205.85714285714286</ele><time>2026-04-25T06:44:47.735Z</time></trkpt><trkpt lat="43.4449564" lon="11.1969555"><ele>207.14285714285714</ele><time>2026-04-25T06:44:50.802Z</time></trkpt><trkpt lat="43.4449859" lon="11.1970331"><ele>208.42857142857144</ele><time>2026-04-25T06:44:53.724Z</time></trkpt><trkpt lat="43.445023" lon="11.1971284"><ele>209.71428571428572</ele><time>2026-04-25T06:44:56.794Z</time></trkpt><trkpt lat="43.4450506" lon="11.1972074"><ele>211.0</ele><time>2026-04-25T06:44:59.739Z</time></trkpt><trkpt lat="43.4450679" lon="11.1972985"><ele>211.85714285714286</ele><time>2026-04-25T06:45:02.747Z</time></trkpt><trkpt lat="43.4450943" lon="11.1973868"><ele>212.71428571428572</ele><time>2026-04-25T06:45:05.732Z</time></trkpt><trkpt lat="43.4451079" lon="11.1974895"><ele>213.57142857142856</ele><time>2026-04-25T06:45:08.73Z</time></trkpt><trkpt lat="43.4451218" lon="11.1975935"><ele>214.42857142857144</ele><time>2026-04-25T06:45:11.741Z</time></trkpt><trkpt lat="43.4451392" lon="11.1976884"><ele>215.28571428571428</ele><time>2026-04-25T06:45:14.803Z</time></trkpt><trkpt lat="43.4451402" lon="11.1977834"><ele>216.14285714285714</ele><time>2026-04-25T06:45:18.742Z</time></trkpt><trkpt lat="43.4451357" lon="11.1978743"><ele>217.0</ele><time>2026-04-25T06:45:20.784Z</time></trkpt><trkpt lat="43.4451337" lon="11.1979671"><ele>217.0</ele><time>2026-04-25T06:45:23.729Z</time></trkpt><trkpt lat="43.4451256" lon="11.1980685"><ele>217.0</ele><time>2026-04-25T06:45:27.72Z</time></trkpt><trkpt lat="43.445125" lon="11.1981609"><ele>217.0</ele><time>2026-04-25T06:45:30.81Z</time></trkpt><trkpt lat="43.445111" lon="11.1982707"><ele>217.0</ele><time>2026-04-25T06:45:34.779Z</time></trkpt><trkpt lat="43.4450877" lon="11.1983593"><ele>217.0</ele><time>2026-04-25T06:45:37.715Z</time></trkpt><trkpt lat="43.4450424" lon="11.1984374"><ele>217.0</ele><time>2026-04-25T06:45:41.733Z</time></trkpt><trkpt lat="43.4449745" lon="11.1985025"><ele>217.0</ele><time>2026-04-25T06:45:46.736Z</time></trkpt><trkpt lat="43.4449033" lon="11.1985353"><ele>217.16666666666666</ele><time>2026-04-25T06:45:50.805Z</time></trkpt><trkpt lat="43.4448583" lon="11.1985962"><ele>217.33333333333331</ele><time>2026-04-25T06:45:54.808Z</time></trkpt><trkpt lat="43.4447573" lon="11.1986889"><ele>217.5</ele><time>2026-04-25T06:45:58.72Z</time></trkpt><trkpt lat="43.4447052" lon="11.1987422"><ele>217.66666666666669</ele><time>2026-04-25T06:46:00.795Z</time></trkpt><trkpt lat="43.4446456" lon="11.1987783"><ele>217.83333333333334</ele><time>2026-04-25T06:46:04.804Z</time></trkpt><trkpt lat="43.444588" lon="11.1988286"><ele>218.0</ele><time>2026-04-25T06:46:07.729Z</time></trkpt><trkpt lat="43.4445233" lon="11.1988831"><ele>219.0</ele><time>2026-04-25T06:46:11.718Z</time></trkpt><trkpt lat="43.4445156" lon="11.1989766"><ele>220.0</ele><time>2026-04-25T06:46:13.726Z</time></trkpt><trkpt lat="43.444497" lon="11.1990753"><ele>221.0</ele><time>2026-04-25T06:46:16.742Z</time></trkpt><trkpt lat="43.4444643" lon="11.1991756"><ele>222.0</ele><time>2026-04-25T06:46:20.725Z</time></trkpt><trkpt lat="43.4444467" lon="11.199285"><ele>223.0</ele><time>2026-04-25T06:46:24.738Z</time></trkpt><trkpt lat="43.4444405" lon="11.1993813"><ele>224.00000000000003</ele><time>2026-04-25T06:46:28.73Z</time></trkpt><trkpt lat="43.4444454" lon="11.1994804"><ele>225.00000000000003</ele><time>2026-04-25T06:46:32.732Z</time></trkpt><trkpt lat="43.4444516" lon="11.1995697"><ele>225.00000000000003</ele><time>2026-04-25T06:46:35.791Z</time></trkpt><trkpt lat="43.4444508" lon="11.199677"><ele>225.0</ele><time>2026-04-25T06:46:38.728Z</time></trkpt><trkpt lat="43.4444753" lon="11.1997884"><ele>225.00000000000003</ele><time>2026-04-25T06:46:42.735Z</time></trkpt><trkpt lat="43.4444894" lon="11.1998952"><ele>225.00000000000003</ele><time>2026-04-25T06:46:46.719Z</time></trkpt><trkpt lat="43.4445206" lon="11.1999758"><ele>225.0</ele><time>2026-04-25T06:46:49.72Z</time></trkpt><trkpt lat="43.4445368" lon="11.2000618"><ele>225.00000000000003</ele><time>2026-04-25T06:46:52.735Z</time></trkpt><trkpt lat="43.4445494" lon="11.2001495"><ele>225.00000000000003</ele><time>2026-04-25T06:46:55.734Z</time></trkpt><trkpt lat="43.4445659" lon="11.2002599"><ele>225.28571428571433</ele><time>2026-04-25T06:46:59.804Z</time></trkpt><trkpt lat="43.444587" lon="11.2003438"><ele>225.57142857142858</ele><time>2026-04-25T06:47:02.753Z</time></trkpt><trkpt lat="43.4446106" lon="11.2004298"><ele>225.8571428571429</ele><time>2026-04-25T06:47:06.807Z</time></trkpt><trkpt lat="43.444621" lon="11.2005229"><ele>226.14285714285717</ele><time>2026-04-25T06:47:09.801Z</time></trkpt><trkpt lat="43.4446344" lon="11.2006233"><ele>226.42857142857144</ele><time>2026-04-25T06:47:12.724Z</time></trkpt><trkpt lat="43.4446466" lon="11.2007352"><ele>226.71428571428572</ele><time>2026-04-25T06:47:16.787Z</time></trkpt><trkpt lat="43.4446652" lon="11.2008307"><ele>227.0</ele><time>2026-04-25T06:47:19.8Z</time></trkpt><trkpt lat="43.444688" lon="11.2009252"><ele>227.00000000000003</ele><time>2026-04-25T06:47:22.754Z</time></trkpt><trkpt lat="43.4447103" lon="11.2010211"><ele>227.0</ele><time>2026-04-25T06:47:25.733Z</time></trkpt><trkpt lat="43.4447269" lon="11.201142"><ele>227.0</ele><time>2026-04-25T06:47:28.741Z</time></trkpt><trkpt lat="43.4447501" lon="11.2012443"><ele>227.0</ele><time>2026-04-25T06:47:31.727Z</time></trkpt><trkpt lat="43.4447628" lon="11.2013317"><ele>227.00000000000003</ele><time>2026-04-25T06:47:34.794Z</time></trkpt><trkpt lat="43.4447955" lon="11.2014285"><ele>227.0</ele><time>2026-04-25T06:47:38.742Z</time></trkpt><trkpt lat="43.444804" lon="11.2015338"><ele>226.83333333333334</ele><time>2026-04-25T06:47:41.798Z</time></trkpt><trkpt lat="43.4448181" lon="11.2016703"><ele>226.66666666666669</ele><time>2026-04-25T06:47:44.741Z</time></trkpt><trkpt lat="43.4448245" lon="11.2017724"><ele>226.5</ele><time>2026-04-25T06:47:46.736Z</time></trkpt><trkpt lat="43.4448175" lon="11.2018779"><ele>226.33333333333331</ele><time>2026-04-25T06:47:48.734Z</time></trkpt><trkpt lat="43.4448234" lon="11.201978"><ele>226.16666666666666</ele><time>2026-04-25T06:47:50.764Z</time></trkpt><trkpt lat="43.4448251" lon="11.2020788"><ele>226.0</ele><time>2026-04-25T06:47:52.732Z</time></trkpt><trkpt lat="43.4448189" lon="11.2021752"><ele>226.0</ele><time>2026-04-25T06:47:54.801Z</time></trkpt><trkpt lat="43.4448101" lon="11.202286"><ele>226.0</ele><time>2026-04-25T06:47:57.725Z</time></trkpt><trkpt lat="43.4447547" lon="11.2023712"><ele>226.0</ele><time>2026-04-25T06:48:00.752Z</time></trkpt><trkpt lat="43.4447294" lon="11.2024659"><ele>226.0</ele><time>2026-04-25T06:48:02.74Z</time></trkpt><trkpt lat="43.4447028" lon="11.2025514"><ele>226.0</ele><time>2026-04-25T06:48:04.733Z</time></trkpt><trkpt lat="43.4446685" lon="11.2026291"><ele>226.0</ele><time>2026-04-25T06:48:06.718Z</time></trkpt><trkpt lat="43.4446359" lon="11.2027115"><ele>226.0</ele><time>2026-04-25T06:48:08.747Z</time></trkpt><trkpt lat="43.4445959" lon="11.2028182"><ele>225.66666666666666</ele><time>2026-04-25T06:48:11.828Z</time></trkpt><trkpt lat="43.4445606" lon="11.2029286"><ele>225.33333333333331</ele><time>2026-04-25T06:48:14.741Z</time></trkpt><trkpt lat="43.444534" lon="11.2030417"><ele>225.0</ele><time>2026-04-25T06:48:17.734Z</time></trkpt><trkpt lat="43.444526" lon="11.2031578"><ele>224.66666666666669</ele><time>2026-04-25T06:48:20.747Z</time></trkpt><trkpt lat="43.4445092" lon="11.2032423"><ele>224.33333333333334</ele><time>2026-04-25T06:48:22.739Z</time></trkpt><trkpt lat="43.444504" lon="11.2033324"><ele>224.0</ele><time>2026-04-25T06:48:24.742Z</time></trkpt><trkpt lat="43.4445189" lon="11.2034267"><ele>224.00000000000003</ele><time>2026-04-25T06:48:26.814Z</time></trkpt><trkpt lat="43.4445529" lon="11.2035224"><ele>224.0</ele><time>2026-04-25T06:48:28.731Z</time></trkpt><trkpt lat="43.444588" lon="11.2036156"><ele>224.0</ele><time>2026-04-25T06:48:30.791Z</time></trkpt><trkpt lat="43.4446281" lon="11.2037106"><ele>224.0</ele><time>2026-04-25T06:48:32.729Z</time></trkpt><trkpt lat="43.4446558" lon="11.2038067"><ele>224.00000000000003</ele><time>2026-04-25T06:48:34.743Z</time></trkpt><trkpt lat="43.4446771" lon="11.2039044"><ele>224.0</ele><time>2026-04-25T06:48:36.74Z</time></trkpt><trkpt lat="43.444702" lon="11.2040126"><ele>223.6</ele><time>2026-04-25T06:48:38.741Z</time></trkpt><trkpt lat="43.4447258" lon="11.2041323"><ele>223.2</ele><time>2026-04-25T06:48:40.733Z</time></trkpt><trkpt lat="43.4447414" lon="11.2042581"><ele>222.79999999999998</ele><time>2026-04-25T06:48:42.715Z</time></trkpt><trkpt lat="43.4447469" lon="11.2043942"><ele>222.39999999999998</ele><time>2026-04-25T06:48:44.731Z</time></trkpt><trkpt lat="43.4447429" lon="11.204524"><ele>222.0</ele><time>2026-04-25T06:48:46.804Z</time></trkpt><trkpt lat="43.4447353" lon="11.2046497"><ele>222.0</ele><time>2026-04-25T06:48:48.729Z</time></trkpt><trkpt lat="43.444726" lon="11.2047663"><ele>222.0</ele><time>2026-04-25T06:48:50.725Z</time></trkpt><trkpt lat="43.4447032" lon="11.2048516"><ele>222.0</ele><time>2026-04-25T06:48:52.717Z</time></trkpt><trkpt lat="43.4446938" lon="11.2049485"><ele>222.0</ele><time>2026-04-25T06:48:54.721Z</time></trkpt><trkpt lat="43.4447012" lon="11.2050552"><ele>222.0</ele><time>2026-04-25T06:48:56.803Z</time></trkpt><trkpt lat="43.4446796" lon="11.2051767"><ele>222.0</ele><time>2026-04-25T06:48:59.723Z</time></trkpt><trkpt lat="43.4446763" lon="11.2053015"><ele>222.16666666666666</ele><time>2026-04-25T06:49:02.735Z</time></trkpt><trkpt lat="43.4446792" lon="11.2054392"><ele>222.33333333333331</ele><time>2026-04-25T06:49:05.73Z</time></trkpt><trkpt lat="43.4446676" lon="11.2055526"><ele>222.5</ele><time>2026-04-25T06:49:08.74Z</time></trkpt><trkpt lat="43.4446643" lon="11.2056643"><ele>222.66666666666666</ele><time>2026-04-25T06:49:10.735Z</time></trkpt><trkpt lat="43.4446636" lon="11.2057604"><ele>222.83333333333331</ele><time>2026-04-25T06:49:12.736Z</time></trkpt><trkpt lat="43.4446684" lon="11.205858"><ele>223.0</ele><time>2026-04-25T06:49:14.733Z</time></trkpt><trkpt lat="43.4446822" lon="11.2059832"><ele>223.42857142857142</ele><time>2026-04-25T06:49:17.735Z</time></trkpt><trkpt lat="43.4446991" lon="11.2060669"><ele>223.85714285714283</ele><time>2026-04-25T06:49:19.801Z</time></trkpt><trkpt lat="43.4447337" lon="11.2061866"><ele>224.28571428571428</ele><time>2026-04-25T06:49:22.735Z</time></trkpt><trkpt lat="43.4447633" lon="11.2062709"><ele>224.71428571428572</ele><time>2026-04-25T06:49:24.721Z</time></trkpt><trkpt lat="43.4447883" lon="11.2063517"><ele>225.14285714285714</ele><time>2026-04-25T06:49:26.774Z</time></trkpt><trkpt lat="43.4448215" lon="11.2064533"><ele>225.57142857142858</ele><time>2026-04-25T06:49:29.796Z</time></trkpt><trkpt lat="43.4448452" lon="11.2065542"><ele>226.0</ele><time>2026-04-25T06:49:32.738Z</time></trkpt><trkpt lat="43.4448753" lon="11.2066672"><ele>226.42857142857144</ele><time>2026-04-25T06:49:35.794Z</time></trkpt><trkpt lat="43.4449143" lon="11.2067442"><ele>226.85714285714283</ele><time>2026-04-25T06:49:37.73Z</time></trkpt><trkpt lat="43.4449536" lon="11.2068271"><ele>227.28571428571428</ele><time>2026-04-25T06:49:39.735Z</time></trkpt><trkpt lat="43.4449881" lon="11.206914"><ele>227.71428571428572</ele><time>2026-04-25T06:49:41.729Z</time></trkpt><trkpt lat="43.445026" lon="11.2069953"><ele>228.14285714285717</ele><time>2026-04-25T06:49:43.743Z</time></trkpt><trkpt lat="43.4450674" lon="11.2070775"><ele>228.57142857142856</ele><time>2026-04-25T06:49:45.73Z</time></trkpt><trkpt lat="43.4451064" lon="11.2071713"><ele>229.0</ele><time>2026-04-25T06:49:47.728Z</time></trkpt><trkpt lat="43.4451392" lon="11.2072606"><ele>228.83333333333331</ele><time>2026-04-25T06:49:49.736Z</time></trkpt><trkpt lat="43.4451704" lon="11.2073576"><ele>228.66666666666666</ele><time>2026-04-25T06:49:51.73Z</time></trkpt><trkpt lat="43.4451967" lon="11.2074482"><ele>228.5</ele><time>2026-04-25T06:49:53.715Z</time></trkpt><trkpt lat="43.4452239" lon="11.207569"><ele>228.33333333333331</ele><time>2026-04-25T06:49:56.738Z</time></trkpt><trkpt lat="43.4452372" lon="11.2076834"><ele>228.16666666666666</ele><time>2026-04-25T06:49:59.72Z</time></trkpt><trkpt lat="43.4452196" lon="11.207794"><ele>228.0</ele><time>2026-04-25T06:50:02.716Z</time></trkpt><trkpt lat="43.445222" lon="11.2079069"><ele>228.0</ele><time>2026-04-25T06:50:05.743Z</time></trkpt><trkpt lat="43.4452284" lon="11.2080207"><ele>228.0</ele><time>2026-04-25T06:50:08.729Z</time></trkpt><trkpt lat="43.4452199" lon="11.208113"><ele>228.0</ele><time>2026-04-25T06:50:10.72Z</time></trkpt><trkpt lat="43.4452037" lon="11.2081974"><ele>228.0</ele><time>2026-04-25T06:50:12.729Z</time></trkpt><trkpt lat="43.4451876" lon="11.2083031"><ele>228.0</ele><time>2026-04-25T06:50:14.804Z</time></trkpt><trkpt lat="43.445168" lon="11.2084211"><ele>228.0</ele><time>2026-04-25T06:50:16.722Z</time></trkpt><trkpt lat="43.445154" lon="11.2085201"><ele>227.4</ele><time>2026-04-25T06:50:18.735Z</time></trkpt><trkpt lat="43.4451363" lon="11.2086171"><ele>226.8</ele><time>2026-04-25T06:50:20.743Z</time></trkpt><trkpt lat="43.4451196" lon="11.2087209"><ele>226.2</ele><time>2026-04-25T06:50:22.724Z</time></trkpt><trkpt lat="43.4450945" lon="11.2088461"><ele>225.6</ele><time>2026-04-25T06:50:24.732Z</time></trkpt><trkpt lat="43.4450664" lon="11.2089864"><ele>225.0</ele><time>2026-04-25T06:50:26.727Z</time></trkpt><trkpt lat="43.44503" lon="11.2091396"><ele>224.66666666666666</ele><time>2026-04-25T06:50:28.732Z</time></trkpt><trkpt lat="43.4450014" lon="11.2092961"><ele>224.33333333333331</ele><time>2026-04-25T06:50:30.8Z</time></trkpt><trkpt lat="43.4449846" lon="11.2093801"><ele>224.0</ele><time>2026-04-25T06:50:31.736Z</time></trkpt><trkpt lat="43.4449691" lon="11.2094698"><ele>223.66666666666666</ele><time>2026-04-25T06:50:32.732Z</time></trkpt><trkpt lat="43.4449603" lon="11.209559"><ele>223.33333333333331</ele><time>2026-04-25T06:50:33.72Z</time></trkpt><trkpt lat="43.4449472" lon="11.2096511"><ele>223.0</ele><time>2026-04-25T06:50:34.729Z</time></trkpt><trkpt lat="43.4449045" lon="11.2097849"><ele>222.2</ele><time>2026-04-25T06:50:36.797Z</time></trkpt><trkpt lat="43.4448628" lon="11.2099092"><ele>221.4</ele><time>2026-04-25T06:50:38.744Z</time></trkpt><trkpt lat="43.4448325" lon="11.210041"><ele>220.59999999999997</ele><time>2026-04-25T06:50:40.712Z</time></trkpt><trkpt lat="43.4447963" lon="11.2101937"><ele>219.79999999999998</ele><time>2026-04-25T06:50:42.721Z</time></trkpt><trkpt lat="43.4447639" lon="11.2103352"><ele>219.0</ele><time>2026-04-25T06:50:44.812Z</time></trkpt><trkpt lat="43.4447248" lon="11.2104879"><ele>219.0</ele><time>2026-04-25T06:50:46.733Z</time></trkpt><trkpt lat="43.4446876" lon="11.2106356"><ele>218.99999999999997</ele><time>2026-04-25T06:50:48.735Z</time></trkpt><trkpt lat="43.4446546" lon="11.2107791"><ele>218.99999999999997</ele><time>2026-04-25T06:50:50.724Z</time></trkpt><trkpt lat="43.4446203" lon="11.2109202"><ele>219.0</ele><time>2026-04-25T06:50:52.749Z</time></trkpt><trkpt lat="43.4445932" lon="11.2110495"><ele>219.0</ele><time>2026-04-25T06:50:54.736Z</time></trkpt><trkpt lat="43.4445585" lon="11.2111761"><ele>218.83333333333334</ele><time>2026-04-25T06:50:56.731Z</time></trkpt><trkpt lat="43.4445283" lon="11.2112894"><ele>218.66666666666669</ele><time>2026-04-25T06:50:58.737Z</time></trkpt><trkpt lat="43.4444913" lon="11.2113858"><ele>218.5</ele><time>2026-04-25T06:51:00.793Z</time></trkpt><trkpt lat="43.4444509" lon="11.2114878"><ele>218.33333333333334</ele><time>2026-04-25T06:51:02.761Z</time></trkpt><trkpt lat="43.4444141" lon="11.211595"><ele>218.16666666666669</ele><time>2026-04-25T06:51:04.795Z</time></trkpt><trkpt lat="43.444342" lon="11.2117011"><ele>218.0</ele><time>2026-04-25T06:51:06.814Z</time></trkpt><trkpt lat="43.4442959" lon="11.2117852"><ele>218.0</ele><time>2026-04-25T06:51:08.741Z</time></trkpt><trkpt lat="43.4443099" lon="11.2118866"><ele>218.0</ele><time>2026-04-25T06:51:10.735Z</time></trkpt><trkpt lat="43.4443052" lon="11.2119796"><ele>218.0</ele><time>2026-04-25T06:51:12.73Z</time></trkpt><trkpt lat="43.4442983" lon="11.2120767"><ele>218.0</ele><time>2026-04-25T06:51:14.804Z</time></trkpt><trkpt lat="43.4443067" lon="11.2121751"><ele>218.0</ele><time>2026-04-25T06:51:16.731Z</time></trkpt><trkpt lat="43.4442895" lon="11.2122784"><ele>218.0</ele><time>2026-04-25T06:51:19.796Z</time></trkpt><trkpt lat="43.4443126" lon="11.2123684"><ele>218.0</ele><time>2026-04-25T06:51:21.739Z</time></trkpt><trkpt lat="43.4443289" lon="11.2124597"><ele>219.0</ele><time>2026-04-25T06:51:24.729Z</time></trkpt><trkpt lat="43.4443341" lon="11.2125472"><ele>220.0</ele><time>2026-04-25T06:51:28.73Z</time></trkpt><trkpt lat="43.4443355" lon="11.2126439"><ele>221.0</ele><time>2026-04-25T06:51:33.734Z</time></trkpt><trkpt lat="43.4443407" lon="11.2127336"><ele>222.0</ele><time>2026-04-25T06:51:37.734Z</time></trkpt><trkpt lat="43.4443362" lon="11.2128293"><ele>223.0</ele><time>2026-04-25T06:51:42.717Z</time></trkpt><trkpt lat="43.4443481" lon="11.2129385"><ele>224.00000000000003</ele><time>2026-04-25T06:51:47.737Z</time></trkpt><trkpt lat="43.4443378" lon="11.2130247"><ele>225.00000000000003</ele><time>2026-04-25T06:51:51.729Z</time></trkpt><trkpt lat="43.4443047" lon="11.2131198"><ele>225.42857142857144</ele><time>2026-04-25T06:51:56.736Z</time></trkpt><trkpt lat="43.4442615" lon="11.2131989"><ele>225.85714285714286</ele><time>2026-04-25T06:52:00.735Z</time></trkpt><trkpt lat="43.4442206" lon="11.2132709"><ele>226.28571428571428</ele><time>2026-04-25T06:52:03.735Z</time></trkpt><trkpt lat="43.4441652" lon="11.2133526"><ele>226.71428571428572</ele><time>2026-04-25T06:52:07.732Z</time></trkpt><trkpt lat="43.4441284" lon="11.2134271"><ele>227.1428571428571</ele><time>2026-04-25T06:52:10.733Z</time></trkpt><trkpt lat="43.4440923" lon="11.2135104"><ele>227.57142857142856</ele><time>2026-04-25T06:52:13.724Z</time></trkpt><trkpt lat="43.4440532" lon="11.2135804"><ele>228.0</ele><time>2026-04-25T06:52:16.748Z</time></trkpt><trkpt lat="43.4439948" lon="11.2136428"><ele>228.0</ele><time>2026-04-25T06:52:19.725Z</time></trkpt><trkpt lat="43.4439336" lon="11.2136801"><ele>228.0</ele><time>2026-04-25T06:52:22.706Z</time></trkpt><trkpt lat="43.4438713" lon="11.2137072"><ele>228.0</ele><time>2026-04-25T06:52:25.737Z</time></trkpt><trkpt lat="43.4437826" lon="11.2137501"><ele>228.0</ele><time>2026-04-25T06:52:28.731Z</time></trkpt><trkpt lat="43.4437378" lon="11.2138113"><ele>228.0</ele><time>2026-04-25T06:52:30.717Z</time></trkpt><trkpt lat="43.4436841" lon="11.2138953"><ele>228.0</ele><time>2026-04-25T06:52:33.729Z</time></trkpt><trkpt lat="43.4436303" lon="11.2139894"><ele>228.33333333333334</ele><time>2026-04-25T06:52:36.723Z</time></trkpt><trkpt lat="43.4435787" lon="11.2140891"><ele>228.66666666666669</ele><time>2026-04-25T06:52:39.733Z</time></trkpt><trkpt lat="43.4435336" lon="11.2141714"><ele>229.0</ele><time>2026-04-25T06:52:43.735Z</time></trkpt><trkpt lat="43.4434891" lon="11.2142791"><ele>229.33333333333334</ele><time>2026-04-25T06:52:46.746Z</time></trkpt><trkpt lat="43.4434514" lon="11.214369"><ele>229.66666666666669</ele><time>2026-04-25T06:52:49.738Z</time></trkpt><trkpt lat="43.4434095" lon="11.2144657"><ele>230.0</ele><time>2026-04-25T06:52:52.737Z</time></trkpt><trkpt lat="43.4433718" lon="11.2145597"><ele>230.00000000000003</ele><time>2026-04-25T06:52:55.728Z</time></trkpt><trkpt lat="43.4433359" lon="11.214661"><ele>230.0</ele><time>2026-04-25T06:52:58.729Z</time></trkpt><trkpt lat="43.4433052" lon="11.2147375"><ele>230.0</ele><time>2026-04-25T06:53:01.737Z</time></trkpt><trkpt lat="43.4432724" lon="11.2148296"><ele>230.0</ele><time>2026-04-25T06:53:04.73Z</time></trkpt><trkpt lat="43.4432483" lon="11.2149358"><ele>230.00000000000003</ele><time>2026-04-25T06:53:07.748Z</time></trkpt><trkpt lat="43.4432259" lon="11.2150362"><ele>230.0</ele><time>2026-04-25T06:53:10.732Z</time></trkpt><trkpt lat="43.4432046" lon="11.2151394"><ele>230.83333333333334</ele><time>2026-04-25T06:53:13.726Z</time></trkpt><trkpt lat="43.4431891" lon="11.2152355"><ele>231.66666666666669</ele><time>2026-04-25T06:53:16.817Z</time></trkpt><trkpt lat="43.4431736" lon="11.2153247"><ele>232.5</ele><time>2026-04-25T06:53:19.729Z</time></trkpt><trkpt lat="43.4431461" lon="11.2154371"><ele>233.33333333333331</ele><time>2026-04-25T06:53:23.714Z</time></trkpt><trkpt lat="43.4431308" lon="11.2155375"><ele>234.16666666666666</ele><time>2026-04-25T06:53:26.746Z</time></trkpt><trkpt lat="43.4431166" lon="11.215646"><ele>235.0</ele><time>2026-04-25T06:53:30.719Z</time></trkpt><trkpt lat="43.443098" lon="11.215745"><ele>235.83333333333331</ele><time>2026-04-25T06:53:34.74Z</time></trkpt><trkpt lat="43.4430709" lon="11.2158506"><ele>236.66666666666666</ele><time>2026-04-25T06:53:38.742Z</time></trkpt><trkpt lat="43.4430417" lon="11.2159581"><ele>237.5</ele><time>2026-04-25T06:53:42.732Z</time></trkpt><trkpt lat="43.4430187" lon="11.2160624"><ele>238.33333333333331</ele><time>2026-04-25T06:53:46.731Z</time></trkpt><trkpt lat="43.4429957" lon="11.216151"><ele>239.16666666666666</ele><time>2026-04-25T06:53:49.732Z</time></trkpt><trkpt lat="43.4429838" lon="11.2162367"><ele>240.0</ele><time>2026-04-25T06:53:52.73Z</time></trkpt><trkpt lat="43.4429718" lon="11.2163437"><ele>240.42857142857144</ele><time>2026-04-25T06:53:56.712Z</time></trkpt><trkpt lat="43.4429633" lon="11.2164494"><ele>240.85714285714283</ele><time>2026-04-25T06:54:00.802Z</time></trkpt><trkpt lat="43.442951" lon="11.216547"><ele>241.28571428571428</ele><time>2026-04-25T06:54:03.743Z</time></trkpt><trkpt lat="43.4429491" lon="11.2166364"><ele>241.71428571428572</ele><time>2026-04-25T06:54:06.792Z</time></trkpt><trkpt lat="43.4429516" lon="11.2167388"><ele>242.14285714285717</ele><time>2026-04-25T06:54:09.721Z</time></trkpt><trkpt lat="43.4429714" lon="11.2168347"><ele>242.57142857142856</ele><time>2026-04-25T06:54:12.71Z</time></trkpt><trkpt lat="43.442988" lon="11.2169365"><ele>243.0</ele><time>2026-04-25T06:54:15.735Z</time></trkpt><trkpt lat="43.4430064" lon="11.2170524"><ele>243.0</ele><time>2026-04-25T06:54:18.738Z</time></trkpt><trkpt lat="43.4430173" lon="11.2171466"><ele>243.0</ele><time>2026-04-25T06:54:20.751Z</time></trkpt><trkpt lat="43.4430287" lon="11.2172374"><ele>243.0</ele><time>2026-04-25T06:54:22.73Z</time></trkpt><trkpt lat="43.4430434" lon="11.2173383"><ele>243.0</ele><time>2026-04-25T06:54:24.734Z</time></trkpt><trkpt lat="43.4430608" lon="11.2174461"><ele>243.0</ele><time>2026-04-25T06:54:26.725Z</time></trkpt><trkpt lat="43.4430794" lon="11.2175701"><ele>243.0</ele><time>2026-04-25T06:54:28.736Z</time></trkpt><trkpt lat="43.4431018" lon="11.2176996"><ele>243.0</ele><time>2026-04-25T06:54:30.744Z</time></trkpt><trkpt lat="43.4431262" lon="11.2178266"><ele>243.0</ele><time>2026-04-25T06:54:32.731Z</time></trkpt><trkpt lat="43.4431473" lon="11.2179642"><ele>243.0</ele><time>2026-04-25T06:54:34.733Z</time></trkpt><trkpt lat="43.4431693" lon="11.218103"><ele>243.0</ele><time>2026-04-25T06:54:36.73Z</time></trkpt><trkpt lat="43.4431976" lon="11.2182354"><ele>243.0</ele><time>2026-04-25T06:54:38.716Z</time></trkpt><trkpt lat="43.443217" lon="11.2183582"><ele>242.2</ele><time>2026-04-25T06:54:40.739Z</time></trkpt><trkpt lat="43.4432358" lon="11.2184794"><ele>241.4</ele><time>2026-04-25T06:54:42.725Z</time></trkpt><trkpt lat="43.4432567" lon="11.2185991"><ele>240.59999999999997</ele><time>2026-04-25T06:54:44.735Z</time></trkpt><trkpt lat="43.4432796" lon="11.2187206"><ele>239.79999999999998</ele><time>2026-04-25T06:54:46.729Z</time></trkpt><trkpt lat="43.4433073" lon="11.2188533"><ele>239.0</ele><time>2026-04-25T06:54:48.731Z</time></trkpt><trkpt lat="43.443342" lon="11.2189974"><ele>238.0</ele><time>2026-04-25T06:54:50.729Z</time></trkpt><trkpt lat="43.4433731" lon="11.2191431"><ele>236.99999999999997</ele><time>2026-04-25T06:54:52.731Z</time></trkpt><trkpt lat="43.4434024" lon="11.2192857"><ele>235.99999999999997</ele><time>2026-04-25T06:54:54.734Z</time></trkpt><trkpt lat="43.4434286" lon="11.2194381"><ele>235.0</ele><time>2026-04-25T06:54:56.728Z</time></trkpt><trkpt lat="43.4434275" lon="11.2195909"><ele>234.0</ele><time>2026-04-25T06:54:58.728Z</time></trkpt><trkpt lat="43.4434151" lon="11.2197354"><ele>233.2</ele><time>2026-04-25T06:55:00.726Z</time></trkpt><trkpt lat="43.4433997" lon="11.2198796"><ele>232.39999999999998</ele><time>2026-04-25T06:55:02.741Z</time></trkpt><trkpt lat="43.4433853" lon="11.220014"><ele>231.6</ele><time>2026-04-25T06:55:04.728Z</time></trkpt><trkpt lat="43.443371" lon="11.220154"><ele>230.8</ele><time>2026-04-25T06:55:06.73Z</time></trkpt><trkpt lat="43.4433613" lon="11.220297"><ele>230.0</ele><time>2026-04-25T06:55:08.722Z</time></trkpt><trkpt lat="43.4433496" lon="11.2204437"><ele>230.0</ele><time>2026-04-25T06:55:10.729Z</time></trkpt><trkpt lat="43.4433447" lon="11.2206002"><ele>230.0</ele><time>2026-04-25T06:55:12.723Z</time></trkpt><trkpt lat="43.4433359" lon="11.220756"><ele>230.0</ele><time>2026-04-25T06:55:14.73Z</time></trkpt><trkpt lat="43.443333" lon="11.2209179"><ele>230.0</ele><time>2026-04-25T06:55:16.73Z</time></trkpt><trkpt lat="43.4433227" lon="11.2210802"><ele>229.5</ele><time>2026-04-25T06:55:18.733Z</time></trkpt><trkpt lat="43.4433119" lon="11.2212417"><ele>229.0</ele><time>2026-04-25T06:55:20.73Z</time></trkpt><trkpt lat="43.4433096" lon="11.2214068"><ele>228.5</ele><time>2026-04-25T06:55:22.73Z</time></trkpt><trkpt lat="43.4432994" lon="11.221568"><ele>228.0</ele><time>2026-04-25T06:55:24.735Z</time></trkpt><trkpt lat="43.4432821" lon="11.221722"><ele>227.4</ele><time>2026-04-25T06:55:26.731Z</time></trkpt><trkpt lat="43.4432678" lon="11.2218648"><ele>226.8</ele><time>2026-04-25T06:55:28.736Z</time></trkpt><trkpt lat="43.443263" lon="11.2219977"><ele>226.2</ele><time>2026-04-25T06:55:30.734Z</time></trkpt><trkpt lat="43.4432606" lon="11.222127"><ele>225.6</ele><time>2026-04-25T06:55:32.74Z</time></trkpt><trkpt lat="43.4432497" lon="11.2222447"><ele>225.0</ele><time>2026-04-25T06:55:34.725Z</time></trkpt><trkpt lat="43.4432358" lon="11.2223653"><ele>224.83333333333334</ele><time>2026-04-25T06:55:36.734Z</time></trkpt><trkpt lat="43.4432328" lon="11.222489"><ele>224.66666666666669</ele><time>2026-04-25T06:55:38.739Z</time></trkpt><trkpt lat="43.4432242" lon="11.2226157"><ele>224.5</ele><time>2026-04-25T06:55:40.736Z</time></trkpt><trkpt lat="43.4432179" lon="11.2227392"><ele>224.33333333333334</ele><time>2026-04-25T06:55:42.732Z</time></trkpt><trkpt lat="43.4432154" lon="11.2228555"><ele>224.16666666666669</ele><time>2026-04-25T06:55:44.734Z</time></trkpt><trkpt lat="43.4432145" lon="11.2229609"><ele>224.0</ele><time>2026-04-25T06:55:46.723Z</time></trkpt><trkpt lat="43.4432117" lon="11.223067"><ele>224.16666666666669</ele><time>2026-04-25T06:55:48.729Z</time></trkpt><trkpt lat="43.4432157" lon="11.2231808"><ele>224.33333333333334</ele><time>2026-04-25T06:55:50.732Z</time></trkpt><trkpt lat="43.4432009" lon="11.2232874"><ele>224.5</ele><time>2026-04-25T06:55:52.726Z</time></trkpt><trkpt lat="43.4431971" lon="11.2233853"><ele>224.66666666666669</ele><time>2026-04-25T06:55:54.726Z</time></trkpt><trkpt lat="43.4431869" lon="11.2234962"><ele>224.83333333333334</ele><time>2026-04-25T06:55:56.73Z</time></trkpt><trkpt lat="43.4431755" lon="11.2236073"><ele>225.0</ele><time>2026-04-25T06:55:58.723Z</time></trkpt><trkpt lat="43.4431629" lon="11.2237147"><ele>225.0</ele><time>2026-04-25T06:56:00.731Z</time></trkpt><trkpt lat="43.4431463" lon="11.2238245"><ele>225.0</ele><time>2026-04-25T06:56:02.726Z</time></trkpt><trkpt lat="43.4431395" lon="11.2239356"><ele>225.0</ele><time>2026-04-25T06:56:04.725Z</time></trkpt><trkpt lat="43.4431245" lon="11.2240432"><ele>225.0</ele><time>2026-04-25T06:56:06.744Z</time></trkpt><trkpt lat="43.4431142" lon="11.22415"><ele>225.0</ele><time>2026-04-25T06:56:08.738Z</time></trkpt><trkpt lat="43.443103" lon="11.2242497"><ele>225.0</ele><time>2026-04-25T06:56:10.721Z</time></trkpt><trkpt lat="43.4430928" lon="11.2243498"><ele>225.42857142857144</ele><time>2026-04-25T06:56:12.741Z</time></trkpt><trkpt lat="43.4430892" lon="11.2244481"><ele>225.85714285714286</ele><time>2026-04-25T06:56:14.726Z</time></trkpt><trkpt lat="43.4430754" lon="11.2245397"><ele>226.28571428571428</ele><time>2026-04-25T06:56:16.74Z</time></trkpt><trkpt lat="43.443058" lon="11.2246271"><ele>226.71428571428572</ele><time>2026-04-25T06:56:18.739Z</time></trkpt><trkpt lat="43.4430384" lon="11.2247097"><ele>227.1428571428571</ele><time>2026-04-25T06:56:20.724Z</time></trkpt><trkpt lat="43.4430118" lon="11.2247885"><ele>227.57142857142856</ele><time>2026-04-25T06:56:22.73Z</time></trkpt><trkpt lat="43.4429801" lon="11.2249118"><ele>228.0</ele><time>2026-04-25T06:56:25.73Z</time></trkpt><trkpt lat="43.4429618" lon="11.2249982"><ele>228.0</ele><time>2026-04-25T06:56:27.739Z</time></trkpt><trkpt lat="43.4429496" lon="11.2250913"><ele>227.99999999999997</ele><time>2026-04-25T06:56:29.73Z</time></trkpt><trkpt lat="43.4429382" lon="11.2251849"><ele>228.0</ele><time>2026-04-25T06:56:31.727Z</time></trkpt><trkpt lat="43.4429283" lon="11.2252792"><ele>228.0</ele><time>2026-04-25T06:56:33.736Z</time></trkpt><trkpt lat="43.4429111" lon="11.2254009"><ele>227.99999999999997</ele><time>2026-04-25T06:56:36.732Z</time></trkpt><trkpt lat="43.4428935" lon="11.2255053"><ele>228.0</ele><time>2026-04-25T06:56:39.725Z</time></trkpt><trkpt lat="43.4428747" lon="11.2255957"><ele>228.0</ele><time>2026-04-25T06:56:42.736Z</time></trkpt><trkpt lat="43.4428374" lon="11.2257058"><ele>228.2</ele><time>2026-04-25T06:56:45.735Z</time></trkpt><trkpt lat="43.4428057" lon="11.2257995"><ele>228.4</ele><time>2026-04-25T06:56:47.737Z</time></trkpt><trkpt lat="43.442768" lon="11.2259214"><ele>228.59999999999997</ele><time>2026-04-25T06:56:49.73Z</time></trkpt><trkpt lat="43.442739" lon="11.2260632"><ele>228.79999999999998</ele><time>2026-04-25T06:56:51.724Z</time></trkpt><trkpt lat="43.4427108" lon="11.2262241"><ele>229.0</ele><time>2026-04-25T06:56:53.739Z</time></trkpt><trkpt lat="43.4426964" lon="11.2263104"><ele>228.99999999999997</ele><time>2026-04-25T06:56:54.73Z</time></trkpt><trkpt lat="43.4426804" lon="11.2263969"><ele>229.0</ele><time>2026-04-25T06:56:55.738Z</time></trkpt><trkpt lat="43.4426636" lon="11.2264824"><ele>229.0</ele><time>2026-04-25T06:56:56.728Z</time></trkpt><trkpt lat="43.4426451" lon="11.2265663"><ele>229.0</ele><time>2026-04-25T06:56:57.74Z</time></trkpt><trkpt lat="43.44261" lon="11.2267232"><ele>228.99999999999997</ele><time>2026-04-25T06:56:59.737Z</time></trkpt><trkpt lat="43.4425766" lon="11.2268755"><ele>229.0</ele><time>2026-04-25T06:57:01.726Z</time></trkpt><trkpt lat="43.4425506" lon="11.227017"><ele>228.99999999999997</ele><time>2026-04-25T06:57:03.732Z</time></trkpt><trkpt lat="43.4425269" lon="11.227137"><ele>229.0</ele><time>2026-04-25T06:57:05.738Z</time></trkpt><trkpt lat="43.4425041" lon="11.2272487"><ele>229.0</ele><time>2026-04-25T06:57:07.738Z</time></trkpt><trkpt lat="43.4424878" lon="11.2273584"><ele>229.0</ele><time>2026-04-25T06:57:09.725Z</time></trkpt><trkpt lat="43.4424696" lon="11.2274593"><ele>228.99999999999997</ele><time>2026-04-25T06:57:11.714Z</time></trkpt><trkpt lat="43.4424614" lon="11.227552"><ele>229.0</ele><time>2026-04-25T06:57:13.716Z</time></trkpt><trkpt lat="43.4424543" lon="11.2276438"><ele>229.14285714285714</ele><time>2026-04-25T06:57:15.726Z</time></trkpt><trkpt lat="43.4424513" lon="11.2277356"><ele>229.28571428571428</ele><time>2026-04-25T06:57:17.721Z</time></trkpt><trkpt lat="43.442447" lon="11.2278275"><ele>229.42857142857142</ele><time>2026-04-25T06:57:19.729Z</time></trkpt><trkpt lat="43.4424392" lon="11.2279153"><ele>229.57142857142856</ele><time>2026-04-25T06:57:21.746Z</time></trkpt><trkpt lat="43.4424427" lon="11.2280044"><ele>229.71428571428572</ele><time>2026-04-25T06:57:23.735Z</time></trkpt><trkpt lat="43.4424465" lon="11.2281288"><ele>229.85714285714283</ele><time>2026-04-25T06:57:26.798Z</time></trkpt><trkpt lat="43.4424509" lon="11.228236"><ele>229.99999999999997</ele><time>2026-04-25T06:57:29.731Z</time></trkpt><trkpt lat="43.4424274" lon="11.2283439"><ele>230.33333333333334</ele><time>2026-04-25T06:57:32.722Z</time></trkpt><trkpt lat="43.4424374" lon="11.2284471"><ele>230.66666666666669</ele><time>2026-04-25T06:57:35.729Z</time></trkpt><trkpt lat="43.4424384" lon="11.228558"><ele>231.0</ele><time>2026-04-25T06:57:38.723Z</time></trkpt><trkpt lat="43.4424359" lon="11.2286603"><ele>231.33333333333331</ele><time>2026-04-25T06:57:41.702Z</time></trkpt><trkpt lat="43.4424353" lon="11.2287607"><ele>231.66666666666666</ele><time>2026-04-25T06:57:44.738Z</time></trkpt><trkpt lat="43.4424365" lon="11.2288643"><ele>232.0</ele><time>2026-04-25T06:57:47.718Z</time></trkpt><trkpt lat="43.442434" lon="11.2289691"><ele>232.42857142857144</ele><time>2026-04-25T06:57:50.726Z</time></trkpt><trkpt lat="43.4424317" lon="11.2290673"><ele>232.85714285714286</ele><time>2026-04-25T06:57:53.74Z</time></trkpt><trkpt lat="43.4424311" lon="11.2291632"><ele>233.28571428571428</ele><time>2026-04-25T06:57:56.738Z</time></trkpt><trkpt lat="43.44243" lon="11.2292726"><ele>233.71428571428572</ele><time>2026-04-25T06:58:00.727Z</time></trkpt><trkpt lat="43.4424309" lon="11.2293694"><ele>234.1428571428571</ele><time>2026-04-25T06:58:04.738Z</time></trkpt><trkpt lat="43.4424295" lon="11.2294689"><ele>234.57142857142856</ele><time>2026-04-25T06:58:08.746Z</time></trkpt><trkpt lat="43.4424308" lon="11.2295658"><ele>235.0</ele><time>2026-04-25T06:58:12.728Z</time></trkpt><trkpt lat="43.4424274" lon="11.2296572"><ele>235.0</ele><time>2026-04-25T06:58:16.815Z</time></trkpt><trkpt lat="43.4424264" lon="11.2297689"><ele>234.99999999999997</ele><time>2026-04-25T06:58:20.722Z</time></trkpt><trkpt lat="43.4424227" lon="11.2298717"><ele>235.0</ele><time>2026-04-25T06:58:25.721Z</time></trkpt><trkpt lat="43.4424163" lon="11.2299592"><ele>235.0</ele><time>2026-04-25T06:58:29.725Z</time></trkpt><trkpt lat="43.4424155" lon="11.2300553"><ele>234.99999999999997</ele><time>2026-04-25T06:58:34.726Z</time></trkpt><trkpt lat="43.442412" lon="11.2301429"><ele>235.0</ele><time>2026-04-25T06:58:39.725Z</time></trkpt><trkpt lat="43.4424176" lon="11.2302368"><ele>235.0</ele><time>2026-04-25T06:58:44.724Z</time></trkpt><trkpt lat="43.4424051" lon="11.230338"><ele>236.14285714285714</ele><time>2026-04-25T06:58:50.788Z</time></trkpt><trkpt lat="43.4423925" lon="11.2304376"><ele>237.28571428571428</ele><time>2026-04-25T06:58:56.796Z</time></trkpt><trkpt lat="43.4423999" lon="11.2305254"><ele>238.42857142857142</ele><time>2026-04-25T06:59:01.808Z</time></trkpt><trkpt lat="43.4423966" lon="11.23063"><ele>239.57142857142856</ele><time>2026-04-25T06:59:08.732Z</time></trkpt><trkpt lat="43.4423978" lon="11.2307353"><ele>240.71428571428572</ele><time>2026-04-25T06:59:14.72Z</time></trkpt><trkpt lat="43.4423893" lon="11.2308313"><ele>241.85714285714283</ele><time>2026-04-25T06:59:19.727Z</time></trkpt><trkpt lat="43.4423822" lon="11.2309301"><ele>243.0</ele><time>2026-04-25T06:59:25.793Z</time></trkpt><trkpt lat="43.4423841" lon="11.2310315"><ele>244.83333333333334</ele><time>2026-04-25T06:59:35.728Z</time></trkpt><trkpt lat="43.4423827" lon="11.2311197"><ele>246.66666666666669</ele><time>2026-04-25T06:59:41.719Z</time></trkpt><trkpt lat="43.4423787" lon="11.2312277"><ele>248.5</ele><time>2026-04-25T06:59:46.732Z</time></trkpt><trkpt lat="43.4423865" lon="11.2313295"><ele>250.33333333333334</ele><time>2026-04-25T06:59:51.729Z</time></trkpt><trkpt lat="43.4423419" lon="11.2314241"><ele>252.16666666666669</ele><time>2026-04-25T07:00:03.713Z</time></trkpt><trkpt lat="43.4423355" lon="11.2315133"><ele>254.0</ele><time>2026-04-25T07:00:07.725Z</time></trkpt><trkpt lat="43.4422917" lon="11.2316586"><ele>255.42857142857144</ele><time>2026-04-25T07:00:23.734Z</time></trkpt><trkpt lat="43.4422436" lon="11.2317245"><ele>256.85714285714283</ele><time>2026-04-25T07:00:28.719Z</time></trkpt><trkpt lat="43.442182" lon="11.2317668"><ele>258.2857142857143</ele><time>2026-04-25T07:00:33.725Z</time></trkpt><trkpt lat="43.4421195" lon="11.2317914"><ele>259.7142857142857</ele><time>2026-04-25T07:00:41.795Z</time></trkpt><trkpt lat="43.4420519" lon="11.2318199"><ele>261.14285714285717</ele><time>2026-04-25T07:00:46.702Z</time></trkpt><trkpt lat="43.441983" lon="11.2318401"><ele>262.57142857142856</ele><time>2026-04-25T07:00:53.727Z</time></trkpt><trkpt lat="43.4419055" lon="11.2318284"><ele>264.0</ele><time>2026-04-25T07:00:59.721Z</time></trkpt><trkpt lat="43.4418397" lon="11.2318526"><ele>265.42857142857144</ele><time>2026-04-25T07:01:03.726Z</time></trkpt><trkpt lat="43.4417766" lon="11.2318726"><ele>266.8571428571429</ele><time>2026-04-25T07:01:09.742Z</time></trkpt><trkpt lat="43.4417176" lon="11.2319126"><ele>268.28571428571433</ele><time>2026-04-25T07:01:18.721Z</time></trkpt><trkpt lat="43.4416483" lon="11.2319461"><ele>269.7142857142857</ele><time>2026-04-25T07:01:23.732Z</time></trkpt><trkpt lat="43.4415891" lon="11.2319868"><ele>271.14285714285717</ele><time>2026-04-25T07:01:27.731Z</time></trkpt><trkpt lat="43.4415256" lon="11.2320277"><ele>272.5714285714286</ele><time>2026-04-25T07:01:32.732Z</time></trkpt><trkpt lat="43.44146" lon="11.232097"><ele>274.0</ele><time>2026-04-25T07:01:37.736Z</time></trkpt><trkpt lat="43.4414023" lon="11.2321659"><ele>274.0</ele><time>2026-04-25T07:01:40.74Z</time></trkpt><trkpt lat="43.4413311" lon="11.2322375"><ele>274.0</ele><time>2026-04-25T07:01:43.738Z</time></trkpt><trkpt lat="43.4412604" lon="11.2323102"><ele>274.0</ele><time>2026-04-25T07:01:46.733Z</time></trkpt><trkpt lat="43.4412077" lon="11.2323618"><ele>274.0</ele><time>2026-04-25T07:01:48.723Z</time></trkpt><trkpt lat="43.4411377" lon="11.2324371"><ele>274.0</ele><time>2026-04-25T07:01:51.736Z</time></trkpt><trkpt lat="43.4410625" lon="11.2325115"><ele>274.0</ele><time>2026-04-25T07:01:54.728Z</time></trkpt><trkpt lat="43.4410031" lon="11.2325675"><ele>273.66666666666663</ele><time>2026-04-25T07:01:56.722Z</time></trkpt><trkpt lat="43.4409503" lon="11.2326283"><ele>273.3333333333333</ele><time>2026-04-25T07:01:58.739Z</time></trkpt><trkpt lat="43.4408958" lon="11.2326764"><ele>273.0</ele><time>2026-04-25T07:02:00.726Z</time></trkpt><trkpt lat="43.4408194" lon="11.2327405"><ele>272.6666666666667</ele><time>2026-04-25T07:02:03.732Z</time></trkpt><trkpt lat="43.4407555" lon="11.2328313"><ele>272.33333333333337</ele><time>2026-04-25T07:02:06.737Z</time></trkpt><trkpt lat="43.4406838" lon="11.2329037"><ele>272.0</ele><time>2026-04-25T07:02:09.734Z</time></trkpt><trkpt lat="43.4406195" lon="11.2329782"><ele>272.0</ele><time>2026-04-25T07:02:12.724Z</time></trkpt><trkpt lat="43.4405656" lon="11.2330514"><ele>272.0</ele><time>2026-04-25T07:02:15.728Z</time></trkpt><trkpt lat="43.4405185" lon="11.2331209"><ele>272.0</ele><time>2026-04-25T07:02:18.739Z</time></trkpt><trkpt lat="43.4404598" lon="11.2332058"><ele>272.0</ele><time>2026-04-25T07:02:22.73Z</time></trkpt><trkpt lat="43.4404059" lon="11.233286"><ele>272.0</ele><time>2026-04-25T07:02:26.783Z</time></trkpt><trkpt lat="43.4403615" lon="11.2333785"><ele>272.0</ele><time>2026-04-25T07:02:30.731Z</time></trkpt><trkpt lat="43.4403214" lon="11.2334526"><ele>272.5</ele><time>2026-04-25T07:02:34.737Z</time></trkpt><trkpt lat="43.4402959" lon="11.2335676"><ele>273.0</ele><time>2026-04-25T07:02:38.725Z</time></trkpt><trkpt lat="43.4402461" lon="11.2336392"><ele>273.5</ele><time>2026-04-25T07:02:41.736Z</time></trkpt><trkpt lat="43.4401998" lon="11.2337208"><ele>274.0</ele><time>2026-04-25T07:02:44.731Z</time></trkpt><trkpt lat="43.4401593" lon="11.2337971"><ele>274.5</ele><time>2026-04-25T07:02:47.737Z</time></trkpt><trkpt lat="43.4401267" lon="11.2338818"><ele>275.0</ele><time>2026-04-25T07:02:51.722Z</time></trkpt><trkpt lat="43.4400742" lon="11.2339679"><ele>276.0</ele><time>2026-04-25T07:02:55.725Z</time></trkpt><trkpt lat="43.4400385" lon="11.2340453"><ele>277.0</ele><time>2026-04-25T07:02:58.733Z</time></trkpt><trkpt lat="43.4399971" lon="11.234116"><ele>278.0</ele><time>2026-04-25T07:03:01.735Z</time></trkpt><trkpt lat="43.439943" lon="11.2341843"><ele>279.0</ele><time>2026-04-25T07:03:04.732Z</time></trkpt><trkpt lat="43.4398886" lon="11.234246"><ele>280.0</ele><time>2026-04-25T07:03:07.734Z</time></trkpt><trkpt lat="43.4398283" lon="11.234326"><ele>281.0</ele><time>2026-04-25T07:03:10.793Z</time></trkpt><trkpt lat="43.4397604" lon="11.2343831"><ele>282.0</ele><time>2026-04-25T07:03:13.726Z</time></trkpt><trkpt lat="43.439694" lon="11.2344492"><ele>281.42857142857144</ele><time>2026-04-25T07:03:16.72Z</time></trkpt><trkpt lat="43.4396299" lon="11.2345094"><ele>280.85714285714283</ele><time>2026-04-25T07:03:19.737Z</time></trkpt><trkpt lat="43.4395694" lon="11.2345584"><ele>280.2857142857143</ele><time>2026-04-25T07:03:22.74Z</time></trkpt><trkpt lat="43.4395152" lon="11.2346155"><ele>279.7142857142857</ele><time>2026-04-25T07:03:25.743Z</time></trkpt><trkpt lat="43.4394582" lon="11.2346775"><ele>279.14285714285717</ele><time>2026-04-25T07:03:28.735Z</time></trkpt><trkpt lat="43.4394042" lon="11.2347446"><ele>278.57142857142856</ele><time>2026-04-25T07:03:31.786Z</time></trkpt><trkpt lat="43.4393472" lon="11.2348208"><ele>278.0</ele><time>2026-04-25T07:03:34.732Z</time></trkpt><trkpt lat="43.4392982" lon="11.2348801"><ele>279.6666666666667</ele><time>2026-04-25T07:03:36.801Z</time></trkpt><trkpt lat="43.4392344" lon="11.2349435"><ele>281.33333333333337</ele><time>2026-04-25T07:03:40.731Z</time></trkpt><trkpt lat="43.4391781" lon="11.2349983"><ele>283.0</ele><time>2026-04-25T07:03:43.704Z</time></trkpt><trkpt lat="43.4391117" lon="11.2350569"><ele>284.6666666666667</ele><time>2026-04-25T07:03:47.723Z</time></trkpt><trkpt lat="43.4390568" lon="11.2351509"><ele>286.3333333333333</ele><time>2026-04-25T07:03:50.724Z</time></trkpt><trkpt lat="43.4389925" lon="11.2352384"><ele>288.0</ele><time>2026-04-25T07:03:53.73Z</time></trkpt><trkpt lat="43.438932" lon="11.2353245"><ele>288.0</ele><time>2026-04-25T07:03:56.737Z</time></trkpt><trkpt lat="43.4388777" lon="11.2354058"><ele>288.0</ele><time>2026-04-25T07:03:59.725Z</time></trkpt><trkpt lat="43.4388157" lon="11.2354992"><ele>288.0</ele><time>2026-04-25T07:04:02.784Z</time></trkpt><trkpt lat="43.4387569" lon="11.2355845"><ele>288.0</ele><time>2026-04-25T07:04:05.736Z</time></trkpt><trkpt lat="43.4387068" lon="11.2356761"><ele>288.0</ele><time>2026-04-25T07:04:08.717Z</time></trkpt><trkpt lat="43.4386517" lon="11.2357765"><ele>288.0</ele><time>2026-04-25T07:04:11.717Z</time></trkpt><trkpt lat="43.4385944" lon="11.2358635"><ele>289.3333333333333</ele><time>2026-04-25T07:04:14.733Z</time></trkpt><trkpt lat="43.4385396" lon="11.2359574"><ele>290.6666666666667</ele><time>2026-04-25T07:04:17.732Z</time></trkpt><trkpt lat="43.4384827" lon="11.2360319"><ele>292.0</ele><time>2026-04-25T07:04:20.788Z</time></trkpt><trkpt lat="43.4384319" lon="11.2361263"><ele>293.33333333333337</ele><time>2026-04-25T07:04:23.737Z</time></trkpt><trkpt lat="43.4383885" lon="11.236199"><ele>294.6666666666667</ele><time>2026-04-25T07:04:25.791Z</time></trkpt><trkpt lat="43.4383417" lon="11.2362678"><ele>296.0</ele><time>2026-04-25T07:04:27.722Z</time></trkpt><trkpt lat="43.4382873" lon="11.2363398"><ele>296.0</ele><time>2026-04-25T07:04:29.724Z</time></trkpt><trkpt lat="43.4382317" lon="11.2364271"><ele>296.0</ele><time>2026-04-25T07:04:31.703Z</time></trkpt><trkpt lat="43.4381691" lon="11.2365126"><ele>296.0</ele><time>2026-04-25T07:04:33.737Z</time></trkpt><trkpt lat="43.4381075" lon="11.2365941"><ele>296.0</ele><time>2026-04-25T07:04:35.724Z</time></trkpt><trkpt lat="43.438043" lon="11.2366699"><ele>296.0</ele><time>2026-04-25T07:04:37.738Z</time></trkpt><trkpt lat="43.4379715" lon="11.2367427"><ele>296.0</ele><time>2026-04-25T07:04:39.742Z</time></trkpt><trkpt lat="43.4378916" lon="11.2368122"><ele>296.25</ele><time>2026-04-25T07:04:41.783Z</time></trkpt><trkpt lat="43.4378038" lon="11.2368622"><ele>296.5</ele><time>2026-04-25T07:04:43.744Z</time></trkpt><trkpt lat="43.4376065" lon="11.2369224"><ele>296.75</ele><time>2026-04-25T07:04:46.797Z</time></trkpt><trkpt lat="43.4375231" lon="11.236969"><ele>297.0</ele><time>2026-04-25T07:04:48.732Z</time></trkpt><trkpt lat="43.4374582" lon="11.2370457"><ele>297.0</ele><time>2026-04-25T07:04:50.719Z</time></trkpt><trkpt lat="43.4373668" lon="11.2370804"><ele>297.0</ele><time>2026-04-25T07:04:53.727Z</time></trkpt><trkpt lat="43.4372852" lon="11.2371325"><ele>297.0</ele><time>2026-04-25T07:04:56.791Z</time></trkpt><trkpt lat="43.4371864" lon="11.2371464"><ele>297.0</ele><time>2026-04-25T07:04:59.73Z</time></trkpt><trkpt lat="43.4371073" lon="11.2371858"><ele>297.0</ele><time>2026-04-25T07:05:02.705Z</time></trkpt><trkpt lat="43.4370322" lon="11.2372323"><ele>296.8333333333333</ele><time>2026-04-25T07:05:05.719Z</time></trkpt><trkpt lat="43.4369748" lon="11.2372774"><ele>296.6666666666667</ele><time>2026-04-25T07:05:07.702Z</time></trkpt><trkpt lat="43.4368991" lon="11.2373463"><ele>296.5</ele><time>2026-04-25T07:05:10.735Z</time></trkpt><trkpt lat="43.4368517" lon="11.237414"><ele>296.33333333333337</ele><time>2026-04-25T07:05:12.714Z</time></trkpt><trkpt lat="43.436805" lon="11.2374743"><ele>296.1666666666667</ele><time>2026-04-25T07:05:14.704Z</time></trkpt><trkpt lat="43.4367496" lon="11.2375843"><ele>296.0</ele><time>2026-04-25T07:05:17.723Z</time></trkpt><trkpt lat="43.436719" lon="11.2376623"><ele>296.0</ele><time>2026-04-25T07:05:19.728Z</time></trkpt><trkpt lat="43.4366768" lon="11.2377561"><ele>296.0</ele><time>2026-04-25T07:05:22.714Z</time></trkpt><trkpt lat="43.4366218" lon="11.2378389"><ele>296.0</ele><time>2026-04-25T07:05:26.797Z</time></trkpt><trkpt lat="43.4365728" lon="11.2379013"><ele>296.0</ele><time>2026-04-25T07:05:29.732Z</time></trkpt><trkpt lat="43.4365103" lon="11.237971"><ele>296.0</ele><time>2026-04-25T07:05:32.79Z</time></trkpt><trkpt lat="43.4364236" lon="11.2380071"><ele>296.0</ele><time>2026-04-25T07:05:34.728Z</time></trkpt><trkpt lat="43.4364347" lon="11.2381312"><ele>295.5</ele><time>2026-04-25T07:05:36.714Z</time></trkpt><trkpt lat="43.4364204" lon="11.2382419"><ele>295.0</ele><time>2026-04-25T07:05:38.703Z</time></trkpt><trkpt lat="43.4363952" lon="11.2383649"><ele>294.5</ele><time>2026-04-25T07:05:40.728Z</time></trkpt><trkpt lat="43.436361" lon="11.2384825"><ele>294.0</ele><time>2026-04-25T07:05:42.73Z</time></trkpt><trkpt lat="43.4363052" lon="11.2385836"><ele>293.5</ele><time>2026-04-25T07:05:44.726Z</time></trkpt><trkpt lat="43.4362445" lon="11.2386734"><ele>293.0</ele><time>2026-04-25T07:05:46.728Z</time></trkpt><trkpt lat="43.4361555" lon="11.2387743"><ele>291.8</ele><time>2026-04-25T07:05:48.733Z</time></trkpt><trkpt lat="43.4360703" lon="11.2388978"><ele>290.6</ele><time>2026-04-25T07:05:50.732Z</time></trkpt><trkpt lat="43.4360271" lon="11.2389683"><ele>289.4</ele><time>2026-04-25T07:05:51.809Z</time></trkpt><trkpt lat="43.4359449" lon="11.2390965"><ele>288.2</ele><time>2026-04-25T07:05:53.719Z</time></trkpt><trkpt lat="43.435869" lon="11.2392152"><ele>287.0</ele><time>2026-04-25T07:05:55.722Z</time></trkpt><trkpt lat="43.4358025" lon="11.2393143"><ele>287.0</ele><time>2026-04-25T07:05:57.81Z</time></trkpt><trkpt lat="43.4357429" lon="11.2394274"><ele>287.0</ele><time>2026-04-25T07:05:59.735Z</time></trkpt><trkpt lat="43.4356852" lon="11.2395325"><ele>287.0</ele><time>2026-04-25T07:06:01.794Z</time></trkpt><trkpt lat="43.4356328" lon="11.2396326"><ele>287.0</ele><time>2026-04-25T07:06:03.728Z</time></trkpt><trkpt lat="43.4355806" lon="11.2397222"><ele>287.0</ele><time>2026-04-25T07:06:05.722Z</time></trkpt><trkpt lat="43.4355365" lon="11.2398184"><ele>286.83333333333337</ele><time>2026-04-25T07:06:07.728Z</time></trkpt><trkpt lat="43.4354973" lon="11.2399119"><ele>286.6666666666667</ele><time>2026-04-25T07:06:09.73Z</time></trkpt><trkpt lat="43.4354545" lon="11.2400054"><ele>286.5</ele><time>2026-04-25T07:06:11.805Z</time></trkpt><trkpt lat="43.4354272" lon="11.240097"><ele>286.3333333333333</ele><time>2026-04-25T07:06:13.726Z</time></trkpt><trkpt lat="43.4353995" lon="11.2401951"><ele>286.16666666666663</ele><time>2026-04-25T07:06:15.734Z</time></trkpt><trkpt lat="43.4353786" lon="11.2402925"><ele>286.0</ele><time>2026-04-25T07:06:17.725Z</time></trkpt><trkpt lat="43.4353506" lon="11.2403866"><ele>285.99999999999994</ele><time>2026-04-25T07:06:19.728Z</time></trkpt><trkpt lat="43.4353418" lon="11.2404823"><ele>286.0</ele><time>2026-04-25T07:06:21.724Z</time></trkpt><trkpt lat="43.4353425" lon="11.2405954"><ele>286.0</ele><time>2026-04-25T07:06:23.733Z</time></trkpt><trkpt lat="43.43534" lon="11.2406981"><ele>286.0</ele><time>2026-04-25T07:06:25.793Z</time></trkpt><trkpt lat="43.4353674" lon="11.2407833"><ele>286.0</ele><time>2026-04-25T07:06:27.738Z</time></trkpt><trkpt lat="43.4353724" lon="11.240874"><ele>285.99999999999994</ele><time>2026-04-25T07:06:29.736Z</time></trkpt><trkpt lat="43.4353785" lon="11.2409686"><ele>286.0</ele><time>2026-04-25T07:06:31.74Z</time></trkpt><trkpt lat="43.4353858" lon="11.2410756"><ele>286.4285714285714</ele><time>2026-04-25T07:06:33.719Z</time></trkpt><trkpt lat="43.4353899" lon="11.2411709"><ele>286.85714285714283</ele><time>2026-04-25T07:06:35.812Z</time></trkpt><trkpt lat="43.4353911" lon="11.2412583"><ele>287.2857142857143</ele><time>2026-04-25T07:06:37.808Z</time></trkpt><trkpt lat="43.4353948" lon="11.2413494"><ele>287.71428571428567</ele><time>2026-04-25T07:06:39.725Z</time></trkpt><trkpt lat="43.4354028" lon="11.2414395"><ele>288.1428571428571</ele><time>2026-04-25T07:06:41.808Z</time></trkpt><trkpt lat="43.4353989" lon="11.2415465"><ele>288.57142857142856</ele><time>2026-04-25T07:06:44.729Z</time></trkpt><trkpt lat="43.4354111" lon="11.2416517"><ele>289.0</ele><time>2026-04-25T07:06:47.72Z</time></trkpt><trkpt lat="43.4354528" lon="11.2417373"><ele>289.3333333333333</ele><time>2026-04-25T07:06:50.728Z</time></trkpt><trkpt lat="43.435489" lon="11.2418097"><ele>289.66666666666663</ele><time>2026-04-25T07:06:52.726Z</time></trkpt><trkpt lat="43.4355275" lon="11.2418852"><ele>290.0</ele><time>2026-04-25T07:06:54.728Z</time></trkpt><trkpt lat="43.4355698" lon="11.241962"><ele>290.3333333333333</ele><time>2026-04-25T07:06:56.722Z</time></trkpt><trkpt lat="43.4356133" lon="11.2420811"><ele>290.6666666666667</ele><time>2026-04-25T07:06:59.724Z</time></trkpt><trkpt lat="43.4356965" lon="11.2421922"><ele>291.0</ele><time>2026-04-25T07:07:01.708Z</time></trkpt><trkpt lat="43.4357424" lon="11.2422629"><ele>290.57142857142856</ele><time>2026-04-25T07:07:02.8Z</time></trkpt><trkpt lat="43.4357826" lon="11.2423428"><ele>290.1428571428571</ele><time>2026-04-25T07:07:03.737Z</time></trkpt><trkpt lat="43.4358261" lon="11.2424143"><ele>289.7142857142857</ele><time>2026-04-25T07:07:04.716Z</time></trkpt><trkpt lat="43.4358716" lon="11.242481"><ele>289.2857142857143</ele><time>2026-04-25T07:07:05.73Z</time></trkpt><trkpt lat="43.4359183" lon="11.2425476"><ele>288.8571428571429</ele><time>2026-04-25T07:07:06.808Z</time></trkpt><trkpt lat="43.4359678" lon="11.2426147"><ele>288.42857142857144</ele><time>2026-04-25T07:07:07.724Z</time></trkpt><trkpt lat="43.4360199" lon="11.2426897"><ele>288.0</ele><time>2026-04-25T07:07:08.728Z</time></trkpt><trkpt lat="43.4360618" lon="11.2427661"><ele>288.0</ele><time>2026-04-25T07:07:09.728Z</time></trkpt><trkpt lat="43.436108" lon="11.2428453"><ele>288.0</ele><time>2026-04-25T07:07:10.788Z</time></trkpt><trkpt lat="43.4361511" lon="11.2429184"><ele>288.0</ele><time>2026-04-25T07:07:11.808Z</time></trkpt><trkpt lat="43.4361926" lon="11.2429897"><ele>288.0</ele><time>2026-04-25T07:07:12.72Z</time></trkpt><trkpt lat="43.4362708" lon="11.2430884"><ele>288.0</ele><time>2026-04-25T07:07:14.739Z</time></trkpt><trkpt lat="43.4363222" lon="11.2431441"><ele>288.0</ele><time>2026-04-25T07:07:15.81Z</time></trkpt><trkpt lat="43.436367" lon="11.2432236"><ele>287.2</ele><time>2026-04-25T07:07:16.807Z</time></trkpt><trkpt lat="43.4364105" lon="11.243288"><ele>286.4</ele><time>2026-04-25T07:07:17.793Z</time></trkpt><trkpt lat="43.4364811" lon="11.2434126"><ele>285.59999999999997</ele><time>2026-04-25T07:07:19.732Z</time></trkpt><trkpt lat="43.4365594" lon="11.2435193"><ele>284.8</ele><time>2026-04-25T07:07:21.783Z</time></trkpt><trkpt lat="43.4366219" lon="11.243596"><ele>284.0</ele><time>2026-04-25T07:07:23.734Z</time></trkpt><trkpt lat="43.4366941" lon="11.2436919"><ele>284.0</ele><time>2026-04-25T07:07:25.744Z</time></trkpt><trkpt lat="43.4367558" lon="11.2437961"><ele>284.0</ele><time>2026-04-25T07:07:27.708Z</time></trkpt><trkpt lat="43.4368148" lon="11.2438881"><ele>284.0</ele><time>2026-04-25T07:07:29.723Z</time></trkpt><trkpt lat="43.4368686" lon="11.2439738"><ele>284.0</ele><time>2026-04-25T07:07:31.718Z</time></trkpt><trkpt lat="43.4369214" lon="11.2440686"><ele>284.0</ele><time>2026-04-25T07:07:33.72Z</time></trkpt><trkpt lat="43.4369806" lon="11.2441513"><ele>284.0</ele><time>2026-04-25T07:07:35.795Z</time></trkpt><trkpt lat="43.4370498" lon="11.2442334"><ele>284.0</ele><time>2026-04-25T07:07:37.809Z</time></trkpt><trkpt lat="43.4371005" lon="11.2442931"><ele>284.0</ele><time>2026-04-25T07:07:39.722Z</time></trkpt><trkpt lat="43.4371449" lon="11.244371"><ele>284.0</ele><time>2026-04-25T07:07:41.767Z</time></trkpt><trkpt lat="43.4372008" lon="11.2444577"><ele>284.0</ele><time>2026-04-25T07:07:43.718Z</time></trkpt><trkpt lat="43.4372596" lon="11.2445571"><ele>284.0</ele><time>2026-04-25T07:07:45.802Z</time></trkpt><trkpt lat="43.4373207" lon="11.2446507"><ele>284.0</ele><time>2026-04-25T07:07:47.799Z</time></trkpt><trkpt lat="43.437367" lon="11.2447446"><ele>285.0</ele><time>2026-04-25T07:07:49.722Z</time></trkpt><trkpt lat="43.4374102" lon="11.2448324"><ele>286.0</ele><time>2026-04-25T07:07:51.796Z</time></trkpt><trkpt lat="43.4374666" lon="11.2449132"><ele>287.0</ele><time>2026-04-25T07:07:53.718Z</time></trkpt><trkpt lat="43.4375165" lon="11.2449899"><ele>288.0</ele><time>2026-04-25T07:07:55.799Z</time></trkpt><trkpt lat="43.43759" lon="11.2450732"><ele>289.0</ele><time>2026-04-25T07:07:57.797Z</time></trkpt><trkpt lat="43.4376398" lon="11.2451541"><ele>290.0</ele><time>2026-04-25T07:07:59.73Z</time></trkpt><trkpt lat="43.4376937" lon="11.245223"><ele>290.0</ele><time>2026-04-25T07:08:01.717Z</time></trkpt><trkpt lat="43.4377429" lon="11.2452973"><ele>290.0</ele><time>2026-04-25T07:08:03.702Z</time></trkpt><trkpt lat="43.4377858" lon="11.2453717"><ele>290.0</ele><time>2026-04-25T07:08:05.704Z</time></trkpt><trkpt lat="43.4378281" lon="11.2454462"><ele>290.0</ele><time>2026-04-25T07:08:07.729Z</time></trkpt><trkpt lat="43.4378599" lon="11.2455214"><ele>290.0</ele><time>2026-04-25T07:08:09.72Z</time></trkpt><trkpt lat="43.4379009" lon="11.2455923"><ele>290.0</ele><time>2026-04-25T07:08:11.801Z</time></trkpt><trkpt lat="43.4379382" lon="11.2456659"><ele>290.0</ele><time>2026-04-25T07:08:13.709Z</time></trkpt><trkpt lat="43.4379985" lon="11.2457531"><ele>290.0</ele><time>2026-04-25T07:08:16.718Z</time></trkpt><trkpt lat="43.4380796" lon="11.2458173"><ele>290.0</ele><time>2026-04-25T07:08:19.726Z</time></trkpt><trkpt lat="43.4381152" lon="11.2458969"><ele>290.0</ele><time>2026-04-25T07:08:21.803Z</time></trkpt><trkpt lat="43.4381669" lon="11.2460109"><ele>290.0</ele><time>2026-04-25T07:08:24.719Z</time></trkpt><trkpt lat="43.4382139" lon="11.2461228"><ele>290.0</ele><time>2026-04-25T07:08:26.796Z</time></trkpt><trkpt lat="43.4382902" lon="11.2461934"><ele>290.0</ele><time>2026-04-25T07:08:29.725Z</time></trkpt><trkpt lat="43.4383565" lon="11.2463018"><ele>290.0</ele><time>2026-04-25T07:08:31.799Z</time></trkpt><trkpt lat="43.4383932" lon="11.2464076"><ele>290.0</ele><time>2026-04-25T07:08:33.724Z</time></trkpt><trkpt lat="43.438434" lon="11.2464914"><ele>290.0</ele><time>2026-04-25T07:08:35.711Z</time></trkpt><trkpt lat="43.4384586" lon="11.2466113"><ele>290.0</ele><time>2026-04-25T07:08:38.719Z</time></trkpt><trkpt lat="43.438469" lon="11.2467388"><ele>290.0</ele><time>2026-04-25T07:08:41.727Z</time></trkpt><trkpt lat="43.4384713" lon="11.2468518"><ele>290.0</ele><time>2026-04-25T07:08:43.728Z</time></trkpt><trkpt lat="43.4384832" lon="11.2469833"><ele>290.0</ele><time>2026-04-25T07:08:45.73Z</time></trkpt><trkpt lat="43.4385005" lon="11.2471066"><ele>290.0</ele><time>2026-04-25T07:08:47.808Z</time></trkpt><trkpt lat="43.4385023" lon="11.2472398"><ele>290.0</ele><time>2026-04-25T07:08:49.729Z</time></trkpt><trkpt lat="43.4384982" lon="11.2473811"><ele>290.0</ele><time>2026-04-25T07:08:51.795Z</time></trkpt><trkpt lat="43.4384846" lon="11.2475322"><ele>290.0</ele><time>2026-04-25T07:08:53.723Z</time></trkpt><trkpt lat="43.4384872" lon="11.2476845"><ele>290.0</ele><time>2026-04-25T07:08:55.793Z</time></trkpt><trkpt lat="43.4384963" lon="11.2478146"><ele>290.0</ele><time>2026-04-25T07:08:57.729Z</time></trkpt><trkpt lat="43.4385116" lon="11.2479475"><ele>290.0</ele><time>2026-04-25T07:08:59.725Z</time></trkpt><trkpt lat="43.4385216" lon="11.2480913"><ele>290.0</ele><time>2026-04-25T07:09:01.791Z</time></trkpt><trkpt lat="43.4385241" lon="11.2482322"><ele>290.0</ele><time>2026-04-25T07:09:03.709Z</time></trkpt><trkpt lat="43.4385322" lon="11.2483493"><ele>290.0</ele><time>2026-04-25T07:09:05.793Z</time></trkpt><trkpt lat="43.4385427" lon="11.2484661"><ele>290.0</ele><time>2026-04-25T07:09:07.735Z</time></trkpt><trkpt lat="43.4385591" lon="11.2485543"><ele>290.0</ele><time>2026-04-25T07:09:09.733Z</time></trkpt><trkpt lat="43.4385561" lon="11.2486582"><ele>290.0</ele><time>2026-04-25T07:09:12.726Z</time></trkpt><trkpt lat="43.4385593" lon="11.2487623"><ele>290.0</ele><time>2026-04-25T07:09:15.734Z</time></trkpt><trkpt lat="43.4385579" lon="11.2488991"><ele>290.0</ele><time>2026-04-25T07:09:18.725Z</time></trkpt><trkpt lat="43.4385579" lon="11.2489932"><ele>290.33333333333337</ele><time>2026-04-25T07:09:20.739Z</time></trkpt><trkpt lat="43.4385725" lon="11.2490873"><ele>290.6666666666667</ele><time>2026-04-25T07:09:22.738Z</time></trkpt><trkpt lat="43.4386238" lon="11.2491659"><ele>291.0</ele><time>2026-04-25T07:09:24.719Z</time></trkpt><trkpt lat="43.438673" lon="11.2492624"><ele>291.3333333333333</ele><time>2026-04-25T07:09:27.725Z</time></trkpt><trkpt lat="43.43866" lon="11.2493808"><ele>291.66666666666663</ele><time>2026-04-25T07:09:29.73Z</time></trkpt><trkpt lat="43.4386337" lon="11.249477"><ele>292.0</ele><time>2026-04-25T07:09:31.732Z</time></trkpt><trkpt lat="43.4386138" lon="11.2495983"><ele>292.0</ele><time>2026-04-25T07:09:33.736Z</time></trkpt><trkpt lat="43.4386082" lon="11.2497171"><ele>292.0</ele><time>2026-04-25T07:09:35.794Z</time></trkpt><trkpt lat="43.4386218" lon="11.2498451"><ele>292.0</ele><time>2026-04-25T07:09:37.802Z</time></trkpt><trkpt lat="43.438632" lon="11.2499859"><ele>292.0</ele><time>2026-04-25T07:09:39.726Z</time></trkpt><trkpt lat="43.4386497" lon="11.250121"><ele>292.0</ele><time>2026-04-25T07:09:41.802Z</time></trkpt><trkpt lat="43.4386499" lon="11.2502618"><ele>291.66666666666663</ele><time>2026-04-25T07:09:43.705Z</time></trkpt><trkpt lat="43.4386554" lon="11.2503897"><ele>291.3333333333333</ele><time>2026-04-25T07:09:45.723Z</time></trkpt><trkpt lat="43.4386572" lon="11.2505197"><ele>291.0</ele><time>2026-04-25T07:09:47.724Z</time></trkpt><trkpt lat="43.4386584" lon="11.250644"><ele>290.6666666666667</ele><time>2026-04-25T07:09:49.73Z</time></trkpt><trkpt lat="43.4386705" lon="11.2507585"><ele>290.33333333333337</ele><time>2026-04-25T07:09:51.729Z</time></trkpt><trkpt lat="43.4386751" lon="11.2508702"><ele>290.0</ele><time>2026-04-25T07:09:53.723Z</time></trkpt><trkpt lat="43.4386688" lon="11.2509903"><ele>290.0</ele><time>2026-04-25T07:09:55.706Z</time></trkpt><trkpt lat="43.4386471" lon="11.251106"><ele>290.0</ele><time>2026-04-25T07:09:57.793Z</time></trkpt><trkpt lat="43.4386221" lon="11.2512095"><ele>290.0</ele><time>2026-04-25T07:09:59.725Z</time></trkpt><trkpt lat="43.438604" lon="11.2513083"><ele>290.0</ele><time>2026-04-25T07:10:01.711Z</time></trkpt><trkpt lat="43.4385934" lon="11.2514221"><ele>290.0</ele><time>2026-04-25T07:10:03.714Z</time></trkpt><trkpt lat="43.4385732" lon="11.2515109"><ele>290.0</ele><time>2026-04-25T07:10:05.793Z</time></trkpt><trkpt lat="43.4385467" lon="11.2516133"><ele>290.0</ele><time>2026-04-25T07:10:07.795Z</time></trkpt><trkpt lat="43.4385117" lon="11.2517376"><ele>290.0</ele><time>2026-04-25T07:10:09.722Z</time></trkpt><trkpt lat="43.438485" lon="11.2518615"><ele>290.0</ele><time>2026-04-25T07:10:11.726Z</time></trkpt><trkpt lat="43.4384644" lon="11.2519884"><ele>290.0</ele><time>2026-04-25T07:10:13.706Z</time></trkpt><trkpt lat="43.4384181" lon="11.2520896"><ele>290.0</ele><time>2026-04-25T07:10:15.793Z</time></trkpt><trkpt lat="43.4383662" lon="11.2522036"><ele>290.6666666666667</ele><time>2026-04-25T07:10:17.803Z</time></trkpt><trkpt lat="43.4383183" lon="11.2523033"><ele>291.33333333333337</ele><time>2026-04-25T07:10:19.719Z</time></trkpt><trkpt lat="43.4382726" lon="11.2523888"><ele>292.0</ele><time>2026-04-25T07:10:21.72Z</time></trkpt><trkpt lat="43.438248" lon="11.2524987"><ele>292.6666666666667</ele><time>2026-04-25T07:10:23.707Z</time></trkpt><trkpt lat="43.4382289" lon="11.2526048"><ele>293.3333333333333</ele><time>2026-04-25T07:10:25.727Z</time></trkpt><trkpt lat="43.4382121" lon="11.2527382"><ele>294.0</ele><time>2026-04-25T07:10:27.741Z</time></trkpt><trkpt lat="43.4381724" lon="11.2528477"><ele>294.0</ele><time>2026-04-25T07:10:29.724Z</time></trkpt><trkpt lat="43.4381361" lon="11.2529644"><ele>294.0</ele><time>2026-04-25T07:10:31.805Z</time></trkpt><trkpt lat="43.4381085" lon="11.2530762"><ele>294.0</ele><time>2026-04-25T07:10:33.723Z</time></trkpt><trkpt lat="43.4380689" lon="11.2532067"><ele>294.0</ele><time>2026-04-25T07:10:35.73Z</time></trkpt><trkpt lat="43.4380315" lon="11.2533159"><ele>294.0</ele><time>2026-04-25T07:10:37.804Z</time></trkpt><trkpt lat="43.4379961" lon="11.2534122"><ele>294.0</ele><time>2026-04-25T07:10:39.746Z</time></trkpt><trkpt lat="43.4379525" lon="11.2534902"><ele>293.6666666666667</ele><time>2026-04-25T07:10:41.792Z</time></trkpt><trkpt lat="43.4379005" lon="11.2535464"><ele>293.3333333333333</ele><time>2026-04-25T07:10:43.708Z</time></trkpt><trkpt lat="43.4378584" lon="11.2536245"><ele>293.0</ele><time>2026-04-25T07:10:45.709Z</time></trkpt><trkpt lat="43.4378317" lon="11.2537174"><ele>292.66666666666663</ele><time>2026-04-25T07:10:47.708Z</time></trkpt><trkpt lat="43.4377879" lon="11.2538202"><ele>292.3333333333333</ele><time>2026-04-25T07:10:50.722Z</time></trkpt><trkpt lat="43.4377227" lon="11.253888"><ele>292.0</ele><time>2026-04-25T07:10:53.707Z</time></trkpt><trkpt lat="43.4376734" lon="11.2539622"><ele>293.42857142857144</ele><time>2026-04-25T07:10:56.734Z</time></trkpt><trkpt lat="43.4375808" lon="11.2539929"><ele>294.8571428571429</ele><time>2026-04-25T07:10:59.719Z</time></trkpt><trkpt lat="43.4375077" lon="11.2540162"><ele>296.28571428571433</ele><time>2026-04-25T07:11:02.721Z</time></trkpt><trkpt lat="43.4374445" lon="11.2540441"><ele>297.7142857142857</ele><time>2026-04-25T07:11:04.721Z</time></trkpt><trkpt lat="43.437375" lon="11.254062"><ele>299.14285714285717</ele><time>2026-04-25T07:11:06.694Z</time></trkpt><trkpt lat="43.4373149" lon="11.2540985"><ele>300.5714285714286</ele><time>2026-04-25T07:11:08.724Z</time></trkpt><trkpt lat="43.4372508" lon="11.2541172"><ele>302.0</ele><time>2026-04-25T07:11:10.714Z</time></trkpt><trkpt lat="43.437169" lon="11.2541417"><ele>301.0</ele><time>2026-04-25T07:11:13.725Z</time></trkpt><trkpt lat="43.4370828" lon="11.2541537"><ele>300.0</ele><time>2026-04-25T07:11:16.796Z</time></trkpt><trkpt lat="43.4370089" lon="11.2541578"><ele>299.0</ele><time>2026-04-25T07:11:18.721Z</time></trkpt><trkpt lat="43.4369346" lon="11.2542086"><ele>298.0</ele><time>2026-04-25T07:11:20.793Z</time></trkpt><trkpt lat="43.4368957" lon="11.2542837"><ele>297.0</ele><time>2026-04-25T07:11:22.809Z</time></trkpt><trkpt lat="43.4368596" lon="11.2543909"><ele>296.0</ele><time>2026-04-25T07:11:24.731Z</time></trkpt><trkpt lat="43.4368369" lon="11.2545153"><ele>296.0</ele><time>2026-04-25T07:11:26.8Z</time></trkpt><trkpt lat="43.4367569" lon="11.2545914"><ele>296.0</ele><time>2026-04-25T07:11:29.732Z</time></trkpt><trkpt lat="43.436686" lon="11.2546487"><ele>296.0</ele><time>2026-04-25T07:11:31.712Z</time></trkpt><trkpt lat="43.4365973" lon="11.2546629"><ele>296.0</ele><time>2026-04-25T07:11:33.732Z</time></trkpt><trkpt lat="43.4365101" lon="11.2546834"><ele>296.0</ele><time>2026-04-25T07:11:35.735Z</time></trkpt><trkpt lat="43.4364034" lon="11.254681"><ele>296.0</ele><time>2026-04-25T07:11:37.717Z</time></trkpt><trkpt lat="43.4363172" lon="11.2546604"><ele>296.0</ele><time>2026-04-25T07:11:39.714Z</time></trkpt><trkpt lat="43.4362059" lon="11.2546432"><ele>296.0</ele><time>2026-04-25T07:11:41.727Z</time></trkpt><trkpt lat="43.4361025" lon="11.2546182"><ele>296.0</ele><time>2026-04-25T07:11:43.718Z</time></trkpt><trkpt lat="43.4359843" lon="11.2545992"><ele>296.0</ele><time>2026-04-25T07:11:45.728Z</time></trkpt><trkpt lat="43.4358749" lon="11.2545744"><ele>294.0</ele><time>2026-04-25T07:11:47.797Z</time></trkpt><trkpt lat="43.4357665" lon="11.2545772"><ele>292.0</ele><time>2026-04-25T07:11:49.722Z</time></trkpt><trkpt lat="43.435658" lon="11.2545655"><ele>290.0</ele><time>2026-04-25T07:11:51.81Z</time></trkpt><trkpt lat="43.4355679" lon="11.2545307"><ele>288.0</ele><time>2026-04-25T07:11:53.73Z</time></trkpt><trkpt lat="43.435495" lon="11.2544841"><ele>286.0</ele><time>2026-04-25T07:11:55.728Z</time></trkpt><trkpt lat="43.4354365" lon="11.2544473"><ele>284.40000000000003</ele><time>2026-04-25T07:11:56.812Z</time></trkpt><trkpt lat="43.4353752" lon="11.2544237"><ele>282.8</ele><time>2026-04-25T07:11:57.8Z</time></trkpt><trkpt lat="43.4352739" lon="11.2543976"><ele>281.20000000000005</ele><time>2026-04-25T07:11:59.732Z</time></trkpt><trkpt lat="43.4351529" lon="11.2543597"><ele>279.6</ele><time>2026-04-25T07:12:01.802Z</time></trkpt><trkpt lat="43.4350363" lon="11.2543618"><ele>278.0</ele><time>2026-04-25T07:12:03.726Z</time></trkpt><trkpt lat="43.4349394" lon="11.2543729"><ele>278.0</ele><time>2026-04-25T07:12:05.724Z</time></trkpt><trkpt lat="43.4348126" lon="11.2543818"><ele>278.0</ele><time>2026-04-25T07:12:07.723Z</time></trkpt><trkpt lat="43.4347401" lon="11.2543801"><ele>278.0</ele><time>2026-04-25T07:12:08.718Z</time></trkpt><trkpt lat="43.4346563" lon="11.2543687"><ele>278.0</ele><time>2026-04-25T07:12:09.725Z</time></trkpt><trkpt lat="43.4345732" lon="11.2543567"><ele>278.0</ele><time>2026-04-25T07:12:10.725Z</time></trkpt><trkpt lat="43.4345072" lon="11.2543551"><ele>278.0</ele><time>2026-04-25T07:12:11.721Z</time></trkpt><trkpt lat="43.4344337" lon="11.2543524"><ele>276.33333333333337</ele><time>2026-04-25T07:12:12.727Z</time></trkpt><trkpt lat="43.4343708" lon="11.2543445"><ele>274.6666666666667</ele><time>2026-04-25T07:12:13.727Z</time></trkpt><trkpt lat="43.4342545" lon="11.2543135"><ele>273.0</ele><time>2026-04-25T07:12:15.809Z</time></trkpt><trkpt lat="43.4341875" lon="11.2543015"><ele>271.3333333333333</ele><time>2026-04-25T07:12:16.804Z</time></trkpt><trkpt lat="43.4341182" lon="11.2542908"><ele>269.66666666666663</ele><time>2026-04-25T07:12:17.806Z</time></trkpt><trkpt lat="43.4340553" lon="11.2542779"><ele>268.0</ele><time>2026-04-25T07:12:18.707Z</time></trkpt><trkpt lat="43.4339861" lon="11.2542604"><ele>268.0</ele><time>2026-04-25T07:12:19.723Z</time></trkpt><trkpt lat="43.4338639" lon="11.2542596"><ele>268.0</ele><time>2026-04-25T07:12:21.804Z</time></trkpt><trkpt lat="43.4337938" lon="11.2542577"><ele>268.0</ele><time>2026-04-25T07:12:22.782Z</time></trkpt><trkpt lat="43.4337242" lon="11.2542512"><ele>268.0</ele><time>2026-04-25T07:12:23.713Z</time></trkpt><trkpt lat="43.4336497" lon="11.2542474"><ele>268.0</ele><time>2026-04-25T07:12:24.728Z</time></trkpt><trkpt lat="43.4335267" lon="11.2542306"><ele>266.0</ele><time>2026-04-25T07:12:26.721Z</time></trkpt><trkpt lat="43.4334136" lon="11.254211"><ele>264.0</ele><time>2026-04-25T07:12:28.73Z</time></trkpt><trkpt lat="43.4333283" lon="11.2541932"><ele>262.0</ele><time>2026-04-25T07:12:30.725Z</time></trkpt><trkpt lat="43.4332286" lon="11.2541573"><ele>260.0</ele><time>2026-04-25T07:12:32.794Z</time></trkpt><trkpt lat="43.4331297" lon="11.2541208"><ele>258.0</ele><time>2026-04-25T07:12:34.718Z</time></trkpt><trkpt lat="43.4330133" lon="11.2541209"><ele>256.0</ele><time>2026-04-25T07:12:36.798Z</time></trkpt><trkpt lat="43.4329011" lon="11.2541166"><ele>254.0</ele><time>2026-04-25T07:12:38.719Z</time></trkpt><trkpt lat="43.4327827" lon="11.2540926"><ele>252.0</ele><time>2026-04-25T07:12:40.731Z</time></trkpt><trkpt lat="43.4326771" lon="11.2540988"><ele>250.0</ele><time>2026-04-25T07:12:42.722Z</time></trkpt><trkpt lat="43.4325815" lon="11.2541078"><ele>248.0</ele><time>2026-04-25T07:12:44.719Z</time></trkpt><trkpt lat="43.4325206" lon="11.2541587"><ele>248.0</ele><time>2026-04-25T07:12:46.729Z</time></trkpt><trkpt lat="43.4324787" lon="11.2542612"><ele>248.0</ele><time>2026-04-25T07:12:48.716Z</time></trkpt><trkpt lat="43.4324279" lon="11.2543611"><ele>248.0</ele><time>2026-04-25T07:12:50.724Z</time></trkpt><trkpt lat="43.4323444" lon="11.2544516"><ele>248.0</ele><time>2026-04-25T07:12:52.706Z</time></trkpt><trkpt lat="43.4322402" lon="11.2545281"><ele>248.0</ele><time>2026-04-25T07:12:54.73Z</time></trkpt><trkpt lat="43.4321759" lon="11.2545668"><ele>247.00000000000003</ele><time>2026-04-25T07:12:55.741Z</time></trkpt><trkpt lat="43.4321122" lon="11.2546391"><ele>246.0</ele><time>2026-04-25T07:12:56.815Z</time></trkpt><trkpt lat="43.432063" lon="11.2547022"><ele>245.0</ele><time>2026-04-25T07:12:57.8Z</time></trkpt><trkpt lat="43.431998" lon="11.2547457"><ele>244.0</ele><time>2026-04-25T07:12:58.707Z</time></trkpt><trkpt lat="43.4319167" lon="11.2547898"><ele>243.00000000000003</ele><time>2026-04-25T07:12:59.731Z</time></trkpt><trkpt lat="43.4318432" lon="11.2548453"><ele>242.0</ele><time>2026-04-25T07:13:00.732Z</time></trkpt><trkpt lat="43.431764" lon="11.254902"><ele>241.6</ele><time>2026-04-25T07:13:01.726Z</time></trkpt><trkpt lat="43.4316965" lon="11.2549621"><ele>241.2</ele><time>2026-04-25T07:13:02.813Z</time></trkpt><trkpt lat="43.4316263" lon="11.2550203"><ele>240.8</ele><time>2026-04-25T07:13:03.717Z</time></trkpt><trkpt lat="43.4315445" lon="11.2550726"><ele>240.4</ele><time>2026-04-25T07:13:04.718Z</time></trkpt><trkpt lat="43.4314597" lon="11.2551493"><ele>240.0</ele><time>2026-04-25T07:13:05.721Z</time></trkpt><trkpt lat="43.4313647" lon="11.2552193"><ele>238.8</ele><time>2026-04-25T07:13:06.809Z</time></trkpt><trkpt lat="43.4312808" lon="11.2552809"><ele>237.6</ele><time>2026-04-25T07:13:07.805Z</time></trkpt><trkpt lat="43.4312198" lon="11.255352"><ele>236.39999999999998</ele><time>2026-04-25T07:13:08.72Z</time></trkpt><trkpt lat="43.4311246" lon="11.25541"><ele>235.2</ele><time>2026-04-25T07:13:09.725Z</time></trkpt><trkpt lat="43.4310355" lon="11.2554856"><ele>234.0</ele><time>2026-04-25T07:13:10.796Z</time></trkpt><trkpt lat="43.4309635" lon="11.2555243"><ele>234.0</ele><time>2026-04-25T07:13:11.803Z</time></trkpt><trkpt lat="43.4308818" lon="11.2555753"><ele>234.0</ele><time>2026-04-25T07:13:12.786Z</time></trkpt><trkpt lat="43.4308008" lon="11.2556215"><ele>234.0</ele><time>2026-04-25T07:13:13.721Z</time></trkpt><trkpt lat="43.4307315" lon="11.2556756"><ele>234.0</ele><time>2026-04-25T07:13:14.727Z</time></trkpt><trkpt lat="43.43067" lon="11.2557201"><ele>234.0</ele><time>2026-04-25T07:13:15.727Z</time></trkpt><trkpt lat="43.4306049" lon="11.2557666"><ele>234.0</ele><time>2026-04-25T07:13:16.711Z</time></trkpt><trkpt lat="43.4305193" lon="11.2558088"><ele>233.39999999999998</ele><time>2026-04-25T07:13:17.733Z</time></trkpt><trkpt lat="43.4304305" lon="11.2558893"><ele>232.79999999999998</ele><time>2026-04-25T07:13:18.707Z</time></trkpt><trkpt lat="43.4303406" lon="11.25594"><ele>232.20000000000002</ele><time>2026-04-25T07:13:19.729Z</time></trkpt><trkpt lat="43.4302638" lon="11.2559993"><ele>231.60000000000002</ele><time>2026-04-25T07:13:20.725Z</time></trkpt><trkpt lat="43.4301842" lon="11.2560563"><ele>231.0</ele><time>2026-04-25T07:13:21.731Z</time></trkpt><trkpt lat="43.4301066" lon="11.256112"><ele>231.0</ele><time>2026-04-25T07:13:22.729Z</time></trkpt><trkpt lat="43.430026" lon="11.2561654"><ele>231.0</ele><time>2026-04-25T07:13:23.711Z</time></trkpt><trkpt lat="43.4299436" lon="11.2562146"><ele>231.0</ele><time>2026-04-25T07:13:24.724Z</time></trkpt><trkpt lat="43.4298557" lon="11.256256"><ele>231.0</ele><time>2026-04-25T07:13:25.723Z</time></trkpt><trkpt lat="43.4297708" lon="11.2562772"><ele>231.0</ele><time>2026-04-25T07:13:26.785Z</time></trkpt><trkpt lat="43.4296994" lon="11.2563166"><ele>231.0</ele><time>2026-04-25T07:13:27.723Z</time></trkpt><trkpt lat="43.4296229" lon="11.2563303"><ele>231.0</ele><time>2026-04-25T07:13:28.704Z</time></trkpt><trkpt lat="43.4294921" lon="11.256329"><ele>231.00000000000003</ele><time>2026-04-25T07:13:30.747Z</time></trkpt><trkpt lat="43.429372" lon="11.2563424"><ele>231.00000000000003</ele><time>2026-04-25T07:13:32.794Z</time></trkpt><trkpt lat="43.4293075" lon="11.2563381"><ele>231.0</ele><time>2026-04-25T07:13:33.721Z</time></trkpt><trkpt lat="43.4291966" lon="11.2563319"><ele>231.0</ele><time>2026-04-25T07:13:35.8Z</time></trkpt><trkpt lat="43.4291196" lon="11.2563287"><ele>231.0</ele><time>2026-04-25T07:13:37.791Z</time></trkpt><trkpt lat="43.429047" lon="11.2563407"><ele>231.0</ele><time>2026-04-25T07:13:39.72Z</time></trkpt><trkpt lat="43.4289797" lon="11.2563495"><ele>231.0</ele><time>2026-04-25T07:13:41.725Z</time></trkpt><trkpt lat="43.4289068" lon="11.2563591"><ele>231.0</ele><time>2026-04-25T07:13:43.713Z</time></trkpt><trkpt lat="43.4288347" lon="11.2563635"><ele>231.0</ele><time>2026-04-25T07:13:45.735Z</time></trkpt><trkpt lat="43.4287642" lon="11.2563726"><ele>231.0</ele><time>2026-04-25T07:13:47.723Z</time></trkpt><trkpt lat="43.4286821" lon="11.2563944"><ele>231.0</ele><time>2026-04-25T07:13:49.737Z</time></trkpt><trkpt lat="43.4285849" lon="11.2563911"><ele>231.5</ele><time>2026-04-25T07:13:51.729Z</time></trkpt><trkpt lat="43.4284847" lon="11.2563879"><ele>232.0</ele><time>2026-04-25T07:13:53.728Z</time></trkpt><trkpt lat="43.4283919" lon="11.256376"><ele>232.5</ele><time>2026-04-25T07:13:55.731Z</time></trkpt><trkpt lat="43.4283087" lon="11.2563601"><ele>233.0</ele><time>2026-04-25T07:13:57.793Z</time></trkpt><trkpt lat="43.4282322" lon="11.2563393"><ele>233.5</ele><time>2026-04-25T07:13:59.721Z</time></trkpt><trkpt lat="43.4281644" lon="11.2563152"><ele>234.0</ele><time>2026-04-25T07:14:01.795Z</time></trkpt><trkpt lat="43.4280922" lon="11.2562873"><ele>234.0</ele><time>2026-04-25T07:14:03.723Z</time></trkpt><trkpt lat="43.4280152" lon="11.2562547"><ele>234.00000000000003</ele><time>2026-04-25T07:14:06.809Z</time></trkpt><trkpt lat="43.427953" lon="11.2562052"><ele>234.0</ele><time>2026-04-25T07:14:10.794Z</time></trkpt><trkpt lat="43.4278798" lon="11.2561921"><ele>234.0</ele><time>2026-04-25T07:14:13.733Z</time></trkpt><trkpt lat="43.4278033" lon="11.2561741"><ele>234.00000000000003</ele><time>2026-04-25T07:14:17.727Z</time></trkpt><trkpt lat="43.427739" lon="11.2561657"><ele>234.0</ele><time>2026-04-25T07:14:20.718Z</time></trkpt><trkpt lat="43.4276694" lon="11.2561596"><ele>234.0</ele><time>2026-04-25T07:14:23.724Z</time></trkpt><trkpt lat="43.4276096" lon="11.25619"><ele>235.2857142857143</ele><time>2026-04-25T07:14:26.723Z</time></trkpt><trkpt lat="43.4275323" lon="11.2562035"><ele>236.5714285714286</ele><time>2026-04-25T07:14:30.717Z</time></trkpt><trkpt lat="43.427464" lon="11.2562214"><ele>237.85714285714286</ele><time>2026-04-25T07:14:33.726Z</time></trkpt><trkpt lat="43.4273922" lon="11.2562302"><ele>239.14285714285717</ele><time>2026-04-25T07:14:36.728Z</time></trkpt><trkpt lat="43.427326" lon="11.2562869"><ele>240.42857142857144</ele><time>2026-04-25T07:14:40.723Z</time></trkpt><trkpt lat="43.4272768" lon="11.2563424"><ele>241.71428571428572</ele><time>2026-04-25T07:14:44.713Z</time></trkpt><trkpt lat="43.4272329" lon="11.2564242"><ele>243.0</ele><time>2026-04-25T07:14:48.717Z</time></trkpt><trkpt lat="43.4271853" lon="11.2565081"><ele>244.0</ele><time>2026-04-25T07:14:52.803Z</time></trkpt><trkpt lat="43.4271414" lon="11.2565916"><ele>245.0</ele><time>2026-04-25T07:14:56.719Z</time></trkpt><trkpt lat="43.4270978" lon="11.2566567"><ele>246.0</ele><time>2026-04-25T07:15:00.727Z</time></trkpt><trkpt lat="43.4270777" lon="11.2567417"><ele>247.0</ele><time>2026-04-25T07:15:03.736Z</time></trkpt><trkpt lat="43.4270619" lon="11.2568526"><ele>248.0</ele><time>2026-04-25T07:15:07.732Z</time></trkpt><trkpt lat="43.4270155" lon="11.2569421"><ele>249.0</ele><time>2026-04-25T07:15:11.804Z</time></trkpt><trkpt lat="43.4269918" lon="11.2570334"><ele>250.0</ele><time>2026-04-25T07:15:15.79Z</time></trkpt><trkpt lat="43.4269616" lon="11.2571203"><ele>249.99999999999997</ele><time>2026-04-25T07:15:18.727Z</time></trkpt><trkpt lat="43.4269204" lon="11.2572195"><ele>250.0</ele><time>2026-04-25T07:15:22.807Z</time></trkpt><trkpt lat="43.4268614" lon="11.257293"><ele>250.0</ele><time>2026-04-25T07:15:25.736Z</time></trkpt><trkpt lat="43.4267904" lon="11.2573272"><ele>250.0</ele><time>2026-04-25T07:15:28.737Z</time></trkpt><trkpt lat="43.4267565" lon="11.2574157"><ele>249.99999999999997</ele><time>2026-04-25T07:15:32.725Z</time></trkpt><trkpt lat="43.4267333" lon="11.2575261"><ele>250.0</ele><time>2026-04-25T07:15:37.72Z</time></trkpt><trkpt lat="43.4267066" lon="11.2576107"><ele>250.57142857142856</ele><time>2026-04-25T07:15:40.719Z</time></trkpt><trkpt lat="43.4266631" lon="11.2576989"><ele>251.14285714285717</ele><time>2026-04-25T07:15:44.73Z</time></trkpt><trkpt lat="43.4266289" lon="11.257781"><ele>251.71428571428572</ele><time>2026-04-25T07:15:48.73Z</time></trkpt><trkpt lat="43.426594" lon="11.2578729"><ele>252.28571428571428</ele><time>2026-04-25T07:15:52.728Z</time></trkpt><trkpt lat="43.4265855" lon="11.2579612"><ele>252.85714285714283</ele><time>2026-04-25T07:15:55.737Z</time></trkpt><trkpt lat="43.4265596" lon="11.2580527"><ele>253.42857142857144</ele><time>2026-04-25T07:15:58.705Z</time></trkpt><trkpt lat="43.42653" lon="11.2581497"><ele>254.0</ele><time>2026-04-25T07:16:01.725Z</time></trkpt><trkpt lat="43.4265075" lon="11.2582482"><ele>254.42857142857144</ele><time>2026-04-25T07:16:04.745Z</time></trkpt><trkpt lat="43.4264877" lon="11.2583388"><ele>254.85714285714283</ele><time>2026-04-25T07:16:07.729Z</time></trkpt><trkpt lat="43.4264745" lon="11.2584346"><ele>255.28571428571428</ele><time>2026-04-25T07:16:12.708Z</time></trkpt><trkpt lat="43.4264554" lon="11.258527"><ele>255.71428571428572</ele><time>2026-04-25T07:16:15.722Z</time></trkpt><trkpt lat="43.4264554" lon="11.2586256"><ele>256.14285714285717</ele><time>2026-04-25T07:16:18.725Z</time></trkpt><trkpt lat="43.4264473" lon="11.2587358"><ele>256.57142857142856</ele><time>2026-04-25T07:16:22.804Z</time></trkpt><trkpt lat="43.4264486" lon="11.2588259"><ele>257.0</ele><time>2026-04-25T07:16:25.805Z</time></trkpt><trkpt lat="43.426438" lon="11.2589327"><ele>257.57142857142856</ele><time>2026-04-25T07:16:28.713Z</time></trkpt><trkpt lat="43.4264229" lon="11.2590426"><ele>258.14285714285717</ele><time>2026-04-25T07:16:31.714Z</time></trkpt><trkpt lat="43.4264267" lon="11.25915"><ele>258.7142857142857</ele><time>2026-04-25T07:16:34.731Z</time></trkpt><trkpt lat="43.4264371" lon="11.2592477"><ele>259.2857142857143</ele><time>2026-04-25T07:16:37.797Z</time></trkpt><trkpt lat="43.4264439" lon="11.2593519"><ele>259.85714285714283</ele><time>2026-04-25T07:16:40.718Z</time></trkpt><trkpt lat="43.4264252" lon="11.2594555"><ele>260.42857142857144</ele><time>2026-04-25T07:16:43.727Z</time></trkpt><trkpt lat="43.4264122" lon="11.259542"><ele>261.0</ele><time>2026-04-25T07:16:46.745Z</time></trkpt><trkpt lat="43.4264488" lon="11.2596368"><ele>261.0</ele><time>2026-04-25T07:16:49.723Z</time></trkpt><trkpt lat="43.426479" lon="11.2597301"><ele>261.0</ele><time>2026-04-25T07:16:52.724Z</time></trkpt><trkpt lat="43.4264923" lon="11.2598563"><ele>261.0</ele><time>2026-04-25T07:16:55.719Z</time></trkpt><trkpt lat="43.426527" lon="11.2599674"><ele>261.0</ele><time>2026-04-25T07:16:59.733Z</time></trkpt><trkpt lat="43.426552" lon="11.2600535"><ele>261.0</ele><time>2026-04-25T07:17:02.818Z</time></trkpt><trkpt lat="43.4265782" lon="11.2601522"><ele>261.0</ele><time>2026-04-25T07:17:05.797Z</time></trkpt><trkpt lat="43.4265727" lon="11.2602582"><ele>261.6666666666667</ele><time>2026-04-25T07:17:08.725Z</time></trkpt><trkpt lat="43.4265853" lon="11.2603645"><ele>262.3333333333333</ele><time>2026-04-25T07:17:12.806Z</time></trkpt><trkpt lat="43.4265741" lon="11.2604808"><ele>263.0</ele><time>2026-04-25T07:17:19.739Z</time></trkpt><trkpt lat="43.4265864" lon="11.2605797"><ele>263.66666666666663</ele><time>2026-04-25T07:17:22.74Z</time></trkpt><trkpt lat="43.4266276" lon="11.2606857"><ele>264.3333333333333</ele><time>2026-04-25T07:17:25.721Z</time></trkpt><trkpt lat="43.4266347" lon="11.260802"><ele>265.0</ele><time>2026-04-25T07:17:29.722Z</time></trkpt><trkpt lat="43.4266446" lon="11.2609125"><ele>265.71428571428567</ele><time>2026-04-25T07:17:32.806Z</time></trkpt><trkpt lat="43.426644" lon="11.2610218"><ele>266.42857142857144</ele><time>2026-04-25T07:17:35.727Z</time></trkpt><trkpt lat="43.4266353" lon="11.2611167"><ele>267.1428571428571</ele><time>2026-04-25T07:17:38.718Z</time></trkpt><trkpt lat="43.426649" lon="11.2612152"><ele>267.85714285714283</ele><time>2026-04-25T07:17:42.796Z</time></trkpt><trkpt lat="43.4266416" lon="11.2613091"><ele>268.57142857142856</ele><time>2026-04-25T07:17:45.717Z</time></trkpt><trkpt lat="43.4266554" lon="11.2613949"><ele>269.2857142857143</ele><time>2026-04-25T07:17:48.733Z</time></trkpt><trkpt lat="43.4266642" lon="11.261493"><ele>270.0</ele><time>2026-04-25T07:17:52.807Z</time></trkpt><trkpt lat="43.426669" lon="11.261583"><ele>271.0</ele><time>2026-04-25T07:17:56.735Z</time></trkpt><trkpt lat="43.4266781" lon="11.2616956"><ele>272.0</ele><time>2026-04-25T07:18:00.726Z</time></trkpt><trkpt lat="43.4266948" lon="11.2618066"><ele>273.0</ele><time>2026-04-25T07:18:04.728Z</time></trkpt><trkpt lat="43.4267233" lon="11.2618887"><ele>274.0</ele><time>2026-04-25T07:18:08.709Z</time></trkpt><trkpt lat="43.4267391" lon="11.2619728"><ele>275.0</ele><time>2026-04-25T07:18:12.806Z</time></trkpt><trkpt lat="43.4267643" lon="11.2620611"><ele>276.0</ele><time>2026-04-25T07:18:16.797Z</time></trkpt><trkpt lat="43.4267932" lon="11.2621473"><ele>277.0</ele><time>2026-04-25T07:18:20.784Z</time></trkpt><trkpt lat="43.4268293" lon="11.2622316"><ele>278.16666666666663</ele><time>2026-04-25T07:18:25.807Z</time></trkpt><trkpt lat="43.426857" lon="11.2623198"><ele>279.3333333333333</ele><time>2026-04-25T07:18:28.717Z</time></trkpt><trkpt lat="43.4269141" lon="11.2624176"><ele>280.5</ele><time>2026-04-25T07:18:31.724Z</time></trkpt><trkpt lat="43.4269341" lon="11.2625104"><ele>281.6666666666667</ele><time>2026-04-25T07:18:35.73Z</time></trkpt><trkpt lat="43.4269798" lon="11.262613"><ele>282.83333333333337</ele><time>2026-04-25T07:18:39.703Z</time></trkpt><trkpt lat="43.4270055" lon="11.2626945"><ele>284.0</ele><time>2026-04-25T07:18:42.794Z</time></trkpt><trkpt lat="43.4270327" lon="11.2627806"><ele>284.0</ele><time>2026-04-25T07:18:47.724Z</time></trkpt><trkpt lat="43.4270627" lon="11.2628619"><ele>284.0</ele><time>2026-04-25T07:18:50.807Z</time></trkpt><trkpt lat="43.4270878" lon="11.2629507"><ele>284.0</ele><time>2026-04-25T07:18:53.717Z</time></trkpt><trkpt lat="43.4271297" lon="11.2630284"><ele>284.0</ele><time>2026-04-25T07:18:56.801Z</time></trkpt><trkpt lat="43.4271713" lon="11.2630942"><ele>284.0</ele><time>2026-04-25T07:19:00.732Z</time></trkpt><trkpt lat="43.4272239" lon="11.2631928"><ele>284.0</ele><time>2026-04-25T07:19:04.728Z</time></trkpt><trkpt lat="43.4272667" lon="11.2632675"><ele>284.0</ele><time>2026-04-25T07:19:07.716Z</time></trkpt><trkpt lat="43.4273045" lon="11.2633475"><ele>284.5</ele><time>2026-04-25T07:19:10.729Z</time></trkpt><trkpt lat="43.427348" lon="11.2634406"><ele>285.0</ele><time>2026-04-25T07:19:13.724Z</time></trkpt><trkpt lat="43.4273994" lon="11.2635245"><ele>285.5</ele><time>2026-04-25T07:19:16.806Z</time></trkpt><trkpt lat="43.4274535" lon="11.2636133"><ele>286.0</ele><time>2026-04-25T07:19:19.729Z</time></trkpt><trkpt lat="43.427505" lon="11.2637018"><ele>286.5</ele><time>2026-04-25T07:19:22.811Z</time></trkpt><trkpt lat="43.427541" lon="11.263794"><ele>287.0</ele><time>2026-04-25T07:19:25.723Z</time></trkpt><trkpt lat="43.4276019" lon="11.2638825"><ele>287.0</ele><time>2026-04-25T07:19:28.71Z</time></trkpt><trkpt lat="43.427659" lon="11.2639424"><ele>287.0</ele><time>2026-04-25T07:19:30.796Z</time></trkpt><trkpt lat="43.4277018" lon="11.2640127"><ele>287.0</ele><time>2026-04-25T07:19:32.795Z</time></trkpt><trkpt lat="43.4277289" lon="11.2640958"><ele>287.0</ele><time>2026-04-25T07:19:34.73Z</time></trkpt><trkpt lat="43.4277665" lon="11.2642022"><ele>287.0</ele><time>2026-04-25T07:19:37.726Z</time></trkpt><trkpt lat="43.4278085" lon="11.2643044"><ele>287.0</ele><time>2026-04-25T07:19:40.72Z</time></trkpt><trkpt lat="43.4278387" lon="11.264428"><ele>286.83333333333337</ele><time>2026-04-25T07:19:43.719Z</time></trkpt><trkpt lat="43.4278435" lon="11.2645413"><ele>286.6666666666667</ele><time>2026-04-25T07:19:45.73Z</time></trkpt><trkpt lat="43.4278367" lon="11.26465"><ele>286.5</ele><time>2026-04-25T07:19:47.728Z</time></trkpt><trkpt lat="43.427819" lon="11.2647858"><ele>286.3333333333333</ele><time>2026-04-25T07:19:49.712Z</time></trkpt><trkpt lat="43.4278021" lon="11.2649048"><ele>286.16666666666663</ele><time>2026-04-25T07:19:51.73Z</time></trkpt><trkpt lat="43.4277849" lon="11.2649923"><ele>286.0</ele><time>2026-04-25T07:19:53.741Z</time></trkpt><trkpt lat="43.4277732" lon="11.2650885"><ele>285.40000000000003</ele><time>2026-04-25T07:19:55.709Z</time></trkpt><trkpt lat="43.4277653" lon="11.2652006"><ele>284.8</ele><time>2026-04-25T07:19:57.807Z</time></trkpt><trkpt lat="43.4277426" lon="11.2653186"><ele>284.20000000000005</ele><time>2026-04-25T07:19:59.728Z</time></trkpt><trkpt lat="43.4277016" lon="11.2654339"><ele>283.6</ele><time>2026-04-25T07:20:01.704Z</time></trkpt><trkpt lat="43.4276461" lon="11.2655419"><ele>283.0</ele><time>2026-04-25T07:20:03.726Z</time></trkpt><trkpt lat="43.4275812" lon="11.2656626"><ele>282.66666666666663</ele><time>2026-04-25T07:20:05.718Z</time></trkpt><trkpt lat="43.4275486" lon="11.2657406"><ele>282.3333333333333</ele><time>2026-04-25T07:20:06.798Z</time></trkpt><trkpt lat="43.4274817" lon="11.2658921"><ele>282.0</ele><time>2026-04-25T07:20:08.721Z</time></trkpt><trkpt lat="43.4274453" lon="11.2659722"><ele>281.6666666666667</ele><time>2026-04-25T07:20:09.72Z</time></trkpt><trkpt lat="43.4274104" lon="11.2660542"><ele>281.33333333333337</ele><time>2026-04-25T07:20:10.727Z</time></trkpt><trkpt lat="43.4273701" lon="11.266132"><ele>281.0</ele><time>2026-04-25T07:20:11.79Z</time></trkpt><trkpt lat="43.4273292" lon="11.2662022"><ele>281.0</ele><time>2026-04-25T07:20:12.802Z</time></trkpt><trkpt lat="43.4272876" lon="11.2662691"><ele>281.0</ele><time>2026-04-25T07:20:13.723Z</time></trkpt><trkpt lat="43.4272425" lon="11.266342"><ele>281.0</ele><time>2026-04-25T07:20:14.73Z</time></trkpt><trkpt lat="43.4271809" lon="11.2664651"><ele>281.0</ele><time>2026-04-25T07:20:16.725Z</time></trkpt><trkpt lat="43.4271584" lon="11.2665659"><ele>281.0</ele><time>2026-04-25T07:20:19.72Z</time></trkpt><trkpt lat="43.4271966" lon="11.2666353"><ele>281.0</ele><time>2026-04-25T07:20:22.724Z</time></trkpt><trkpt lat="43.4272393" lon="11.2667311"><ele>280.2</ele><time>2026-04-25T07:20:25.728Z</time></trkpt><trkpt lat="43.4273028" lon="11.266835"><ele>279.40000000000003</ele><time>2026-04-25T07:20:27.72Z</time></trkpt><trkpt lat="43.4273618" lon="11.2669277"><ele>278.6</ele><time>2026-04-25T07:20:29.72Z</time></trkpt><trkpt lat="43.4274311" lon="11.2669993"><ele>277.8</ele><time>2026-04-25T07:20:31.804Z</time></trkpt><trkpt lat="43.4274988" lon="11.2670495"><ele>277.0</ele><time>2026-04-25T07:20:33.716Z</time></trkpt><trkpt lat="43.427589" lon="11.2671196"><ele>277.0</ele><time>2026-04-25T07:20:35.798Z</time></trkpt><trkpt lat="43.4276711" lon="11.2671957"><ele>277.0</ele><time>2026-04-25T07:20:37.727Z</time></trkpt><trkpt lat="43.4277439" lon="11.2672405"><ele>277.0</ele><time>2026-04-25T07:20:39.72Z</time></trkpt><trkpt lat="43.4278148" lon="11.26728"><ele>277.0</ele><time>2026-04-25T07:20:41.8Z</time></trkpt><trkpt lat="43.4278782" lon="11.2673168"><ele>277.0</ele><time>2026-04-25T07:20:43.704Z</time></trkpt><trkpt lat="43.4279656" lon="11.2673431"><ele>277.0</ele><time>2026-04-25T07:20:47.794Z</time></trkpt><trkpt lat="43.4280156" lon="11.2672794"><ele>277.0</ele><time>2026-04-25T07:21:15.802Z</time></trkpt><trkpt lat="43.4279979" lon="11.2671852"><ele>277.0</ele><time>2026-04-25T07:22:03.718Z</time></trkpt><trkpt lat="43.4279544" lon="11.2672515"><ele>277.0</ele><time>2026-04-25T07:22:35.709Z</time></trkpt><trkpt lat="43.4280064" lon="11.2673096"><ele>277.0</ele><time>2026-04-25T07:24:02.799Z</time></trkpt><trkpt lat="43.4279518" lon="11.2672654"><ele>277.0</ele><time>2026-04-25T07:24:41.798Z</time></trkpt><trkpt lat="43.4278805" lon="11.2672788"><ele>277.0</ele><time>2026-04-25T07:24:48.704Z</time></trkpt><trkpt lat="43.4278148" lon="11.267267"><ele>277.0</ele><time>2026-04-25T07:24:52.725Z</time></trkpt><trkpt lat="43.4277268" lon="11.2672256"><ele>277.0</ele><time>2026-04-25T07:24:56.726Z</time></trkpt><trkpt lat="43.4276599" lon="11.2671512"><ele>277.0</ele><time>2026-04-25T07:25:01.72Z</time></trkpt><trkpt lat="43.4275809" lon="11.2670759"><ele>277.0</ele><time>2026-04-25T07:25:04.729Z</time></trkpt><trkpt lat="43.4275291" lon="11.2669975"><ele>277.0</ele><time>2026-04-25T07:25:09.74Z</time></trkpt><trkpt lat="43.4274628" lon="11.2669515"><ele>277.0</ele><time>2026-04-25T07:25:12.714Z</time></trkpt><trkpt lat="43.4273896" lon="11.2669148"><ele>277.0</ele><time>2026-04-25T07:25:15.8Z</time></trkpt><trkpt lat="43.4273234" lon="11.2668515"><ele>277.0</ele><time>2026-04-25T07:25:18.71Z</time></trkpt><trkpt lat="43.4272997" lon="11.2667649"><ele>277.0</ele><time>2026-04-25T07:25:21.796Z</time></trkpt><trkpt lat="43.4272754" lon="11.2666642"><ele>277.0</ele><time>2026-04-25T07:25:24.726Z</time></trkpt><trkpt lat="43.4272083" lon="11.2665992"><ele>277.0</ele><time>2026-04-25T07:25:28.732Z</time></trkpt><trkpt lat="43.4271458" lon="11.2665623"><ele>277.0</ele><time>2026-04-25T07:25:32.71Z</time></trkpt><trkpt lat="43.4270876" lon="11.2665982"><ele>277.0</ele><time>2026-04-25T07:25:35.702Z</time></trkpt><trkpt lat="43.4270257" lon="11.2667009"><ele>276.66666666666663</ele><time>2026-04-25T07:25:39.728Z</time></trkpt><trkpt lat="43.4269764" lon="11.2667894"><ele>276.3333333333333</ele><time>2026-04-25T07:25:41.795Z</time></trkpt><trkpt lat="43.4269386" lon="11.266859"><ele>276.0</ele><time>2026-04-25T07:25:43.726Z</time></trkpt><trkpt lat="43.4269129" lon="11.2669702"><ele>275.6666666666667</ele><time>2026-04-25T07:25:46.808Z</time></trkpt><trkpt lat="43.4268662" lon="11.2670824"><ele>275.33333333333337</ele><time>2026-04-25T07:25:50.806Z</time></trkpt><trkpt lat="43.4268309" lon="11.2671734"><ele>275.0</ele><time>2026-04-25T07:25:52.726Z</time></trkpt><trkpt lat="43.4267361" lon="11.2672606"><ele>275.6666666666667</ele><time>2026-04-25T07:25:55.728Z</time></trkpt><trkpt lat="43.4266711" lon="11.2673232"><ele>276.33333333333337</ele><time>2026-04-25T07:25:58.724Z</time></trkpt><trkpt lat="43.426683" lon="11.2674387"><ele>277.0</ele><time>2026-04-25T07:26:00.702Z</time></trkpt><trkpt lat="43.426682" lon="11.2675362"><ele>277.6666666666667</ele><time>2026-04-25T07:26:02.741Z</time></trkpt><trkpt lat="43.4266713" lon="11.2676269"><ele>278.3333333333333</ele><time>2026-04-25T07:26:04.731Z</time></trkpt><trkpt lat="43.4266415" lon="11.2677435"><ele>279.0</ele><time>2026-04-25T07:26:07.735Z</time></trkpt><trkpt lat="43.4266128" lon="11.2678618"><ele>279.0</ele><time>2026-04-25T07:26:10.707Z</time></trkpt><trkpt lat="43.4265762" lon="11.2679811"><ele>279.0</ele><time>2026-04-25T07:26:13.728Z</time></trkpt><trkpt lat="43.4265496" lon="11.2680918"><ele>279.0</ele><time>2026-04-25T07:26:16.711Z</time></trkpt><trkpt lat="43.4265169" lon="11.2682082"><ele>279.0</ele><time>2026-04-25T07:26:19.728Z</time></trkpt><trkpt lat="43.4264932" lon="11.2683294"><ele>279.0</ele><time>2026-04-25T07:26:22.728Z</time></trkpt><trkpt lat="43.4264724" lon="11.2684152"><ele>279.0</ele><time>2026-04-25T07:26:24.721Z</time></trkpt><trkpt lat="43.4264553" lon="11.2685043"><ele>279.0</ele><time>2026-04-25T07:26:26.801Z</time></trkpt><trkpt lat="43.4264358" lon="11.2686212"><ele>279.0</ele><time>2026-04-25T07:26:30.799Z</time></trkpt><trkpt lat="43.4264185" lon="11.2687408"><ele>279.0</ele><time>2026-04-25T07:26:33.706Z</time></trkpt><trkpt lat="43.4263949" lon="11.268858"><ele>279.0</ele><time>2026-04-25T07:26:36.723Z</time></trkpt><trkpt lat="43.4263792" lon="11.2689486"><ele>279.0</ele><time>2026-04-25T07:26:38.72Z</time></trkpt><trkpt lat="43.426369" lon="11.269063"><ele>279.0</ele><time>2026-04-25T07:26:41.728Z</time></trkpt><trkpt lat="43.4263712" lon="11.2691685"><ele>279.0</ele><time>2026-04-25T07:26:44.733Z</time></trkpt><trkpt lat="43.4263884" lon="11.2692815"><ele>279.0</ele><time>2026-04-25T07:26:48.717Z</time></trkpt><trkpt lat="43.4263786" lon="11.2693905"><ele>279.0</ele><time>2026-04-25T07:26:51.713Z</time></trkpt><trkpt lat="43.4263665" lon="11.2694908"><ele>279.0</ele><time>2026-04-25T07:26:53.707Z</time></trkpt><trkpt lat="43.426353" lon="11.2695816"><ele>279.0</ele><time>2026-04-25T07:26:55.726Z</time></trkpt><trkpt lat="43.4263562" lon="11.2696918"><ele>279.0</ele><time>2026-04-25T07:26:57.808Z</time></trkpt><trkpt lat="43.4263588" lon="11.2698077"><ele>279.2</ele><time>2026-04-25T07:26:59.721Z</time></trkpt><trkpt lat="43.4263616" lon="11.2699277"><ele>279.4</ele><time>2026-04-25T07:27:01.807Z</time></trkpt><trkpt lat="43.4263601" lon="11.2701059"><ele>279.6</ele><time>2026-04-25T07:27:04.726Z</time></trkpt><trkpt lat="43.4263169" lon="11.2702513"><ele>279.8</ele><time>2026-04-25T07:27:06.797Z</time></trkpt><trkpt lat="43.4262968" lon="11.2703359"><ele>280.0</ele><time>2026-04-25T07:27:07.806Z</time></trkpt><trkpt lat="43.4262383" lon="11.2704962"><ele>279.4</ele><time>2026-04-25T07:27:09.721Z</time></trkpt><trkpt lat="43.4261896" lon="11.2706356"><ele>278.8</ele><time>2026-04-25T07:27:11.738Z</time></trkpt><trkpt lat="43.4261339" lon="11.2707462"><ele>278.2</ele><time>2026-04-25T07:27:13.728Z</time></trkpt><trkpt lat="43.4260997" lon="11.2708771"><ele>277.6</ele><time>2026-04-25T07:27:15.726Z</time></trkpt><trkpt lat="43.4260533" lon="11.2710037"><ele>277.0</ele><time>2026-04-25T07:27:17.729Z</time></trkpt><trkpt lat="43.4259965" lon="11.2711289"><ele>277.0</ele><time>2026-04-25T07:27:19.731Z</time></trkpt><trkpt lat="43.4259337" lon="11.2712794"><ele>277.0</ele><time>2026-04-25T07:27:21.728Z</time></trkpt><trkpt lat="43.4258742" lon="11.2714041"><ele>277.0</ele><time>2026-04-25T07:27:23.724Z</time></trkpt><trkpt lat="43.4258213" lon="11.2715295"><ele>277.0</ele><time>2026-04-25T07:27:25.728Z</time></trkpt><trkpt lat="43.4257681" lon="11.2716651"><ele>277.2</ele><time>2026-04-25T07:27:27.79Z</time></trkpt><trkpt lat="43.4257216" lon="11.2717909"><ele>277.4</ele><time>2026-04-25T07:27:29.723Z</time></trkpt><trkpt lat="43.4256769" lon="11.2719215"><ele>277.6</ele><time>2026-04-25T07:27:31.721Z</time></trkpt><trkpt lat="43.4256304" lon="11.2720351"><ele>277.8</ele><time>2026-04-25T07:27:33.727Z</time></trkpt><trkpt lat="43.4255815" lon="11.2721576"><ele>278.0</ele><time>2026-04-25T07:27:35.787Z</time></trkpt><trkpt lat="43.4255326" lon="11.2722989"><ele>278.33333333333337</ele><time>2026-04-25T07:27:37.729Z</time></trkpt><trkpt lat="43.4254928" lon="11.2723849"><ele>278.6666666666667</ele><time>2026-04-25T07:27:39.709Z</time></trkpt><trkpt lat="43.4254655" lon="11.2724824"><ele>279.0</ele><time>2026-04-25T07:27:41.798Z</time></trkpt><trkpt lat="43.4254299" lon="11.272598"><ele>279.3333333333333</ele><time>2026-04-25T07:27:43.728Z</time></trkpt><trkpt lat="43.425389" lon="11.2727199"><ele>279.66666666666663</ele><time>2026-04-25T07:27:45.793Z</time></trkpt><trkpt lat="43.4253531" lon="11.2728262"><ele>280.0</ele><time>2026-04-25T07:27:47.722Z</time></trkpt><trkpt lat="43.4253188" lon="11.272925"><ele>279.3333333333333</ele><time>2026-04-25T07:27:49.721Z</time></trkpt><trkpt lat="43.4252767" lon="11.2730119"><ele>278.66666666666663</ele><time>2026-04-25T07:27:51.716Z</time></trkpt><trkpt lat="43.4252375" lon="11.2730895"><ele>278.0</ele><time>2026-04-25T07:27:53.725Z</time></trkpt><trkpt lat="43.4251978" lon="11.2731771"><ele>277.3333333333333</ele><time>2026-04-25T07:27:55.73Z</time></trkpt><trkpt lat="43.4251753" lon="11.2732659"><ele>276.6666666666667</ele><time>2026-04-25T07:27:57.728Z</time></trkpt><trkpt lat="43.4251281" lon="11.2733464"><ele>276.0</ele><time>2026-04-25T07:27:59.731Z</time></trkpt><trkpt lat="43.4250797" lon="11.2734794"><ele>276.0</ele><time>2026-04-25T07:28:01.796Z</time></trkpt><trkpt lat="43.4250222" lon="11.2735769"><ele>276.0</ele><time>2026-04-25T07:28:03.697Z</time></trkpt><trkpt lat="43.4249863" lon="11.2736712"><ele>276.0</ele><time>2026-04-25T07:28:05.798Z</time></trkpt><trkpt lat="43.4249577" lon="11.2737771"><ele>276.0</ele><time>2026-04-25T07:28:07.797Z</time></trkpt><trkpt lat="43.424936" lon="11.2738639"><ele>276.0</ele><time>2026-04-25T07:28:09.723Z</time></trkpt><trkpt lat="43.4249328" lon="11.2739784"><ele>276.0</ele><time>2026-04-25T07:28:11.798Z</time></trkpt><trkpt lat="43.4249159" lon="11.2741892"><ele>276.1666666666667</ele><time>2026-04-25T07:28:14.715Z</time></trkpt><trkpt lat="43.4249308" lon="11.274298"><ele>276.3333333333333</ele><time>2026-04-25T07:28:16.804Z</time></trkpt><trkpt lat="43.4249348" lon="11.2744178"><ele>276.5</ele><time>2026-04-25T07:28:18.71Z</time></trkpt><trkpt lat="43.424946" lon="11.2745133"><ele>276.66666666666663</ele><time>2026-04-25T07:28:20.808Z</time></trkpt><trkpt lat="43.4249608" lon="11.274627"><ele>276.8333333333333</ele><time>2026-04-25T07:28:22.715Z</time></trkpt><trkpt lat="43.4249488" lon="11.274723"><ele>277.0</ele><time>2026-04-25T07:28:24.731Z</time></trkpt><trkpt lat="43.4249141" lon="11.2748307"><ele>277.0</ele><time>2026-04-25T07:28:26.729Z</time></trkpt><trkpt lat="43.4248793" lon="11.2749179"><ele>277.0</ele><time>2026-04-25T07:28:28.73Z</time></trkpt><trkpt lat="43.4248251" lon="11.2750018"><ele>277.0</ele><time>2026-04-25T07:28:30.71Z</time></trkpt><trkpt lat="43.4247357" lon="11.2750974"><ele>277.0</ele><time>2026-04-25T07:28:32.725Z</time></trkpt><trkpt lat="43.4246459" lon="11.2751793"><ele>277.0</ele><time>2026-04-25T07:28:34.712Z</time></trkpt><trkpt lat="43.4245751" lon="11.2752602"><ele>277.0</ele><time>2026-04-25T07:28:36.723Z</time></trkpt><trkpt lat="43.4245218" lon="11.2753235"><ele>277.0</ele><time>2026-04-25T07:28:38.725Z</time></trkpt><trkpt lat="43.4244743" lon="11.2753958"><ele>277.0</ele><time>2026-04-25T07:28:41.809Z</time></trkpt><trkpt lat="43.4244193" lon="11.2754528"><ele>277.0</ele><time>2026-04-25T07:28:44.722Z</time></trkpt><trkpt lat="43.4243729" lon="11.275512"><ele>277.0</ele><time>2026-04-25T07:28:48.729Z</time></trkpt><trkpt lat="43.4243242" lon="11.2755765"><ele>277.0</ele><time>2026-04-25T07:28:55.717Z</time></trkpt><trkpt lat="43.4242501" lon="11.275617"><ele>277.0</ele><time>2026-04-25T07:28:59.727Z</time></trkpt><trkpt lat="43.4241722" lon="11.2756357"><ele>277.57142857142856</ele><time>2026-04-25T07:29:03.737Z</time></trkpt><trkpt lat="43.4241149" lon="11.2756871"><ele>278.1428571428571</ele><time>2026-04-25T07:29:07.728Z</time></trkpt><trkpt lat="43.4240418" lon="11.2757125"><ele>278.7142857142857</ele><time>2026-04-25T07:29:11.798Z</time></trkpt><trkpt lat="43.4239693" lon="11.2757448"><ele>279.2857142857143</ele><time>2026-04-25T07:29:15.71Z</time></trkpt><trkpt lat="43.423904" lon="11.2757951"><ele>279.8571428571429</ele><time>2026-04-25T07:29:19.715Z</time></trkpt><trkpt lat="43.4238658" lon="11.2758755"><ele>280.42857142857144</ele><time>2026-04-25T07:29:29.721Z</time></trkpt><trkpt lat="43.423802" lon="11.2759095"><ele>281.0</ele><time>2026-04-25T07:29:31.794Z</time></trkpt><trkpt lat="43.423727" lon="11.2759568"><ele>281.00000000000006</ele><time>2026-04-25T07:29:34.726Z</time></trkpt><trkpt lat="43.4236603" lon="11.2759932"><ele>281.0</ele><time>2026-04-25T07:29:37.734Z</time></trkpt><trkpt lat="43.4236071" lon="11.276054"><ele>281.0</ele><time>2026-04-25T07:29:40.72Z</time></trkpt><trkpt lat="43.4235525" lon="11.2761128"><ele>281.0</ele><time>2026-04-25T07:29:44.724Z</time></trkpt><trkpt lat="43.4234971" lon="11.2761582"><ele>281.0</ele><time>2026-04-25T07:29:47.801Z</time></trkpt><trkpt lat="43.4234483" lon="11.2762258"><ele>281.00000000000006</ele><time>2026-04-25T07:29:50.715Z</time></trkpt><trkpt lat="43.4234072" lon="11.2763078"><ele>281.0</ele><time>2026-04-25T07:29:53.71Z</time></trkpt><trkpt lat="43.4233512" lon="11.2763773"><ele>281.0</ele><time>2026-04-25T07:29:56.804Z</time></trkpt><trkpt lat="43.4232893" lon="11.2764344"><ele>281.0</ele><time>2026-04-25T07:29:59.722Z</time></trkpt><trkpt lat="43.4232396" lon="11.2764939"><ele>281.0</ele><time>2026-04-25T07:30:02.8Z</time></trkpt><trkpt lat="43.4231837" lon="11.2765596"><ele>281.0</ele><time>2026-04-25T07:30:05.725Z</time></trkpt><trkpt lat="43.4231037" lon="11.2766201"><ele>281.0</ele><time>2026-04-25T07:30:08.713Z</time></trkpt><trkpt lat="43.4230307" lon="11.2766845"><ele>281.0</ele><time>2026-04-25T07:30:11.723Z</time></trkpt><trkpt lat="43.4229507" lon="11.2767566"><ele>281.7142857142857</ele><time>2026-04-25T07:30:14.704Z</time></trkpt><trkpt lat="43.4228969" lon="11.2768183"><ele>282.42857142857144</ele><time>2026-04-25T07:30:16.714Z</time></trkpt><trkpt lat="43.4228526" lon="11.2768877"><ele>283.1428571428571</ele><time>2026-04-25T07:30:18.704Z</time></trkpt><trkpt lat="43.4228003" lon="11.2769399"><ele>283.8571428571429</ele><time>2026-04-25T07:30:20.727Z</time></trkpt><trkpt lat="43.4227409" lon="11.277004"><ele>284.57142857142856</ele><time>2026-04-25T07:30:23.715Z</time></trkpt><trkpt lat="43.4226881" lon="11.2770579"><ele>285.2857142857143</ele><time>2026-04-25T07:30:25.803Z</time></trkpt><trkpt lat="43.4226081" lon="11.277128"><ele>286.0</ele><time>2026-04-25T07:30:28.719Z</time></trkpt><trkpt lat="43.4225293" lon="11.2771368"><ele>285.99999999999994</ele><time>2026-04-25T07:30:30.807Z</time></trkpt><trkpt lat="43.4224638" lon="11.2771855"><ele>286.0</ele><time>2026-04-25T07:30:33.709Z</time></trkpt><trkpt lat="43.4224079" lon="11.2772412"><ele>286.0</ele><time>2026-04-25T07:30:37.817Z</time></trkpt><trkpt lat="43.4223396" lon="11.2773069"><ele>286.0</ele><time>2026-04-25T07:30:41.801Z</time></trkpt><trkpt lat="43.4222733" lon="11.2773494"><ele>286.0</ele><time>2026-04-25T07:30:44.719Z</time></trkpt><trkpt lat="43.4222222" lon="11.2774041"><ele>285.99999999999994</ele><time>2026-04-25T07:30:47.724Z</time></trkpt><trkpt lat="43.4221758" lon="11.2774952"><ele>286.0</ele><time>2026-04-25T07:30:51.717Z</time></trkpt><trkpt lat="43.4221446" lon="11.2775861"><ele>287.16666666666663</ele><time>2026-04-25T07:30:54.725Z</time></trkpt><trkpt lat="43.4221121" lon="11.2776747"><ele>288.3333333333333</ele><time>2026-04-25T07:30:57.717Z</time></trkpt><trkpt lat="43.4220493" lon="11.2777348"><ele>289.5</ele><time>2026-04-25T07:31:00.73Z</time></trkpt><trkpt lat="43.4219719" lon="11.2777733"><ele>290.6666666666667</ele><time>2026-04-25T07:31:03.734Z</time></trkpt><trkpt lat="43.4218895" lon="11.2777799"><ele>291.83333333333337</ele><time>2026-04-25T07:31:06.716Z</time></trkpt><trkpt lat="43.4218099" lon="11.2777714"><ele>293.0</ele><time>2026-04-25T07:31:09.713Z</time></trkpt><trkpt lat="43.4217349" lon="11.2777751"><ele>292.99999999999994</ele><time>2026-04-25T07:31:12.809Z</time></trkpt><trkpt lat="43.4217385" lon="11.2778635"><ele>293.0</ele><time>2026-04-25T07:31:16.706Z</time></trkpt><trkpt lat="43.4217769" lon="11.2779595"><ele>293.0</ele><time>2026-04-25T07:31:20.731Z</time></trkpt><trkpt lat="43.421842" lon="11.2780077"><ele>293.0</ele><time>2026-04-25T07:31:24.727Z</time></trkpt><trkpt lat="43.4219007" lon="11.2780528"><ele>293.0</ele><time>2026-04-25T07:31:27.793Z</time></trkpt><trkpt lat="43.4219716" lon="11.2781066"><ele>292.99999999999994</ele><time>2026-04-25T07:31:31.704Z</time></trkpt><trkpt lat="43.4220309" lon="11.2781602"><ele>293.0</ele><time>2026-04-25T07:31:34.727Z</time></trkpt><trkpt lat="43.4221083" lon="11.2782182"><ele>293.5</ele><time>2026-04-25T07:31:37.715Z</time></trkpt><trkpt lat="43.4221935" lon="11.2782353"><ele>294.0</ele><time>2026-04-25T07:31:40.715Z</time></trkpt><trkpt lat="43.4222656" lon="11.2782373"><ele>294.5</ele><time>2026-04-25T07:31:42.811Z</time></trkpt><trkpt lat="43.4223563" lon="11.2782474"><ele>295.0</ele><time>2026-04-25T07:31:45.727Z</time></trkpt><trkpt lat="43.4224415" lon="11.2782327"><ele>295.5</ele><time>2026-04-25T07:31:48.705Z</time></trkpt><trkpt lat="43.4225262" lon="11.2781984"><ele>296.0</ele><time>2026-04-25T07:31:51.723Z</time></trkpt><trkpt lat="43.4226036" lon="11.2781658"><ele>296.0</ele><time>2026-04-25T07:31:54.729Z</time></trkpt><trkpt lat="43.4226724" lon="11.2781872"><ele>296.0</ele><time>2026-04-25T07:31:57.718Z</time></trkpt><trkpt lat="43.4227369" lon="11.2781919"><ele>296.0</ele><time>2026-04-25T07:32:00.722Z</time></trkpt><trkpt lat="43.422812" lon="11.2781849"><ele>296.0</ele><time>2026-04-25T07:32:03.799Z</time></trkpt><trkpt lat="43.4228816" lon="11.2781985"><ele>296.0</ele><time>2026-04-25T07:32:07.736Z</time></trkpt><trkpt lat="43.4229536" lon="11.2781884"><ele>296.0</ele><time>2026-04-25T07:32:11.807Z</time></trkpt><trkpt lat="43.4230367" lon="11.2781741"><ele>296.0</ele><time>2026-04-25T07:32:15.783Z</time></trkpt><trkpt lat="43.423106" lon="11.2781479"><ele>297.33333333333337</ele><time>2026-04-25T07:32:18.72Z</time></trkpt><trkpt lat="43.4231759" lon="11.2781165"><ele>298.6666666666667</ele><time>2026-04-25T07:32:22.798Z</time></trkpt><trkpt lat="43.4232508" lon="11.2781254"><ele>300.0</ele><time>2026-04-25T07:32:27.71Z</time></trkpt><trkpt lat="43.4233097" lon="11.278162"><ele>301.3333333333333</ele><time>2026-04-25T07:32:34.727Z</time></trkpt><trkpt lat="43.4233839" lon="11.2781754"><ele>302.66666666666663</ele><time>2026-04-25T07:32:39.73Z</time></trkpt><trkpt lat="43.4234782" lon="11.2781882"><ele>304.0</ele><time>2026-04-25T07:32:44.714Z</time></trkpt><trkpt lat="43.4235458" lon="11.2782162"><ele>304.0</ele><time>2026-04-25T07:32:47.793Z</time></trkpt><trkpt lat="43.423616" lon="11.2781878"><ele>304.0</ele><time>2026-04-25T07:32:52.727Z</time></trkpt><trkpt lat="43.4236839" lon="11.2781604"><ele>304.0</ele><time>2026-04-25T07:32:58.702Z</time></trkpt><trkpt lat="43.4237465" lon="11.2781336"><ele>304.0</ele><time>2026-04-25T07:33:03.722Z</time></trkpt><trkpt lat="43.4238174" lon="11.2781049"><ele>304.0</ele><time>2026-04-25T07:33:09.733Z</time></trkpt><trkpt lat="43.4238911" lon="11.2781084"><ele>304.0</ele><time>2026-04-25T07:33:13.702Z</time></trkpt><trkpt lat="43.4239635" lon="11.2780875"><ele>304.0</ele><time>2026-04-25T07:33:17.808Z</time></trkpt><trkpt lat="43.4240266" lon="11.2780733"><ele>304.2857142857143</ele><time>2026-04-25T07:33:21.704Z</time></trkpt><trkpt lat="43.4240899" lon="11.278087"><ele>304.5714285714286</ele><time>2026-04-25T07:33:28.717Z</time></trkpt><trkpt lat="43.4241548" lon="11.2780804"><ele>304.8571428571429</ele><time>2026-04-25T07:33:34.723Z</time></trkpt><trkpt lat="43.4242255" lon="11.2780617"><ele>305.1428571428571</ele><time>2026-04-25T07:33:38.721Z</time></trkpt><trkpt lat="43.4242914" lon="11.2780972"><ele>305.42857142857144</ele><time>2026-04-25T07:33:45.793Z</time></trkpt><trkpt lat="43.4243493" lon="11.2781416"><ele>305.7142857142857</ele><time>2026-04-25T07:33:49.709Z</time></trkpt><trkpt lat="43.4244125" lon="11.2781396"><ele>306.0</ele><time>2026-04-25T07:33:56.728Z</time></trkpt><trkpt lat="43.4244743" lon="11.2781002"><ele>307.42857142857144</ele><time>2026-04-25T07:34:04.725Z</time></trkpt><trkpt lat="43.4245403" lon="11.2781269"><ele>308.8571428571429</ele><time>2026-04-25T07:34:09.733Z</time></trkpt><trkpt lat="43.4246081" lon="11.2781396"><ele>310.28571428571433</ele><time>2026-04-25T07:34:14.722Z</time></trkpt><trkpt lat="43.424678" lon="11.2781829"><ele>311.7142857142857</ele><time>2026-04-25T07:34:20.798Z</time></trkpt><trkpt lat="43.424747" lon="11.2781657"><ele>313.14285714285717</ele><time>2026-04-25T07:34:24.737Z</time></trkpt><trkpt lat="43.424803" lon="11.2781159"><ele>314.5714285714286</ele><time>2026-04-25T07:34:31.8Z</time></trkpt><trkpt lat="43.4248667" lon="11.2781099"><ele>316.0</ele><time>2026-04-25T07:34:37.806Z</time></trkpt><trkpt lat="43.4249331" lon="11.2781214"><ele>317.00000000000006</ele><time>2026-04-25T07:34:41.728Z</time></trkpt><trkpt lat="43.4250025" lon="11.2781594"><ele>318.0</ele><time>2026-04-25T07:34:46.724Z</time></trkpt><trkpt lat="43.4250564" lon="11.2782042"><ele>319.0</ele><time>2026-04-25T07:34:50.73Z</time></trkpt><trkpt lat="43.4251108" lon="11.2782634"><ele>320.0</ele><time>2026-04-25T07:34:55.792Z</time></trkpt><trkpt lat="43.4251576" lon="11.2783307"><ele>321.0</ele><time>2026-04-25T07:35:00.728Z</time></trkpt><trkpt lat="43.4252183" lon="11.2783686"><ele>322.00000000000006</ele><time>2026-04-25T07:35:05.723Z</time></trkpt><trkpt lat="43.4252914" lon="11.2784077"><ele>323.0</ele><time>2026-04-25T07:35:10.723Z</time></trkpt><trkpt lat="43.4253397" lon="11.2784661"><ele>323.00000000000006</ele><time>2026-04-25T07:35:16.71Z</time></trkpt><trkpt lat="43.4254017" lon="11.2785363"><ele>323.0</ele><time>2026-04-25T07:35:21.725Z</time></trkpt><trkpt lat="43.4254458" lon="11.2786085"><ele>323.0</ele><time>2026-04-25T07:35:25.729Z</time></trkpt><trkpt lat="43.425476" lon="11.2786963"><ele>323.0</ele><time>2026-04-25T07:35:31.784Z</time></trkpt><trkpt lat="43.4255359" lon="11.2787568"><ele>323.0</ele><time>2026-04-25T07:35:39.714Z</time></trkpt><trkpt lat="43.425595" lon="11.2788106"><ele>323.00000000000006</ele><time>2026-04-25T07:35:44.729Z</time></trkpt><trkpt lat="43.4256489" lon="11.2788672"><ele>323.0</ele><time>2026-04-25T07:35:47.719Z</time></trkpt><trkpt lat="43.4256735" lon="11.2789746"><ele>324.0</ele><time>2026-04-25T07:35:53.735Z</time></trkpt><trkpt lat="43.4256779" lon="11.2790788"><ele>325.0</ele><time>2026-04-25T07:35:56.726Z</time></trkpt><trkpt lat="43.4256571" lon="11.2791828"><ele>326.0</ele><time>2026-04-25T07:35:59.721Z</time></trkpt><trkpt lat="43.425602" lon="11.2792822"><ele>327.0</ele><time>2026-04-25T07:36:02.796Z</time></trkpt><trkpt lat="43.4255534" lon="11.279369"><ele>328.0</ele><time>2026-04-25T07:36:05.803Z</time></trkpt><trkpt lat="43.425518" lon="11.2794564"><ele>329.0</ele><time>2026-04-25T07:36:08.711Z</time></trkpt><trkpt lat="43.4254755" lon="11.2795324"><ele>329.0</ele><time>2026-04-25T07:36:11.8Z</time></trkpt><trkpt lat="43.4254312" lon="11.279604"><ele>329.0</ele><time>2026-04-25T07:36:14.724Z</time></trkpt><trkpt lat="43.4253962" lon="11.2796999"><ele>329.0</ele><time>2026-04-25T07:36:17.803Z</time></trkpt><trkpt lat="43.4253527" lon="11.2797656"><ele>329.0</ele><time>2026-04-25T07:36:20.794Z</time></trkpt><trkpt lat="43.425315" lon="11.2798417"><ele>329.0</ele><time>2026-04-25T07:36:26.722Z</time></trkpt><trkpt lat="43.4252663" lon="11.2799128"><ele>329.0</ele><time>2026-04-25T07:36:30.718Z</time></trkpt><trkpt lat="43.4252042" lon="11.2799705"><ele>329.0</ele><time>2026-04-25T07:36:35.793Z</time></trkpt><trkpt lat="43.4251671" lon="11.2800565"><ele>329.85714285714283</ele><time>2026-04-25T07:36:40.802Z</time></trkpt><trkpt lat="43.4251328" lon="11.2801345"><ele>330.7142857142857</ele><time>2026-04-25T07:36:44.724Z</time></trkpt><trkpt lat="43.4250962" lon="11.2802225"><ele>331.57142857142856</ele><time>2026-04-25T07:36:48.71Z</time></trkpt><trkpt lat="43.4250448" lon="11.2802925"><ele>332.42857142857144</ele><time>2026-04-25T07:36:52.793Z</time></trkpt><trkpt lat="43.4249963" lon="11.2803574"><ele>333.2857142857143</ele><time>2026-04-25T07:36:56.724Z</time></trkpt><trkpt lat="43.4249344" lon="11.2804252"><ele>334.1428571428571</ele><time>2026-04-25T07:37:00.697Z</time></trkpt><trkpt lat="43.4248926" lon="11.2805178"><ele>335.0</ele><time>2026-04-25T07:37:04.721Z</time></trkpt><trkpt lat="43.4248365" lon="11.2805963"><ele>335.85714285714283</ele><time>2026-04-25T07:37:08.709Z</time></trkpt><trkpt lat="43.4247784" lon="11.2806423"><ele>336.7142857142857</ele><time>2026-04-25T07:37:10.799Z</time></trkpt><trkpt lat="43.4247289" lon="11.2807199"><ele>337.57142857142856</ele><time>2026-04-25T07:37:15.699Z</time></trkpt><trkpt lat="43.4246917" lon="11.2808275"><ele>338.42857142857144</ele><time>2026-04-25T07:37:19.716Z</time></trkpt><trkpt lat="43.4246663" lon="11.280911"><ele>339.2857142857143</ele><time>2026-04-25T07:37:23.695Z</time></trkpt><trkpt lat="43.4246339" lon="11.2809892"><ele>340.1428571428571</ele><time>2026-04-25T07:37:27.71Z</time></trkpt><trkpt lat="43.4245936" lon="11.2810715"><ele>341.0</ele><time>2026-04-25T07:37:31.726Z</time></trkpt><trkpt lat="43.4245854" lon="11.2811734"><ele>341.6</ele><time>2026-04-25T07:37:36.719Z</time></trkpt><trkpt lat="43.4246555" lon="11.2812593"><ele>342.20000000000005</ele><time>2026-04-25T07:37:40.725Z</time></trkpt><trkpt lat="43.4247249" lon="11.2812824"><ele>342.79999999999995</ele><time>2026-04-25T07:37:42.773Z</time></trkpt><trkpt lat="43.4248194" lon="11.281251"><ele>343.4</ele><time>2026-04-25T07:37:44.702Z</time></trkpt><trkpt lat="43.4249214" lon="11.2812077"><ele>344.0</ele><time>2026-04-25T07:37:46.698Z</time></trkpt><trkpt lat="43.4250062" lon="11.2811921"><ele>344.0</ele><time>2026-04-25T07:37:48.731Z</time></trkpt><trkpt lat="43.4250977" lon="11.2811901"><ele>344.0</ele><time>2026-04-25T07:37:50.722Z</time></trkpt><trkpt lat="43.4251895" lon="11.2811641"><ele>344.0</ele><time>2026-04-25T07:37:52.718Z</time></trkpt><trkpt lat="43.4252678" lon="11.2811389"><ele>344.0</ele><time>2026-04-25T07:37:54.709Z</time></trkpt><trkpt lat="43.4253317" lon="11.2810974"><ele>344.0</ele><time>2026-04-25T07:37:56.727Z</time></trkpt><trkpt lat="43.4254172" lon="11.2810374"><ele>344.0</ele><time>2026-04-25T07:37:58.716Z</time></trkpt><trkpt lat="43.4255121" lon="11.2810332"><ele>344.6666666666667</ele><time>2026-04-25T07:38:00.736Z</time></trkpt><trkpt lat="43.4256025" lon="11.2810603"><ele>345.33333333333337</ele><time>2026-04-25T07:38:02.811Z</time></trkpt><trkpt lat="43.4256801" lon="11.2810848"><ele>346.0</ele><time>2026-04-25T07:38:04.723Z</time></trkpt><trkpt lat="43.4257431" lon="11.2810782"><ele>346.6666666666667</ele><time>2026-04-25T07:38:06.725Z</time></trkpt><trkpt lat="43.4258186" lon="11.2810801"><ele>347.3333333333333</ele><time>2026-04-25T07:38:09.725Z</time></trkpt><trkpt lat="43.4259016" lon="11.2810944"><ele>348.0</ele><time>2026-04-25T07:38:13.738Z</time></trkpt><trkpt lat="43.4259763" lon="11.2810922"><ele>348.0</ele><time>2026-04-25T07:38:16.712Z</time></trkpt><trkpt lat="43.4260599" lon="11.2810955"><ele>348.0</ele><time>2026-04-25T07:38:19.721Z</time></trkpt><trkpt lat="43.4261324" lon="11.2810905"><ele>348.0</ele><time>2026-04-25T07:38:22.736Z</time></trkpt><trkpt lat="43.4262197" lon="11.2810721"><ele>348.0</ele><time>2026-04-25T07:38:25.725Z</time></trkpt><trkpt lat="43.4263039" lon="11.2810715"><ele>348.0</ele><time>2026-04-25T07:38:28.724Z</time></trkpt><trkpt lat="43.4263828" lon="11.2811131"><ele>348.0</ele><time>2026-04-25T07:38:31.798Z</time></trkpt><trkpt lat="43.4264586" lon="11.281118"><ele>348.3333333333333</ele><time>2026-04-25T07:38:34.73Z</time></trkpt><trkpt lat="43.4265406" lon="11.2811113"><ele>348.6666666666667</ele><time>2026-04-25T07:38:37.709Z</time></trkpt><trkpt lat="43.4266193" lon="11.2811165"><ele>349.0</ele><time>2026-04-25T07:38:40.719Z</time></trkpt><trkpt lat="43.4267082" lon="11.2811317"><ele>349.33333333333337</ele><time>2026-04-25T07:38:43.721Z</time></trkpt><trkpt lat="43.4267829" lon="11.2811245"><ele>349.6666666666667</ele><time>2026-04-25T07:38:46.72Z</time></trkpt><trkpt lat="43.4268686" lon="11.2811308"><ele>350.0</ele><time>2026-04-25T07:38:49.721Z</time></trkpt><trkpt lat="43.4269597" lon="11.281122"><ele>350.0</ele><time>2026-04-25T07:38:52.729Z</time></trkpt><trkpt lat="43.4270501" lon="11.2811269"><ele>350.0</ele><time>2026-04-25T07:38:55.727Z</time></trkpt><trkpt lat="43.4271343" lon="11.2811302"><ele>350.0</ele><time>2026-04-25T07:38:58.729Z</time></trkpt><trkpt lat="43.4272257" lon="11.2811379"><ele>350.0</ele><time>2026-04-25T07:39:01.722Z</time></trkpt><trkpt lat="43.4272956" lon="11.2811472"><ele>350.0</ele><time>2026-04-25T07:39:04.701Z</time></trkpt><trkpt lat="43.4273853" lon="11.2811614"><ele>350.0</ele><time>2026-04-25T07:39:08.788Z</time></trkpt><trkpt lat="43.4274459" lon="11.2812133"><ele>350.33333333333337</ele><time>2026-04-25T07:39:11.801Z</time></trkpt><trkpt lat="43.4275296" lon="11.2812115"><ele>350.6666666666667</ele><time>2026-04-25T07:39:14.725Z</time></trkpt><trkpt lat="43.4276115" lon="11.2812235"><ele>351.0</ele><time>2026-04-25T07:39:17.727Z</time></trkpt><trkpt lat="43.4276822" lon="11.281225"><ele>351.3333333333333</ele><time>2026-04-25T07:39:20.706Z</time></trkpt><trkpt lat="43.4277596" lon="11.281217"><ele>351.66666666666663</ele><time>2026-04-25T07:39:24.713Z</time></trkpt><trkpt lat="43.4278354" lon="11.2812177"><ele>352.0</ele><time>2026-04-25T07:39:27.735Z</time></trkpt><trkpt lat="43.4279199" lon="11.281232"><ele>351.8333333333333</ele><time>2026-04-25T07:39:30.705Z</time></trkpt><trkpt lat="43.4279902" lon="11.2812296"><ele>351.66666666666663</ele><time>2026-04-25T07:39:33.808Z</time></trkpt><trkpt lat="43.428067" lon="11.2812346"><ele>351.5</ele><time>2026-04-25T07:39:35.716Z</time></trkpt><trkpt lat="43.4281506" lon="11.2812394"><ele>351.3333333333333</ele><time>2026-04-25T07:39:38.786Z</time></trkpt><trkpt lat="43.4282294" lon="11.2812345"><ele>351.1666666666667</ele><time>2026-04-25T07:39:41.798Z</time></trkpt><trkpt lat="43.4283135" lon="11.2812106"><ele>351.0</ele><time>2026-04-25T07:39:45.714Z</time></trkpt><trkpt lat="43.4283825" lon="11.2811963"><ele>351.0</ele><time>2026-04-25T07:39:48.741Z</time></trkpt><trkpt lat="43.4284653" lon="11.2811942"><ele>351.0</ele><time>2026-04-25T07:39:51.708Z</time></trkpt><trkpt lat="43.4285352" lon="11.2812266"><ele>351.0</ele><time>2026-04-25T07:39:54.731Z</time></trkpt><trkpt lat="43.4285998" lon="11.2812312"><ele>351.0</ele><time>2026-04-25T07:39:56.72Z</time></trkpt><trkpt lat="43.4286645" lon="11.2812388"><ele>351.0</ele><time>2026-04-25T07:39:58.725Z</time></trkpt><trkpt lat="43.4287432" lon="11.2812454"><ele>351.0</ele><time>2026-04-25T07:40:01.716Z</time></trkpt><trkpt lat="43.4288503" lon="11.2812687"><ele>350.7142857142857</ele><time>2026-04-25T07:40:04.72Z</time></trkpt><trkpt lat="43.4289196" lon="11.2812904"><ele>350.42857142857144</ele><time>2026-04-25T07:40:05.733Z</time></trkpt><trkpt lat="43.4289844" lon="11.2813017"><ele>350.1428571428571</ele><time>2026-04-25T07:40:06.804Z</time></trkpt><trkpt lat="43.4290581" lon="11.2812606"><ele>349.8571428571429</ele><time>2026-04-25T07:40:09.702Z</time></trkpt><trkpt lat="43.429132" lon="11.2812462"><ele>349.57142857142856</ele><time>2026-04-25T07:40:13.71Z</time></trkpt><trkpt lat="43.4291972" lon="11.2812282"><ele>349.2857142857143</ele><time>2026-04-25T07:40:16.795Z</time></trkpt><trkpt lat="43.4292602" lon="11.2812601"><ele>349.0</ele><time>2026-04-25T07:40:19.704Z</time></trkpt><trkpt lat="43.429334" lon="11.2813355"><ele>349.0</ele><time>2026-04-25T07:40:22.766Z</time></trkpt><trkpt lat="43.4293871" lon="11.2814055"><ele>349.0</ele><time>2026-04-25T07:40:24.727Z</time></trkpt><trkpt lat="43.4294513" lon="11.2814959"><ele>349.0</ele><time>2026-04-25T07:40:27.727Z</time></trkpt><trkpt lat="43.4295071" lon="11.2815896"><ele>349.0</ele><time>2026-04-25T07:40:29.72Z</time></trkpt><trkpt lat="43.4295523" lon="11.2816524"><ele>349.0</ele><time>2026-04-25T07:40:31.726Z</time></trkpt><trkpt lat="43.4295982" lon="11.2817155"><ele>349.0</ele><time>2026-04-25T07:40:33.7Z</time></trkpt><trkpt lat="43.4296421" lon="11.2817931"><ele>350.3333333333333</ele><time>2026-04-25T07:40:36.781Z</time></trkpt><trkpt lat="43.4296986" lon="11.2818392"><ele>351.66666666666663</ele><time>2026-04-25T07:40:40.726Z</time></trkpt><trkpt lat="43.429767" lon="11.2818823"><ele>353.0</ele><time>2026-04-25T07:40:44.727Z</time></trkpt><trkpt lat="43.4298585" lon="11.2819263"><ele>354.3333333333333</ele><time>2026-04-25T07:40:47.783Z</time></trkpt><trkpt lat="43.4299425" lon="11.281984"><ele>355.6666666666667</ele><time>2026-04-25T07:40:49.723Z</time></trkpt><trkpt lat="43.4299997" lon="11.2820619"><ele>357.0</ele><time>2026-04-25T07:40:51.721Z</time></trkpt><trkpt lat="43.4300535" lon="11.2821524"><ele>357.0</ele><time>2026-04-25T07:40:53.797Z</time></trkpt><trkpt lat="43.4301166" lon="11.2822445"><ele>357.0</ele><time>2026-04-25T07:40:55.731Z</time></trkpt><trkpt lat="43.4301633" lon="11.2823496"><ele>357.0</ele><time>2026-04-25T07:40:57.712Z</time></trkpt><trkpt lat="43.4301842" lon="11.2824484"><ele>357.0</ele><time>2026-04-25T07:40:59.716Z</time></trkpt><trkpt lat="43.4302143" lon="11.2825307"><ele>357.0</ele><time>2026-04-25T07:41:01.704Z</time></trkpt><trkpt lat="43.430237" lon="11.2826433"><ele>357.0</ele><time>2026-04-25T07:41:04.73Z</time></trkpt><trkpt lat="43.430277" lon="11.2827595"><ele>357.6666666666667</ele><time>2026-04-25T07:41:07.723Z</time></trkpt><trkpt lat="43.4303277" lon="11.2828268"><ele>358.3333333333333</ele><time>2026-04-25T07:41:09.729Z</time></trkpt><trkpt lat="43.4303989" lon="11.2829032"><ele>359.0</ele><time>2026-04-25T07:41:12.825Z</time></trkpt><trkpt lat="43.4304691" lon="11.2829458"><ele>359.66666666666663</ele><time>2026-04-25T07:41:15.725Z</time></trkpt><trkpt lat="43.4305261" lon="11.2830136"><ele>360.3333333333333</ele><time>2026-04-25T07:41:18.805Z</time></trkpt><trkpt lat="43.4305623" lon="11.2830935"><ele>361.0</ele><time>2026-04-25T07:41:21.797Z</time></trkpt><trkpt lat="43.4305618" lon="11.2832019"><ele>361.3333333333333</ele><time>2026-04-25T07:41:24.703Z</time></trkpt><trkpt lat="43.430594" lon="11.2833063"><ele>361.66666666666663</ele><time>2026-04-25T07:41:28.793Z</time></trkpt><trkpt lat="43.4306398" lon="11.2833876"><ele>362.0</ele><time>2026-04-25T07:41:31.805Z</time></trkpt><trkpt lat="43.430719" lon="11.2835072"><ele>362.3333333333333</ele><time>2026-04-25T07:41:35.728Z</time></trkpt><trkpt lat="43.430741" lon="11.2836006"><ele>362.6666666666667</ele><time>2026-04-25T07:41:38.729Z</time></trkpt><trkpt lat="43.4307413" lon="11.2837156"><ele>363.0</ele><time>2026-04-25T07:41:42.733Z</time></trkpt><trkpt lat="43.4307231" lon="11.2838028"><ele>362.99999999999994</ele><time>2026-04-25T07:41:45.722Z</time></trkpt><trkpt lat="43.430712" lon="11.2839004"><ele>363.0</ele><time>2026-04-25T07:41:49.706Z</time></trkpt><trkpt lat="43.4306604" lon="11.2839847"><ele>363.0</ele><time>2026-04-25T07:41:53.782Z</time></trkpt><trkpt lat="43.4306514" lon="11.2840715"><ele>363.0</ele><time>2026-04-25T07:41:57.789Z</time></trkpt><trkpt lat="43.4306604" lon="11.2841647"><ele>363.0</ele><time>2026-04-25T07:42:00.705Z</time></trkpt><trkpt lat="43.4306619" lon="11.2842714"><ele>362.99999999999994</ele><time>2026-04-25T07:42:04.701Z</time></trkpt><trkpt lat="43.4306628" lon="11.284363"><ele>363.0</ele><time>2026-04-25T07:42:08.791Z</time></trkpt><trkpt lat="43.4306907" lon="11.2844688"><ele>363.99999999999994</ele><time>2026-04-25T07:42:12.717Z</time></trkpt><trkpt lat="43.430686" lon="11.2845785"><ele>365.0</ele><time>2026-04-25T07:42:17.709Z</time></trkpt><trkpt lat="43.4307076" lon="11.2846792"><ele>366.0</ele><time>2026-04-25T07:42:21.719Z</time></trkpt><trkpt lat="43.4307327" lon="11.2847652"><ele>367.0</ele><time>2026-04-25T07:42:28.809Z</time></trkpt><trkpt lat="43.430786" lon="11.2848372"><ele>368.0</ele><time>2026-04-25T07:42:33.79Z</time></trkpt><trkpt lat="43.4308261" lon="11.284912"><ele>368.99999999999994</ele><time>2026-04-25T07:42:38.796Z</time></trkpt><trkpt lat="43.4308886" lon="11.2849867"><ele>370.0</ele><time>2026-04-25T07:42:42.707Z</time></trkpt><trkpt lat="43.4309249" lon="11.2850832"><ele>371.1428571428571</ele><time>2026-04-25T07:42:50.726Z</time></trkpt><trkpt lat="43.4309656" lon="11.2851645"><ele>372.2857142857143</ele><time>2026-04-25T07:42:55.73Z</time></trkpt><trkpt lat="43.430983" lon="11.2852621"><ele>373.42857142857144</ele><time>2026-04-25T07:43:01.787Z</time></trkpt><trkpt lat="43.4310357" lon="11.2853265"><ele>374.57142857142856</ele><time>2026-04-25T07:43:06.791Z</time></trkpt><trkpt lat="43.4310942" lon="11.2853778"><ele>375.7142857142857</ele><time>2026-04-25T07:43:10.711Z</time></trkpt><trkpt lat="43.4311466" lon="11.2854315"><ele>376.85714285714283</ele><time>2026-04-25T07:43:14.727Z</time></trkpt><trkpt lat="43.4311513" lon="11.2855389"><ele>378.0</ele><time>2026-04-25T07:43:20.722Z</time></trkpt><trkpt lat="43.4311832" lon="11.2856294"><ele>378.57142857142856</ele><time>2026-04-25T07:43:25.716Z</time></trkpt><trkpt lat="43.4312358" lon="11.2857001"><ele>379.1428571428571</ele><time>2026-04-25T07:43:29.704Z</time></trkpt><trkpt lat="43.431289" lon="11.2857489"><ele>379.7142857142857</ele><time>2026-04-25T07:43:32.794Z</time></trkpt><trkpt lat="43.4313442" lon="11.2858086"><ele>380.2857142857143</ele><time>2026-04-25T07:43:36.81Z</time></trkpt><trkpt lat="43.4313908" lon="11.2858694"><ele>380.85714285714283</ele><time>2026-04-25T07:43:41.724Z</time></trkpt><trkpt lat="43.4314438" lon="11.2859331"><ele>381.42857142857144</ele><time>2026-04-25T07:43:47.784Z</time></trkpt><trkpt lat="43.4314886" lon="11.286006"><ele>382.0</ele><time>2026-04-25T07:43:53.702Z</time></trkpt><trkpt lat="43.4315507" lon="11.2860782"><ele>382.7142857142857</ele><time>2026-04-25T07:43:58.711Z</time></trkpt><trkpt lat="43.4315929" lon="11.2861533"><ele>383.4285714285714</ele><time>2026-04-25T07:44:02.718Z</time></trkpt><trkpt lat="43.4316385" lon="11.2862167"><ele>384.1428571428571</ele><time>2026-04-25T07:44:10.722Z</time></trkpt><trkpt lat="43.431676" lon="11.286299"><ele>384.8571428571429</ele><time>2026-04-25T07:44:15.72Z</time></trkpt><trkpt lat="43.431677" lon="11.2864084"><ele>385.57142857142856</ele><time>2026-04-25T07:44:20.729Z</time></trkpt><trkpt lat="43.4317196" lon="11.2865046"><ele>386.2857142857143</ele><time>2026-04-25T07:44:24.721Z</time></trkpt><trkpt lat="43.4317614" lon="11.2865753"><ele>387.0</ele><time>2026-04-25T07:44:29.726Z</time></trkpt><trkpt lat="43.4318169" lon="11.2866256"><ele>387.8571428571429</ele><time>2026-04-25T07:44:33.72Z</time></trkpt><trkpt lat="43.4319008" lon="11.2866727"><ele>388.7142857142857</ele><time>2026-04-25T07:44:37.793Z</time></trkpt><trkpt lat="43.431922" lon="11.2867689"><ele>389.57142857142856</ele><time>2026-04-25T07:44:43.803Z</time></trkpt><trkpt lat="43.4319412" lon="11.2868599"><ele>390.42857142857144</ele><time>2026-04-25T07:44:46.711Z</time></trkpt><trkpt lat="43.4319941" lon="11.2869155"><ele>391.2857142857143</ele><time>2026-04-25T07:44:51.713Z</time></trkpt><trkpt lat="43.4320423" lon="11.2869784"><ele>392.14285714285717</ele><time>2026-04-25T07:44:56.708Z</time></trkpt><trkpt lat="43.4320791" lon="11.2870785"><ele>393.0</ele><time>2026-04-25T07:44:59.715Z</time></trkpt><trkpt lat="43.4320729" lon="11.2872134"><ele>393.5714285714286</ele><time>2026-04-25T07:45:01.707Z</time></trkpt><trkpt lat="43.4320716" lon="11.2873195"><ele>394.14285714285717</ele><time>2026-04-25T07:45:03.72Z</time></trkpt><trkpt lat="43.432117" lon="11.2873808"><ele>394.7142857142857</ele><time>2026-04-25T07:45:10.725Z</time></trkpt><trkpt lat="43.4320752" lon="11.2874645"><ele>395.28571428571433</ele><time>2026-04-25T07:45:19.73Z</time></trkpt><trkpt lat="43.4320467" lon="11.2875692"><ele>395.85714285714283</ele><time>2026-04-25T07:45:24.704Z</time></trkpt><trkpt lat="43.4320184" lon="11.2876537"><ele>396.42857142857144</ele><time>2026-04-25T07:45:28.793Z</time></trkpt><trkpt lat="43.4319986" lon="11.2877405"><ele>397.0</ele><time>2026-04-25T07:45:35.719Z</time></trkpt><trkpt lat="43.431971" lon="11.2878203"><ele>397.0</ele><time>2026-04-25T07:45:39.733Z</time></trkpt><trkpt lat="43.4319287" lon="11.287899"><ele>397.0</ele><time>2026-04-25T07:45:43.726Z</time></trkpt><trkpt lat="43.4318903" lon="11.2879907"><ele>397.0</ele><time>2026-04-25T07:45:48.718Z</time></trkpt><trkpt lat="43.4318479" lon="11.2880698"><ele>397.0</ele><time>2026-04-25T07:45:54.717Z</time></trkpt><trkpt lat="43.4318531" lon="11.2881706"><ele>397.0</ele><time>2026-04-25T07:45:59.725Z</time></trkpt><trkpt lat="43.4318903" lon="11.2882437"><ele>397.0</ele><time>2026-04-25T07:46:03.714Z</time></trkpt><trkpt lat="43.4319392" lon="11.2883119"><ele>397.0</ele><time>2026-04-25T07:46:06.828Z</time></trkpt><trkpt lat="43.4320082" lon="11.288297"><ele>397.7142857142857</ele><time>2026-04-25T07:46:11.812Z</time></trkpt><trkpt lat="43.4320922" lon="11.2882257"><ele>398.42857142857144</ele><time>2026-04-25T07:46:22.728Z</time></trkpt><trkpt lat="43.432158" lon="11.2882194"><ele>399.1428571428571</ele><time>2026-04-25T07:46:25.719Z</time></trkpt><trkpt lat="43.4322239" lon="11.288192"><ele>399.8571428571429</ele><time>2026-04-25T07:46:30.72Z</time></trkpt><trkpt lat="43.4322932" lon="11.2882108"><ele>400.5714285714286</ele><time>2026-04-25T07:46:34.712Z</time></trkpt><trkpt lat="43.4323654" lon="11.2882069"><ele>401.2857142857143</ele><time>2026-04-25T07:46:40.713Z</time></trkpt><trkpt lat="43.4324291" lon="11.2881758"><ele>402.0</ele><time>2026-04-25T07:46:45.73Z</time></trkpt><trkpt lat="43.432488" lon="11.2882111"><ele>404.0</ele><time>2026-04-25T07:46:57.784Z</time></trkpt><trkpt lat="43.4325375" lon="11.288281"><ele>406.0</ele><time>2026-04-25T07:47:02.789Z</time></trkpt><trkpt lat="43.4326032" lon="11.2882899"><ele>408.0</ele><time>2026-04-25T07:47:07.794Z</time></trkpt><trkpt lat="43.4326516" lon="11.2883542"><ele>410.0</ele><time>2026-04-25T07:47:10.725Z</time></trkpt><trkpt lat="43.432709" lon="11.2884142"><ele>412.0</ele><time>2026-04-25T07:47:17.794Z</time></trkpt><trkpt lat="43.4327809" lon="11.288409"><ele>414.0</ele><time>2026-04-25T07:47:22.703Z</time></trkpt><trkpt lat="43.4328458" lon="11.2884349"><ele>416.0</ele><time>2026-04-25T07:47:30.719Z</time></trkpt><trkpt lat="43.4329" lon="11.2884829"><ele>416.0</ele><time>2026-04-25T07:47:34.722Z</time></trkpt><trkpt lat="43.4329542" lon="11.288531"><ele>416.0</ele><time>2026-04-25T07:47:38.783Z</time></trkpt><trkpt lat="43.433025" lon="11.2885388"><ele>416.0</ele><time>2026-04-25T07:47:44.708Z</time></trkpt><trkpt lat="43.4330866" lon="11.2885715"><ele>416.0</ele><time>2026-04-25T07:47:50.714Z</time></trkpt><trkpt lat="43.4331253" lon="11.2886443"><ele>416.0</ele><time>2026-04-25T07:47:57.727Z</time></trkpt><trkpt lat="43.4331905" lon="11.2886599"><ele>416.0</ele><time>2026-04-25T07:48:02.73Z</time></trkpt><trkpt lat="43.4332609" lon="11.2886999"><ele>416.0</ele><time>2026-04-25T07:48:07.706Z</time></trkpt><trkpt lat="43.4333238" lon="11.2886537"><ele>417.57142857142856</ele><time>2026-04-25T07:48:10.719Z</time></trkpt><trkpt lat="43.4333896" lon="11.2886872"><ele>419.14285714285717</ele><time>2026-04-25T07:48:12.805Z</time></trkpt><trkpt lat="43.4334563" lon="11.2887285"><ele>420.7142857142857</ele><time>2026-04-25T07:48:16.803Z</time></trkpt><trkpt lat="43.4334812" lon="11.2888108"><ele>422.2857142857143</ele><time>2026-04-25T07:48:19.707Z</time></trkpt><trkpt lat="43.4335104" lon="11.2889069"><ele>423.8571428571429</ele><time>2026-04-25T07:48:22.706Z</time></trkpt><trkpt lat="43.4335949" lon="11.2889315"><ele>425.42857142857144</ele><time>2026-04-25T07:48:26.777Z</time></trkpt><trkpt lat="43.4336564" lon="11.288961"><ele>427.0</ele><time>2026-04-25T07:48:29.715Z</time></trkpt><trkpt lat="43.4337255" lon="11.2890235"><ele>427.00000000000006</ele><time>2026-04-25T07:48:32.728Z</time></trkpt><trkpt lat="43.4337862" lon="11.289095"><ele>427.0</ele><time>2026-04-25T07:48:35.722Z</time></trkpt><trkpt lat="43.433838" lon="11.2891624"><ele>427.0</ele><time>2026-04-25T07:48:37.709Z</time></trkpt><trkpt lat="43.4339046" lon="11.2892526"><ele>427.0</ele><time>2026-04-25T07:48:40.722Z</time></trkpt><trkpt lat="43.4339653" lon="11.2893286"><ele>427.00000000000006</ele><time>2026-04-25T07:48:42.803Z</time></trkpt><trkpt lat="43.4340159" lon="11.289455"><ele>427.0</ele><time>2026-04-25T07:48:45.73Z</time></trkpt><trkpt lat="43.434039" lon="11.2895868"><ele>427.00000000000006</ele><time>2026-04-25T07:48:47.793Z</time></trkpt><trkpt lat="43.4340546" lon="11.289676"><ele>427.0</ele><time>2026-04-25T07:48:48.79Z</time></trkpt><trkpt lat="43.4340711" lon="11.2897886"><ele>427.0</ele><time>2026-04-25T07:48:49.699Z</time></trkpt><trkpt lat="43.4340841" lon="11.2898794"><ele>427.0</ele><time>2026-04-25T07:48:50.714Z</time></trkpt><trkpt lat="43.4340919" lon="11.2899966"><ele>427.00000000000006</ele><time>2026-04-25T07:48:51.794Z</time></trkpt><trkpt lat="43.4341062" lon="11.2900943"><ele>427.0</ele><time>2026-04-25T07:48:52.797Z</time></trkpt><trkpt lat="43.4341375" lon="11.2902467"><ele>426.83333333333337</ele><time>2026-04-25T07:48:54.732Z</time></trkpt><trkpt lat="43.4341664" lon="11.2904067"><ele>426.6666666666667</ele><time>2026-04-25T07:48:56.785Z</time></trkpt><trkpt lat="43.4341719" lon="11.2905072"><ele>426.5</ele><time>2026-04-25T07:48:58.79Z</time></trkpt><trkpt lat="43.4341623" lon="11.2906148"><ele>426.33333333333337</ele><time>2026-04-25T07:49:01.705Z</time></trkpt><trkpt lat="43.4341767" lon="11.2907092"><ele>426.1666666666667</ele><time>2026-04-25T07:49:04.717Z</time></trkpt><trkpt lat="43.4342169" lon="11.2907802"><ele>426.0</ele><time>2026-04-25T07:49:06.724Z</time></trkpt><trkpt lat="43.4342613" lon="11.2908477"><ele>426.4285714285714</ele><time>2026-04-25T07:49:08.715Z</time></trkpt><trkpt lat="43.4343054" lon="11.2909235"><ele>426.85714285714283</ele><time>2026-04-25T07:49:11.737Z</time></trkpt><trkpt lat="43.4343394" lon="11.2909993"><ele>427.2857142857143</ele><time>2026-04-25T07:49:14.726Z</time></trkpt><trkpt lat="43.4343802" lon="11.2910866"><ele>427.71428571428567</ele><time>2026-04-25T07:49:18.79Z</time></trkpt><trkpt lat="43.4344138" lon="11.2911632"><ele>428.14285714285717</ele><time>2026-04-25T07:49:21.808Z</time></trkpt><trkpt lat="43.4344847" lon="11.2912213"><ele>428.57142857142856</ele><time>2026-04-25T07:49:25.727Z</time></trkpt><trkpt lat="43.4345538" lon="11.2912852"><ele>429.0</ele><time>2026-04-25T07:49:31.788Z</time></trkpt><trkpt lat="43.4346083" lon="11.2913289"><ele>428.42857142857144</ele><time>2026-04-25T07:49:35.716Z</time></trkpt><trkpt lat="43.4346425" lon="11.2914114"><ele>427.8571428571429</ele><time>2026-04-25T07:49:38.724Z</time></trkpt><trkpt lat="43.4346795" lon="11.29149"><ele>427.2857142857143</ele><time>2026-04-25T07:49:43.705Z</time></trkpt><trkpt lat="43.4347209" lon="11.2916023"><ele>426.7142857142857</ele><time>2026-04-25T07:49:48.808Z</time></trkpt><trkpt lat="43.4347529" lon="11.2916819"><ele>426.1428571428571</ele><time>2026-04-25T07:49:51.736Z</time></trkpt><trkpt lat="43.4347991" lon="11.2917467"><ele>425.57142857142856</ele><time>2026-04-25T07:49:54.71Z</time></trkpt><trkpt lat="43.4348114" lon="11.2918497"><ele>425.0</ele><time>2026-04-25T07:50:01.713Z</time></trkpt><trkpt lat="43.4348189" lon="11.2919621"><ele>427.1428571428571</ele><time>2026-04-25T07:50:05.717Z</time></trkpt><trkpt lat="43.4348089" lon="11.2920542"><ele>429.2857142857143</ele><time>2026-04-25T07:50:09.708Z</time></trkpt><trkpt lat="43.4348107" lon="11.292152"><ele>431.42857142857144</ele><time>2026-04-25T07:50:13.733Z</time></trkpt><trkpt lat="43.4348268" lon="11.2922593"><ele>433.57142857142856</ele><time>2026-04-25T07:50:17.714Z</time></trkpt><trkpt lat="43.4347784" lon="11.2923219"><ele>435.7142857142857</ele><time>2026-04-25T07:50:21.805Z</time></trkpt><trkpt lat="43.4347936" lon="11.2924132"><ele>437.85714285714283</ele><time>2026-04-25T07:50:25.726Z</time></trkpt><trkpt lat="43.4348184" lon="11.2925095"><ele>440.0</ele><time>2026-04-25T07:50:28.723Z</time></trkpt><trkpt lat="43.4348333" lon="11.2926143"><ele>440.49999999999994</ele><time>2026-04-25T07:50:31.711Z</time></trkpt><trkpt lat="43.434855" lon="11.2927026"><ele>441.0</ele><time>2026-04-25T07:50:35.719Z</time></trkpt><trkpt lat="43.434871" lon="11.2927955"><ele>441.5</ele><time>2026-04-25T07:50:38.785Z</time></trkpt><trkpt lat="43.4349098" lon="11.2929032"><ele>442.0</ele><time>2026-04-25T07:50:41.7Z</time></trkpt><trkpt lat="43.4349435" lon="11.2929925"><ele>442.49999999999994</ele><time>2026-04-25T07:50:43.718Z</time></trkpt><trkpt lat="43.434974" lon="11.2930897"><ele>443.0</ele><time>2026-04-25T07:50:45.718Z</time></trkpt><trkpt lat="43.4350248" lon="11.2931792"><ele>441.99999999999994</ele><time>2026-04-25T07:50:47.722Z</time></trkpt><trkpt lat="43.4350767" lon="11.2932672"><ele>441.0</ele><time>2026-04-25T07:50:49.722Z</time></trkpt><trkpt lat="43.4351222" lon="11.2933569"><ele>440.0</ele><time>2026-04-25T07:50:51.719Z</time></trkpt><trkpt lat="43.43517" lon="11.2934593"><ele>439.0</ele><time>2026-04-25T07:50:54.707Z</time></trkpt><trkpt lat="43.4352175" lon="11.2935325"><ele>437.99999999999994</ele><time>2026-04-25T07:50:57.805Z</time></trkpt><trkpt lat="43.4352881" lon="11.2935517"><ele>437.0</ele><time>2026-04-25T07:51:01.719Z</time></trkpt><trkpt lat="43.4353704" lon="11.293605"><ele>437.0</ele><time>2026-04-25T07:51:04.714Z</time></trkpt><trkpt lat="43.435424" lon="11.2936521"><ele>437.0</ele><time>2026-04-25T07:51:06.725Z</time></trkpt><trkpt lat="43.4354878" lon="11.2936976"><ele>437.0</ele><time>2026-04-25T07:51:11.784Z</time></trkpt><trkpt lat="43.4355469" lon="11.2937586"><ele>437.0</ele><time>2026-04-25T07:51:15.721Z</time></trkpt><trkpt lat="43.4355925" lon="11.2938424"><ele>437.0</ele><time>2026-04-25T07:51:18.717Z</time></trkpt><trkpt lat="43.435634" lon="11.2939492"><ele>437.0</ele><time>2026-04-25T07:51:21.72Z</time></trkpt><trkpt lat="43.4356748" lon="11.2940162"><ele>437.0</ele><time>2026-04-25T07:51:23.722Z</time></trkpt><trkpt lat="43.4357223" lon="11.294085"><ele>439.16666666666663</ele><time>2026-04-25T07:51:25.715Z</time></trkpt><trkpt lat="43.4357787" lon="11.2941693"><ele>441.3333333333333</ele><time>2026-04-25T07:51:28.717Z</time></trkpt><trkpt lat="43.4358332" lon="11.2942332"><ele>443.5</ele><time>2026-04-25T07:51:31.724Z</time></trkpt><trkpt lat="43.4358629" lon="11.2943409"><ele>445.66666666666663</ele><time>2026-04-25T07:51:35.733Z</time></trkpt><trkpt lat="43.4359226" lon="11.2943951"><ele>447.8333333333333</ele><time>2026-04-25T07:51:40.722Z</time></trkpt><trkpt lat="43.4359766" lon="11.2944584"><ele>450.0</ele><time>2026-04-25T07:51:46.723Z</time></trkpt><trkpt lat="43.4360503" lon="11.2945031"><ele>450.00000000000006</ele><time>2026-04-25T07:51:50.714Z</time></trkpt><trkpt lat="43.4360946" lon="11.2945739"><ele>450.0</ele><time>2026-04-25T07:51:53.711Z</time></trkpt><trkpt lat="43.4361344" lon="11.2946472"><ele>450.00000000000006</ele><time>2026-04-25T07:51:56.717Z</time></trkpt><trkpt lat="43.4361896" lon="11.2947253"><ele>450.00000000000006</ele><time>2026-04-25T07:51:59.724Z</time></trkpt><trkpt lat="43.4362437" lon="11.2947926"><ele>450.0</ele><time>2026-04-25T07:52:03.782Z</time></trkpt><trkpt lat="43.4362945" lon="11.2948578"><ele>450.00000000000006</ele><time>2026-04-25T07:52:07.697Z</time></trkpt><trkpt lat="43.4363427" lon="11.2949638"><ele>450.00000000000006</ele><time>2026-04-25T07:52:11.81Z</time></trkpt><trkpt lat="43.4363988" lon="11.2950178"><ele>451.1666666666667</ele><time>2026-04-25T07:52:14.715Z</time></trkpt><trkpt lat="43.4364325" lon="11.2951149"><ele>452.33333333333337</ele><time>2026-04-25T07:52:18.797Z</time></trkpt><trkpt lat="43.4364406" lon="11.2952231"><ele>453.5</ele><time>2026-04-25T07:52:20.716Z</time></trkpt><trkpt lat="43.4364714" lon="11.2953116"><ele>454.6666666666667</ele><time>2026-04-25T07:52:24.701Z</time></trkpt><trkpt lat="43.4364888" lon="11.2954233"><ele>455.83333333333337</ele><time>2026-04-25T07:52:28.725Z</time></trkpt><trkpt lat="43.4365166" lon="11.2955194"><ele>457.0</ele><time>2026-04-25T07:52:31.732Z</time></trkpt><trkpt lat="43.4365294" lon="11.2956147"><ele>457.0</ele><time>2026-04-25T07:52:33.725Z</time></trkpt><trkpt lat="43.4365594" lon="11.2957259"><ele>457.00000000000006</ele><time>2026-04-25T07:52:35.725Z</time></trkpt><trkpt lat="43.4365928" lon="11.2958617"><ele>457.00000000000006</ele><time>2026-04-25T07:52:37.72Z</time></trkpt><trkpt lat="43.436633" lon="11.2959938"><ele>457.0</ele><time>2026-04-25T07:52:39.699Z</time></trkpt><trkpt lat="43.436667" lon="11.296112"><ele>457.0</ele><time>2026-04-25T07:52:41.791Z</time></trkpt><trkpt lat="43.4366971" lon="11.2962143"><ele>457.00000000000006</ele><time>2026-04-25T07:52:43.723Z</time></trkpt><trkpt lat="43.4366996" lon="11.2963076"><ele>457.0</ele><time>2026-04-25T07:52:45.715Z</time></trkpt><trkpt lat="43.4367458" lon="11.2963789"><ele>457.00000000000006</ele><time>2026-04-25T07:52:48.798Z</time></trkpt><trkpt lat="43.436769" lon="11.2964732"><ele>457.00000000000006</ele><time>2026-04-25T07:52:51.707Z</time></trkpt><trkpt lat="43.4367682" lon="11.2965641"><ele>457.0</ele><time>2026-04-25T07:52:54.719Z</time></trkpt><trkpt lat="43.436767" lon="11.2966673"><ele>457.00000000000006</ele><time>2026-04-25T07:52:57.702Z</time></trkpt><trkpt lat="43.4367303" lon="11.2967603"><ele>457.00000000000006</ele><time>2026-04-25T07:53:00.701Z</time></trkpt><trkpt lat="43.4366812" lon="11.29683"><ele>457.00000000000006</ele><time>2026-04-25T07:53:03.723Z</time></trkpt><trkpt lat="43.4366407" lon="11.2969052"><ele>457.0</ele><time>2026-04-25T07:53:08.726Z</time></trkpt><trkpt lat="43.4365752" lon="11.2969526"><ele>457.00000000000006</ele><time>2026-04-25T07:53:12.78Z</time></trkpt><trkpt lat="43.4364931" lon="11.2969469"><ele>457.00000000000006</ele><time>2026-04-25T07:53:17.781Z</time></trkpt><trkpt lat="43.4364292" lon="11.2969341"><ele>457.0</ele><time>2026-04-25T07:53:21.789Z</time></trkpt><trkpt lat="43.4363635" lon="11.2969045"><ele>457.00000000000006</ele><time>2026-04-25T07:53:27.792Z</time></trkpt><trkpt lat="43.4362983" lon="11.2969508"><ele>457.00000000000006</ele><time>2026-04-25T07:53:32.791Z</time></trkpt><trkpt lat="43.4362334" lon="11.2969904"><ele>456.57142857142867</ele><time>2026-04-25T07:53:36.716Z</time></trkpt><trkpt lat="43.4361727" lon="11.2970184"><ele>456.14285714285717</ele><time>2026-04-25T07:53:41.713Z</time></trkpt><trkpt lat="43.436106" lon="11.2970634"><ele>455.7142857142858</ele><time>2026-04-25T07:53:46.8Z</time></trkpt><trkpt lat="43.4360708" lon="11.2971571"><ele>455.28571428571433</ele><time>2026-04-25T07:53:50.708Z</time></trkpt><trkpt lat="43.4359979" lon="11.2971301"><ele>454.8571428571429</ele><time>2026-04-25T07:53:56.788Z</time></trkpt><trkpt lat="43.4359267" lon="11.297133"><ele>454.42857142857144</ele><time>2026-04-25T07:54:01.789Z</time></trkpt><trkpt lat="43.4358616" lon="11.2971591"><ele>454.0</ele><time>2026-04-25T07:54:06.715Z</time></trkpt><trkpt lat="43.4358189" lon="11.2972455"><ele>456.0</ele><time>2026-04-25T07:54:10.718Z</time></trkpt><trkpt lat="43.4357606" lon="11.297287"><ele>458.00000000000006</ele><time>2026-04-25T07:54:14.723Z</time></trkpt><trkpt lat="43.4356945" lon="11.2973399"><ele>460.0</ele><time>2026-04-25T07:54:22.804Z</time></trkpt><trkpt lat="43.4356224" lon="11.2973642"><ele>462.0</ele><time>2026-04-25T07:54:28.731Z</time></trkpt><trkpt lat="43.4355757" lon="11.2974258"><ele>464.00000000000006</ele><time>2026-04-25T07:54:33.713Z</time></trkpt><trkpt lat="43.4355346" lon="11.297498"><ele>466.0</ele><time>2026-04-25T07:54:38.714Z</time></trkpt><trkpt lat="43.4354863" lon="11.2975856"><ele>468.0</ele><time>2026-04-25T07:54:42.715Z</time></trkpt><trkpt lat="43.4354435" lon="11.2976722"><ele>468.0</ele><time>2026-04-25T07:54:46.724Z</time></trkpt><trkpt lat="43.4353993" lon="11.2977568"><ele>468.00000000000006</ele><time>2026-04-25T07:54:51.784Z</time></trkpt><trkpt lat="43.4353857" lon="11.2978504"><ele>468.0</ele><time>2026-04-25T07:54:55.725Z</time></trkpt><trkpt lat="43.4353871" lon="11.2979416"><ele>468.0</ele><time>2026-04-25T07:55:00.712Z</time></trkpt><trkpt lat="43.4354303" lon="11.2980096"><ele>468.00000000000006</ele><time>2026-04-25T07:55:04.715Z</time></trkpt><trkpt lat="43.435491" lon="11.2980606"><ele>468.0</ele><time>2026-04-25T07:55:07.804Z</time></trkpt><trkpt lat="43.4355727" lon="11.2980955"><ele>468.0</ele><time>2026-04-25T07:55:10.733Z</time></trkpt><trkpt lat="43.4356446" lon="11.2981149"><ele>468.8333333333333</ele><time>2026-04-25T07:55:13.713Z</time></trkpt><trkpt lat="43.4357138" lon="11.2981235"><ele>469.66666666666663</ele><time>2026-04-25T07:55:16.725Z</time></trkpt><trkpt lat="43.4357903" lon="11.2981346"><ele>470.5</ele><time>2026-04-25T07:55:19.716Z</time></trkpt><trkpt lat="43.4358566" lon="11.2981672"><ele>471.3333333333333</ele><time>2026-04-25T07:55:22.723Z</time></trkpt><trkpt lat="43.4359375" lon="11.298193"><ele>472.16666666666663</ele><time>2026-04-25T07:55:26.714Z</time></trkpt><trkpt lat="43.4360062" lon="11.2982055"><ele>473.0</ele><time>2026-04-25T07:55:29.71Z</time></trkpt><trkpt lat="43.4360871" lon="11.2982094"><ele>472.99999999999994</ele><time>2026-04-25T07:55:32.715Z</time></trkpt><trkpt lat="43.4361525" lon="11.2982279"><ele>473.0</ele><time>2026-04-25T07:55:35.711Z</time></trkpt><trkpt lat="43.4362352" lon="11.2982429"><ele>473.0</ele><time>2026-04-25T07:55:39.705Z</time></trkpt><trkpt lat="43.4363222" lon="11.2982637"><ele>473.0</ele><time>2026-04-25T07:55:42.714Z</time></trkpt><trkpt lat="43.4363898" lon="11.2982888"><ele>472.99999999999994</ele><time>2026-04-25T07:55:44.73Z</time></trkpt><trkpt lat="43.4364566" lon="11.2983337"><ele>473.0</ele><time>2026-04-25T07:55:47.795Z</time></trkpt><trkpt lat="43.4365086" lon="11.298415"><ele>473.8333333333333</ele><time>2026-04-25T07:55:50.715Z</time></trkpt><trkpt lat="43.4365925" lon="11.2984756"><ele>474.66666666666663</ele><time>2026-04-25T07:55:53.731Z</time></trkpt><trkpt lat="43.4366505" lon="11.2985173"><ele>475.5</ele><time>2026-04-25T07:55:55.696Z</time></trkpt><trkpt lat="43.4367271" lon="11.2985367"><ele>476.33333333333337</ele><time>2026-04-25T07:55:59.699Z</time></trkpt><trkpt lat="43.4367908" lon="11.2985222"><ele>477.1666666666667</ele><time>2026-04-25T07:56:02.794Z</time></trkpt><trkpt lat="43.4368686" lon="11.2985166"><ele>478.0</ele><time>2026-04-25T07:56:06.723Z</time></trkpt><trkpt lat="43.4369422" lon="11.2985425"><ele>478.00000000000006</ele><time>2026-04-25T07:56:10.722Z</time></trkpt><trkpt lat="43.4370051" lon="11.2986183"><ele>478.0</ele><time>2026-04-25T07:56:13.726Z</time></trkpt><trkpt lat="43.4370484" lon="11.2986936"><ele>478.0</ele><time>2026-04-25T07:56:14.714Z</time></trkpt><trkpt lat="43.4370976" lon="11.2987502"><ele>478.0</ele><time>2026-04-25T07:56:16.73Z</time></trkpt><trkpt lat="43.437161" lon="11.2988056"><ele>478.00000000000006</ele><time>2026-04-25T07:56:31.713Z</time></trkpt><trkpt lat="43.4372075" lon="11.2988686"><ele>478.0</ele><time>2026-04-25T07:56:37.733Z</time></trkpt><trkpt lat="43.437275" lon="11.2989552"><ele>480.4285714285715</ele><time>2026-04-25T07:56:45.716Z</time></trkpt><trkpt lat="43.4373322" lon="11.2989939"><ele>482.8571428571429</ele><time>2026-04-25T07:56:52.79Z</time></trkpt><trkpt lat="43.4373755" lon="11.2990686"><ele>485.2857142857143</ele><time>2026-04-25T07:56:57.788Z</time></trkpt><trkpt lat="43.4373975" lon="11.2991602"><ele>487.7142857142857</ele><time>2026-04-25T07:57:04.729Z</time></trkpt><trkpt lat="43.4373988" lon="11.2992523"><ele>490.1428571428571</ele><time>2026-04-25T07:57:11.802Z</time></trkpt><trkpt lat="43.4373944" lon="11.2993488"><ele>492.5714285714285</ele><time>2026-04-25T07:57:19.716Z</time></trkpt><trkpt lat="43.4374065" lon="11.2994344"><ele>494.99999999999994</ele><time>2026-04-25T07:57:27.794Z</time></trkpt><trkpt lat="43.4373896" lon="11.2995191"><ele>494.99999999999994</ele><time>2026-04-25T07:57:33.711Z</time></trkpt><trkpt lat="43.4374022" lon="11.2996242"><ele>495.0</ele><time>2026-04-25T07:57:37.73Z</time></trkpt><trkpt lat="43.4373874" lon="11.2997306"><ele>494.99999999999994</ele><time>2026-04-25T07:57:41.71Z</time></trkpt><trkpt lat="43.4373797" lon="11.2998265"><ele>494.99999999999994</ele><time>2026-04-25T07:57:46.713Z</time></trkpt><trkpt lat="43.4373828" lon="11.2999218"><ele>495.0</ele><time>2026-04-25T07:57:51.792Z</time></trkpt><trkpt lat="43.4374008" lon="11.3000122"><ele>494.99999999999994</ele><time>2026-04-25T07:57:55.727Z</time></trkpt><trkpt lat="43.437363" lon="11.3001034"><ele>494.99999999999994</ele><time>2026-04-25T07:58:00.715Z</time></trkpt><trkpt lat="43.4373351" lon="11.3001823"><ele>494.8333333333333</ele><time>2026-04-25T07:58:03.721Z</time></trkpt><trkpt lat="43.4373018" lon="11.3002799"><ele>494.66666666666663</ele><time>2026-04-25T07:58:05.722Z</time></trkpt><trkpt lat="43.4372414" lon="11.30036"><ele>494.5</ele><time>2026-04-25T07:58:07.717Z</time></trkpt><trkpt lat="43.4371958" lon="11.3004368"><ele>494.3333333333333</ele><time>2026-04-25T07:58:09.712Z</time></trkpt><trkpt lat="43.4371516" lon="11.3005358"><ele>494.16666666666663</ele><time>2026-04-25T07:58:12.71Z</time></trkpt><trkpt lat="43.4371125" lon="11.3006227"><ele>494.0</ele><time>2026-04-25T07:58:16.8Z</time></trkpt><trkpt lat="43.4370501" lon="11.3006833"><ele>493.99999999999994</ele><time>2026-04-25T07:58:20.731Z</time></trkpt><trkpt lat="43.4369563" lon="11.30072"><ele>494.0</ele><time>2026-04-25T07:58:22.711Z</time></trkpt><trkpt lat="43.4368815" lon="11.3007451"><ele>494.0</ele><time>2026-04-25T07:58:23.793Z</time></trkpt><trkpt lat="43.436797" lon="11.3008334"><ele>494.0</ele><time>2026-04-25T07:58:25.724Z</time></trkpt><trkpt lat="43.4367599" lon="11.3009204"><ele>493.99999999999994</ele><time>2026-04-25T07:58:26.787Z</time></trkpt><trkpt lat="43.4367252" lon="11.3010138"><ele>494.0</ele><time>2026-04-25T07:58:27.804Z</time></trkpt><trkpt lat="43.4366893" lon="11.3011144"><ele>493.99999999999994</ele><time>2026-04-25T07:58:28.725Z</time></trkpt><trkpt lat="43.4366813" lon="11.3012088"><ele>494.0</ele><time>2026-04-25T07:58:29.719Z</time></trkpt><trkpt lat="43.4366756" lon="11.3013077"><ele>494.0</ele><time>2026-04-25T07:58:30.767Z</time></trkpt><trkpt lat="43.4366651" lon="11.3014101"><ele>494.0</ele><time>2026-04-25T07:58:31.722Z</time></trkpt><trkpt lat="43.436676" lon="11.3015616"><ele>493.99999999999994</ele><time>2026-04-25T07:58:33.801Z</time></trkpt><trkpt lat="43.4366796" lon="11.3017119"><ele>494.0</ele><time>2026-04-25T07:58:35.729Z</time></trkpt><trkpt lat="43.4366624" lon="11.3018329"><ele>493.99999999999994</ele><time>2026-04-25T07:58:36.713Z</time></trkpt><trkpt lat="43.4366318" lon="11.3019347"><ele>494.0</ele><time>2026-04-25T07:58:37.707Z</time></trkpt><trkpt lat="43.4366225" lon="11.3020224"><ele>494.0</ele><time>2026-04-25T07:58:38.808Z</time></trkpt><trkpt lat="43.4366116" lon="11.3022221"><ele>494.0</ele><time>2026-04-25T07:58:40.71Z</time></trkpt><trkpt lat="43.4366055" lon="11.3023159"><ele>493.99999999999994</ele><time>2026-04-25T07:58:41.729Z</time></trkpt><trkpt lat="43.4366126" lon="11.3024156"><ele>494.0</ele><time>2026-04-25T07:58:42.702Z</time></trkpt><trkpt lat="43.4366247" lon="11.3025443"><ele>494.0</ele><time>2026-04-25T07:58:43.718Z</time></trkpt><trkpt lat="43.4366351" lon="11.3026528"><ele>494.0</ele><time>2026-04-25T07:58:44.726Z</time></trkpt><trkpt lat="43.436651" lon="11.3027624"><ele>494.0</ele><time>2026-04-25T07:58:45.735Z</time></trkpt><trkpt lat="43.4366682" lon="11.3028837"><ele>494.0</ele><time>2026-04-25T07:58:46.724Z</time></trkpt><trkpt lat="43.4366887" lon="11.3030199"><ele>494.0</ele><time>2026-04-25T07:58:47.717Z</time></trkpt><trkpt lat="43.4367031" lon="11.3031645"><ele>492.6</ele><time>2026-04-25T07:58:48.782Z</time></trkpt><trkpt lat="43.436706" lon="11.3033128"><ele>491.2</ele><time>2026-04-25T07:58:49.726Z</time></trkpt><trkpt lat="43.4367093" lon="11.3034489"><ele>489.80000000000007</ele><time>2026-04-25T07:58:50.722Z</time></trkpt><trkpt lat="43.4367153" lon="11.3035903"><ele>488.40000000000003</ele><time>2026-04-25T07:58:51.724Z</time></trkpt><trkpt lat="43.4367238" lon="11.3037357"><ele>487.0</ele><time>2026-04-25T07:58:52.788Z</time></trkpt><trkpt lat="43.4367301" lon="11.3038664"><ele>487.1666666666667</ele><time>2026-04-25T07:58:53.719Z</time></trkpt><trkpt lat="43.4367386" lon="11.3039702"><ele>487.33333333333337</ele><time>2026-04-25T07:58:54.724Z</time></trkpt><trkpt lat="43.4367514" lon="11.3040662"><ele>487.5</ele><time>2026-04-25T07:58:55.714Z</time></trkpt><trkpt lat="43.4367735" lon="11.3042147"><ele>487.66666666666663</ele><time>2026-04-25T07:58:57.785Z</time></trkpt><trkpt lat="43.4367795" lon="11.3043491"><ele>487.8333333333333</ele><time>2026-04-25T07:58:59.72Z</time></trkpt><trkpt lat="43.4367401" lon="11.3044198"><ele>488.0</ele><time>2026-04-25T07:59:04.699Z</time></trkpt><trkpt lat="43.4367328" lon="11.3045457"><ele>487.99999999999994</ele><time>2026-04-25T07:59:08.801Z</time></trkpt><trkpt lat="43.4367296" lon="11.3046349"><ele>488.0</ele><time>2026-04-25T07:59:10.716Z</time></trkpt><trkpt lat="43.4367169" lon="11.3047285"><ele>488.0</ele><time>2026-04-25T07:59:13.719Z</time></trkpt><trkpt lat="43.4367203" lon="11.3048234"><ele>488.0</ele><time>2026-04-25T07:59:17.733Z</time></trkpt><trkpt lat="43.4367288" lon="11.3049408"><ele>487.99999999999994</ele><time>2026-04-25T07:59:21.781Z</time></trkpt><trkpt lat="43.4367117" lon="11.305051"><ele>488.0</ele><time>2026-04-25T07:59:25.711Z</time></trkpt><trkpt lat="43.4366522" lon="11.3051332"><ele>488.66666666666663</ele><time>2026-04-25T07:59:27.727Z</time></trkpt><trkpt lat="43.4366002" lon="11.3051861"><ele>489.3333333333333</ele><time>2026-04-25T07:59:28.781Z</time></trkpt><trkpt lat="43.4365353" lon="11.3052375"><ele>490.0</ele><time>2026-04-25T07:59:29.721Z</time></trkpt><trkpt lat="43.4364608" lon="11.305277"><ele>490.66666666666663</ele><time>2026-04-25T07:59:30.72Z</time></trkpt><trkpt lat="43.4363905" lon="11.3053092"><ele>491.3333333333333</ele><time>2026-04-25T07:59:31.711Z</time></trkpt><trkpt lat="43.4362988" lon="11.3053329"><ele>492.0</ele><time>2026-04-25T07:59:33.793Z</time></trkpt><trkpt lat="43.4362296" lon="11.3053049"><ele>492.57142857142867</ele><time>2026-04-25T07:59:36.724Z</time></trkpt><trkpt lat="43.4361706" lon="11.3052621"><ele>493.14285714285717</ele><time>2026-04-25T07:59:40.714Z</time></trkpt><trkpt lat="43.4361014" lon="11.3052168"><ele>493.7142857142858</ele><time>2026-04-25T07:59:43.715Z</time></trkpt><trkpt lat="43.4360208" lon="11.3051947"><ele>494.28571428571433</ele><time>2026-04-25T07:59:46.721Z</time></trkpt><trkpt lat="43.4359557" lon="11.3051707"><ele>494.8571428571429</ele><time>2026-04-25T07:59:52.702Z</time></trkpt><trkpt lat="43.4358942" lon="11.3051503"><ele>495.42857142857144</ele><time>2026-04-25T07:59:55.719Z</time></trkpt><trkpt lat="43.4358221" lon="11.3051691"><ele>496.0</ele><time>2026-04-25T08:00:00.715Z</time></trkpt><trkpt lat="43.4357527" lon="11.3051826"><ele>496.0</ele><time>2026-04-25T08:00:03.786Z</time></trkpt><trkpt lat="43.4356883" lon="11.3051835"><ele>496.00000000000006</ele><time>2026-04-25T08:00:06.79Z</time></trkpt><trkpt lat="43.4356103" lon="11.305162"><ele>496.0</ele><time>2026-04-25T08:00:10.725Z</time></trkpt><trkpt lat="43.4355373" lon="11.305118"><ele>496.0</ele><time>2026-04-25T08:00:15.719Z</time></trkpt><trkpt lat="43.4354699" lon="11.3050628"><ele>496.00000000000006</ele><time>2026-04-25T08:00:19.697Z</time></trkpt><trkpt lat="43.4354094" lon="11.3050161"><ele>496.0</ele><time>2026-04-25T08:00:22.723Z</time></trkpt><trkpt lat="43.435346" lon="11.3050236"><ele>496.0</ele><time>2026-04-25T08:00:28.7Z</time></trkpt><trkpt lat="43.4353301" lon="11.3051295"><ele>496.7142857142857</ele><time>2026-04-25T08:00:33.791Z</time></trkpt><trkpt lat="43.4352892" lon="11.3052086"><ele>497.42857142857144</ele><time>2026-04-25T08:00:36.799Z</time></trkpt><trkpt lat="43.4352526" lon="11.305285"><ele>498.14285714285717</ele><time>2026-04-25T08:00:41.783Z</time></trkpt><trkpt lat="43.4352743" lon="11.3053784"><ele>498.8571428571429</ele><time>2026-04-25T08:00:46.794Z</time></trkpt><trkpt lat="43.4353149" lon="11.3054635"><ele>499.57142857142856</ele><time>2026-04-25T08:00:49.704Z</time></trkpt><trkpt lat="43.4353531" lon="11.3055415"><ele>500.28571428571433</ele><time>2026-04-25T08:00:54.721Z</time></trkpt><trkpt lat="43.4353575" lon="11.3056402"><ele>501.0</ele><time>2026-04-25T08:00:58.711Z</time></trkpt><trkpt lat="43.4354032" lon="11.3057183"><ele>501.6666666666667</ele><time>2026-04-25T08:01:02.716Z</time></trkpt><trkpt lat="43.435479" lon="11.3057835"><ele>502.33333333333337</ele><time>2026-04-25T08:01:05.717Z</time></trkpt><trkpt lat="43.4355521" lon="11.3058513"><ele>503.0</ele><time>2026-04-25T08:01:08.722Z</time></trkpt><trkpt lat="43.4356097" lon="11.3059098"><ele>503.6666666666667</ele><time>2026-04-25T08:01:11.802Z</time></trkpt><trkpt lat="43.4356124" lon="11.3060255"><ele>504.33333333333337</ele><time>2026-04-25T08:01:14.696Z</time></trkpt><trkpt lat="43.4355768" lon="11.3060996"><ele>505.0</ele><time>2026-04-25T08:01:18.783Z</time></trkpt><trkpt lat="43.435572" lon="11.3062036"><ele>505.0</ele><time>2026-04-25T08:01:22.788Z</time></trkpt><trkpt lat="43.4355503" lon="11.3062895"><ele>504.99999999999994</ele><time>2026-04-25T08:01:29.7Z</time></trkpt><trkpt lat="43.4355779" lon="11.3063821"><ele>505.0</ele><time>2026-04-25T08:01:33.72Z</time></trkpt><trkpt lat="43.4356051" lon="11.3064639"><ele>505.0</ele><time>2026-04-25T08:01:38.719Z</time></trkpt><trkpt lat="43.4356039" lon="11.3063724"><ele>504.99999999999994</ele><time>2026-04-25T08:01:52.698Z</time></trkpt><trkpt lat="43.4355453" lon="11.3064252"><ele>505.0</ele><time>2026-04-25T08:02:05.719Z</time></trkpt><trkpt lat="43.4355924" lon="11.3063516"><ele>505.0</ele><time>2026-04-25T08:02:43.713Z</time></trkpt><trkpt lat="43.4356534" lon="11.3064122"><ele>505.0</ele><time>2026-04-25T08:03:01.719Z</time></trkpt><trkpt lat="43.4356445" lon="11.3063235"><ele>504.99999999999994</ele><time>2026-04-25T08:03:44.798Z</time></trkpt><trkpt lat="43.4356557" lon="11.3064293"><ele>505.0</ele><time>2026-04-25T08:04:13.71Z</time></trkpt><trkpt lat="43.4355857" lon="11.3063856"><ele>505.0</ele><time>2026-04-25T08:04:36.712Z</time></trkpt><trkpt lat="43.4356557" lon="11.3063959"><ele>504.99999999999994</ele><time>2026-04-25T08:05:39.695Z</time></trkpt><trkpt lat="43.4355912" lon="11.3064143"><ele>505.0</ele><time>2026-04-25T08:06:20.708Z</time></trkpt><trkpt lat="43.4356645" lon="11.3064039"><ele>505.0</ele><time>2026-04-25T08:06:28.708Z</time></trkpt><trkpt lat="43.4355943" lon="11.3064216"><ele>505.0</ele><time>2026-04-25T08:06:45.719Z</time></trkpt><trkpt lat="43.4355798" lon="11.3063362"><ele>504.99999999999994</ele><time>2026-04-25T08:08:36.707Z</time></trkpt><trkpt lat="43.4355739" lon="11.3064263"><ele>505.0</ele><time>2026-04-25T08:09:21.731Z</time></trkpt><trkpt lat="43.4356432" lon="11.3064226"><ele>505.0</ele><time>2026-04-25T08:10:03.787Z</time></trkpt><trkpt lat="43.4356312" lon="11.3063268"><ele>504.99999999999994</ele><time>2026-04-25T08:10:33.789Z</time></trkpt><trkpt lat="43.4356353" lon="11.3062287"><ele>505.0</ele><time>2026-04-25T08:10:39.707Z</time></trkpt><trkpt lat="43.4356866" lon="11.3061251"><ele>505.0</ele><time>2026-04-25T08:10:45.699Z</time></trkpt><trkpt lat="43.4357181" lon="11.3060494"><ele>505.00000000000006</ele><time>2026-04-25T08:10:47.71Z</time></trkpt><trkpt lat="43.4356501" lon="11.3059324"><ele>505.0</ele><time>2026-04-25T08:10:50.718Z</time></trkpt><trkpt lat="43.4356099" lon="11.3058497"><ele>505.0</ele><time>2026-04-25T08:10:52.79Z</time></trkpt><trkpt lat="43.4355665" lon="11.3057544"><ele>505.0</ele><time>2026-04-25T08:10:56.71Z</time></trkpt><trkpt lat="43.4355194" lon="11.3056572"><ele>505.00000000000006</ele><time>2026-04-25T08:11:00.716Z</time></trkpt><trkpt lat="43.4354527" lon="11.3056176"><ele>505.0</ele><time>2026-04-25T08:11:06.71Z</time></trkpt><trkpt lat="43.4353886" lon="11.30562"><ele>504.33333333333337</ele><time>2026-04-25T08:11:09.693Z</time></trkpt><trkpt lat="43.4354128" lon="11.3055371"><ele>503.6666666666667</ele><time>2026-04-25T08:11:14.79Z</time></trkpt><trkpt lat="43.4354431" lon="11.3054249"><ele>503.0</ele><time>2026-04-25T08:11:24.714Z</time></trkpt><trkpt lat="43.4353616" lon="11.3053937"><ele>502.33333333333337</ele><time>2026-04-25T08:11:29.713Z</time></trkpt><trkpt lat="43.4352945" lon="11.3054189"><ele>501.6666666666667</ele><time>2026-04-25T08:11:44.713Z</time></trkpt><trkpt lat="43.4352355" lon="11.3053724"><ele>501.0</ele><time>2026-04-25T08:11:49.781Z</time></trkpt><trkpt lat="43.4351607" lon="11.3053074"><ele>501.0</ele><time>2026-04-25T08:11:52.782Z</time></trkpt><trkpt lat="43.4352048" lon="11.3053784"><ele>501.0</ele><time>2026-04-25T08:13:22.713Z</time></trkpt><trkpt lat="43.435261" lon="11.3054385"><ele>501.0</ele><time>2026-04-25T08:13:30.71Z</time></trkpt><trkpt lat="43.4353133" lon="11.3053512"><ele>501.0</ele><time>2026-04-25T08:13:33.788Z</time></trkpt><trkpt lat="43.4353591" lon="11.3052516"><ele>501.0</ele><time>2026-04-25T08:13:37.784Z</time></trkpt><trkpt lat="43.4354169" lon="11.30521"><ele>501.0</ele><time>2026-04-25T08:13:40.693Z</time></trkpt><trkpt lat="43.4354454" lon="11.3051305"><ele>501.0</ele><time>2026-04-25T08:13:42.794Z</time></trkpt><trkpt lat="43.4355201" lon="11.3051056"><ele>500.1666666666667</ele><time>2026-04-25T08:13:44.717Z</time></trkpt><trkpt lat="43.4355965" lon="11.3051196"><ele>499.33333333333337</ele><time>2026-04-25T08:13:46.792Z</time></trkpt><trkpt lat="43.4356686" lon="11.3051333"><ele>498.5</ele><time>2026-04-25T08:13:48.712Z</time></trkpt><trkpt lat="43.4357279" lon="11.3051635"><ele>497.6666666666667</ele><time>2026-04-25T08:13:50.716Z</time></trkpt><trkpt lat="43.4358073" lon="11.3051783"><ele>496.83333333333337</ele><time>2026-04-25T08:13:52.698Z</time></trkpt><trkpt lat="43.4358886" lon="11.3051838"><ele>496.0</ele><time>2026-04-25T08:13:54.713Z</time></trkpt><trkpt lat="43.4359825" lon="11.3052176"><ele>496.00000000000006</ele><time>2026-04-25T08:13:56.705Z</time></trkpt><trkpt lat="43.4360704" lon="11.3052499"><ele>496.0</ele><time>2026-04-25T08:13:58.712Z</time></trkpt><trkpt lat="43.4361384" lon="11.3052577"><ele>496.0</ele><time>2026-04-25T08:14:00.7Z</time></trkpt><trkpt lat="43.4362458" lon="11.3053144"><ele>496.0</ele><time>2026-04-25T08:14:03.786Z</time></trkpt><trkpt lat="43.436325" lon="11.3052845"><ele>496.00000000000006</ele><time>2026-04-25T08:14:05.708Z</time></trkpt><trkpt lat="43.4363927" lon="11.3052802"><ele>496.0</ele><time>2026-04-25T08:14:06.693Z</time></trkpt><trkpt lat="43.4364744" lon="11.3052477"><ele>495.33333333333337</ele><time>2026-04-25T08:14:07.791Z</time></trkpt><trkpt lat="43.4365341" lon="11.3052145"><ele>494.6666666666667</ele><time>2026-04-25T08:14:08.787Z</time></trkpt><trkpt lat="43.4366358" lon="11.3051634"><ele>494.0</ele><time>2026-04-25T08:14:10.706Z</time></trkpt><trkpt lat="43.4367284" lon="11.3051092"><ele>493.33333333333337</ele><time>2026-04-25T08:14:12.788Z</time></trkpt><trkpt lat="43.4367811" lon="11.305045"><ele>492.6666666666667</ele><time>2026-04-25T08:14:14.72Z</time></trkpt><trkpt lat="43.4368114" lon="11.3049357"><ele>492.0</ele><time>2026-04-25T08:14:17.709Z</time></trkpt><trkpt lat="43.4367972" lon="11.3048481"><ele>492.0</ele><time>2026-04-25T08:14:20.701Z</time></trkpt><trkpt lat="43.4367743" lon="11.3047577"><ele>492.0</ele><time>2026-04-25T08:14:23.793Z</time></trkpt><trkpt lat="43.4367833" lon="11.304657"><ele>492.0</ele><time>2026-04-25T08:14:26.712Z</time></trkpt><trkpt lat="43.4367925" lon="11.304567"><ele>492.0</ele><time>2026-04-25T08:14:28.716Z</time></trkpt><trkpt lat="43.4367999" lon="11.3044521"><ele>492.0</ele><time>2026-04-25T08:14:31.722Z</time></trkpt><trkpt lat="43.436802" lon="11.304351"><ele>492.0</ele><time>2026-04-25T08:14:33.699Z</time></trkpt><trkpt lat="43.4368044" lon="11.3042171"><ele>491.20000000000005</ele><time>2026-04-25T08:14:36.715Z</time></trkpt><trkpt lat="43.4367773" lon="11.3040933"><ele>490.40000000000003</ele><time>2026-04-25T08:14:38.71Z</time></trkpt><trkpt lat="43.4367643" lon="11.304008"><ele>489.59999999999997</ele><time>2026-04-25T08:14:39.791Z</time></trkpt><trkpt lat="43.4367549" lon="11.3038692"><ele>488.79999999999995</ele><time>2026-04-25T08:14:41.715Z</time></trkpt><trkpt lat="43.4367584" lon="11.3037044"><ele>488.0</ele><time>2026-04-25T08:14:43.704Z</time></trkpt><trkpt lat="43.436758" lon="11.3035386"><ele>487.8333333333333</ele><time>2026-04-25T08:14:45.711Z</time></trkpt><trkpt lat="43.4367494" lon="11.303452"><ele>487.66666666666663</ele><time>2026-04-25T08:14:46.723Z</time></trkpt><trkpt lat="43.4367283" lon="11.3032945"><ele>487.5</ele><time>2026-04-25T08:14:48.793Z</time></trkpt><trkpt lat="43.4367088" lon="11.3031711"><ele>487.33333333333337</ele><time>2026-04-25T08:14:50.743Z</time></trkpt><trkpt lat="43.4366946" lon="11.3030307"><ele>487.1666666666667</ele><time>2026-04-25T08:14:52.707Z</time></trkpt><trkpt lat="43.4367098" lon="11.3029397"><ele>487.0</ele><time>2026-04-25T08:14:54.806Z</time></trkpt><trkpt lat="43.43671" lon="11.3028246"><ele>488.1666666666667</ele><time>2026-04-25T08:14:57.795Z</time></trkpt><trkpt lat="43.4367086" lon="11.3027353"><ele>489.33333333333337</ele><time>2026-04-25T08:14:59.792Z</time></trkpt><trkpt lat="43.4367129" lon="11.3026135"><ele>490.5</ele><time>2026-04-25T08:15:02.702Z</time></trkpt><trkpt lat="43.436733" lon="11.3025114"><ele>491.66666666666663</ele><time>2026-04-25T08:15:05.724Z</time></trkpt><trkpt lat="43.4367106" lon="11.3024231"><ele>492.8333333333333</ele><time>2026-04-25T08:15:09.712Z</time></trkpt><trkpt lat="43.4366869" lon="11.30232"><ele>494.0</ele><time>2026-04-25T08:15:14.787Z</time></trkpt><trkpt lat="43.4366486" lon="11.3022149"><ele>494.42857142857144</ele><time>2026-04-25T08:15:17.794Z</time></trkpt><trkpt lat="43.4366542" lon="11.302116"><ele>494.85714285714283</ele><time>2026-04-25T08:15:20.701Z</time></trkpt><trkpt lat="43.4366649" lon="11.3020231"><ele>495.2857142857143</ele><time>2026-04-25T08:15:23.779Z</time></trkpt><trkpt lat="43.4366873" lon="11.3019251"><ele>495.7142857142857</ele><time>2026-04-25T08:15:26.715Z</time></trkpt><trkpt lat="43.4366942" lon="11.3018375"><ele>496.1428571428571</ele><time>2026-04-25T08:15:29.783Z</time></trkpt><trkpt lat="43.4366901" lon="11.301725"><ele>496.57142857142856</ele><time>2026-04-25T08:15:32.792Z</time></trkpt><trkpt lat="43.4366937" lon="11.3016288"><ele>497.0</ele><time>2026-04-25T08:15:35.711Z</time></trkpt><trkpt lat="43.4366886" lon="11.3015254"><ele>496.99999999999994</ele><time>2026-04-25T08:15:38.71Z</time></trkpt><trkpt lat="43.4366858" lon="11.3014288"><ele>497.0</ele><time>2026-04-25T08:15:41.693Z</time></trkpt><trkpt lat="43.4366931" lon="11.3013255"><ele>497.0</ele><time>2026-04-25T08:15:44.791Z</time></trkpt><trkpt lat="43.4366944" lon="11.3012267"><ele>497.0</ele><time>2026-04-25T08:15:47.785Z</time></trkpt><trkpt lat="43.4367202" lon="11.3011228"><ele>496.99999999999994</ele><time>2026-04-25T08:15:50.706Z</time></trkpt><trkpt lat="43.4367521" lon="11.3010261"><ele>497.0</ele><time>2026-04-25T08:15:53.714Z</time></trkpt><trkpt lat="43.4367839" lon="11.300921"><ele>496.57142857142856</ele><time>2026-04-25T08:15:57.719Z</time></trkpt><trkpt lat="43.4368325" lon="11.3008505"><ele>496.1428571428571</ele><time>2026-04-25T08:16:00.727Z</time></trkpt><trkpt lat="43.43686" lon="11.3007626"><ele>495.7142857142857</ele><time>2026-04-25T08:16:03.709Z</time></trkpt><trkpt lat="43.4369224" lon="11.3006895"><ele>495.2857142857143</ele><time>2026-04-25T08:16:06.728Z</time></trkpt><trkpt lat="43.4369918" lon="11.3006322"><ele>494.85714285714283</ele><time>2026-04-25T08:16:10.72Z</time></trkpt><trkpt lat="43.4370487" lon="11.3005856"><ele>494.42857142857144</ele><time>2026-04-25T08:16:14.714Z</time></trkpt><trkpt lat="43.437106" lon="11.300517"><ele>494.0</ele><time>2026-04-25T08:16:17.715Z</time></trkpt><trkpt lat="43.4371725" lon="11.3004628"><ele>495.49999999999994</ele><time>2026-04-25T08:16:20.731Z</time></trkpt><trkpt lat="43.4372063" lon="11.3003794"><ele>497.0</ele><time>2026-04-25T08:16:23.786Z</time></trkpt><trkpt lat="43.4372503" lon="11.300297"><ele>498.5</ele><time>2026-04-25T08:16:26.724Z</time></trkpt><trkpt lat="43.4373197" lon="11.3002714"><ele>500.0</ele><time>2026-04-25T08:16:28.791Z</time></trkpt><trkpt lat="43.4373901" lon="11.3002068"><ele>501.49999999999994</ele><time>2026-04-25T08:16:31.72Z</time></trkpt><trkpt lat="43.4374345" lon="11.3001345"><ele>503.0</ele><time>2026-04-25T08:16:33.784Z</time></trkpt><trkpt lat="43.4374279" lon="11.3000061"><ele>502.99999999999994</ele><time>2026-04-25T08:16:37.771Z</time></trkpt><trkpt lat="43.437438" lon="11.2998957"><ele>503.0</ele><time>2026-04-25T08:16:39.726Z</time></trkpt><trkpt lat="43.4374386" lon="11.2997912"><ele>503.0</ele><time>2026-04-25T08:16:41.719Z</time></trkpt><trkpt lat="43.4374523" lon="11.2996683"><ele>503.0</ele><time>2026-04-25T08:16:44.712Z</time></trkpt><trkpt lat="43.4374614" lon="11.2995806"><ele>502.99999999999994</ele><time>2026-04-25T08:16:47.71Z</time></trkpt><trkpt lat="43.43748" lon="11.2994823"><ele>503.0</ele><time>2026-04-25T08:16:50.722Z</time></trkpt><trkpt lat="43.4375108" lon="11.2993966"><ele>501.4</ele><time>2026-04-25T08:16:53.788Z</time></trkpt><trkpt lat="43.4375135" lon="11.2992879"><ele>499.79999999999995</ele><time>2026-04-25T08:16:58.791Z</time></trkpt><trkpt lat="43.4374637" lon="11.2991866"><ele>498.2</ele><time>2026-04-25T08:17:01.704Z</time></trkpt><trkpt lat="43.4373765" lon="11.2990576"><ele>496.6</ele><time>2026-04-25T08:17:03.792Z</time></trkpt><trkpt lat="43.4372791" lon="11.2989663"><ele>495.0</ele><time>2026-04-25T08:17:06.695Z</time></trkpt><trkpt lat="43.4372251" lon="11.2989207"><ele>493.1666666666667</ele><time>2026-04-25T08:17:08.792Z</time></trkpt><trkpt lat="43.4371542" lon="11.2988574"><ele>491.33333333333337</ele><time>2026-04-25T08:17:11.72Z</time></trkpt><trkpt lat="43.4371053" lon="11.2987717"><ele>489.5</ele><time>2026-04-25T08:17:14.787Z</time></trkpt><trkpt lat="43.4370581" lon="11.2987039"><ele>487.6666666666667</ele><time>2026-04-25T08:17:16.706Z</time></trkpt><trkpt lat="43.4370158" lon="11.2986146"><ele>485.83333333333337</ele><time>2026-04-25T08:17:18.707Z</time></trkpt><trkpt lat="43.4369468" lon="11.2985254"><ele>484.0</ele><time>2026-04-25T08:17:20.714Z</time></trkpt><trkpt lat="43.4368668" lon="11.2984744"><ele>482.79999999999995</ele><time>2026-04-25T08:17:22.697Z</time></trkpt><trkpt lat="43.4367644" lon="11.2984998"><ele>481.59999999999997</ele><time>2026-04-25T08:17:24.7Z</time></trkpt><trkpt lat="43.4366565" lon="11.2984944"><ele>480.4</ele><time>2026-04-25T08:17:26.717Z</time></trkpt><trkpt lat="43.4365523" lon="11.2984473"><ele>479.2</ele><time>2026-04-25T08:17:28.795Z</time></trkpt><trkpt lat="43.4364935" lon="11.2983694"><ele>478.0</ele><time>2026-04-25T08:17:30.717Z</time></trkpt><trkpt lat="43.436419" lon="11.2982838"><ele>478.00000000000006</ele><time>2026-04-25T08:17:32.796Z</time></trkpt><trkpt lat="43.4363418" lon="11.2982291"><ele>478.0</ele><time>2026-04-25T08:17:34.722Z</time></trkpt><trkpt lat="43.4362595" lon="11.2981963"><ele>478.0</ele><time>2026-04-25T08:17:36.723Z</time></trkpt><trkpt lat="43.4361756" lon="11.2981642"><ele>478.0</ele><time>2026-04-25T08:17:38.704Z</time></trkpt><trkpt lat="43.4360932" lon="11.2981541"><ele>478.00000000000006</ele><time>2026-04-25T08:17:40.706Z</time></trkpt><trkpt lat="43.4359877" lon="11.298162"><ele>478.0</ele><time>2026-04-25T08:17:42.718Z</time></trkpt><trkpt lat="43.4358626" lon="11.2981819"><ele>477.1666666666667</ele><time>2026-04-25T08:17:44.78Z</time></trkpt><trkpt lat="43.4357961" lon="11.2981848"><ele>476.33333333333337</ele><time>2026-04-25T08:17:45.705Z</time></trkpt><trkpt lat="43.4357266" lon="11.2981783"><ele>475.5</ele><time>2026-04-25T08:17:46.718Z</time></trkpt><trkpt lat="43.4356569" lon="11.2981596"><ele>474.66666666666663</ele><time>2026-04-25T08:17:47.796Z</time></trkpt><trkpt lat="43.4355808" lon="11.2981439"><ele>473.8333333333333</ele><time>2026-04-25T08:17:48.782Z</time></trkpt><trkpt lat="43.4354813" lon="11.2981182"><ele>473.0</ele><time>2026-04-25T08:17:50.702Z</time></trkpt><trkpt lat="43.4354195" lon="11.2980431"><ele>472.59999999999997</ele><time>2026-04-25T08:17:52.704Z</time></trkpt><trkpt lat="43.4354137" lon="11.2979155"><ele>472.19999999999993</ele><time>2026-04-25T08:17:54.719Z</time></trkpt><trkpt lat="43.4354309" lon="11.2977922"><ele>471.8</ele><time>2026-04-25T08:17:56.73Z</time></trkpt><trkpt lat="43.435464" lon="11.2976763"><ele>471.4</ele><time>2026-04-25T08:17:58.719Z</time></trkpt><trkpt lat="43.4355001" lon="11.2975496"><ele>471.0</ele><time>2026-04-25T08:18:00.723Z</time></trkpt><trkpt lat="43.4355479" lon="11.2974505"><ele>471.0</ele><time>2026-04-25T08:18:02.718Z</time></trkpt><trkpt lat="43.4355972" lon="11.2973679"><ele>471.0</ele><time>2026-04-25T08:18:04.791Z</time></trkpt><trkpt lat="43.4356738" lon="11.2973143"><ele>471.0</ele><time>2026-04-25T08:18:07.794Z</time></trkpt><trkpt lat="43.4357516" lon="11.2972562"><ele>471.0</ele><time>2026-04-25T08:18:10.714Z</time></trkpt><trkpt lat="43.4358233" lon="11.2972355"><ele>471.0</ele><time>2026-04-25T08:18:12.798Z</time></trkpt><trkpt lat="43.4359112" lon="11.2971619"><ele>471.0</ele><time>2026-04-25T08:18:14.764Z</time></trkpt><trkpt lat="43.4360031" lon="11.2971425"><ele>468.6666666666667</ele><time>2026-04-25T08:18:16.708Z</time></trkpt><trkpt lat="43.4360683" lon="11.297124"><ele>466.33333333333337</ele><time>2026-04-25T08:18:18.799Z</time></trkpt><trkpt lat="43.4361336" lon="11.297089"><ele>464.0</ele><time>2026-04-25T08:18:20.701Z</time></trkpt><trkpt lat="43.4362027" lon="11.2970481"><ele>461.6666666666667</ele><time>2026-04-25T08:18:22.726Z</time></trkpt><trkpt lat="43.4362884" lon="11.2970097"><ele>459.33333333333337</ele><time>2026-04-25T08:18:24.721Z</time></trkpt><trkpt lat="43.4363832" lon="11.2969983"><ele>457.0</ele><time>2026-04-25T08:18:27.733Z</time></trkpt><trkpt lat="43.4364575" lon="11.2969729"><ele>457.00000000000006</ele><time>2026-04-25T08:18:29.727Z</time></trkpt><trkpt lat="43.43655" lon="11.296939"><ele>457.0</ele><time>2026-04-25T08:18:31.713Z</time></trkpt><trkpt lat="43.4366412" lon="11.2969395"><ele>457.0</ele><time>2026-04-25T08:18:33.72Z</time></trkpt><trkpt lat="43.4367079" lon="11.2969255"><ele>457.0</ele><time>2026-04-25T08:18:35.713Z</time></trkpt><trkpt lat="43.4367771" lon="11.2968957"><ele>457.00000000000006</ele><time>2026-04-25T08:18:37.727Z</time></trkpt><trkpt lat="43.4368469" lon="11.2968288"><ele>457.0</ele><time>2026-04-25T08:18:39.698Z</time></trkpt><trkpt lat="43.4368981" lon="11.2967078"><ele>457.0</ele><time>2026-04-25T08:18:41.701Z</time></trkpt><trkpt lat="43.4368958" lon="11.2965633"><ele>457.00000000000006</ele><time>2026-04-25T08:18:43.723Z</time></trkpt><trkpt lat="43.4368502" lon="11.2964434"><ele>457.00000000000006</ele><time>2026-04-25T08:18:45.722Z</time></trkpt><trkpt lat="43.436791" lon="11.2963157"><ele>457.0</ele><time>2026-04-25T08:18:47.72Z</time></trkpt><trkpt lat="43.43675" lon="11.2961913"><ele>457.0</ele><time>2026-04-25T08:18:49.72Z</time></trkpt><trkpt lat="43.4367162" lon="11.2960435"><ele>457.0</ele><time>2026-04-25T08:18:51.721Z</time></trkpt><trkpt lat="43.4366773" lon="11.2958893"><ele>457.00000000000006</ele><time>2026-04-25T08:18:53.793Z</time></trkpt><trkpt lat="43.4366478" lon="11.2957985"><ele>457.00000000000006</ele><time>2026-04-25T08:18:54.792Z</time></trkpt><trkpt lat="43.4365851" lon="11.2956662"><ele>457.0</ele><time>2026-04-25T08:18:56.716Z</time></trkpt><trkpt lat="43.436564" lon="11.2955466"><ele>457.0</ele><time>2026-04-25T08:18:58.801Z</time></trkpt><trkpt lat="43.4366049" lon="11.2954558"><ele>457.83333333333337</ele><time>2026-04-25T08:19:02.722Z</time></trkpt><trkpt lat="43.4365719" lon="11.2953617"><ele>458.6666666666667</ele><time>2026-04-25T08:19:04.721Z</time></trkpt><trkpt lat="43.4365292" lon="11.2952442"><ele>459.5</ele><time>2026-04-25T08:19:07.722Z</time></trkpt><trkpt lat="43.4365043" lon="11.2951565"><ele>460.33333333333337</ele><time>2026-04-25T08:19:09.715Z</time></trkpt><trkpt lat="43.4364636" lon="11.2950525"><ele>461.1666666666667</ele><time>2026-04-25T08:19:11.728Z</time></trkpt><trkpt lat="43.4364225" lon="11.294983"><ele>462.0</ele><time>2026-04-25T08:19:13.79Z</time></trkpt><trkpt lat="43.4363807" lon="11.2949137"><ele>462.0</ele><time>2026-04-25T08:19:15.713Z</time></trkpt><trkpt lat="43.4363229" lon="11.2948559"><ele>462.0</ele><time>2026-04-25T08:19:17.781Z</time></trkpt><trkpt lat="43.4362699" lon="11.2947836"><ele>462.0</ele><time>2026-04-25T08:19:19.718Z</time></trkpt><trkpt lat="43.4362122" lon="11.2947155"><ele>462.0</ele><time>2026-04-25T08:19:21.727Z</time></trkpt><trkpt lat="43.4361441" lon="11.2946379"><ele>462.0</ele><time>2026-04-25T08:19:23.785Z</time></trkpt><trkpt lat="43.4360922" lon="11.2945478"><ele>462.0</ele><time>2026-04-25T08:19:25.723Z</time></trkpt><trkpt lat="43.4360561" lon="11.2944739"><ele>460.0</ele><time>2026-04-25T08:19:27.715Z</time></trkpt><trkpt lat="43.4360019" lon="11.2943958"><ele>458.0</ele><time>2026-04-25T08:19:29.78Z</time></trkpt><trkpt lat="43.4359321" lon="11.2943089"><ele>456.0</ele><time>2026-04-25T08:19:32.795Z</time></trkpt><trkpt lat="43.4358891" lon="11.2942308"><ele>454.0</ele><time>2026-04-25T08:19:34.717Z</time></trkpt><trkpt lat="43.4358292" lon="11.2941254"><ele>452.0</ele><time>2026-04-25T08:19:36.732Z</time></trkpt><trkpt lat="43.4357691" lon="11.2940068"><ele>450.0</ele><time>2026-04-25T08:19:38.716Z</time></trkpt><trkpt lat="43.4357256" lon="11.2939417"><ele>452.0</ele><time>2026-04-25T08:19:39.717Z</time></trkpt><trkpt lat="43.4356369" lon="11.2938592"><ele>454.0</ele><time>2026-04-25T08:19:41.707Z</time></trkpt><trkpt lat="43.4355322" lon="11.2937683"><ele>456.0</ele><time>2026-04-25T08:19:43.721Z</time></trkpt><trkpt lat="43.4354302" lon="11.2936878"><ele>458.0</ele><time>2026-04-25T08:19:45.698Z</time></trkpt><trkpt lat="43.4353384" lon="11.2936019"><ele>455.49999999999994</ele><time>2026-04-25T08:19:47.728Z</time></trkpt><trkpt lat="43.4352608" lon="11.2935223"><ele>453.0</ele><time>2026-04-25T08:19:49.715Z</time></trkpt><trkpt lat="43.435205" lon="11.2934166"><ele>450.5</ele><time>2026-04-25T08:19:51.729Z</time></trkpt><trkpt lat="43.4351703" lon="11.293329"><ele>448.0</ele><time>2026-04-25T08:19:53.793Z</time></trkpt><trkpt lat="43.4351376" lon="11.2932452"><ele>445.49999999999994</ele><time>2026-04-25T08:19:55.718Z</time></trkpt><trkpt lat="43.4350953" lon="11.2931497"><ele>443.0</ele><time>2026-04-25T08:19:57.715Z</time></trkpt><trkpt lat="43.435047" lon="11.293046"><ele>442.99999999999994</ele><time>2026-04-25T08:19:59.795Z</time></trkpt><trkpt lat="43.4350142" lon="11.2929459"><ele>443.0</ele><time>2026-04-25T08:20:01.716Z</time></trkpt><trkpt lat="43.4349779" lon="11.2928345"><ele>443.0</ele><time>2026-04-25T08:20:03.788Z</time></trkpt><trkpt lat="43.4349738" lon="11.2927207"><ele>443.0</ele><time>2026-04-25T08:20:05.722Z</time></trkpt><trkpt lat="43.4349646" lon="11.2926185"><ele>442.99999999999994</ele><time>2026-04-25T08:20:07.726Z</time></trkpt><trkpt lat="43.4349546" lon="11.2925179"><ele>443.0</ele><time>2026-04-25T08:20:09.794Z</time></trkpt><trkpt lat="43.434967" lon="11.2924151"><ele>442.99999999999994</ele><time>2026-04-25T08:20:11.714Z</time></trkpt><trkpt lat="43.43496" lon="11.2923128"><ele>443.0</ele><time>2026-04-25T08:20:14.709Z</time></trkpt><trkpt lat="43.434958" lon="11.2921981"><ele>443.0</ele><time>2026-04-25T08:20:17.712Z</time></trkpt><trkpt lat="43.4349375" lon="11.2920851"><ele>443.0</ele><time>2026-04-25T08:20:20.71Z</time></trkpt><trkpt lat="43.4349168" lon="11.2919772"><ele>442.99999999999994</ele><time>2026-04-25T08:20:22.708Z</time></trkpt><trkpt lat="43.4348873" lon="11.2918595"><ele>443.0</ele><time>2026-04-25T08:20:24.718Z</time></trkpt><trkpt lat="43.4348772" lon="11.2917636"><ele>442.4</ele><time>2026-04-25T08:20:26.716Z</time></trkpt><trkpt lat="43.4348408" lon="11.2916432"><ele>441.79999999999995</ele><time>2026-04-25T08:20:29.78Z</time></trkpt><trkpt lat="43.4347863" lon="11.2915514"><ele>441.2</ele><time>2026-04-25T08:20:31.718Z</time></trkpt><trkpt lat="43.4347038" lon="11.2914187"><ele>440.6</ele><time>2026-04-25T08:20:33.723Z</time></trkpt><trkpt lat="43.4346347" lon="11.2913325"><ele>440.0</ele><time>2026-04-25T08:20:35.699Z</time></trkpt><trkpt lat="43.4345584" lon="11.2912376"><ele>437.8</ele><time>2026-04-25T08:20:37.712Z</time></trkpt><trkpt lat="43.4344684" lon="11.2911362"><ele>435.6</ele><time>2026-04-25T08:20:39.793Z</time></trkpt><trkpt lat="43.434407" lon="11.2910303"><ele>433.4</ele><time>2026-04-25T08:20:41.711Z</time></trkpt><trkpt lat="43.4343498" lon="11.2909054"><ele>431.2</ele><time>2026-04-25T08:20:43.802Z</time></trkpt><trkpt lat="43.4342857" lon="11.2907902"><ele>429.0</ele><time>2026-04-25T08:20:45.731Z</time></trkpt><trkpt lat="43.4342475" lon="11.2906962"><ele>429.0</ele><time>2026-04-25T08:20:47.789Z</time></trkpt><trkpt lat="43.4342052" lon="11.2906056"><ele>429.0</ele><time>2026-04-25T08:20:50.722Z</time></trkpt><trkpt lat="43.4341675" lon="11.2905124"><ele>429.0</ele><time>2026-04-25T08:20:53.72Z</time></trkpt><trkpt lat="43.4341801" lon="11.2903936"><ele>429.0</ele><time>2026-04-25T08:20:55.719Z</time></trkpt><trkpt lat="43.4341989" lon="11.2903065"><ele>429.0</ele><time>2026-04-25T08:20:56.712Z</time></trkpt><trkpt lat="43.4342193" lon="11.2902218"><ele>429.0</ele><time>2026-04-25T08:20:57.715Z</time></trkpt><trkpt lat="43.4342274" lon="11.2900557"><ele>428.6666666666667</ele><time>2026-04-25T08:20:59.724Z</time></trkpt><trkpt lat="43.4342343" lon="11.2899322"><ele>428.33333333333337</ele><time>2026-04-25T08:21:01.731Z</time></trkpt><trkpt lat="43.4342308" lon="11.2898171"><ele>428.0</ele><time>2026-04-25T08:21:03.707Z</time></trkpt><trkpt lat="43.4342001" lon="11.289711"><ele>427.6666666666667</ele><time>2026-04-25T08:21:06.715Z</time></trkpt><trkpt lat="43.4341419" lon="11.289633"><ele>427.33333333333337</ele><time>2026-04-25T08:21:09.793Z</time></trkpt><trkpt lat="43.4340829" lon="11.2895679"><ele>427.0</ele><time>2026-04-25T08:21:12.782Z</time></trkpt><trkpt lat="43.4340341" lon="11.2894936"><ele>427.0</ele><time>2026-04-25T08:21:15.703Z</time></trkpt><trkpt lat="43.4339877" lon="11.2894267"><ele>427.0</ele><time>2026-04-25T08:21:18.795Z</time></trkpt><trkpt lat="43.4339407" lon="11.2893557"><ele>427.0</ele><time>2026-04-25T08:21:21.726Z</time></trkpt><trkpt lat="43.4338976" lon="11.2892902"><ele>427.0</ele><time>2026-04-25T08:21:25.72Z</time></trkpt><trkpt lat="43.4338532" lon="11.2892192"><ele>427.0</ele><time>2026-04-25T08:21:30.715Z</time></trkpt><trkpt lat="43.4337873" lon="11.2891646"><ele>427.0</ele><time>2026-04-25T08:21:34.718Z</time></trkpt><trkpt lat="43.4337284" lon="11.2891021"><ele>427.0</ele><time>2026-04-25T08:21:37.718Z</time></trkpt><trkpt lat="43.4336556" lon="11.2890364"><ele>427.00000000000006</ele><time>2026-04-25T08:21:41.718Z</time></trkpt><trkpt lat="43.4335733" lon="11.2889883"><ele>427.0</ele><time>2026-04-25T08:21:44.791Z</time></trkpt><trkpt lat="43.4334882" lon="11.2889217"><ele>427.0</ele><time>2026-04-25T08:21:47.782Z</time></trkpt><trkpt lat="43.433423" lon="11.2888553"><ele>427.0</ele><time>2026-04-25T08:21:50.696Z</time></trkpt><trkpt lat="43.4333629" lon="11.2888019"><ele>427.00000000000006</ele><time>2026-04-25T08:21:53.791Z</time></trkpt><trkpt lat="43.43333" lon="11.2887013"><ele>427.0</ele><time>2026-04-25T08:21:56.718Z</time></trkpt><trkpt lat="43.4332682" lon="11.2886231"><ele>427.50000000000006</ele><time>2026-04-25T08:21:59.71Z</time></trkpt><trkpt lat="43.4332027" lon="11.2885933"><ele>428.0</ele><time>2026-04-25T08:22:01.724Z</time></trkpt><trkpt lat="43.4331434" lon="11.2885611"><ele>428.5</ele><time>2026-04-25T08:22:03.724Z</time></trkpt><trkpt lat="43.4330728" lon="11.288507"><ele>429.0</ele><time>2026-04-25T08:22:06.718Z</time></trkpt><trkpt lat="43.4329809" lon="11.2884467"><ele>429.50000000000006</ele><time>2026-04-25T08:22:09.726Z</time></trkpt><trkpt lat="43.4329091" lon="11.2884118"><ele>430.0</ele><time>2026-04-25T08:22:12.784Z</time></trkpt><trkpt lat="43.4328356" lon="11.2883703"><ele>427.6666666666667</ele><time>2026-04-25T08:22:15.706Z</time></trkpt><trkpt lat="43.4327486" lon="11.2883108"><ele>425.33333333333337</ele><time>2026-04-25T08:22:18.714Z</time></trkpt><trkpt lat="43.4326626" lon="11.28828"><ele>423.0</ele><time>2026-04-25T08:22:21.723Z</time></trkpt><trkpt lat="43.4325854" lon="11.2882574"><ele>420.66666666666663</ele><time>2026-04-25T08:22:24.798Z</time></trkpt><trkpt lat="43.4324907" lon="11.2882491"><ele>418.3333333333333</ele><time>2026-04-25T08:22:27.722Z</time></trkpt><trkpt lat="43.4324192" lon="11.2882496"><ele>416.0</ele><time>2026-04-25T08:22:29.803Z</time></trkpt><trkpt lat="43.4323338" lon="11.2882573"><ele>415.99999999999994</ele><time>2026-04-25T08:22:31.716Z</time></trkpt><trkpt lat="43.4322502" lon="11.2882787"><ele>416.0</ele><time>2026-04-25T08:22:33.794Z</time></trkpt><trkpt lat="43.4321701" lon="11.2883126"><ele>416.0</ele><time>2026-04-25T08:22:35.728Z</time></trkpt><trkpt lat="43.4320704" lon="11.288382"><ele>416.0</ele><time>2026-04-25T08:22:37.705Z</time></trkpt><trkpt lat="43.4319928" lon="11.2884216"><ele>415.99999999999994</ele><time>2026-04-25T08:22:39.716Z</time></trkpt><trkpt lat="43.4319296" lon="11.2884047"><ele>416.0</ele><time>2026-04-25T08:22:41.714Z</time></trkpt><trkpt lat="43.4318914" lon="11.2883235"><ele>413.66666666666663</ele><time>2026-04-25T08:22:43.717Z</time></trkpt><trkpt lat="43.4318838" lon="11.2882228"><ele>411.3333333333333</ele><time>2026-04-25T08:22:45.714Z</time></trkpt><trkpt lat="43.4319068" lon="11.288122"><ele>409.0</ele><time>2026-04-25T08:22:47.718Z</time></trkpt><trkpt lat="43.4319463" lon="11.2880413"><ele>406.66666666666663</ele><time>2026-04-25T08:22:49.721Z</time></trkpt><trkpt lat="43.4319909" lon="11.2879544"><ele>404.3333333333333</ele><time>2026-04-25T08:22:51.733Z</time></trkpt><trkpt lat="43.4320493" lon="11.2878803"><ele>402.0</ele><time>2026-04-25T08:22:53.716Z</time></trkpt><trkpt lat="43.4321086" lon="11.2877625"><ele>400.20000000000005</ele><time>2026-04-25T08:22:56.717Z</time></trkpt><trkpt lat="43.4321662" lon="11.2876534"><ele>398.4</ele><time>2026-04-25T08:22:58.723Z</time></trkpt><trkpt lat="43.4322014" lon="11.2875799"><ele>396.6</ele><time>2026-04-25T08:23:00.706Z</time></trkpt><trkpt lat="43.4322083" lon="11.2874112"><ele>394.79999999999995</ele><time>2026-04-25T08:23:04.798Z</time></trkpt><trkpt lat="43.4321715" lon="11.2873123"><ele>393.0</ele><time>2026-04-25T08:23:05.705Z</time></trkpt><trkpt lat="43.4321297" lon="11.287174"><ele>393.0</ele><time>2026-04-25T08:23:07.724Z</time></trkpt><trkpt lat="43.4320712" lon="11.2870368"><ele>393.0</ele><time>2026-04-25T08:23:09.723Z</time></trkpt><trkpt lat="43.4320186" lon="11.2868993"><ele>393.0</ele><time>2026-04-25T08:23:11.721Z</time></trkpt><trkpt lat="43.4319578" lon="11.2867819"><ele>393.0</ele><time>2026-04-25T08:23:13.714Z</time></trkpt><trkpt lat="43.4318926" lon="11.2866795"><ele>393.0</ele><time>2026-04-25T08:23:15.714Z</time></trkpt><trkpt lat="43.4318431" lon="11.2865742"><ele>393.0</ele><time>2026-04-25T08:23:17.716Z</time></trkpt><trkpt lat="43.4317613" lon="11.2864584"><ele>393.0</ele><time>2026-04-25T08:23:19.716Z</time></trkpt><trkpt lat="43.4316996" lon="11.2863525"><ele>393.0</ele><time>2026-04-25T08:23:21.731Z</time></trkpt><trkpt lat="43.4316627" lon="11.286276"><ele>393.0</ele><time>2026-04-25T08:23:23.722Z</time></trkpt><trkpt lat="43.4316215" lon="11.2861826"><ele>393.0</ele><time>2026-04-25T08:23:26.715Z</time></trkpt><trkpt lat="43.4315679" lon="11.2860826"><ele>391.5</ele><time>2026-04-25T08:23:29.787Z</time></trkpt><trkpt lat="43.4314976" lon="11.2860209"><ele>390.0</ele><time>2026-04-25T08:23:31.706Z</time></trkpt><trkpt lat="43.4314066" lon="11.2859387"><ele>388.5</ele><time>2026-04-25T08:23:33.797Z</time></trkpt><trkpt lat="43.4312556" lon="11.2858054"><ele>387.0</ele><time>2026-04-25T08:23:36.725Z</time></trkpt><trkpt lat="43.4311885" lon="11.2857237"><ele>386.1666666666667</ele><time>2026-04-25T08:23:38.787Z</time></trkpt><trkpt lat="43.4311665" lon="11.2856376"><ele>385.3333333333333</ele><time>2026-04-25T08:23:40.709Z</time></trkpt><trkpt lat="43.4311578" lon="11.2855382"><ele>384.5</ele><time>2026-04-25T08:23:42.712Z</time></trkpt><trkpt lat="43.4311357" lon="11.2854254"><ele>383.66666666666663</ele><time>2026-04-25T08:23:44.727Z</time></trkpt><trkpt lat="43.4310871" lon="11.2853459"><ele>382.8333333333333</ele><time>2026-04-25T08:23:46.721Z</time></trkpt><trkpt lat="43.4310261" lon="11.285268"><ele>382.0</ele><time>2026-04-25T08:23:48.709Z</time></trkpt><trkpt lat="43.4309729" lon="11.2851786"><ele>381.20000000000005</ele><time>2026-04-25T08:23:50.723Z</time></trkpt><trkpt lat="43.4308976" lon="11.2851001"><ele>380.4</ele><time>2026-04-25T08:23:53.721Z</time></trkpt><trkpt lat="43.4308335" lon="11.2850234"><ele>379.6</ele><time>2026-04-25T08:23:56.713Z</time></trkpt><trkpt lat="43.4307841" lon="11.2849182"><ele>378.79999999999995</ele><time>2026-04-25T08:23:59.783Z</time></trkpt><trkpt lat="43.430774" lon="11.2847898"><ele>378.0</ele><time>2026-04-25T08:24:02.718Z</time></trkpt><trkpt lat="43.4307793" lon="11.2846648"><ele>376.6666666666667</ele><time>2026-04-25T08:24:04.792Z</time></trkpt><trkpt lat="43.4307871" lon="11.2845665"><ele>375.3333333333333</ele><time>2026-04-25T08:24:06.721Z</time></trkpt><trkpt lat="43.4307857" lon="11.2844342"><ele>374.0</ele><time>2026-04-25T08:24:08.797Z</time></trkpt><trkpt lat="43.4307926" lon="11.2843259"><ele>372.66666666666663</ele><time>2026-04-25T08:24:10.715Z</time></trkpt><trkpt lat="43.4307941" lon="11.284179"><ele>371.3333333333333</ele><time>2026-04-25T08:24:12.724Z</time></trkpt><trkpt lat="43.4307997" lon="11.2840488"><ele>370.0</ele><time>2026-04-25T08:24:14.799Z</time></trkpt><trkpt lat="43.4308179" lon="11.2839339"><ele>368.8333333333333</ele><time>2026-04-25T08:24:16.722Z</time></trkpt><trkpt lat="43.4308271" lon="11.283846"><ele>367.66666666666663</ele><time>2026-04-25T08:24:18.732Z</time></trkpt><trkpt lat="43.4308256" lon="11.2837305"><ele>366.5</ele><time>2026-04-25T08:24:20.731Z</time></trkpt><trkpt lat="43.4308064" lon="11.2836085"><ele>365.3333333333333</ele><time>2026-04-25T08:24:22.72Z</time></trkpt><trkpt lat="43.4307562" lon="11.283516"><ele>364.1666666666667</ele><time>2026-04-25T08:24:24.703Z</time></trkpt><trkpt lat="43.4307298" lon="11.2834079"><ele>363.0</ele><time>2026-04-25T08:24:26.718Z</time></trkpt><trkpt lat="43.4307108" lon="11.2833238"><ele>363.0</ele><time>2026-04-25T08:24:28.714Z</time></trkpt><trkpt lat="43.4306678" lon="11.2832175"><ele>363.0</ele><time>2026-04-25T08:24:30.723Z</time></trkpt><trkpt lat="43.4305975" lon="11.2830607"><ele>363.0</ele><time>2026-04-25T08:24:32.79Z</time></trkpt><trkpt lat="43.430528" lon="11.282989"><ele>363.0</ele><time>2026-04-25T08:24:34.726Z</time></trkpt><trkpt lat="43.4304477" lon="11.2829054"><ele>363.0</ele><time>2026-04-25T08:24:36.721Z</time></trkpt><trkpt lat="43.4303739" lon="11.2828395"><ele>362.6666666666667</ele><time>2026-04-25T08:24:38.769Z</time></trkpt><trkpt lat="43.4303154" lon="11.2827494"><ele>362.3333333333333</ele><time>2026-04-25T08:24:40.714Z</time></trkpt><trkpt lat="43.4302826" lon="11.2826473"><ele>362.0</ele><time>2026-04-25T08:24:42.791Z</time></trkpt><trkpt lat="43.4302473" lon="11.2825225"><ele>361.66666666666663</ele><time>2026-04-25T08:24:45.7Z</time></trkpt><trkpt lat="43.4302193" lon="11.2824316"><ele>361.3333333333333</ele><time>2026-04-25T08:24:47.79Z</time></trkpt><trkpt lat="43.4302054" lon="11.2823463"><ele>361.0</ele><time>2026-04-25T08:24:49.718Z</time></trkpt><trkpt lat="43.4301767" lon="11.2822405"><ele>360.42857142857144</ele><time>2026-04-25T08:24:52.724Z</time></trkpt><trkpt lat="43.430128" lon="11.2821547"><ele>359.85714285714283</ele><time>2026-04-25T08:24:54.724Z</time></trkpt><trkpt lat="43.4300771" lon="11.2820732"><ele>359.2857142857143</ele><time>2026-04-25T08:24:56.714Z</time></trkpt><trkpt lat="43.4300177" lon="11.2820208"><ele>358.7142857142857</ele><time>2026-04-25T08:24:58.809Z</time></trkpt><trkpt lat="43.429963" lon="11.2819748"><ele>358.1428571428571</ele><time>2026-04-25T08:25:00.726Z</time></trkpt><trkpt lat="43.4298984" lon="11.2819133"><ele>357.57142857142856</ele><time>2026-04-25T08:25:03.798Z</time></trkpt><trkpt lat="43.4298359" lon="11.2818592"><ele>357.0</ele><time>2026-04-25T08:25:06.713Z</time></trkpt><trkpt lat="43.4297668" lon="11.2818463"><ele>357.0</ele><time>2026-04-25T08:25:09.792Z</time></trkpt><trkpt lat="43.429687" lon="11.281803"><ele>357.0</ele><time>2026-04-25T08:25:13.787Z</time></trkpt><trkpt lat="43.4296372" lon="11.2817363"><ele>357.0</ele><time>2026-04-25T08:25:15.731Z</time></trkpt><trkpt lat="43.4295886" lon="11.2816482"><ele>357.0</ele><time>2026-04-25T08:25:17.696Z</time></trkpt><trkpt lat="43.4295182" lon="11.2815018"><ele>357.0</ele><time>2026-04-25T08:25:19.779Z</time></trkpt><trkpt lat="43.4294571" lon="11.2813847"><ele>355.6666666666667</ele><time>2026-04-25T08:25:21.705Z</time></trkpt><trkpt lat="43.4294099" lon="11.2813114"><ele>354.3333333333333</ele><time>2026-04-25T08:25:23.713Z</time></trkpt><trkpt lat="43.4293507" lon="11.2812731"><ele>353.0</ele><time>2026-04-25T08:25:25.71Z</time></trkpt><trkpt lat="43.4292919" lon="11.2812405"><ele>351.66666666666663</ele><time>2026-04-25T08:25:27.71Z</time></trkpt><trkpt lat="43.4292147" lon="11.281202"><ele>350.3333333333333</ele><time>2026-04-25T08:25:31.724Z</time></trkpt><trkpt lat="43.4291327" lon="11.2812025"><ele>349.0</ele><time>2026-04-25T08:25:34.798Z</time></trkpt><trkpt lat="43.4290403" lon="11.2812173"><ele>349.0</ele><time>2026-04-25T08:25:37.798Z</time></trkpt><trkpt lat="43.4289658" lon="11.2812111"><ele>349.0</ele><time>2026-04-25T08:25:39.777Z</time></trkpt><trkpt lat="43.4288804" lon="11.2812065"><ele>349.0</ele><time>2026-04-25T08:25:41.717Z</time></trkpt><trkpt lat="43.4287939" lon="11.2812102"><ele>349.0</ele><time>2026-04-25T08:25:43.714Z</time></trkpt><trkpt lat="43.4286999" lon="11.2812126"><ele>349.0</ele><time>2026-04-25T08:25:45.717Z</time></trkpt><trkpt lat="43.4285884" lon="11.281215"><ele>349.5</ele><time>2026-04-25T08:25:47.713Z</time></trkpt><trkpt lat="43.4284769" lon="11.2812287"><ele>350.0</ele><time>2026-04-25T08:25:49.793Z</time></trkpt><trkpt lat="43.4283583" lon="11.2812435"><ele>350.5</ele><time>2026-04-25T08:25:51.714Z</time></trkpt><trkpt lat="43.428244" lon="11.2812577"><ele>351.0</ele><time>2026-04-25T08:25:53.798Z</time></trkpt><trkpt lat="43.4281234" lon="11.281281"><ele>351.0</ele><time>2026-04-25T08:25:55.702Z</time></trkpt><trkpt lat="43.4280284" lon="11.2812589"><ele>351.0</ele><time>2026-04-25T08:25:57.728Z</time></trkpt><trkpt lat="43.4279163" lon="11.2812419"><ele>351.0</ele><time>2026-04-25T08:25:59.714Z</time></trkpt><trkpt lat="43.4278384" lon="11.2812352"><ele>351.0</ele><time>2026-04-25T08:26:01.714Z</time></trkpt><trkpt lat="43.4277418" lon="11.2812302"><ele>351.0</ele><time>2026-04-25T08:26:03.715Z</time></trkpt><trkpt lat="43.4276534" lon="11.2812137"><ele>351.1666666666667</ele><time>2026-04-25T08:26:05.721Z</time></trkpt><trkpt lat="43.4275684" lon="11.281183"><ele>351.3333333333333</ele><time>2026-04-25T08:26:07.718Z</time></trkpt><trkpt lat="43.4274794" lon="11.2811736"><ele>351.5</ele><time>2026-04-25T08:26:09.787Z</time></trkpt><trkpt lat="43.4273697" lon="11.2811438"><ele>351.66666666666663</ele><time>2026-04-25T08:26:11.697Z</time></trkpt><trkpt lat="43.4273069" lon="11.2811233"><ele>351.8333333333333</ele><time>2026-04-25T08:26:12.797Z</time></trkpt><trkpt lat="43.4272435" lon="11.2811172"><ele>352.0</ele><time>2026-04-25T08:26:13.78Z</time></trkpt><trkpt lat="43.427148" lon="11.2811311"><ele>351.6</ele><time>2026-04-25T08:26:15.73Z</time></trkpt><trkpt lat="43.4270411" lon="11.2811351"><ele>351.20000000000005</ele><time>2026-04-25T08:26:17.796Z</time></trkpt><trkpt lat="43.4269779" lon="11.2811327"><ele>350.8</ele><time>2026-04-25T08:26:18.791Z</time></trkpt><trkpt lat="43.4268642" lon="11.2811236"><ele>350.4</ele><time>2026-04-25T08:26:20.711Z</time></trkpt><trkpt lat="43.4267411" lon="11.28113"><ele>350.0</ele><time>2026-04-25T08:26:22.797Z</time></trkpt><trkpt lat="43.426636" lon="11.281147"><ele>350.0</ele><time>2026-04-25T08:26:24.698Z</time></trkpt><trkpt lat="43.4265288" lon="11.2811468"><ele>350.0</ele><time>2026-04-25T08:26:26.726Z</time></trkpt><trkpt lat="43.4264633" lon="11.2811513"><ele>350.0</ele><time>2026-04-25T08:26:27.723Z</time></trkpt><trkpt lat="43.4263936" lon="11.2811475"><ele>350.0</ele><time>2026-04-25T08:26:28.709Z</time></trkpt><trkpt lat="43.4262925" lon="11.2811446"><ele>350.0</ele><time>2026-04-25T08:26:30.722Z</time></trkpt><trkpt lat="43.4261871" lon="11.2811561"><ele>350.0</ele><time>2026-04-25T08:26:32.707Z</time></trkpt><trkpt lat="43.4260957" lon="11.2811375"><ele>349.6666666666667</ele><time>2026-04-25T08:26:34.723Z</time></trkpt><trkpt lat="43.4260243" lon="11.2811277"><ele>349.33333333333337</ele><time>2026-04-25T08:26:36.743Z</time></trkpt><trkpt lat="43.4259163" lon="11.2811128"><ele>349.0</ele><time>2026-04-25T08:26:38.722Z</time></trkpt><trkpt lat="43.4258485" lon="11.2811068"><ele>348.6666666666667</ele><time>2026-04-25T08:26:39.731Z</time></trkpt><trkpt lat="43.425785" lon="11.2810912"><ele>348.3333333333333</ele><time>2026-04-25T08:26:40.722Z</time></trkpt><trkpt lat="43.4256788" lon="11.2810863"><ele>348.0</ele><time>2026-04-25T08:26:42.727Z</time></trkpt><trkpt lat="43.425559" lon="11.2810964"><ele>347.2</ele><time>2026-04-25T08:26:44.732Z</time></trkpt><trkpt lat="43.4254531" lon="11.2811108"><ele>346.4</ele><time>2026-04-25T08:26:46.718Z</time></trkpt><trkpt lat="43.4253487" lon="11.2811509"><ele>345.59999999999997</ele><time>2026-04-25T08:26:48.696Z</time></trkpt><trkpt lat="43.4252868" lon="11.2811724"><ele>344.79999999999995</ele><time>2026-04-25T08:26:49.782Z</time></trkpt><trkpt lat="43.4251763" lon="11.2812231"><ele>344.0</ele><time>2026-04-25T08:26:51.72Z</time></trkpt><trkpt lat="43.4250691" lon="11.2812375"><ele>344.0</ele><time>2026-04-25T08:26:53.791Z</time></trkpt><trkpt lat="43.4249708" lon="11.2812441"><ele>344.0</ele><time>2026-04-25T08:26:55.719Z</time></trkpt><trkpt lat="43.4248847" lon="11.2812549"><ele>344.0</ele><time>2026-04-25T08:26:57.718Z</time></trkpt><trkpt lat="43.4247612" lon="11.2812862"><ele>344.0</ele><time>2026-04-25T08:27:00.71Z</time></trkpt><trkpt lat="43.4246864" lon="11.2813018"><ele>344.0</ele><time>2026-04-25T08:27:02.795Z</time></trkpt><trkpt lat="43.4246337" lon="11.2812321"><ele>344.0</ele><time>2026-04-25T08:27:05.711Z</time></trkpt><trkpt lat="43.4246433" lon="11.2811277"><ele>344.0</ele><time>2026-04-25T08:27:08.7Z</time></trkpt><trkpt lat="43.42468" lon="11.2810159"><ele>344.0</ele><time>2026-04-25T08:27:11.724Z</time></trkpt><trkpt lat="43.4247254" lon="11.2809261"><ele>344.0</ele><time>2026-04-25T08:27:13.71Z</time></trkpt><trkpt lat="43.4247597" lon="11.2808062"><ele>344.0</ele><time>2026-04-25T08:27:15.737Z</time></trkpt><trkpt lat="43.4248163" lon="11.2807116"><ele>344.0</ele><time>2026-04-25T08:27:17.793Z</time></trkpt><trkpt lat="43.4248875" lon="11.2806115"><ele>342.2</ele><time>2026-04-25T08:27:19.781Z</time></trkpt><trkpt lat="43.4249617" lon="11.2805171"><ele>340.4</ele><time>2026-04-25T08:27:21.719Z</time></trkpt><trkpt lat="43.4250188" lon="11.2804096"><ele>338.6</ele><time>2026-04-25T08:27:23.807Z</time></trkpt><trkpt lat="43.425095" lon="11.2803049"><ele>336.8</ele><time>2026-04-25T08:27:25.707Z</time></trkpt><trkpt lat="43.425152" lon="11.2802041"><ele>335.0</ele><time>2026-04-25T08:27:27.804Z</time></trkpt><trkpt lat="43.4252136" lon="11.2801023"><ele>335.0</ele><time>2026-04-25T08:27:29.787Z</time></trkpt><trkpt lat="43.4252868" lon="11.2799904"><ele>335.0</ele><time>2026-04-25T08:27:31.73Z</time></trkpt><trkpt lat="43.4253272" lon="11.2799017"><ele>335.0</ele><time>2026-04-25T08:27:32.794Z</time></trkpt><trkpt lat="43.425369" lon="11.2798174"><ele>335.0</ele><time>2026-04-25T08:27:33.718Z</time></trkpt><trkpt lat="43.4254077" lon="11.2797415"><ele>335.0</ele><time>2026-04-25T08:27:34.807Z</time></trkpt><trkpt lat="43.4254423" lon="11.2796662"><ele>335.0</ele><time>2026-04-25T08:27:35.718Z</time></trkpt><trkpt lat="43.4255235" lon="11.2795341"><ele>335.2</ele><time>2026-04-25T08:27:37.788Z</time></trkpt><trkpt lat="43.4255683" lon="11.2794636"><ele>335.4</ele><time>2026-04-25T08:27:38.792Z</time></trkpt><trkpt lat="43.4256348" lon="11.2793264"><ele>335.6</ele><time>2026-04-25T08:27:40.726Z</time></trkpt><trkpt lat="43.4257019" lon="11.2792151"><ele>335.8</ele><time>2026-04-25T08:27:42.698Z</time></trkpt><trkpt lat="43.4257537" lon="11.2791124"><ele>336.0</ele><time>2026-04-25T08:27:44.717Z</time></trkpt><trkpt lat="43.4257396" lon="11.2790225"><ele>334.0</ele><time>2026-04-25T08:27:46.714Z</time></trkpt><trkpt lat="43.4256972" lon="11.2789234"><ele>332.0</ele><time>2026-04-25T08:27:49.715Z</time></trkpt><trkpt lat="43.425628" lon="11.2788394"><ele>330.0</ele><time>2026-04-25T08:27:52.718Z</time></trkpt><trkpt lat="43.4255825" lon="11.2787612"><ele>328.0</ele><time>2026-04-25T08:27:55.712Z</time></trkpt><trkpt lat="43.4255175" lon="11.2786502"><ele>326.0</ele><time>2026-04-25T08:27:58.789Z</time></trkpt><trkpt lat="43.4254562" lon="11.2785711"><ele>324.0</ele><time>2026-04-25T08:28:00.72Z</time></trkpt><trkpt lat="43.4253935" lon="11.2785085"><ele>323.8333333333333</ele><time>2026-04-25T08:28:02.728Z</time></trkpt><trkpt lat="43.425338" lon="11.2784571"><ele>323.6666666666667</ele><time>2026-04-25T08:28:04.804Z</time></trkpt><trkpt lat="43.4252515" lon="11.2784069"><ele>323.5</ele><time>2026-04-25T08:28:07.796Z</time></trkpt><trkpt lat="43.425193" lon="11.2783256"><ele>323.33333333333337</ele><time>2026-04-25T08:28:10.714Z</time></trkpt><trkpt lat="43.4251159" lon="11.2782763"><ele>323.1666666666667</ele><time>2026-04-25T08:28:12.788Z</time></trkpt><trkpt lat="43.4250486" lon="11.2782552"><ele>323.0</ele><time>2026-04-25T08:28:13.693Z</time></trkpt><trkpt lat="43.4249551" lon="11.27822"><ele>323.0</ele><time>2026-04-25T08:28:15.742Z</time></trkpt><trkpt lat="43.424863" lon="11.2781672"><ele>323.0</ele><time>2026-04-25T08:28:17.707Z</time></trkpt><trkpt lat="43.4247568" lon="11.2781401"><ele>323.0</ele><time>2026-04-25T08:28:19.723Z</time></trkpt><trkpt lat="43.4246852" lon="11.2781074"><ele>323.0</ele><time>2026-04-25T08:28:20.734Z</time></trkpt><trkpt lat="43.424599" lon="11.2780944"><ele>323.0</ele><time>2026-04-25T08:28:22.725Z</time></trkpt><trkpt lat="43.4245156" lon="11.2780782"><ele>320.1666666666667</ele><time>2026-04-25T08:28:24.724Z</time></trkpt><trkpt lat="43.4244248" lon="11.278067"><ele>317.33333333333337</ele><time>2026-04-25T08:28:26.725Z</time></trkpt><trkpt lat="43.4243408" lon="11.2780609"><ele>314.5</ele><time>2026-04-25T08:28:28.718Z</time></trkpt><trkpt lat="43.4242558" lon="11.2780632"><ele>311.6666666666667</ele><time>2026-04-25T08:28:30.721Z</time></trkpt><trkpt lat="43.4241615" lon="11.27806"><ele>308.8333333333333</ele><time>2026-04-25T08:28:32.786Z</time></trkpt><trkpt lat="43.4240709" lon="11.2780511"><ele>306.0</ele><time>2026-04-25T08:28:34.792Z</time></trkpt><trkpt lat="43.4239765" lon="11.2780615"><ele>306.0</ele><time>2026-04-25T08:28:36.711Z</time></trkpt><trkpt lat="43.4238956" lon="11.278086"><ele>306.0</ele><time>2026-04-25T08:28:38.782Z</time></trkpt><trkpt lat="43.4237907" lon="11.2781099"><ele>306.0</ele><time>2026-04-25T08:28:40.71Z</time></trkpt><trkpt lat="43.423684" lon="11.2781347"><ele>306.0</ele><time>2026-04-25T08:28:42.716Z</time></trkpt><trkpt lat="43.4235687" lon="11.2781433"><ele>306.0</ele><time>2026-04-25T08:28:44.783Z</time></trkpt><trkpt lat="43.4234664" lon="11.2781427"><ele>305.6</ele><time>2026-04-25T08:28:46.713Z</time></trkpt><trkpt lat="43.4233528" lon="11.2781239"><ele>305.20000000000005</ele><time>2026-04-25T08:28:48.789Z</time></trkpt><trkpt lat="43.4232315" lon="11.2781189"><ele>304.79999999999995</ele><time>2026-04-25T08:28:50.719Z</time></trkpt><trkpt lat="43.423116" lon="11.278131"><ele>304.4</ele><time>2026-04-25T08:28:52.706Z</time></trkpt><trkpt lat="43.4230529" lon="11.2781505"><ele>304.0</ele><time>2026-04-25T08:28:53.728Z</time></trkpt><trkpt lat="43.4229352" lon="11.2781917"><ele>302.85714285714283</ele><time>2026-04-25T08:28:55.723Z</time></trkpt><trkpt lat="43.4228701" lon="11.2782063"><ele>301.7142857142857</ele><time>2026-04-25T08:28:56.717Z</time></trkpt><trkpt lat="43.4228042" lon="11.2782181"><ele>300.57142857142856</ele><time>2026-04-25T08:28:57.718Z</time></trkpt><trkpt lat="43.4227386" lon="11.2782324"><ele>299.42857142857144</ele><time>2026-04-25T08:28:58.728Z</time></trkpt><trkpt lat="43.4226656" lon="11.278252"><ele>298.2857142857143</ele><time>2026-04-25T08:28:59.713Z</time></trkpt><trkpt lat="43.4225949" lon="11.2782639"><ele>297.14285714285717</ele><time>2026-04-25T08:29:00.711Z</time></trkpt><trkpt lat="43.4225307" lon="11.2782651"><ele>296.0</ele><time>2026-04-25T08:29:01.713Z</time></trkpt><trkpt lat="43.4224014" lon="11.2782753"><ele>296.0</ele><time>2026-04-25T08:29:03.784Z</time></trkpt><trkpt lat="43.4223375" lon="11.2782867"><ele>296.0</ele><time>2026-04-25T08:29:04.796Z</time></trkpt><trkpt lat="43.4222234" lon="11.2782652"><ele>296.0</ele><time>2026-04-25T08:29:06.73Z</time></trkpt><trkpt lat="43.4221074" lon="11.2782291"><ele>296.0</ele><time>2026-04-25T08:29:08.734Z</time></trkpt><trkpt lat="43.4220461" lon="11.2781996"><ele>296.0</ele><time>2026-04-25T08:29:09.784Z</time></trkpt><trkpt lat="43.4219683" lon="11.2781064"><ele>295.40000000000003</ele><time>2026-04-25T08:29:11.723Z</time></trkpt><trkpt lat="43.4218844" lon="11.2779876"><ele>294.8</ele><time>2026-04-25T08:29:13.72Z</time></trkpt><trkpt lat="43.4217945" lon="11.2779004"><ele>294.20000000000005</ele><time>2026-04-25T08:29:15.733Z</time></trkpt><trkpt lat="43.4217253" lon="11.2778215"><ele>293.6</ele><time>2026-04-25T08:29:17.717Z</time></trkpt><trkpt lat="43.4216729" lon="11.2777383"><ele>293.0</ele><time>2026-04-25T08:29:19.716Z</time></trkpt><trkpt lat="43.421603" lon="11.2777268"><ele>292.99999999999994</ele><time>2026-04-25T08:29:22.717Z</time></trkpt><trkpt lat="43.4215294" lon="11.2777249"><ele>293.0</ele><time>2026-04-25T08:29:25.736Z</time></trkpt><trkpt lat="43.4214549" lon="11.2777728"><ele>293.0</ele><time>2026-04-25T08:29:28.732Z</time></trkpt><trkpt lat="43.4214033" lon="11.2778299"><ele>293.0</ele><time>2026-04-25T08:29:30.726Z</time></trkpt><trkpt lat="43.4213589" lon="11.2779048"><ele>293.0</ele><time>2026-04-25T08:29:32.733Z</time></trkpt><trkpt lat="43.4213126" lon="11.2779837"><ele>292.99999999999994</ele><time>2026-04-25T08:29:34.737Z</time></trkpt><trkpt lat="43.4212526" lon="11.2780512"><ele>293.0</ele><time>2026-04-25T08:29:36.719Z</time></trkpt><trkpt lat="43.4211988" lon="11.2781252"><ele>293.1666666666667</ele><time>2026-04-25T08:29:38.793Z</time></trkpt><trkpt lat="43.4211088" lon="11.2782051"><ele>293.33333333333337</ele><time>2026-04-25T08:29:41.731Z</time></trkpt><trkpt lat="43.4210579" lon="11.2782837"><ele>293.5</ele><time>2026-04-25T08:29:43.785Z</time></trkpt><trkpt lat="43.4210074" lon="11.2783555"><ele>293.6666666666667</ele><time>2026-04-25T08:29:46.725Z</time></trkpt><trkpt lat="43.4209587" lon="11.2784519"><ele>293.8333333333333</ele><time>2026-04-25T08:29:49.784Z</time></trkpt><trkpt lat="43.4209053" lon="11.2785346"><ele>294.0</ele><time>2026-04-25T08:29:51.731Z</time></trkpt><trkpt lat="43.4208193" lon="11.2786464"><ele>294.0</ele><time>2026-04-25T08:29:53.696Z</time></trkpt><trkpt lat="43.4207458" lon="11.2787626"><ele>294.0</ele><time>2026-04-25T08:29:55.707Z</time></trkpt><trkpt lat="43.4206744" lon="11.2788707"><ele>294.0</ele><time>2026-04-25T08:29:57.793Z</time></trkpt><trkpt lat="43.4206108" lon="11.2789783"><ele>294.0</ele><time>2026-04-25T08:29:59.721Z</time></trkpt><trkpt lat="43.4205621" lon="11.2790681"><ele>294.0</ele><time>2026-04-25T08:30:01.72Z</time></trkpt><trkpt lat="43.4205234" lon="11.2791903"><ele>292.59999999999997</ele><time>2026-04-25T08:30:03.725Z</time></trkpt><trkpt lat="43.4204817" lon="11.2793052"><ele>291.2</ele><time>2026-04-25T08:30:05.714Z</time></trkpt><trkpt lat="43.4204401" lon="11.2794242"><ele>289.79999999999995</ele><time>2026-04-25T08:30:07.718Z</time></trkpt><trkpt lat="43.4203742" lon="11.279553"><ele>288.4</ele><time>2026-04-25T08:30:09.718Z</time></trkpt><trkpt lat="43.4202686" lon="11.2796264"><ele>287.0</ele><time>2026-04-25T08:30:11.719Z</time></trkpt><trkpt lat="43.4201955" lon="11.2796602"><ele>287.0</ele><time>2026-04-25T08:30:13.794Z</time></trkpt><trkpt lat="43.4201219" lon="11.2796941"><ele>287.0</ele><time>2026-04-25T08:30:15.696Z</time></trkpt><trkpt lat="43.4200255" lon="11.2797521"><ele>287.0</ele><time>2026-04-25T08:30:17.794Z</time></trkpt><trkpt lat="43.4199406" lon="11.2798093"><ele>287.0</ele><time>2026-04-25T08:30:19.791Z</time></trkpt><trkpt lat="43.4198779" lon="11.2799272"><ele>287.0</ele><time>2026-04-25T08:30:21.718Z</time></trkpt><trkpt lat="43.4198023" lon="11.2800077"><ele>286.4</ele><time>2026-04-25T08:30:23.792Z</time></trkpt><trkpt lat="43.4197344" lon="11.2801014"><ele>285.79999999999995</ele><time>2026-04-25T08:30:25.716Z</time></trkpt><trkpt lat="43.4196675" lon="11.2801827"><ele>285.2</ele><time>2026-04-25T08:30:27.787Z</time></trkpt><trkpt lat="43.419608" lon="11.2802717"><ele>284.59999999999997</ele><time>2026-04-25T08:30:30.719Z</time></trkpt><trkpt lat="43.4195369" lon="11.2803713"><ele>284.0</ele><time>2026-04-25T08:30:33.783Z</time></trkpt><trkpt lat="43.4194785" lon="11.2804468"><ele>284.0</ele><time>2026-04-25T08:30:35.708Z</time></trkpt><trkpt lat="43.4193977" lon="11.2805179"><ele>284.0</ele><time>2026-04-25T08:30:37.709Z</time></trkpt><trkpt lat="43.4193334" lon="11.280571"><ele>284.0</ele><time>2026-04-25T08:30:39.705Z</time></trkpt><trkpt lat="43.4192726" lon="11.2806523"><ele>284.0</ele><time>2026-04-25T08:30:42.733Z</time></trkpt><trkpt lat="43.4192213" lon="11.2807202"><ele>284.0</ele><time>2026-04-25T08:30:45.712Z</time></trkpt><trkpt lat="43.4191547" lon="11.2807578"><ele>284.0</ele><time>2026-04-25T08:30:48.784Z</time></trkpt><trkpt lat="43.4191016" lon="11.2808407"><ele>282.5</ele><time>2026-04-25T08:30:51.717Z</time></trkpt><trkpt lat="43.4190454" lon="11.2809105"><ele>281.0</ele><time>2026-04-25T08:30:53.787Z</time></trkpt><trkpt lat="43.4190045" lon="11.2809893"><ele>279.5</ele><time>2026-04-25T08:30:55.719Z</time></trkpt><trkpt lat="43.4189409" lon="11.2810596"><ele>278.0</ele><time>2026-04-25T08:30:57.798Z</time></trkpt><trkpt lat="43.4188796" lon="11.2811313"><ele>276.5</ele><time>2026-04-25T08:30:59.79Z</time></trkpt><trkpt lat="43.4188418" lon="11.2812037"><ele>275.0</ele><time>2026-04-25T08:31:00.741Z</time></trkpt><trkpt lat="43.4187681" lon="11.281287"><ele>274.83333333333337</ele><time>2026-04-25T08:31:02.793Z</time></trkpt><trkpt lat="43.418674" lon="11.2813161"><ele>274.6666666666667</ele><time>2026-04-25T08:31:04.799Z</time></trkpt><trkpt lat="43.4185551" lon="11.2813259"><ele>274.5</ele><time>2026-04-25T08:31:06.728Z</time></trkpt><trkpt lat="43.4184784" lon="11.2813203"><ele>274.3333333333333</ele><time>2026-04-25T08:31:07.793Z</time></trkpt><trkpt lat="43.4184034" lon="11.2813088"><ele>274.16666666666663</ele><time>2026-04-25T08:31:08.77Z</time></trkpt><trkpt lat="43.4183373" lon="11.2812824"><ele>274.0</ele><time>2026-04-25T08:31:09.786Z</time></trkpt><trkpt lat="43.4182726" lon="11.2812562"><ele>274.0</ele><time>2026-04-25T08:31:10.697Z</time></trkpt><trkpt lat="43.4181418" lon="11.2812286"><ele>274.0</ele><time>2026-04-25T08:31:12.72Z</time></trkpt><trkpt lat="43.4180056" lon="11.2812308"><ele>274.0</ele><time>2026-04-25T08:31:14.716Z</time></trkpt><trkpt lat="43.4179317" lon="11.2812667"><ele>274.0</ele><time>2026-04-25T08:31:15.696Z</time></trkpt><trkpt lat="43.4178632" lon="11.2813249"><ele>274.0</ele><time>2026-04-25T08:31:16.711Z</time></trkpt><trkpt lat="43.4177983" lon="11.2813764"><ele>273.3333333333333</ele><time>2026-04-25T08:31:17.71Z</time></trkpt><trkpt lat="43.417742" lon="11.2814212"><ele>272.66666666666663</ele><time>2026-04-25T08:31:18.709Z</time></trkpt><trkpt lat="43.4176215" lon="11.2814802"><ele>272.0</ele><time>2026-04-25T08:31:20.715Z</time></trkpt><trkpt lat="43.4175614" lon="11.2815256"><ele>271.3333333333333</ele><time>2026-04-25T08:31:21.711Z</time></trkpt><trkpt lat="43.4175037" lon="11.2815699"><ele>270.6666666666667</ele><time>2026-04-25T08:31:22.7Z</time></trkpt><trkpt lat="43.4174448" lon="11.2816186"><ele>270.0</ele><time>2026-04-25T08:31:23.801Z</time></trkpt><trkpt lat="43.4173914" lon="11.2816651"><ele>268.8</ele><time>2026-04-25T08:31:24.777Z</time></trkpt><trkpt lat="43.4172914" lon="11.2817385"><ele>267.6</ele><time>2026-04-25T08:31:26.718Z</time></trkpt><trkpt lat="43.4171806" lon="11.2818099"><ele>266.4</ele><time>2026-04-25T08:31:28.79Z</time></trkpt><trkpt lat="43.4171157" lon="11.281831"><ele>265.2</ele><time>2026-04-25T08:31:29.796Z</time></trkpt><trkpt lat="43.4170021" lon="11.2818884"><ele>264.0</ele><time>2026-04-25T08:31:31.728Z</time></trkpt><trkpt lat="43.4169316" lon="11.2818983"><ele>263.6666666666667</ele><time>2026-04-25T08:31:32.795Z</time></trkpt><trkpt lat="43.4168641" lon="11.2818869"><ele>263.3333333333333</ele><time>2026-04-25T08:31:33.785Z</time></trkpt><trkpt lat="43.4167836" lon="11.2818994"><ele>263.0</ele><time>2026-04-25T08:31:34.786Z</time></trkpt><trkpt lat="43.4167036" lon="11.28192"><ele>262.66666666666663</ele><time>2026-04-25T08:31:35.712Z</time></trkpt><trkpt lat="43.416632" lon="11.2819362"><ele>262.3333333333333</ele><time>2026-04-25T08:31:36.721Z</time></trkpt><trkpt lat="43.4165656" lon="11.2819607"><ele>262.0</ele><time>2026-04-25T08:31:37.782Z</time></trkpt><trkpt lat="43.4164538" lon="11.2820006"><ele>262.0</ele><time>2026-04-25T08:31:39.717Z</time></trkpt><trkpt lat="43.4163653" lon="11.2820507"><ele>262.0</ele><time>2026-04-25T08:31:41.718Z</time></trkpt><trkpt lat="43.4163154" lon="11.2822062"><ele>262.0</ele><time>2026-04-25T08:31:43.79Z</time></trkpt><trkpt lat="43.4162597" lon="11.2824401"><ele>262.0</ele><time>2026-04-25T08:31:46.715Z</time></trkpt><trkpt lat="43.4161908" lon="11.2825634"><ele>261.8</ele><time>2026-04-25T08:31:48.715Z</time></trkpt><trkpt lat="43.4160931" lon="11.2826523"><ele>261.6</ele><time>2026-04-25T08:31:50.713Z</time></trkpt><trkpt lat="43.416006" lon="11.2826976"><ele>261.40000000000003</ele><time>2026-04-25T08:31:52.721Z</time></trkpt><trkpt lat="43.4159429" lon="11.2827851"><ele>261.2</ele><time>2026-04-25T08:31:55.735Z</time></trkpt><trkpt lat="43.4158805" lon="11.2828676"><ele>261.0</ele><time>2026-04-25T08:31:58.714Z</time></trkpt><trkpt lat="43.4158317" lon="11.2829501"><ele>261.0</ele><time>2026-04-25T08:32:01.719Z</time></trkpt><trkpt lat="43.4157899" lon="11.2830654"><ele>261.0</ele><time>2026-04-25T08:32:06.715Z</time></trkpt><trkpt lat="43.4157516" lon="11.2831505"><ele>261.0</ele><time>2026-04-25T08:32:09.713Z</time></trkpt><trkpt lat="43.4156896" lon="11.283214"><ele>261.0</ele><time>2026-04-25T08:32:11.717Z</time></trkpt><trkpt lat="43.4156526" lon="11.2832853"><ele>261.0</ele><time>2026-04-25T08:32:13.781Z</time></trkpt><trkpt lat="43.4156123" lon="11.2833822"><ele>261.0</ele><time>2026-04-25T08:32:18.791Z</time></trkpt><trkpt lat="43.4155687" lon="11.2834547"><ele>261.8571428571429</ele><time>2026-04-25T08:32:20.728Z</time></trkpt><trkpt lat="43.415512" lon="11.2835"><ele>262.7142857142857</ele><time>2026-04-25T08:32:29.717Z</time></trkpt><trkpt lat="43.4154837" lon="11.2835908"><ele>263.57142857142856</ele><time>2026-04-25T08:32:40.71Z</time></trkpt><trkpt lat="43.4154524" lon="11.2836766"><ele>264.42857142857144</ele><time>2026-04-25T08:32:46.713Z</time></trkpt><trkpt lat="43.4154391" lon="11.2837727"><ele>265.2857142857143</ele><time>2026-04-25T08:32:53.723Z</time></trkpt><trkpt lat="43.4153848" lon="11.2838629"><ele>266.14285714285717</ele><time>2026-04-25T08:32:58.725Z</time></trkpt><trkpt lat="43.4153415" lon="11.2839386"><ele>267.0</ele><time>2026-04-25T08:33:01.714Z</time></trkpt><trkpt lat="43.4153072" lon="11.2840267"><ele>268.6666666666667</ele><time>2026-04-25T08:33:07.786Z</time></trkpt><trkpt lat="43.415249" lon="11.2841032"><ele>270.3333333333333</ele><time>2026-04-25T08:33:11.713Z</time></trkpt><trkpt lat="43.4151898" lon="11.2841814"><ele>272.0</ele><time>2026-04-25T08:33:17.801Z</time></trkpt><trkpt lat="43.4151448" lon="11.2842952"><ele>273.66666666666663</ele><time>2026-04-25T08:33:20.708Z</time></trkpt><trkpt lat="43.4150871" lon="11.2843551"><ele>275.3333333333333</ele><time>2026-04-25T08:33:24.781Z</time></trkpt><trkpt lat="43.4150434" lon="11.2844199"><ele>277.0</ele><time>2026-04-25T08:33:31.714Z</time></trkpt><trkpt lat="43.4149975" lon="11.2844872"><ele>277.0</ele><time>2026-04-25T08:33:36.714Z</time></trkpt><trkpt lat="43.41497" lon="11.2845707"><ele>277.0</ele><time>2026-04-25T08:33:41.72Z</time></trkpt><trkpt lat="43.4149274" lon="11.2846399"><ele>277.0</ele><time>2026-04-25T08:33:46.725Z</time></trkpt><trkpt lat="43.4148753" lon="11.2847043"><ele>277.0</ele><time>2026-04-25T08:33:51.714Z</time></trkpt><trkpt lat="43.414776" lon="11.2847463"><ele>277.0</ele><time>2026-04-25T08:33:56.724Z</time></trkpt><trkpt lat="43.4147326" lon="11.2848198"><ele>277.0</ele><time>2026-04-25T08:33:59.719Z</time></trkpt><trkpt lat="43.4146709" lon="11.2848986"><ele>277.0</ele><time>2026-04-25T08:34:02.713Z</time></trkpt><trkpt lat="43.4145827" lon="11.2849647"><ele>277.0</ele><time>2026-04-25T08:34:05.726Z</time></trkpt><trkpt lat="43.4145184" lon="11.2850125"><ele>277.0</ele><time>2026-04-25T08:34:07.727Z</time></trkpt><trkpt lat="43.4144426" lon="11.2850743"><ele>277.0</ele><time>2026-04-25T08:34:10.721Z</time></trkpt><trkpt lat="43.4143778" lon="11.2851808"><ele>277.0</ele><time>2026-04-25T08:34:13.79Z</time></trkpt><trkpt lat="43.4142979" lon="11.285295"><ele>277.0</ele><time>2026-04-25T08:34:15.738Z</time></trkpt><trkpt lat="43.4142115" lon="11.2854194"><ele>277.0</ele><time>2026-04-25T08:34:17.803Z</time></trkpt><trkpt lat="43.4141614" lon="11.2854891"><ele>277.0</ele><time>2026-04-25T08:34:18.797Z</time></trkpt><trkpt lat="43.4141128" lon="11.285573"><ele>277.0</ele><time>2026-04-25T08:34:19.782Z</time></trkpt><trkpt lat="43.4140632" lon="11.2856595"><ele>277.0</ele><time>2026-04-25T08:34:20.697Z</time></trkpt><trkpt lat="43.4140194" lon="11.2857486"><ele>277.0</ele><time>2026-04-25T08:34:21.724Z</time></trkpt><trkpt lat="43.4139829" lon="11.2858313"><ele>276.16666666666663</ele><time>2026-04-25T08:34:22.797Z</time></trkpt><trkpt lat="43.4139434" lon="11.2859117"><ele>275.3333333333333</ele><time>2026-04-25T08:34:23.783Z</time></trkpt><trkpt lat="43.4139074" lon="11.2859994"><ele>274.5</ele><time>2026-04-25T08:34:24.792Z</time></trkpt><trkpt lat="43.4138429" lon="11.286166"><ele>273.6666666666667</ele><time>2026-04-25T08:34:26.712Z</time></trkpt><trkpt lat="43.4138124" lon="11.2862494"><ele>272.83333333333337</ele><time>2026-04-25T08:34:27.709Z</time></trkpt><trkpt lat="43.4137748" lon="11.2863491"><ele>272.0</ele><time>2026-04-25T08:34:28.721Z</time></trkpt><trkpt lat="43.4137415" lon="11.2864478"><ele>272.0</ele><time>2026-04-25T08:34:29.714Z</time></trkpt><trkpt lat="43.4136958" lon="11.2865539"><ele>272.0</ele><time>2026-04-25T08:34:30.717Z</time></trkpt><trkpt lat="43.4136477" lon="11.2866702"><ele>272.0</ele><time>2026-04-25T08:34:31.727Z</time></trkpt><trkpt lat="43.4136047" lon="11.2867871"><ele>272.0</ele><time>2026-04-25T08:34:32.789Z</time></trkpt><trkpt lat="43.4135843" lon="11.2868933"><ele>272.0</ele><time>2026-04-25T08:34:33.783Z</time></trkpt><trkpt lat="43.4135643" lon="11.2869991"><ele>272.0</ele><time>2026-04-25T08:34:34.796Z</time></trkpt><trkpt lat="43.4135486" lon="11.2871002"><ele>272.0</ele><time>2026-04-25T08:34:35.708Z</time></trkpt><trkpt lat="43.4135314" lon="11.287213"><ele>272.0</ele><time>2026-04-25T08:34:36.712Z</time></trkpt><trkpt lat="43.4134969" lon="11.2873072"><ele>272.0</ele><time>2026-04-25T08:34:37.725Z</time></trkpt><trkpt lat="43.4134529" lon="11.2873991"><ele>272.0</ele><time>2026-04-25T08:34:38.695Z</time></trkpt><trkpt lat="43.413405" lon="11.2874653"><ele>272.0</ele><time>2026-04-25T08:34:39.719Z</time></trkpt><trkpt lat="43.4132904" lon="11.2875407"><ele>272.0</ele><time>2026-04-25T08:34:41.712Z</time></trkpt><trkpt lat="43.413225" lon="11.2875543"><ele>272.4</ele><time>2026-04-25T08:34:42.717Z</time></trkpt><trkpt lat="43.4131061" lon="11.2875665"><ele>272.79999999999995</ele><time>2026-04-25T08:34:44.795Z</time></trkpt><trkpt lat="43.4129957" lon="11.2876128"><ele>273.2</ele><time>2026-04-25T08:34:46.714Z</time></trkpt><trkpt lat="43.4129004" lon="11.2876357"><ele>273.59999999999997</ele><time>2026-04-25T08:34:48.797Z</time></trkpt><trkpt lat="43.4128099" lon="11.2876518"><ele>274.0</ele><time>2026-04-25T08:34:50.699Z</time></trkpt><trkpt lat="43.412709" lon="11.2876522"><ele>274.0</ele><time>2026-04-25T08:34:52.716Z</time></trkpt><trkpt lat="43.4126308" lon="11.2876377"><ele>274.0</ele><time>2026-04-25T08:34:54.788Z</time></trkpt><trkpt lat="43.4125369" lon="11.2876192"><ele>274.0</ele><time>2026-04-25T08:34:56.718Z</time></trkpt><trkpt lat="43.4124531" lon="11.2875962"><ele>274.0</ele><time>2026-04-25T08:34:58.788Z</time></trkpt><trkpt lat="43.4123675" lon="11.2875753"><ele>274.0</ele><time>2026-04-25T08:35:00.708Z</time></trkpt><trkpt lat="43.4123017" lon="11.2875637"><ele>274.0</ele><time>2026-04-25T08:35:03.692Z</time></trkpt><trkpt lat="43.4122157" lon="11.2875892"><ele>274.0</ele><time>2026-04-25T08:35:05.707Z</time></trkpt><trkpt lat="43.4121316" lon="11.2876331"><ele>274.0</ele><time>2026-04-25T08:35:07.717Z</time></trkpt><trkpt lat="43.412036" lon="11.2876537"><ele>274.0</ele><time>2026-04-25T08:35:09.72Z</time></trkpt><trkpt lat="43.4119656" lon="11.2876831"><ele>274.0</ele><time>2026-04-25T08:35:11.718Z</time></trkpt><trkpt lat="43.4118913" lon="11.2877327"><ele>274.0</ele><time>2026-04-25T08:35:13.72Z</time></trkpt><trkpt lat="43.411817" lon="11.2877932"><ele>274.0</ele><time>2026-04-25T08:35:15.731Z</time></trkpt><trkpt lat="43.4117437" lon="11.2878492"><ele>274.0</ele><time>2026-04-25T08:35:17.712Z</time></trkpt><trkpt lat="43.4116766" lon="11.287897"><ele>274.0</ele><time>2026-04-25T08:35:19.707Z</time></trkpt><trkpt lat="43.4116109" lon="11.2879564"><ele>274.0</ele><time>2026-04-25T08:35:21.705Z</time></trkpt><trkpt lat="43.4115447" lon="11.2880243"><ele>274.0</ele><time>2026-04-25T08:35:23.721Z</time></trkpt><trkpt lat="43.4114667" lon="11.2880626"><ele>274.0</ele><time>2026-04-25T08:35:26.721Z</time></trkpt><trkpt lat="43.4114072" lon="11.28812"><ele>274.0</ele><time>2026-04-25T08:35:28.786Z</time></trkpt><trkpt lat="43.411312" lon="11.288215"><ele>274.8</ele><time>2026-04-25T08:35:30.705Z</time></trkpt><trkpt lat="43.4112587" lon="11.2883405"><ele>275.59999999999997</ele><time>2026-04-25T08:35:32.791Z</time></trkpt><trkpt lat="43.4112004" lon="11.2884621"><ele>276.4</ele><time>2026-04-25T08:35:34.794Z</time></trkpt><trkpt lat="43.4111474" lon="11.2885744"><ele>277.2</ele><time>2026-04-25T08:35:36.717Z</time></trkpt><trkpt lat="43.4111136" lon="11.2886724"><ele>278.0</ele><time>2026-04-25T08:35:38.788Z</time></trkpt><trkpt lat="43.411103" lon="11.2887878"><ele>278.0</ele><time>2026-04-25T08:35:40.705Z</time></trkpt><trkpt lat="43.4110628" lon="11.2889027"><ele>278.0</ele><time>2026-04-25T08:35:42.788Z</time></trkpt><trkpt lat="43.4110295" lon="11.2890229"><ele>278.0</ele><time>2026-04-25T08:35:44.713Z</time></trkpt><trkpt lat="43.4109521" lon="11.2890918"><ele>278.0</ele><time>2026-04-25T08:35:46.734Z</time></trkpt><trkpt lat="43.4108751" lon="11.2891028"><ele>278.0</ele><time>2026-04-25T08:35:48.71Z</time></trkpt><trkpt lat="43.4107908" lon="11.2891329"><ele>278.0</ele><time>2026-04-25T08:35:50.716Z</time></trkpt><trkpt lat="43.4106993" lon="11.2891398"><ele>278.57142857142856</ele><time>2026-04-25T08:35:52.706Z</time></trkpt><trkpt lat="43.4106248" lon="11.2891288"><ele>279.14285714285717</ele><time>2026-04-25T08:35:54.788Z</time></trkpt><trkpt lat="43.4105639" lon="11.289171"><ele>279.7142857142857</ele><time>2026-04-25T08:35:56.707Z</time></trkpt><trkpt lat="43.4104933" lon="11.2892043"><ele>280.2857142857143</ele><time>2026-04-25T08:35:58.71Z</time></trkpt><trkpt lat="43.4104282" lon="11.289219"><ele>280.85714285714283</ele><time>2026-04-25T08:36:00.716Z</time></trkpt><trkpt lat="43.4103482" lon="11.2892167"><ele>281.42857142857144</ele><time>2026-04-25T08:36:03.783Z</time></trkpt><trkpt lat="43.4102782" lon="11.2891958"><ele>282.0</ele><time>2026-04-25T08:36:06.698Z</time></trkpt><trkpt lat="43.4101844" lon="11.2891714"><ele>282.3333333333333</ele><time>2026-04-25T08:36:09.792Z</time></trkpt><trkpt lat="43.4101088" lon="11.2892104"><ele>282.6666666666667</ele><time>2026-04-25T08:36:12.791Z</time></trkpt><trkpt lat="43.4100558" lon="11.2892619"><ele>283.0</ele><time>2026-04-25T08:36:14.797Z</time></trkpt><trkpt lat="43.4099804" lon="11.2892863"><ele>283.33333333333337</ele><time>2026-04-25T08:36:16.717Z</time></trkpt><trkpt lat="43.4099094" lon="11.2893282"><ele>283.6666666666667</ele><time>2026-04-25T08:36:18.72Z</time></trkpt><trkpt lat="43.4098352" lon="11.2893731"><ele>284.0</ele><time>2026-04-25T08:36:20.727Z</time></trkpt><trkpt lat="43.409757" lon="11.2894026"><ele>284.0</ele><time>2026-04-25T08:36:22.717Z</time></trkpt><trkpt lat="43.409692" lon="11.2894364"><ele>284.0</ele><time>2026-04-25T08:36:25.713Z</time></trkpt><trkpt lat="43.4096285" lon="11.2894991"><ele>284.0</ele><time>2026-04-25T08:36:27.719Z</time></trkpt><trkpt lat="43.4095598" lon="11.2895224"><ele>284.0</ele><time>2026-04-25T08:36:29.795Z</time></trkpt><trkpt lat="43.409499" lon="11.2895508"><ele>284.0</ele><time>2026-04-25T08:36:31.693Z</time></trkpt><trkpt lat="43.4094375" lon="11.2895864"><ele>284.0</ele><time>2026-04-25T08:36:33.787Z</time></trkpt><trkpt lat="43.4093517" lon="11.2896162"><ele>284.0</ele><time>2026-04-25T08:36:36.71Z</time></trkpt><trkpt lat="43.409277" lon="11.2896598"><ele>284.83333333333337</ele><time>2026-04-25T08:36:38.783Z</time></trkpt><trkpt lat="43.4092072" lon="11.2896838"><ele>285.6666666666667</ele><time>2026-04-25T08:36:40.742Z</time></trkpt><trkpt lat="43.4091417" lon="11.2896988"><ele>286.5</ele><time>2026-04-25T08:36:42.794Z</time></trkpt><trkpt lat="43.4090531" lon="11.289735"><ele>287.3333333333333</ele><time>2026-04-25T08:36:45.712Z</time></trkpt><trkpt lat="43.4089892" lon="11.289753"><ele>288.16666666666663</ele><time>2026-04-25T08:36:47.719Z</time></trkpt><trkpt lat="43.4089111" lon="11.2897949"><ele>289.0</ele><time>2026-04-25T08:36:51.713Z</time></trkpt><trkpt lat="43.4088337" lon="11.2898505"><ele>289.7142857142857</ele><time>2026-04-25T08:36:54.737Z</time></trkpt><trkpt lat="43.4087991" lon="11.2899348"><ele>290.42857142857144</ele><time>2026-04-25T08:36:56.736Z</time></trkpt><trkpt lat="43.4087557" lon="11.2900062"><ele>291.1428571428571</ele><time>2026-04-25T08:36:58.731Z</time></trkpt><trkpt lat="43.4086813" lon="11.2900497"><ele>291.8571428571429</ele><time>2026-04-25T08:37:01.721Z</time></trkpt><trkpt lat="43.4086127" lon="11.2900528"><ele>292.57142857142856</ele><time>2026-04-25T08:37:04.784Z</time></trkpt><trkpt lat="43.4085477" lon="11.2900552"><ele>293.2857142857143</ele><time>2026-04-25T08:37:10.726Z</time></trkpt><trkpt lat="43.4085437" lon="11.2899518"><ele>294.0</ele><time>2026-04-25T08:37:14.793Z</time></trkpt><trkpt lat="43.4085446" lon="11.2898344"><ele>293.6666666666667</ele><time>2026-04-25T08:37:17.796Z</time></trkpt><trkpt lat="43.4085496" lon="11.2897291"><ele>293.3333333333333</ele><time>2026-04-25T08:37:19.794Z</time></trkpt><trkpt lat="43.4085561" lon="11.2896093"><ele>293.0</ele><time>2026-04-25T08:37:21.721Z</time></trkpt><trkpt lat="43.4085764" lon="11.289489"><ele>292.66666666666663</ele><time>2026-04-25T08:37:24.798Z</time></trkpt><trkpt lat="43.4085701" lon="11.2893619"><ele>292.3333333333333</ele><time>2026-04-25T08:37:27.714Z</time></trkpt><trkpt lat="43.4085876" lon="11.2892701"><ele>292.0</ele><time>2026-04-25T08:37:29.705Z</time></trkpt><trkpt lat="43.40861" lon="11.2891633"><ele>292.0</ele><time>2026-04-25T08:37:31.703Z</time></trkpt><trkpt lat="43.4086197" lon="11.2890496"><ele>292.0</ele><time>2026-04-25T08:37:33.717Z</time></trkpt><trkpt lat="43.4086255" lon="11.2889423"><ele>292.0</ele><time>2026-04-25T08:37:35.73Z</time></trkpt><trkpt lat="43.4086485" lon="11.2888501"><ele>292.0</ele><time>2026-04-25T08:37:37.714Z</time></trkpt><trkpt lat="43.4086949" lon="11.2887516"><ele>292.0</ele><time>2026-04-25T08:37:39.722Z</time></trkpt><trkpt lat="43.4087376" lon="11.288666"><ele>292.0</ele><time>2026-04-25T08:37:41.724Z</time></trkpt><trkpt lat="43.4087796" lon="11.2885709"><ele>291.66666666666663</ele><time>2026-04-25T08:37:43.799Z</time></trkpt><trkpt lat="43.4088248" lon="11.2884406"><ele>291.3333333333333</ele><time>2026-04-25T08:37:45.721Z</time></trkpt><trkpt lat="43.408856" lon="11.2883522"><ele>291.0</ele><time>2026-04-25T08:37:46.728Z</time></trkpt><trkpt lat="43.4088993" lon="11.2882233"><ele>290.6666666666667</ele><time>2026-04-25T08:37:48.8Z</time></trkpt><trkpt lat="43.4089395" lon="11.2881559"><ele>290.33333333333337</ele><time>2026-04-25T08:37:50.695Z</time></trkpt><trkpt lat="43.4089945" lon="11.2880536"><ele>290.0</ele><time>2026-04-25T08:37:52.795Z</time></trkpt><trkpt lat="43.4090416" lon="11.287964"><ele>289.83333333333337</ele><time>2026-04-25T08:37:54.802Z</time></trkpt><trkpt lat="43.4090888" lon="11.2878583"><ele>289.6666666666667</ele><time>2026-04-25T08:37:57.781Z</time></trkpt><trkpt lat="43.4091299" lon="11.287755"><ele>289.5</ele><time>2026-04-25T08:38:00.729Z</time></trkpt><trkpt lat="43.4091584" lon="11.2876724"><ele>289.3333333333333</ele><time>2026-04-25T08:38:02.798Z</time></trkpt><trkpt lat="43.4091936" lon="11.2875847"><ele>289.16666666666663</ele><time>2026-04-25T08:38:04.72Z</time></trkpt><trkpt lat="43.4092222" lon="11.2875004"><ele>289.0</ele><time>2026-04-25T08:38:06.714Z</time></trkpt><trkpt lat="43.4092419" lon="11.2874019"><ele>289.0</ele><time>2026-04-25T08:38:08.718Z</time></trkpt><trkpt lat="43.4092483" lon="11.2872737"><ele>289.0</ele><time>2026-04-25T08:38:10.712Z</time></trkpt><trkpt lat="43.4092657" lon="11.2871716"><ele>289.0</ele><time>2026-04-25T08:38:12.797Z</time></trkpt><trkpt lat="43.4092847" lon="11.2870631"><ele>289.0</ele><time>2026-04-25T08:38:14.794Z</time></trkpt><trkpt lat="43.4093032" lon="11.2869481"><ele>289.0</ele><time>2026-04-25T08:38:16.712Z</time></trkpt><trkpt lat="43.4093236" lon="11.2868386"><ele>289.0</ele><time>2026-04-25T08:38:18.8Z</time></trkpt><trkpt lat="43.4093441" lon="11.2867462"><ele>289.42857142857144</ele><time>2026-04-25T08:38:20.72Z</time></trkpt><trkpt lat="43.4093546" lon="11.2866445"><ele>289.85714285714283</ele><time>2026-04-25T08:38:22.802Z</time></trkpt><trkpt lat="43.4093669" lon="11.2865561"><ele>290.2857142857143</ele><time>2026-04-25T08:38:24.797Z</time></trkpt><trkpt lat="43.4093801" lon="11.2864608"><ele>290.7142857142857</ele><time>2026-04-25T08:38:26.724Z</time></trkpt><trkpt lat="43.409377" lon="11.2863594"><ele>291.14285714285717</ele><time>2026-04-25T08:38:28.796Z</time></trkpt><trkpt lat="43.4093798" lon="11.2862713"><ele>291.57142857142856</ele><time>2026-04-25T08:38:30.709Z</time></trkpt><trkpt lat="43.4093799" lon="11.2861836"><ele>292.0</ele><time>2026-04-25T08:38:32.793Z</time></trkpt><trkpt lat="43.4093806" lon="11.286089"><ele>293.16666666666663</ele><time>2026-04-25T08:38:34.797Z</time></trkpt><trkpt lat="43.4093654" lon="11.2859951"><ele>294.3333333333333</ele><time>2026-04-25T08:38:36.728Z</time></trkpt><trkpt lat="43.4093294" lon="11.2859063"><ele>295.5</ele><time>2026-04-25T08:38:39.723Z</time></trkpt><trkpt lat="43.4092282" lon="11.2857711"><ele>296.6666666666667</ele><time>2026-04-25T08:38:44.719Z</time></trkpt><trkpt lat="43.4091825" lon="11.2857098"><ele>297.83333333333337</ele><time>2026-04-25T08:38:46.718Z</time></trkpt><trkpt lat="43.4091018" lon="11.2856371"><ele>299.0</ele><time>2026-04-25T08:38:49.729Z</time></trkpt><trkpt lat="43.4090288" lon="11.285592"><ele>299.57142857142856</ele><time>2026-04-25T08:38:51.803Z</time></trkpt><trkpt lat="43.4089388" lon="11.2855488"><ele>300.14285714285717</ele><time>2026-04-25T08:38:54.793Z</time></trkpt><trkpt lat="43.4088746" lon="11.2855058"><ele>300.7142857142857</ele><time>2026-04-25T08:38:56.783Z</time></trkpt><trkpt lat="43.4088127" lon="11.2854559"><ele>301.2857142857143</ele><time>2026-04-25T08:38:58.716Z</time></trkpt><trkpt lat="43.4087502" lon="11.2854196"><ele>301.85714285714283</ele><time>2026-04-25T08:39:00.79Z</time></trkpt><trkpt lat="43.4086862" lon="11.2853915"><ele>302.42857142857144</ele><time>2026-04-25T08:39:02.723Z</time></trkpt><trkpt lat="43.4086343" lon="11.2853263"><ele>303.0</ele><time>2026-04-25T08:39:04.794Z</time></trkpt><trkpt lat="43.4085611" lon="11.2852634"><ele>303.0</ele><time>2026-04-25T08:39:06.789Z</time></trkpt><trkpt lat="43.4084942" lon="11.2851859"><ele>303.0</ele><time>2026-04-25T08:39:08.744Z</time></trkpt><trkpt lat="43.4084309" lon="11.2851334"><ele>303.0</ele><time>2026-04-25T08:39:10.784Z</time></trkpt><trkpt lat="43.408384" lon="11.285054"><ele>303.0</ele><time>2026-04-25T08:39:13.721Z</time></trkpt><trkpt lat="43.4083516" lon="11.2849474"><ele>303.0</ele><time>2026-04-25T08:39:16.718Z</time></trkpt><trkpt lat="43.4083066" lon="11.2848558"><ele>303.0</ele><time>2026-04-25T08:39:19.726Z</time></trkpt><trkpt lat="43.4082635" lon="11.2847579"><ele>304.1666666666667</ele><time>2026-04-25T08:39:22.707Z</time></trkpt><trkpt lat="43.4082255" lon="11.2846848"><ele>305.3333333333333</ele><time>2026-04-25T08:39:24.804Z</time></trkpt><trkpt lat="43.4081782" lon="11.2845711"><ele>306.5</ele><time>2026-04-25T08:39:27.726Z</time></trkpt><trkpt lat="43.4081356" lon="11.2844748"><ele>307.66666666666663</ele><time>2026-04-25T08:39:30.785Z</time></trkpt><trkpt lat="43.4080853" lon="11.284384"><ele>308.8333333333333</ele><time>2026-04-25T08:39:33.721Z</time></trkpt><trkpt lat="43.4080436" lon="11.2842876"><ele>310.0</ele><time>2026-04-25T08:39:36.79Z</time></trkpt><trkpt lat="43.4080159" lon="11.2841874"><ele>309.57142857142856</ele><time>2026-04-25T08:39:39.713Z</time></trkpt><trkpt lat="43.4079755" lon="11.2841127"><ele>309.1428571428571</ele><time>2026-04-25T08:39:41.796Z</time></trkpt><trkpt lat="43.4079359" lon="11.2840276"><ele>308.71428571428567</ele><time>2026-04-25T08:39:43.709Z</time></trkpt><trkpt lat="43.4078945" lon="11.2839513"><ele>308.2857142857143</ele><time>2026-04-25T08:39:45.79Z</time></trkpt><trkpt lat="43.4078429" lon="11.2838643"><ele>307.85714285714283</ele><time>2026-04-25T08:39:47.712Z</time></trkpt><trkpt lat="43.4078031" lon="11.28377"><ele>307.4285714285714</ele><time>2026-04-25T08:39:49.716Z</time></trkpt><trkpt lat="43.4077564" lon="11.2837083"><ele>307.0</ele><time>2026-04-25T08:39:51.716Z</time></trkpt><trkpt lat="43.407703" lon="11.283644"><ele>307.0</ele><time>2026-04-25T08:39:53.717Z</time></trkpt><trkpt lat="43.4076363" lon="11.2835733"><ele>307.0</ele><time>2026-04-25T08:39:55.726Z</time></trkpt><trkpt lat="43.4075401" lon="11.2834968"><ele>307.0</ele><time>2026-04-25T08:39:57.715Z</time></trkpt><trkpt lat="43.4074619" lon="11.2834292"><ele>307.0</ele><time>2026-04-25T08:39:59.703Z</time></trkpt><trkpt lat="43.4073855" lon="11.2833502"><ele>307.0</ele><time>2026-04-25T08:40:01.796Z</time></trkpt><trkpt lat="43.4072957" lon="11.2832722"><ele>307.0</ele><time>2026-04-25T08:40:03.723Z</time></trkpt><trkpt lat="43.4071782" lon="11.2832154"><ele>307.0</ele><time>2026-04-25T08:40:05.801Z</time></trkpt><trkpt lat="43.4071099" lon="11.2831887"><ele>307.0</ele><time>2026-04-25T08:40:06.787Z</time></trkpt><trkpt lat="43.407045" lon="11.283165"><ele>307.0</ele><time>2026-04-25T08:40:07.705Z</time></trkpt><trkpt lat="43.4069777" lon="11.2831457"><ele>307.0</ele><time>2026-04-25T08:40:08.725Z</time></trkpt><trkpt lat="43.4069116" lon="11.2831176"><ele>307.0</ele><time>2026-04-25T08:40:09.785Z</time></trkpt><trkpt lat="43.4068505" lon="11.2830867"><ele>305.71428571428567</ele><time>2026-04-25T08:40:10.787Z</time></trkpt><trkpt lat="43.406792" lon="11.2830515"><ele>304.42857142857144</ele><time>2026-04-25T08:40:11.797Z</time></trkpt><trkpt lat="43.4067343" lon="11.2830152"><ele>303.1428571428571</ele><time>2026-04-25T08:40:12.72Z</time></trkpt><trkpt lat="43.4066712" lon="11.2829713"><ele>301.85714285714283</ele><time>2026-04-25T08:40:13.719Z</time></trkpt><trkpt lat="43.406607" lon="11.2829288"><ele>300.57142857142856</ele><time>2026-04-25T08:40:14.7Z</time></trkpt><trkpt lat="43.4065377" lon="11.2828903"><ele>299.2857142857143</ele><time>2026-04-25T08:40:15.795Z</time></trkpt><trkpt lat="43.4064663" lon="11.2828515"><ele>298.0</ele><time>2026-04-25T08:40:16.72Z</time></trkpt><trkpt lat="43.4063894" lon="11.2828101"><ele>298.0</ele><time>2026-04-25T08:40:17.807Z</time></trkpt><trkpt lat="43.4063127" lon="11.2827692"><ele>298.0</ele><time>2026-04-25T08:40:18.738Z</time></trkpt><trkpt lat="43.4062387" lon="11.2827324"><ele>298.0</ele><time>2026-04-25T08:40:19.723Z</time></trkpt><trkpt lat="43.4061673" lon="11.2826724"><ele>298.0</ele><time>2026-04-25T08:40:20.794Z</time></trkpt><trkpt lat="43.4061152" lon="11.2826013"><ele>298.0</ele><time>2026-04-25T08:40:21.716Z</time></trkpt><trkpt lat="43.406064" lon="11.2825282"><ele>298.0</ele><time>2026-04-25T08:40:22.721Z</time></trkpt><trkpt lat="43.4060206" lon="11.2824506"><ele>298.0</ele><time>2026-04-25T08:40:23.723Z</time></trkpt><trkpt lat="43.4059842" lon="11.2823668"><ele>298.0</ele><time>2026-04-25T08:40:24.711Z</time></trkpt><trkpt lat="43.405955" lon="11.2822766"><ele>298.0</ele><time>2026-04-25T08:40:25.734Z</time></trkpt><trkpt lat="43.4059312" lon="11.2821782"><ele>298.0</ele><time>2026-04-25T08:40:26.733Z</time></trkpt><trkpt lat="43.405901" lon="11.2820753"><ele>298.0</ele><time>2026-04-25T08:40:27.736Z</time></trkpt><trkpt lat="43.4058739" lon="11.2819665"><ele>298.0</ele><time>2026-04-25T08:40:28.726Z</time></trkpt><trkpt lat="43.4058499" lon="11.2818548"><ele>297.5</ele><time>2026-04-25T08:40:29.713Z</time></trkpt><trkpt lat="43.4058303" lon="11.2817533"><ele>297.0</ele><time>2026-04-25T08:40:30.711Z</time></trkpt><trkpt lat="43.4058011" lon="11.2816505"><ele>296.5</ele><time>2026-04-25T08:40:31.726Z</time></trkpt><trkpt lat="43.4057679" lon="11.2815484"><ele>296.0</ele><time>2026-04-25T08:40:32.725Z</time></trkpt><trkpt lat="43.4057317" lon="11.2814366"><ele>295.5</ele><time>2026-04-25T08:40:33.722Z</time></trkpt><trkpt lat="43.4056898" lon="11.2813127"><ele>295.0</ele><time>2026-04-25T08:40:34.72Z</time></trkpt><trkpt lat="43.4056473" lon="11.2811952"><ele>294.0</ele><time>2026-04-25T08:40:35.72Z</time></trkpt><trkpt lat="43.4056019" lon="11.2810704"><ele>293.0</ele><time>2026-04-25T08:40:36.799Z</time></trkpt><trkpt lat="43.4055586" lon="11.2809336"><ele>292.0</ele><time>2026-04-25T08:40:37.723Z</time></trkpt><trkpt lat="43.4055273" lon="11.2807998"><ele>291.0</ele><time>2026-04-25T08:40:38.735Z</time></trkpt><trkpt lat="43.4055057" lon="11.2806633"><ele>290.0</ele><time>2026-04-25T08:40:39.715Z</time></trkpt><trkpt lat="43.4054853" lon="11.2805239"><ele>290.0</ele><time>2026-04-25T08:40:40.79Z</time></trkpt><trkpt lat="43.4054627" lon="11.2803959"><ele>290.0</ele><time>2026-04-25T08:40:41.793Z</time></trkpt><trkpt lat="43.4054393" lon="11.2802749"><ele>290.0</ele><time>2026-04-25T08:40:42.716Z</time></trkpt><trkpt lat="43.4054148" lon="11.2801361"><ele>290.0</ele><time>2026-04-25T08:40:43.718Z</time></trkpt><trkpt lat="43.4053845" lon="11.2800025"><ele>290.0</ele><time>2026-04-25T08:40:44.8Z</time></trkpt><trkpt lat="43.4053352" lon="11.2798801"><ele>288.0</ele><time>2026-04-25T08:40:45.786Z</time></trkpt><trkpt lat="43.405285" lon="11.2797666"><ele>286.0</ele><time>2026-04-25T08:40:46.794Z</time></trkpt><trkpt lat="43.4052256" lon="11.2796556"><ele>284.0</ele><time>2026-04-25T08:40:47.716Z</time></trkpt><trkpt lat="43.4051524" lon="11.2795343"><ele>282.0</ele><time>2026-04-25T08:40:48.73Z</time></trkpt><trkpt lat="43.4050723" lon="11.2794222"><ele>280.0</ele><time>2026-04-25T08:40:49.72Z</time></trkpt><trkpt lat="43.4049848" lon="11.2793094"><ele>280.0</ele><time>2026-04-25T08:40:50.718Z</time></trkpt><trkpt lat="43.4048971" lon="11.2791957"><ele>280.0</ele><time>2026-04-25T08:40:51.782Z</time></trkpt><trkpt lat="43.4048117" lon="11.2790793"><ele>280.0</ele><time>2026-04-25T08:40:52.72Z</time></trkpt><trkpt lat="43.4047247" lon="11.2789666"><ele>280.0</ele><time>2026-04-25T08:40:53.718Z</time></trkpt><trkpt lat="43.40463" lon="11.278847"><ele>278.5</ele><time>2026-04-25T08:40:54.8Z</time></trkpt><trkpt lat="43.4045393" lon="11.2787249"><ele>277.0</ele><time>2026-04-25T08:40:55.802Z</time></trkpt><trkpt lat="43.4044599" lon="11.2785886"><ele>275.5</ele><time>2026-04-25T08:40:56.705Z</time></trkpt><trkpt lat="43.4043987" lon="11.2784455"><ele>274.0</ele><time>2026-04-25T08:40:57.727Z</time></trkpt><trkpt lat="43.4043394" lon="11.2783014"><ele>274.0</ele><time>2026-04-25T08:40:58.727Z</time></trkpt><trkpt lat="43.4042857" lon="11.2781718"><ele>274.0</ele><time>2026-04-25T08:40:59.727Z</time></trkpt><trkpt lat="43.4042421" lon="11.2780351"><ele>274.0</ele><time>2026-04-25T08:41:00.721Z</time></trkpt><trkpt lat="43.4042043" lon="11.2778925"><ele>274.0</ele><time>2026-04-25T08:41:01.719Z</time></trkpt><trkpt lat="43.4041676" lon="11.2777531"><ele>274.0</ele><time>2026-04-25T08:41:02.727Z</time></trkpt><trkpt lat="43.4041296" lon="11.2776174"><ele>273.8</ele><time>2026-04-25T08:41:03.709Z</time></trkpt><trkpt lat="43.4040976" lon="11.2774768"><ele>273.59999999999997</ele><time>2026-04-25T08:41:04.728Z</time></trkpt><trkpt lat="43.4040712" lon="11.2773401"><ele>273.4</ele><time>2026-04-25T08:41:05.817Z</time></trkpt><trkpt lat="43.4040576" lon="11.2772136"><ele>273.2</ele><time>2026-04-25T08:41:06.726Z</time></trkpt><trkpt lat="43.4040451" lon="11.27708"><ele>273.0</ele><time>2026-04-25T08:41:07.719Z</time></trkpt><trkpt lat="43.4040264" lon="11.2769546"><ele>272.6666666666667</ele><time>2026-04-25T08:41:08.727Z</time></trkpt><trkpt lat="43.4040054" lon="11.2768282"><ele>272.3333333333333</ele><time>2026-04-25T08:41:09.784Z</time></trkpt><trkpt lat="43.4039897" lon="11.2767127"><ele>272.0</ele><time>2026-04-25T08:41:10.72Z</time></trkpt><trkpt lat="43.4039731" lon="11.2765946"><ele>271.66666666666663</ele><time>2026-04-25T08:41:11.795Z</time></trkpt><trkpt lat="43.4039523" lon="11.2764822"><ele>271.3333333333333</ele><time>2026-04-25T08:41:12.733Z</time></trkpt><trkpt lat="43.4039264" lon="11.2763721"><ele>271.0</ele><time>2026-04-25T08:41:13.714Z</time></trkpt><trkpt lat="43.4039013" lon="11.2762688"><ele>270.8333333333333</ele><time>2026-04-25T08:41:14.718Z</time></trkpt><trkpt lat="43.4038837" lon="11.2761809"><ele>270.66666666666663</ele><time>2026-04-25T08:41:15.722Z</time></trkpt><trkpt lat="43.4038686" lon="11.2760877"><ele>270.5</ele><time>2026-04-25T08:41:16.718Z</time></trkpt><trkpt lat="43.403865" lon="11.275995"><ele>270.3333333333333</ele><time>2026-04-25T08:41:17.717Z</time></trkpt><trkpt lat="43.40386" lon="11.2759041"><ele>270.1666666666667</ele><time>2026-04-25T08:41:18.713Z</time></trkpt><trkpt lat="43.403843" lon="11.2757502"><ele>270.0</ele><time>2026-04-25T08:41:20.814Z</time></trkpt><trkpt lat="43.4038272" lon="11.2756039"><ele>271.0</ele><time>2026-04-25T08:41:22.715Z</time></trkpt><trkpt lat="43.4038037" lon="11.2754423"><ele>272.0</ele><time>2026-04-25T08:41:24.714Z</time></trkpt><trkpt lat="43.4037948" lon="11.2752876"><ele>273.0</ele><time>2026-04-25T08:41:26.743Z</time></trkpt><trkpt lat="43.4037794" lon="11.2751403"><ele>274.0</ele><time>2026-04-25T08:41:28.717Z</time></trkpt><trkpt lat="43.4037208" lon="11.2749706"><ele>274.0</ele><time>2026-04-25T08:41:30.725Z</time></trkpt><trkpt lat="43.4036876" lon="11.2748682"><ele>274.0</ele><time>2026-04-25T08:41:31.714Z</time></trkpt><trkpt lat="43.403658" lon="11.274764"><ele>274.0</ele><time>2026-04-25T08:41:32.731Z</time></trkpt><trkpt lat="43.4036241" lon="11.2746656"><ele>274.0</ele><time>2026-04-25T08:41:33.706Z</time></trkpt><trkpt lat="43.4035882" lon="11.2745786"><ele>274.0</ele><time>2026-04-25T08:41:34.723Z</time></trkpt><trkpt lat="43.4035573" lon="11.2744888"><ele>274.0</ele><time>2026-04-25T08:41:35.706Z</time></trkpt><trkpt lat="43.4035251" lon="11.2743894"><ele>273.8571428571429</ele><time>2026-04-25T08:41:36.727Z</time></trkpt><trkpt lat="43.4034911" lon="11.2742909"><ele>273.7142857142857</ele><time>2026-04-25T08:41:37.71Z</time></trkpt><trkpt lat="43.4034552" lon="11.2741996"><ele>273.57142857142856</ele><time>2026-04-25T08:41:38.709Z</time></trkpt><trkpt lat="43.4034188" lon="11.2741098"><ele>273.42857142857144</ele><time>2026-04-25T08:41:39.715Z</time></trkpt><trkpt lat="43.4033815" lon="11.2740257"><ele>273.2857142857143</ele><time>2026-04-25T08:41:40.704Z</time></trkpt><trkpt lat="43.4033488" lon="11.2739343"><ele>273.14285714285717</ele><time>2026-04-25T08:41:41.797Z</time></trkpt><trkpt lat="43.4033147" lon="11.2738487"><ele>273.0</ele><time>2026-04-25T08:41:42.698Z</time></trkpt><trkpt lat="43.4032804" lon="11.2737591"><ele>273.0</ele><time>2026-04-25T08:41:43.707Z</time></trkpt><trkpt lat="43.403241" lon="11.2736718"><ele>273.0</ele><time>2026-04-25T08:41:44.794Z</time></trkpt><trkpt lat="43.4032019" lon="11.2735835"><ele>273.0</ele><time>2026-04-25T08:41:45.784Z</time></trkpt><trkpt lat="43.4031602" lon="11.2734969"><ele>273.0</ele><time>2026-04-25T08:41:46.707Z</time></trkpt><trkpt lat="43.4031134" lon="11.2734035"><ele>273.0</ele><time>2026-04-25T08:41:47.793Z</time></trkpt><trkpt lat="43.4030669" lon="11.2733307"><ele>273.0</ele><time>2026-04-25T08:41:48.713Z</time></trkpt><trkpt lat="43.4030136" lon="11.2732576"><ele>272.6</ele><time>2026-04-25T08:41:49.721Z</time></trkpt><trkpt lat="43.402963" lon="11.2731838"><ele>272.20000000000005</ele><time>2026-04-25T08:41:50.805Z</time></trkpt><trkpt lat="43.402879" lon="11.27308"><ele>271.8</ele><time>2026-04-25T08:41:52.719Z</time></trkpt><trkpt lat="43.4028058" lon="11.2729724"><ele>271.40000000000003</ele><time>2026-04-25T08:41:54.716Z</time></trkpt><trkpt lat="43.4027374" lon="11.2728802"><ele>271.0</ele><time>2026-04-25T08:41:56.801Z</time></trkpt><trkpt lat="43.4026846" lon="11.2727964"><ele>272.2</ele><time>2026-04-25T08:41:58.727Z</time></trkpt><trkpt lat="43.4026085" lon="11.2726825"><ele>273.40000000000003</ele><time>2026-04-25T08:42:00.789Z</time></trkpt><trkpt lat="43.4025456" lon="11.2725784"><ele>274.6</ele><time>2026-04-25T08:42:02.724Z</time></trkpt><trkpt lat="43.402494" lon="11.2724835"><ele>275.8</ele><time>2026-04-25T08:42:04.73Z</time></trkpt><trkpt lat="43.4024278" lon="11.2723769"><ele>277.0</ele><time>2026-04-25T08:42:06.709Z</time></trkpt><trkpt lat="43.4023645" lon="11.272271"><ele>277.6</ele><time>2026-04-25T08:42:08.71Z</time></trkpt><trkpt lat="43.4022926" lon="11.2721564"><ele>278.2</ele><time>2026-04-25T08:42:10.712Z</time></trkpt><trkpt lat="43.4022368" lon="11.272047"><ele>278.8</ele><time>2026-04-25T08:42:12.717Z</time></trkpt><trkpt lat="43.4021723" lon="11.2719522"><ele>279.4</ele><time>2026-04-25T08:42:14.717Z</time></trkpt><trkpt lat="43.4021131" lon="11.2718676"><ele>280.0</ele><time>2026-04-25T08:42:16.713Z</time></trkpt><trkpt lat="43.4020891" lon="11.2717436"><ele>280.0</ele><time>2026-04-25T08:42:18.71Z</time></trkpt><trkpt lat="43.4020352" lon="11.27164"><ele>280.0</ele><time>2026-04-25T08:42:21.791Z</time></trkpt><trkpt lat="43.4019851" lon="11.2715758"><ele>280.0</ele><time>2026-04-25T08:42:23.713Z</time></trkpt><trkpt lat="43.4019303" lon="11.271516"><ele>280.0</ele><time>2026-04-25T08:42:25.691Z</time></trkpt><trkpt lat="43.4018907" lon="11.2714475"><ele>280.0</ele><time>2026-04-25T08:42:27.718Z</time></trkpt><trkpt lat="43.4018444" lon="11.2713802"><ele>280.0</ele><time>2026-04-25T08:42:29.726Z</time></trkpt><trkpt lat="43.4017944" lon="11.2713195"><ele>280.0</ele><time>2026-04-25T08:42:31.714Z</time></trkpt><trkpt lat="43.4017399" lon="11.2712315"><ele>281.0</ele><time>2026-04-25T08:42:33.718Z</time></trkpt><trkpt lat="43.4016587" lon="11.271116"><ele>282.0</ele><time>2026-04-25T08:42:35.784Z</time></trkpt><trkpt lat="43.4016091" lon="11.2710274"><ele>283.0</ele><time>2026-04-25T08:42:37.704Z</time></trkpt><trkpt lat="43.4015508" lon="11.2709673"><ele>284.0</ele><time>2026-04-25T08:42:39.721Z</time></trkpt><trkpt lat="43.401503" lon="11.2708958"><ele>285.0</ele><time>2026-04-25T08:42:41.733Z</time></trkpt><trkpt lat="43.4014616" lon="11.2708226"><ele>286.0</ele><time>2026-04-25T08:42:43.713Z</time></trkpt><trkpt lat="43.4014135" lon="11.2707509"><ele>285.99999999999994</ele><time>2026-04-25T08:42:45.716Z</time></trkpt><trkpt lat="43.4013682" lon="11.2706788"><ele>286.0</ele><time>2026-04-25T08:42:47.715Z</time></trkpt><trkpt lat="43.4013223" lon="11.2706039"><ele>286.0</ele><time>2026-04-25T08:42:49.72Z</time></trkpt><trkpt lat="43.4012802" lon="11.2705316"><ele>286.0</ele><time>2026-04-25T08:42:51.785Z</time></trkpt><trkpt lat="43.4012455" lon="11.270456"><ele>286.0</ele><time>2026-04-25T08:42:53.722Z</time></trkpt><trkpt lat="43.4012071" lon="11.270381"><ele>285.99999999999994</ele><time>2026-04-25T08:42:55.722Z</time></trkpt><trkpt lat="43.4011632" lon="11.2703126"><ele>286.0</ele><time>2026-04-25T08:42:57.726Z</time></trkpt><trkpt lat="43.4011171" lon="11.2702505"><ele>287.0</ele><time>2026-04-25T08:42:59.721Z</time></trkpt><trkpt lat="43.4010663" lon="11.270156"><ele>288.0</ele><time>2026-04-25T08:43:02.702Z</time></trkpt><trkpt lat="43.401014" lon="11.2700744"><ele>289.0</ele><time>2026-04-25T08:43:05.697Z</time></trkpt><trkpt lat="43.4009524" lon="11.2700069"><ele>290.0</ele><time>2026-04-25T08:43:08.702Z</time></trkpt><trkpt lat="43.4008926" lon="11.2699274"><ele>291.0</ele><time>2026-04-25T08:43:11.701Z</time></trkpt><trkpt lat="43.4008398" lon="11.2698508"><ele>292.0</ele><time>2026-04-25T08:43:14.72Z</time></trkpt><trkpt lat="43.4007844" lon="11.2697607"><ele>292.2857142857143</ele><time>2026-04-25T08:43:17.72Z</time></trkpt><trkpt lat="43.4007878" lon="11.2696521"><ele>292.57142857142856</ele><time>2026-04-25T08:43:20.781Z</time></trkpt><trkpt lat="43.4008549" lon="11.2696359"><ele>292.8571428571429</ele><time>2026-04-25T08:43:23.72Z</time></trkpt><trkpt lat="43.4009301" lon="11.2696372"><ele>293.1428571428571</ele><time>2026-04-25T08:43:26.791Z</time></trkpt><trkpt lat="43.4009995" lon="11.2696653"><ele>293.42857142857144</ele><time>2026-04-25T08:43:30.791Z</time></trkpt><trkpt lat="43.4010711" lon="11.2696934"><ele>293.7142857142857</ele><time>2026-04-25T08:43:35.796Z</time></trkpt><trkpt lat="43.4011457" lon="11.2696549"><ele>294.0</ele><time>2026-04-25T08:43:39.727Z</time></trkpt><trkpt lat="43.4012314" lon="11.2696189"><ele>294.0</ele><time>2026-04-25T08:43:42.721Z</time></trkpt><trkpt lat="43.4013104" lon="11.2696153"><ele>294.0</ele><time>2026-04-25T08:43:44.694Z</time></trkpt><trkpt lat="43.4013761" lon="11.2695892"><ele>294.0</ele><time>2026-04-25T08:43:46.713Z</time></trkpt><trkpt lat="43.4014464" lon="11.2695689"><ele>294.0</ele><time>2026-04-25T08:43:49.724Z</time></trkpt><trkpt lat="43.4015125" lon="11.269559"><ele>294.0</ele><time>2026-04-25T08:43:52.694Z</time></trkpt><trkpt lat="43.4015755" lon="11.2695365"><ele>294.0</ele><time>2026-04-25T08:43:55.719Z</time></trkpt><trkpt lat="43.4016578" lon="11.269538"><ele>294.0</ele><time>2026-04-25T08:43:59.794Z</time></trkpt><trkpt lat="43.4017266" lon="11.2695441"><ele>294.8333333333333</ele><time>2026-04-25T08:44:02.792Z</time></trkpt><trkpt lat="43.4017856" lon="11.2694787"><ele>295.6666666666667</ele><time>2026-04-25T08:44:06.786Z</time></trkpt><trkpt lat="43.4018598" lon="11.2694436"><ele>296.5</ele><time>2026-04-25T08:44:11.795Z</time></trkpt><trkpt lat="43.4019403" lon="11.2694164"><ele>297.33333333333337</ele><time>2026-04-25T08:44:15.784Z</time></trkpt><trkpt lat="43.4019938" lon="11.2693582"><ele>298.1666666666667</ele><time>2026-04-25T08:44:19.715Z</time></trkpt><trkpt lat="43.4020672" lon="11.269319"><ele>299.0</ele><time>2026-04-25T08:44:23.714Z</time></trkpt><trkpt lat="43.4021244" lon="11.2692747"><ele>300.0</ele><time>2026-04-25T08:44:27.717Z</time></trkpt><trkpt lat="43.402191" lon="11.2692576"><ele>301.0</ele><time>2026-04-25T08:44:31.686Z</time></trkpt><trkpt lat="43.4022689" lon="11.269225"><ele>302.0</ele><time>2026-04-25T08:44:35.791Z</time></trkpt><trkpt lat="43.4023373" lon="11.269193"><ele>303.0</ele><time>2026-04-25T08:44:39.714Z</time></trkpt><trkpt lat="43.4024056" lon="11.2691799"><ele>304.0</ele><time>2026-04-25T08:44:42.726Z</time></trkpt><trkpt lat="43.4024799" lon="11.2691634"><ele>305.0</ele><time>2026-04-25T08:44:45.786Z</time></trkpt><trkpt lat="43.4025653" lon="11.2691684"><ele>305.0</ele><time>2026-04-25T08:44:50.711Z</time></trkpt><trkpt lat="43.4026371" lon="11.2691576"><ele>305.0</ele><time>2026-04-25T08:44:54.716Z</time></trkpt><trkpt lat="43.4026934" lon="11.269114"><ele>305.0</ele><time>2026-04-25T08:44:58.716Z</time></trkpt><trkpt lat="43.4027726" lon="11.2690825"><ele>305.0</ele><time>2026-04-25T08:45:02.717Z</time></trkpt><trkpt lat="43.4028443" lon="11.2690386"><ele>305.0</ele><time>2026-04-25T08:45:05.79Z</time></trkpt><trkpt lat="43.4029099" lon="11.269027"><ele>305.0</ele><time>2026-04-25T08:45:07.713Z</time></trkpt><trkpt lat="43.4030056" lon="11.2690533"><ele>305.42857142857144</ele><time>2026-04-25T08:45:09.709Z</time></trkpt><trkpt lat="43.4030681" lon="11.269084"><ele>305.85714285714283</ele><time>2026-04-25T08:45:11.788Z</time></trkpt><trkpt lat="43.4031438" lon="11.2690376"><ele>306.2857142857143</ele><time>2026-04-25T08:45:17.787Z</time></trkpt><trkpt lat="43.4032215" lon="11.2690107"><ele>306.7142857142857</ele><time>2026-04-25T08:45:20.791Z</time></trkpt><trkpt lat="43.403294" lon="11.2690031"><ele>307.1428571428571</ele><time>2026-04-25T08:45:23.714Z</time></trkpt><trkpt lat="43.4033641" lon="11.268976"><ele>307.57142857142856</ele><time>2026-04-25T08:45:26.708Z</time></trkpt><trkpt lat="43.4034238" lon="11.2689346"><ele>308.0</ele><time>2026-04-25T08:45:29.703Z</time></trkpt><trkpt lat="43.40349" lon="11.2688883"><ele>307.0</ele><time>2026-04-25T08:45:32.727Z</time></trkpt><trkpt lat="43.4035397" lon="11.2688268"><ele>306.0</ele><time>2026-04-25T08:45:35.722Z</time></trkpt><trkpt lat="43.403596" lon="11.2687707"><ele>305.0</ele><time>2026-04-25T08:45:38.721Z</time></trkpt><trkpt lat="43.4036859" lon="11.2686933"><ele>304.0</ele><time>2026-04-25T08:45:41.786Z</time></trkpt><trkpt lat="43.4037378" lon="11.2686377"><ele>303.0</ele><time>2026-04-25T08:45:43.711Z</time></trkpt><trkpt lat="43.4038043" lon="11.2685923"><ele>302.0</ele><time>2026-04-25T08:45:45.718Z</time></trkpt><trkpt lat="43.403867" lon="11.268478"><ele>301.5</ele><time>2026-04-25T08:45:47.72Z</time></trkpt><trkpt lat="43.4039066" lon="11.2684103"><ele>301.0</ele><time>2026-04-25T08:45:48.715Z</time></trkpt><trkpt lat="43.4039882" lon="11.2683007"><ele>300.5</ele><time>2026-04-25T08:45:50.792Z</time></trkpt><trkpt lat="43.4040319" lon="11.2682253"><ele>300.0</ele><time>2026-04-25T08:45:51.796Z</time></trkpt><trkpt lat="43.404081" lon="11.2681521"><ele>299.5</ele><time>2026-04-25T08:45:52.71Z</time></trkpt><trkpt lat="43.4041522" lon="11.2680714"><ele>299.0</ele><time>2026-04-25T08:45:53.719Z</time></trkpt><trkpt lat="43.4042057" lon="11.2679914"><ele>298.59999999999997</ele><time>2026-04-25T08:45:54.718Z</time></trkpt><trkpt lat="43.4042888" lon="11.2678662"><ele>298.2</ele><time>2026-04-25T08:45:56.793Z</time></trkpt><trkpt lat="43.4043797" lon="11.2677749"><ele>297.79999999999995</ele><time>2026-04-25T08:45:58.748Z</time></trkpt><trkpt lat="43.4044342" lon="11.2676924"><ele>297.4</ele><time>2026-04-25T08:45:59.713Z</time></trkpt><trkpt lat="43.4044935" lon="11.267625"><ele>297.0</ele><time>2026-04-25T08:46:00.726Z</time></trkpt><trkpt lat="43.4045527" lon="11.2675488"><ele>297.0</ele><time>2026-04-25T08:46:01.693Z</time></trkpt><trkpt lat="43.4046484" lon="11.2674769"><ele>297.0</ele><time>2026-04-25T08:46:03.719Z</time></trkpt><trkpt lat="43.4047433" lon="11.2674292"><ele>297.0</ele><time>2026-04-25T08:46:05.697Z</time></trkpt><trkpt lat="43.4048205" lon="11.2673718"><ele>297.0</ele><time>2026-04-25T08:46:07.723Z</time></trkpt><trkpt lat="43.4048863" lon="11.2673021"><ele>297.0</ele><time>2026-04-25T08:46:09.714Z</time></trkpt><trkpt lat="43.4049342" lon="11.2672392"><ele>297.0</ele><time>2026-04-25T08:46:11.798Z</time></trkpt><trkpt lat="43.4049761" lon="11.2671725"><ele>298.0</ele><time>2026-04-25T08:46:13.722Z</time></trkpt><trkpt lat="43.4050125" lon="11.2670876"><ele>299.0</ele><time>2026-04-25T08:46:15.712Z</time></trkpt><trkpt lat="43.4050542" lon="11.267018"><ele>300.0</ele><time>2026-04-25T08:46:17.718Z</time></trkpt><trkpt lat="43.4050932" lon="11.2669473"><ele>301.0</ele><time>2026-04-25T08:46:19.718Z</time></trkpt><trkpt lat="43.4051221" lon="11.2668693"><ele>302.0</ele><time>2026-04-25T08:46:21.701Z</time></trkpt><trkpt lat="43.4051636" lon="11.2668019"><ele>303.0</ele><time>2026-04-25T08:46:23.72Z</time></trkpt><trkpt lat="43.4052131" lon="11.266702"><ele>304.0</ele><time>2026-04-25T08:46:25.718Z</time></trkpt><trkpt lat="43.4052522" lon="11.2666333"><ele>304.0</ele><time>2026-04-25T08:46:27.703Z</time></trkpt><trkpt lat="43.4053031" lon="11.266543"><ele>304.0</ele><time>2026-04-25T08:46:30.79Z</time></trkpt><trkpt lat="43.4053635" lon="11.2664387"><ele>304.0</ele><time>2026-04-25T08:46:32.721Z</time></trkpt><trkpt lat="43.4053984" lon="11.2663465"><ele>304.0</ele><time>2026-04-25T08:46:34.718Z</time></trkpt><trkpt lat="43.4054186" lon="11.2662584"><ele>304.0</ele><time>2026-04-25T08:46:36.716Z</time></trkpt><trkpt lat="43.4054317" lon="11.2661516"><ele>304.0</ele><time>2026-04-25T08:46:39.708Z</time></trkpt><trkpt lat="43.4054627" lon="11.2660672"><ele>304.0</ele><time>2026-04-25T08:47:23.716Z</time></trkpt><trkpt lat="43.4054578" lon="11.2659602"><ele>304.0</ele><time>2026-04-25T08:47:27.715Z</time></trkpt><trkpt lat="43.4054547" lon="11.2658703"><ele>304.0</ele><time>2026-04-25T08:47:30.8Z</time></trkpt><trkpt lat="43.4054756" lon="11.2657552"><ele>304.0</ele><time>2026-04-25T08:47:34.733Z</time></trkpt><trkpt lat="43.4054786" lon="11.2656398"><ele>304.0</ele><time>2026-04-25T08:47:37.713Z</time></trkpt><trkpt lat="43.4054803" lon="11.2655223"><ele>304.0</ele><time>2026-04-25T08:47:39.798Z</time></trkpt><trkpt lat="43.4054842" lon="11.2654271"><ele>304.0</ele><time>2026-04-25T08:47:42.693Z</time></trkpt><trkpt lat="43.4054822" lon="11.265322"><ele>304.0</ele><time>2026-04-25T08:47:45.717Z</time></trkpt><trkpt lat="43.4054843" lon="11.2651987"><ele>304.0</ele><time>2026-04-25T08:47:48.718Z</time></trkpt><trkpt lat="43.4054864" lon="11.2650799"><ele>304.0</ele><time>2026-04-25T08:47:51.715Z</time></trkpt><trkpt lat="43.4054841" lon="11.2649525"><ele>304.0</ele><time>2026-04-25T08:47:54.716Z</time></trkpt><trkpt lat="43.4054934" lon="11.2648356"><ele>304.0</ele><time>2026-04-25T08:47:57.729Z</time></trkpt><trkpt lat="43.405507" lon="11.2647232"><ele>303.8333333333333</ele><time>2026-04-25T08:48:00.802Z</time></trkpt><trkpt lat="43.4055061" lon="11.2645832"><ele>303.66666666666663</ele><time>2026-04-25T08:48:03.719Z</time></trkpt><trkpt lat="43.4054857" lon="11.2644965"><ele>303.5</ele><time>2026-04-25T08:48:05.789Z</time></trkpt><trkpt lat="43.4054767" lon="11.2644032"><ele>303.3333333333333</ele><time>2026-04-25T08:48:07.715Z</time></trkpt><trkpt lat="43.4054844" lon="11.2643065"><ele>303.1666666666667</ele><time>2026-04-25T08:48:09.788Z</time></trkpt><trkpt lat="43.4054918" lon="11.2641962"><ele>303.0</ele><time>2026-04-25T08:48:11.784Z</time></trkpt><trkpt lat="43.4054942" lon="11.2640974"><ele>302.5</ele><time>2026-04-25T08:48:13.717Z</time></trkpt><trkpt lat="43.4055019" lon="11.2639908"><ele>302.0</ele><time>2026-04-25T08:48:15.726Z</time></trkpt><trkpt lat="43.4055211" lon="11.2638772"><ele>301.5</ele><time>2026-04-25T08:48:17.72Z</time></trkpt><trkpt lat="43.4055427" lon="11.2637483"><ele>301.0</ele><time>2026-04-25T08:48:19.794Z</time></trkpt><trkpt lat="43.4055542" lon="11.2636203"><ele>300.5</ele><time>2026-04-25T08:48:21.726Z</time></trkpt><trkpt lat="43.4055487" lon="11.2634978"><ele>300.0</ele><time>2026-04-25T08:48:23.712Z</time></trkpt><trkpt lat="43.4055419" lon="11.2633895"><ele>300.0</ele><time>2026-04-25T08:48:25.713Z</time></trkpt><trkpt lat="43.4055375" lon="11.2632742"><ele>300.0</ele><time>2026-04-25T08:48:27.725Z</time></trkpt><trkpt lat="43.4055438" lon="11.2631741"><ele>300.0</ele><time>2026-04-25T08:48:29.778Z</time></trkpt><trkpt lat="43.4055674" lon="11.2630902"><ele>300.0</ele><time>2026-04-25T08:48:31.785Z</time></trkpt><trkpt lat="43.4055619" lon="11.2630003"><ele>300.0</ele><time>2026-04-25T08:48:33.72Z</time></trkpt><trkpt lat="43.4055386" lon="11.2629049"><ele>300.0</ele><time>2026-04-25T08:48:35.782Z</time></trkpt><trkpt lat="43.4055032" lon="11.2627753"><ele>299.6666666666667</ele><time>2026-04-25T08:48:38.716Z</time></trkpt><trkpt lat="43.4054718" lon="11.2626526"><ele>299.3333333333333</ele><time>2026-04-25T08:48:40.706Z</time></trkpt><trkpt lat="43.4054326" lon="11.2625408"><ele>299.0</ele><time>2026-04-25T08:48:42.71Z</time></trkpt><trkpt lat="43.4054016" lon="11.2624365"><ele>298.66666666666663</ele><time>2026-04-25T08:48:44.8Z</time></trkpt><trkpt lat="43.4053622" lon="11.2623532"><ele>298.3333333333333</ele><time>2026-04-25T08:48:46.71Z</time></trkpt><trkpt lat="43.4053175" lon="11.262243"><ele>298.0</ele><time>2026-04-25T08:48:48.727Z</time></trkpt><trkpt lat="43.4052816" lon="11.262121"><ele>297.5</ele><time>2026-04-25T08:48:50.724Z</time></trkpt><trkpt lat="43.4052358" lon="11.2620057"><ele>297.0</ele><time>2026-04-25T08:48:52.706Z</time></trkpt><trkpt lat="43.4052084" lon="11.2618956"><ele>296.5</ele><time>2026-04-25T08:48:54.73Z</time></trkpt><trkpt lat="43.4051775" lon="11.2618009"><ele>296.0</ele><time>2026-04-25T08:49:04.713Z</time></trkpt><trkpt lat="43.405138" lon="11.2616954"><ele>295.5</ele><time>2026-04-25T08:49:07.718Z</time></trkpt><trkpt lat="43.4051017" lon="11.2615906"><ele>295.0</ele><time>2026-04-25T08:49:09.717Z</time></trkpt><trkpt lat="43.4050706" lon="11.2615069"><ele>294.66666666666663</ele><time>2026-04-25T08:49:11.719Z</time></trkpt><trkpt lat="43.4050328" lon="11.2614082"><ele>294.3333333333333</ele><time>2026-04-25T08:49:13.709Z</time></trkpt><trkpt lat="43.4049921" lon="11.2613161"><ele>294.0</ele><time>2026-04-25T08:49:15.718Z</time></trkpt><trkpt lat="43.4049503" lon="11.2612021"><ele>293.6666666666667</ele><time>2026-04-25T08:49:17.734Z</time></trkpt><trkpt lat="43.4049027" lon="11.2610873"><ele>293.33333333333337</ele><time>2026-04-25T08:49:19.725Z</time></trkpt><trkpt lat="43.4048627" lon="11.2609626"><ele>293.0</ele><time>2026-04-25T08:49:21.791Z</time></trkpt><trkpt lat="43.4048132" lon="11.2608479"><ele>293.0</ele><time>2026-04-25T08:49:23.7Z</time></trkpt><trkpt lat="43.4047695" lon="11.2607507"><ele>293.0</ele><time>2026-04-25T08:49:25.733Z</time></trkpt><trkpt lat="43.4047217" lon="11.2606441"><ele>293.0</ele><time>2026-04-25T08:49:27.719Z</time></trkpt><trkpt lat="43.4046892" lon="11.2605459"><ele>293.0</ele><time>2026-04-25T08:49:29.716Z</time></trkpt><trkpt lat="43.4046674" lon="11.2604596"><ele>293.0</ele><time>2026-04-25T08:49:31.717Z</time></trkpt><trkpt lat="43.40465" lon="11.2603632"><ele>293.0</ele><time>2026-04-25T08:49:33.719Z</time></trkpt><trkpt lat="43.4046154" lon="11.2602546"><ele>293.0</ele><time>2026-04-25T08:49:35.704Z</time></trkpt><trkpt lat="43.4045759" lon="11.2601491"><ele>293.0</ele><time>2026-04-25T08:49:37.715Z</time></trkpt><trkpt lat="43.4045352" lon="11.2600338"><ele>293.0</ele><time>2026-04-25T08:49:39.72Z</time></trkpt><trkpt lat="43.4044927" lon="11.2599208"><ele>293.0</ele><time>2026-04-25T08:49:41.715Z</time></trkpt><trkpt lat="43.4044516" lon="11.2598121"><ele>293.0</ele><time>2026-04-25T08:49:43.704Z</time></trkpt><trkpt lat="43.4044056" lon="11.259708"><ele>293.0</ele><time>2026-04-25T08:49:45.734Z</time></trkpt><trkpt lat="43.404362" lon="11.2596163"><ele>293.1666666666667</ele><time>2026-04-25T08:49:47.788Z</time></trkpt><trkpt lat="43.4043032" lon="11.259539"><ele>293.33333333333337</ele><time>2026-04-25T08:49:49.711Z</time></trkpt><trkpt lat="43.4042448" lon="11.2594445"><ele>293.5</ele><time>2026-04-25T08:49:51.795Z</time></trkpt><trkpt lat="43.4041797" lon="11.2593448"><ele>293.6666666666667</ele><time>2026-04-25T08:49:53.708Z</time></trkpt><trkpt lat="43.4041256" lon="11.2592649"><ele>293.8333333333333</ele><time>2026-04-25T08:49:55.729Z</time></trkpt><trkpt lat="43.404073" lon="11.2591819"><ele>294.0</ele><time>2026-04-25T08:49:57.79Z</time></trkpt><trkpt lat="43.404" lon="11.2590674"><ele>294.0</ele><time>2026-04-25T08:49:59.722Z</time></trkpt><trkpt lat="43.4039391" lon="11.2589898"><ele>294.0</ele><time>2026-04-25T08:50:01.705Z</time></trkpt><trkpt lat="43.403874" lon="11.2589318"><ele>294.0</ele><time>2026-04-25T08:50:03.706Z</time></trkpt><trkpt lat="43.4037854" lon="11.258864"><ele>294.0</ele><time>2026-04-25T08:50:05.706Z</time></trkpt><trkpt lat="43.4037083" lon="11.2587841"><ele>294.0</ele><time>2026-04-25T08:50:07.71Z</time></trkpt><trkpt lat="43.4036255" lon="11.2586807"><ele>293.4</ele><time>2026-04-25T08:50:09.707Z</time></trkpt><trkpt lat="43.4035488" lon="11.2585933"><ele>292.79999999999995</ele><time>2026-04-25T08:50:11.717Z</time></trkpt><trkpt lat="43.4034967" lon="11.2585378"><ele>292.20000000000005</ele><time>2026-04-25T08:50:13.716Z</time></trkpt><trkpt lat="43.4034261" lon="11.2584503"><ele>291.6</ele><time>2026-04-25T08:50:15.709Z</time></trkpt><trkpt lat="43.4033378" lon="11.2583388"><ele>291.0</ele><time>2026-04-25T08:50:17.782Z</time></trkpt><trkpt lat="43.4032498" lon="11.2582383"><ele>291.0</ele><time>2026-04-25T08:50:19.73Z</time></trkpt><trkpt lat="43.4031621" lon="11.2581462"><ele>291.0</ele><time>2026-04-25T08:50:21.784Z</time></trkpt><trkpt lat="43.4031036" lon="11.2580497"><ele>291.0</ele><time>2026-04-25T08:50:23.714Z</time></trkpt><trkpt lat="43.403048" lon="11.2579518"><ele>291.0</ele><time>2026-04-25T08:50:25.71Z</time></trkpt><trkpt lat="43.403" lon="11.2578253"><ele>291.0</ele><time>2026-04-25T08:50:27.717Z</time></trkpt><trkpt lat="43.4030112" lon="11.2576849"><ele>291.0</ele><time>2026-04-25T08:50:29.715Z</time></trkpt><trkpt lat="43.4030402" lon="11.2575798"><ele>291.0</ele><time>2026-04-25T08:50:31.722Z</time></trkpt><trkpt lat="43.4030952" lon="11.2575098"><ele>291.0</ele><time>2026-04-25T08:50:34.713Z</time></trkpt><trkpt lat="43.4031381" lon="11.2574361"><ele>291.0</ele><time>2026-04-25T08:50:36.786Z</time></trkpt><trkpt lat="43.4031752" lon="11.2573104"><ele>291.0</ele><time>2026-04-25T08:50:38.719Z</time></trkpt><trkpt lat="43.4031977" lon="11.2571928"><ele>291.0</ele><time>2026-04-25T08:50:40.716Z</time></trkpt><trkpt lat="43.4032156" lon="11.2570644"><ele>291.0</ele><time>2026-04-25T08:50:42.726Z</time></trkpt><trkpt lat="43.4032456" lon="11.2569456"><ele>291.0</ele><time>2026-04-25T08:50:44.719Z</time></trkpt><trkpt lat="43.4032674" lon="11.2568335"><ele>291.0</ele><time>2026-04-25T08:50:46.714Z</time></trkpt><trkpt lat="43.4032912" lon="11.2567311"><ele>291.0</ele><time>2026-04-25T08:50:48.717Z</time></trkpt><trkpt lat="43.4033057" lon="11.2566336"><ele>291.0</ele><time>2026-04-25T08:50:50.722Z</time></trkpt><trkpt lat="43.4033226" lon="11.2565065"><ele>291.0</ele><time>2026-04-25T08:50:52.701Z</time></trkpt><trkpt lat="43.403345" lon="11.2563948"><ele>291.1666666666667</ele><time>2026-04-25T08:50:54.724Z</time></trkpt><trkpt lat="43.4033762" lon="11.2562939"><ele>291.3333333333333</ele><time>2026-04-25T08:50:56.805Z</time></trkpt><trkpt lat="43.4033982" lon="11.2561755"><ele>291.5</ele><time>2026-04-25T08:50:58.73Z</time></trkpt><trkpt lat="43.4034203" lon="11.2560819"><ele>291.66666666666663</ele><time>2026-04-25T08:51:00.786Z</time></trkpt><trkpt lat="43.4034321" lon="11.2559596"><ele>291.8333333333333</ele><time>2026-04-25T08:51:02.79Z</time></trkpt><trkpt lat="43.4034715" lon="11.2558152"><ele>292.0</ele><time>2026-04-25T08:51:04.713Z</time></trkpt><trkpt lat="43.403489" lon="11.255713"><ele>291.8333333333333</ele><time>2026-04-25T08:51:06.784Z</time></trkpt><trkpt lat="43.4034989" lon="11.2556155"><ele>291.66666666666663</ele><time>2026-04-25T08:51:08.698Z</time></trkpt><trkpt lat="43.4035103" lon="11.2554935"><ele>291.5</ele><time>2026-04-25T08:51:10.717Z</time></trkpt><trkpt lat="43.4035297" lon="11.2553921"><ele>291.3333333333333</ele><time>2026-04-25T08:51:12.7Z</time></trkpt><trkpt lat="43.4035735" lon="11.2552772"><ele>291.1666666666667</ele><time>2026-04-25T08:51:14.722Z</time></trkpt><trkpt lat="43.4036014" lon="11.2551311"><ele>291.0</ele><time>2026-04-25T08:51:16.718Z</time></trkpt><trkpt lat="43.4036123" lon="11.2550114"><ele>291.0</ele><time>2026-04-25T08:51:18.719Z</time></trkpt><trkpt lat="43.403638" lon="11.254889"><ele>291.0</ele><time>2026-04-25T08:51:20.719Z</time></trkpt><trkpt lat="43.4036504" lon="11.2547573"><ele>291.0</ele><time>2026-04-25T08:51:22.714Z</time></trkpt><trkpt lat="43.4036624" lon="11.2546319"><ele>291.0</ele><time>2026-04-25T08:51:24.724Z</time></trkpt><trkpt lat="43.4036818" lon="11.2545021"><ele>291.0</ele><time>2026-04-25T08:51:26.728Z</time></trkpt><trkpt lat="43.4037146" lon="11.2543758"><ele>290.8333333333333</ele><time>2026-04-25T08:51:28.699Z</time></trkpt><trkpt lat="43.4037392" lon="11.2542378"><ele>290.6666666666667</ele><time>2026-04-25T08:51:30.797Z</time></trkpt><trkpt lat="43.4037771" lon="11.2541166"><ele>290.5</ele><time>2026-04-25T08:51:32.795Z</time></trkpt><trkpt lat="43.403813" lon="11.2540327"><ele>290.33333333333337</ele><time>2026-04-25T08:51:34.716Z</time></trkpt><trkpt lat="43.4038386" lon="11.2539186"><ele>290.1666666666667</ele><time>2026-04-25T08:51:36.785Z</time></trkpt><trkpt lat="43.4038511" lon="11.2537974"><ele>290.0</ele><time>2026-04-25T08:51:38.714Z</time></trkpt><trkpt lat="43.4038948" lon="11.2536856"><ele>290.0</ele><time>2026-04-25T08:51:40.702Z</time></trkpt><trkpt lat="43.4039191" lon="11.2535775"><ele>290.0</ele><time>2026-04-25T08:51:42.716Z</time></trkpt><trkpt lat="43.4039324" lon="11.2534357"><ele>290.0</ele><time>2026-04-25T08:51:44.795Z</time></trkpt><trkpt lat="43.4039418" lon="11.2532971"><ele>290.0</ele><time>2026-04-25T08:51:46.724Z</time></trkpt><trkpt lat="43.4039556" lon="11.2531868"><ele>290.0</ele><time>2026-04-25T08:51:48.735Z</time></trkpt><trkpt lat="43.4039772" lon="11.2530714"><ele>290.33333333333337</ele><time>2026-04-25T08:51:50.805Z</time></trkpt><trkpt lat="43.4039933" lon="11.2529819"><ele>290.6666666666667</ele><time>2026-04-25T08:51:52.71Z</time></trkpt><trkpt lat="43.4040171" lon="11.2528844"><ele>291.0</ele><time>2026-04-25T08:51:54.713Z</time></trkpt><trkpt lat="43.4040558" lon="11.2527656"><ele>291.3333333333333</ele><time>2026-04-25T08:51:56.724Z</time></trkpt><trkpt lat="43.404083" lon="11.252659"><ele>291.66666666666663</ele><time>2026-04-25T08:51:58.705Z</time></trkpt><trkpt lat="43.4041072" lon="11.2525324"><ele>292.0</ele><time>2026-04-25T08:52:00.714Z</time></trkpt><trkpt lat="43.4041326" lon="11.2524335"><ele>292.0</ele><time>2026-04-25T08:52:02.711Z</time></trkpt><trkpt lat="43.4041656" lon="11.2523159"><ele>292.0</ele><time>2026-04-25T08:52:04.7Z</time></trkpt><trkpt lat="43.4041981" lon="11.2521904"><ele>292.0</ele><time>2026-04-25T08:52:06.791Z</time></trkpt><trkpt lat="43.4042128" lon="11.2520879"><ele>292.0</ele><time>2026-04-25T08:52:08.733Z</time></trkpt><trkpt lat="43.4042278" lon="11.2519826"><ele>292.0</ele><time>2026-04-25T08:52:10.734Z</time></trkpt><trkpt lat="43.4042427" lon="11.2518617"><ele>292.0</ele><time>2026-04-25T08:52:12.713Z</time></trkpt><trkpt lat="43.4042638" lon="11.2517446"><ele>292.3333333333333</ele><time>2026-04-25T08:52:14.765Z</time></trkpt><trkpt lat="43.4042882" lon="11.2516201"><ele>292.66666666666663</ele><time>2026-04-25T08:52:16.699Z</time></trkpt><trkpt lat="43.4043052" lon="11.2515114"><ele>293.0</ele><time>2026-04-25T08:52:18.717Z</time></trkpt><trkpt lat="43.4042878" lon="11.2514073"><ele>293.3333333333333</ele><time>2026-04-25T08:52:21.785Z</time></trkpt><trkpt lat="43.4042628" lon="11.2513276"><ele>293.6666666666667</ele><time>2026-04-25T08:52:23.715Z</time></trkpt><trkpt lat="43.4042657" lon="11.2512188"><ele>294.0</ele><time>2026-04-25T08:52:25.686Z</time></trkpt><trkpt lat="43.4042819" lon="11.2510985"><ele>294.3333333333333</ele><time>2026-04-25T08:52:28.714Z</time></trkpt><trkpt lat="43.404314" lon="11.251023"><ele>294.6666666666667</ele><time>2026-04-25T08:52:30.716Z</time></trkpt><trkpt lat="43.4043696" lon="11.2509198"><ele>295.0</ele><time>2026-04-25T08:52:33.724Z</time></trkpt><trkpt lat="43.4043885" lon="11.2507823"><ele>295.33333333333337</ele><time>2026-04-25T08:52:35.735Z</time></trkpt><trkpt lat="43.4044097" lon="11.2506578"><ele>295.6666666666667</ele><time>2026-04-25T08:52:37.717Z</time></trkpt><trkpt lat="43.4044351" lon="11.2505316"><ele>296.0</ele><time>2026-04-25T08:52:39.732Z</time></trkpt><trkpt lat="43.4044647" lon="11.2504294"><ele>295.83333333333337</ele><time>2026-04-25T08:52:41.717Z</time></trkpt><trkpt lat="43.4044855" lon="11.2503211"><ele>295.6666666666667</ele><time>2026-04-25T08:52:43.717Z</time></trkpt><trkpt lat="43.404502" lon="11.2502034"><ele>295.5</ele><time>2026-04-25T08:52:45.715Z</time></trkpt><trkpt lat="43.4045282" lon="11.2501063"><ele>295.3333333333333</ele><time>2026-04-25T08:52:47.733Z</time></trkpt><trkpt lat="43.404548" lon="11.2499936"><ele>295.16666666666663</ele><time>2026-04-25T08:52:49.725Z</time></trkpt><trkpt lat="43.404578" lon="11.2498879"><ele>295.0</ele><time>2026-04-25T08:52:51.716Z</time></trkpt><trkpt lat="43.404601" lon="11.249774"><ele>295.0</ele><time>2026-04-25T08:52:53.728Z</time></trkpt><trkpt lat="43.404634" lon="11.2496743"><ele>295.0</ele><time>2026-04-25T08:52:55.724Z</time></trkpt><trkpt lat="43.404661" lon="11.249559"><ele>295.0</ele><time>2026-04-25T08:52:57.795Z</time></trkpt><trkpt lat="43.4046411" lon="11.2494487"><ele>295.0</ele><time>2026-04-25T08:52:59.72Z</time></trkpt><trkpt lat="43.4045789" lon="11.2493315"><ele>295.0</ele><time>2026-04-25T08:53:01.693Z</time></trkpt><trkpt lat="43.4045045" lon="11.2492646"><ele>295.0</ele><time>2026-04-25T08:53:03.698Z</time></trkpt><trkpt lat="43.4044525" lon="11.2491925"><ele>295.0</ele><time>2026-04-25T08:53:05.719Z</time></trkpt><trkpt lat="43.4043627" lon="11.2491777"><ele>295.0</ele><time>2026-04-25T08:53:07.719Z</time></trkpt><trkpt lat="43.404281" lon="11.2491906"><ele>295.0</ele><time>2026-04-25T08:53:09.727Z</time></trkpt><trkpt lat="43.4041954" lon="11.2492205"><ele>295.0</ele><time>2026-04-25T08:53:11.722Z</time></trkpt><trkpt lat="43.4041257" lon="11.2492459"><ele>295.0</ele><time>2026-04-25T08:53:13.718Z</time></trkpt><trkpt lat="43.404056" lon="11.2492698"><ele>295.0</ele><time>2026-04-25T08:53:15.718Z</time></trkpt><trkpt lat="43.403991" lon="11.2492888"><ele>295.0</ele><time>2026-04-25T08:53:17.783Z</time></trkpt><trkpt lat="43.4039108" lon="11.2493236"><ele>295.0</ele><time>2026-04-25T08:53:20.79Z</time></trkpt><trkpt lat="43.4038288" lon="11.2493252"><ele>295.0</ele><time>2026-04-25T08:53:22.721Z</time></trkpt><trkpt lat="43.4037672" lon="11.2493058"><ele>295.0</ele><time>2026-04-25T08:53:23.735Z</time></trkpt><trkpt lat="43.4036686" lon="11.2493046"><ele>295.0</ele><time>2026-04-25T08:53:25.7Z</time></trkpt><trkpt lat="43.4035826" lon="11.2493439"><ele>295.0</ele><time>2026-04-25T08:53:27.719Z</time></trkpt><trkpt lat="43.4035061" lon="11.2493865"><ele>295.8571428571429</ele><time>2026-04-25T08:53:29.789Z</time></trkpt><trkpt lat="43.4034445" lon="11.2494063"><ele>296.7142857142857</ele><time>2026-04-25T08:53:31.718Z</time></trkpt><trkpt lat="43.4033806" lon="11.2494022"><ele>297.57142857142856</ele><time>2026-04-25T08:53:33.717Z</time></trkpt><trkpt lat="43.4033187" lon="11.2494232"><ele>298.42857142857144</ele><time>2026-04-25T08:53:35.792Z</time></trkpt><trkpt lat="43.4032586" lon="11.2494526"><ele>299.2857142857143</ele><time>2026-04-25T08:53:37.709Z</time></trkpt><trkpt lat="43.4031977" lon="11.2494845"><ele>300.14285714285717</ele><time>2026-04-25T08:53:39.721Z</time></trkpt><trkpt lat="43.4031274" lon="11.2494995"><ele>301.0</ele><time>2026-04-25T08:53:41.71Z</time></trkpt><trkpt lat="43.4030555" lon="11.2495304"><ele>301.66666666666663</ele><time>2026-04-25T08:53:43.715Z</time></trkpt><trkpt lat="43.4029889" lon="11.2495554"><ele>302.3333333333333</ele><time>2026-04-25T08:53:45.717Z</time></trkpt><trkpt lat="43.4029003" lon="11.2495796"><ele>303.0</ele><time>2026-04-25T08:53:47.716Z</time></trkpt><trkpt lat="43.4028255" lon="11.2496224"><ele>303.6666666666667</ele><time>2026-04-25T08:53:49.713Z</time></trkpt><trkpt lat="43.4027344" lon="11.2495936"><ele>304.33333333333337</ele><time>2026-04-25T08:53:51.723Z</time></trkpt><trkpt lat="43.4026466" lon="11.2495513"><ele>305.0</ele><time>2026-04-25T08:53:53.729Z</time></trkpt><trkpt lat="43.4025701" lon="11.2494686"><ele>305.0</ele><time>2026-04-25T08:53:55.701Z</time></trkpt><trkpt lat="43.4025262" lon="11.2493912"><ele>305.0</ele><time>2026-04-25T08:53:57.7Z</time></trkpt><trkpt lat="43.4024702" lon="11.2493066"><ele>305.0</ele><time>2026-04-25T08:54:00.793Z</time></trkpt><trkpt lat="43.402407" lon="11.2492451"><ele>305.0</ele><time>2026-04-25T08:54:03.712Z</time></trkpt><trkpt lat="43.402358" lon="11.2491757"><ele>305.0</ele><time>2026-04-25T08:54:05.796Z</time></trkpt><trkpt lat="43.4023056" lon="11.2491271"><ele>305.0</ele><time>2026-04-25T08:54:07.707Z</time></trkpt><trkpt lat="43.4022393" lon="11.2490481"><ele>305.0</ele><time>2026-04-25T08:54:10.792Z</time></trkpt><trkpt lat="43.4021817" lon="11.2489927"><ele>305.0</ele><time>2026-04-25T08:54:14.711Z</time></trkpt><trkpt lat="43.4021645" lon="11.2488889"><ele>305.0</ele><time>2026-04-25T08:54:17.716Z</time></trkpt><trkpt lat="43.4021239" lon="11.2488032"><ele>305.0</ele><time>2026-04-25T08:54:21.733Z</time></trkpt><trkpt lat="43.4021361" lon="11.2487078"><ele>305.0</ele><time>2026-04-25T08:54:26.715Z</time></trkpt><trkpt lat="43.4021504" lon="11.2486135"><ele>305.0</ele><time>2026-04-25T08:54:31.78Z</time></trkpt><trkpt lat="43.4021601" lon="11.2485089"><ele>305.0</ele><time>2026-04-25T08:54:35.784Z</time></trkpt><trkpt lat="43.4021645" lon="11.2484167"><ele>305.83333333333337</ele><time>2026-04-25T08:54:40.724Z</time></trkpt><trkpt lat="43.402186" lon="11.248301"><ele>306.6666666666667</ele><time>2026-04-25T08:54:44.723Z</time></trkpt><trkpt lat="43.4021697" lon="11.2482077"><ele>307.5</ele><time>2026-04-25T08:54:49.709Z</time></trkpt><trkpt lat="43.4021252" lon="11.2481331"><ele>308.3333333333333</ele><time>2026-04-25T08:54:52.721Z</time></trkpt><trkpt lat="43.4021076" lon="11.2480211"><ele>309.16666666666663</ele><time>2026-04-25T08:54:56.702Z</time></trkpt><trkpt lat="43.4020522" lon="11.2479515"><ele>310.0</ele><time>2026-04-25T08:55:00.696Z</time></trkpt><trkpt lat="43.4020091" lon="11.2478733"><ele>310.5</ele><time>2026-04-25T08:55:04.726Z</time></trkpt><trkpt lat="43.40204" lon="11.2477779"><ele>311.0</ele><time>2026-04-25T08:55:08.731Z</time></trkpt><trkpt lat="43.4020841" lon="11.2476888"><ele>311.5</ele><time>2026-04-25T08:55:10.724Z</time></trkpt><trkpt lat="43.4021339" lon="11.2475875"><ele>312.0</ele><time>2026-04-25T08:55:12.785Z</time></trkpt><trkpt lat="43.402191" lon="11.2475116"><ele>312.5</ele><time>2026-04-25T08:55:14.718Z</time></trkpt><trkpt lat="43.4022401" lon="11.247415"><ele>313.0</ele><time>2026-04-25T08:55:16.791Z</time></trkpt><trkpt lat="43.4023015" lon="11.2473055"><ele>313.0</ele><time>2026-04-25T08:55:18.724Z</time></trkpt><trkpt lat="43.4023625" lon="11.2471865"><ele>313.0</ele><time>2026-04-25T08:55:20.785Z</time></trkpt><trkpt lat="43.4024224" lon="11.2470758"><ele>313.0</ele><time>2026-04-25T08:55:22.78Z</time></trkpt><trkpt lat="43.4024791" lon="11.2470199"><ele>313.0</ele><time>2026-04-25T08:55:24.717Z</time></trkpt><trkpt lat="43.4025513" lon="11.2469326"><ele>313.0</ele><time>2026-04-25T08:55:26.723Z</time></trkpt><trkpt lat="43.4026147" lon="11.246824"><ele>313.0</ele><time>2026-04-25T08:55:28.718Z</time></trkpt><trkpt lat="43.4026518" lon="11.2466864"><ele>313.0</ele><time>2026-04-25T08:55:30.698Z</time></trkpt><trkpt lat="43.4026745" lon="11.2465723"><ele>313.0</ele><time>2026-04-25T08:55:32.698Z</time></trkpt><trkpt lat="43.4027069" lon="11.2464529"><ele>313.0</ele><time>2026-04-25T08:55:34.715Z</time></trkpt><trkpt lat="43.4027217" lon="11.2463257"><ele>313.0</ele><time>2026-04-25T08:55:36.788Z</time></trkpt><trkpt lat="43.4027353" lon="11.2462061"><ele>312.8333333333333</ele><time>2026-04-25T08:55:38.711Z</time></trkpt><trkpt lat="43.4027545" lon="11.2460683"><ele>312.66666666666663</ele><time>2026-04-25T08:55:40.796Z</time></trkpt><trkpt lat="43.4027724" lon="11.2459637"><ele>312.5</ele><time>2026-04-25T08:55:42.782Z</time></trkpt><trkpt lat="43.4027881" lon="11.2458625"><ele>312.3333333333333</ele><time>2026-04-25T08:55:44.713Z</time></trkpt><trkpt lat="43.4027915" lon="11.2457692"><ele>312.1666666666667</ele><time>2026-04-25T08:55:46.798Z</time></trkpt><trkpt lat="43.4028005" lon="11.2456738"><ele>312.0</ele><time>2026-04-25T08:55:48.713Z</time></trkpt><trkpt lat="43.4028027" lon="11.2455741"><ele>312.42857142857144</ele><time>2026-04-25T08:55:50.792Z</time></trkpt><trkpt lat="43.4028186" lon="11.2454799"><ele>312.85714285714283</ele><time>2026-04-25T08:55:53.727Z</time></trkpt><trkpt lat="43.4028082" lon="11.2453943"><ele>313.2857142857143</ele><time>2026-04-25T08:55:56.699Z</time></trkpt><trkpt lat="43.4028029" lon="11.2452775"><ele>313.7142857142857</ele><time>2026-04-25T08:55:59.713Z</time></trkpt><trkpt lat="43.4028081" lon="11.245165"><ele>314.1428571428571</ele><time>2026-04-25T08:56:02.709Z</time></trkpt><trkpt lat="43.4028002" lon="11.2450607"><ele>314.57142857142856</ele><time>2026-04-25T08:56:05.701Z</time></trkpt><trkpt lat="43.4028023" lon="11.2449722"><ele>315.0</ele><time>2026-04-25T08:56:08.702Z</time></trkpt><trkpt lat="43.4028176" lon="11.2448816"><ele>315.3333333333333</ele><time>2026-04-25T08:56:11.796Z</time></trkpt><trkpt lat="43.4028414" lon="11.2447607"><ele>315.6666666666667</ele><time>2026-04-25T08:56:14.732Z</time></trkpt><trkpt lat="43.4028519" lon="11.2446467"><ele>316.0</ele><time>2026-04-25T08:56:16.718Z</time></trkpt><trkpt lat="43.4028535" lon="11.2445217"><ele>316.33333333333337</ele><time>2026-04-25T08:56:18.705Z</time></trkpt><trkpt lat="43.4028544" lon="11.2444016"><ele>316.6666666666667</ele><time>2026-04-25T08:56:20.786Z</time></trkpt><trkpt lat="43.4028368" lon="11.2442785"><ele>317.0</ele><time>2026-04-25T08:56:22.801Z</time></trkpt><trkpt lat="43.4028218" lon="11.2441586"><ele>317.0</ele><time>2026-04-25T08:56:24.714Z</time></trkpt><trkpt lat="43.402827" lon="11.2440253"><ele>317.0</ele><time>2026-04-25T08:56:26.795Z</time></trkpt><trkpt lat="43.4028405" lon="11.2439313"><ele>317.0</ele><time>2026-04-25T08:56:28.712Z</time></trkpt><trkpt lat="43.4028606" lon="11.2437934"><ele>317.0</ele><time>2026-04-25T08:56:30.807Z</time></trkpt><trkpt lat="43.4028586" lon="11.2436811"><ele>317.0</ele><time>2026-04-25T08:56:31.781Z</time></trkpt><trkpt lat="43.4028904" lon="11.2435234"><ele>316.7142857142857</ele><time>2026-04-25T08:56:33.731Z</time></trkpt><trkpt lat="43.4028902" lon="11.2434364"><ele>316.42857142857144</ele><time>2026-04-25T08:56:34.708Z</time></trkpt><trkpt lat="43.4028946" lon="11.2433291"><ele>316.1428571428571</ele><time>2026-04-25T08:56:36.72Z</time></trkpt><trkpt lat="43.4028825" lon="11.2432186"><ele>315.8571428571429</ele><time>2026-04-25T08:56:38.716Z</time></trkpt><trkpt lat="43.4028693" lon="11.2431202"><ele>315.57142857142856</ele><time>2026-04-25T08:56:40.71Z</time></trkpt><trkpt lat="43.4028639" lon="11.2430087"><ele>315.2857142857143</ele><time>2026-04-25T08:56:42.782Z</time></trkpt><trkpt lat="43.4028889" lon="11.242918"><ele>315.0</ele><time>2026-04-25T08:56:44.715Z</time></trkpt><trkpt lat="43.4028757" lon="11.2427738"><ele>313.8333333333333</ele><time>2026-04-25T08:56:46.791Z</time></trkpt><trkpt lat="43.4028672" lon="11.2426358"><ele>312.6666666666667</ele><time>2026-04-25T08:56:48.697Z</time></trkpt><trkpt lat="43.4028905" lon="11.2425379"><ele>311.5</ele><time>2026-04-25T08:56:49.719Z</time></trkpt><trkpt lat="43.4029053" lon="11.2424339"><ele>310.33333333333337</ele><time>2026-04-25T08:56:50.789Z</time></trkpt><trkpt lat="43.4029098" lon="11.2423444"><ele>309.1666666666667</ele><time>2026-04-25T08:56:51.781Z</time></trkpt><trkpt lat="43.4029358" lon="11.2421871"><ele>308.0</ele><time>2026-04-25T08:56:53.723Z</time></trkpt><trkpt lat="43.4029581" lon="11.2420219"><ele>306.4</ele><time>2026-04-25T08:56:55.79Z</time></trkpt><trkpt lat="43.402975" lon="11.2418463"><ele>304.8</ele><time>2026-04-25T08:56:57.708Z</time></trkpt><trkpt lat="43.4029773" lon="11.2417062"><ele>303.2</ele><time>2026-04-25T08:56:59.719Z</time></trkpt><trkpt lat="43.402969" lon="11.2415498"><ele>301.6</ele><time>2026-04-25T08:57:01.702Z</time></trkpt><trkpt lat="43.4029771" lon="11.241411"><ele>300.0</ele><time>2026-04-25T08:57:03.715Z</time></trkpt><trkpt lat="43.4029756" lon="11.2412713"><ele>299.0</ele><time>2026-04-25T08:57:05.701Z</time></trkpt><trkpt lat="43.402993" lon="11.2411186"><ele>298.0</ele><time>2026-04-25T08:57:07.725Z</time></trkpt><trkpt lat="43.4030305" lon="11.2409696"><ele>297.0</ele><time>2026-04-25T08:57:09.719Z</time></trkpt><trkpt lat="43.4030848" lon="11.2408573"><ele>296.0</ele><time>2026-04-25T08:57:11.719Z</time></trkpt><trkpt lat="43.4031319" lon="11.2407422"><ele>295.0</ele><time>2026-04-25T08:57:13.72Z</time></trkpt><trkpt lat="43.4031859" lon="11.2406331"><ele>294.8571428571429</ele><time>2026-04-25T08:57:15.722Z</time></trkpt><trkpt lat="43.4032222" lon="11.2405424"><ele>294.7142857142857</ele><time>2026-04-25T08:57:17.786Z</time></trkpt><trkpt lat="43.4032495" lon="11.240448"><ele>294.57142857142856</ele><time>2026-04-25T08:57:21.782Z</time></trkpt><trkpt lat="43.403301" lon="11.2403952"><ele>294.42857142857144</ele><time>2026-04-25T08:57:24.72Z</time></trkpt><trkpt lat="43.4033453" lon="11.2403296"><ele>294.2857142857143</ele><time>2026-04-25T08:57:26.79Z</time></trkpt><trkpt lat="43.4033868" lon="11.2402577"><ele>294.14285714285717</ele><time>2026-04-25T08:57:28.704Z</time></trkpt><trkpt lat="43.4034317" lon="11.2401789"><ele>294.0</ele><time>2026-04-25T08:57:30.729Z</time></trkpt><trkpt lat="43.4034886" lon="11.2401025"><ele>294.0</ele><time>2026-04-25T08:57:32.799Z</time></trkpt><trkpt lat="43.4035423" lon="11.2399808"><ele>294.0</ele><time>2026-04-25T08:57:34.704Z</time></trkpt><trkpt lat="43.403584" lon="11.2398584"><ele>294.0</ele><time>2026-04-25T08:57:36.798Z</time></trkpt><trkpt lat="43.403616" lon="11.2397732"><ele>294.0</ele><time>2026-04-25T08:57:38.709Z</time></trkpt><trkpt lat="43.4036352" lon="11.2396627"><ele>294.0</ele><time>2026-04-25T08:57:42.708Z</time></trkpt><trkpt lat="43.4036702" lon="11.2395632"><ele>294.0</ele><time>2026-04-25T08:57:43.723Z</time></trkpt><trkpt lat="43.4037379" lon="11.2394514"><ele>293.1666666666667</ele><time>2026-04-25T08:57:45.718Z</time></trkpt><trkpt lat="43.4037827" lon="11.2393237"><ele>292.3333333333333</ele><time>2026-04-25T08:57:47.721Z</time></trkpt><trkpt lat="43.4038051" lon="11.2392133"><ele>291.5</ele><time>2026-04-25T08:57:49.715Z</time></trkpt><trkpt lat="43.4038075" lon="11.2390827"><ele>290.66666666666663</ele><time>2026-04-25T08:57:51.705Z</time></trkpt><trkpt lat="43.4038115" lon="11.2389945"><ele>289.8333333333333</ele><time>2026-04-25T08:57:52.717Z</time></trkpt><trkpt lat="43.4038186" lon="11.2389045"><ele>289.0</ele><time>2026-04-25T08:57:53.726Z</time></trkpt><trkpt lat="43.4038262" lon="11.2388181"><ele>286.66666666666663</ele><time>2026-04-25T08:57:54.72Z</time></trkpt><trkpt lat="43.4038355" lon="11.2387226"><ele>284.3333333333333</ele><time>2026-04-25T08:57:55.791Z</time></trkpt><trkpt lat="43.4038472" lon="11.2386325"><ele>282.0</ele><time>2026-04-25T08:57:56.718Z</time></trkpt><trkpt lat="43.4038556" lon="11.2385432"><ele>279.6666666666667</ele><time>2026-04-25T08:57:57.795Z</time></trkpt><trkpt lat="43.4038798" lon="11.2384078"><ele>277.33333333333337</ele><time>2026-04-25T08:57:59.723Z</time></trkpt><trkpt lat="43.403912" lon="11.2382749"><ele>275.0</ele><time>2026-04-25T08:58:01.715Z</time></trkpt><trkpt lat="43.4039587" lon="11.2381513"><ele>274.4</ele><time>2026-04-25T08:58:03.704Z</time></trkpt><trkpt lat="43.404003" lon="11.2380301"><ele>273.8</ele><time>2026-04-25T08:58:05.78Z</time></trkpt><trkpt lat="43.4040437" lon="11.2378977"><ele>273.2</ele><time>2026-04-25T08:58:07.795Z</time></trkpt><trkpt lat="43.4040695" lon="11.2377351"><ele>272.6</ele><time>2026-04-25T08:58:09.708Z</time></trkpt><trkpt lat="43.4041108" lon="11.237594"><ele>272.0</ele><time>2026-04-25T08:58:11.793Z</time></trkpt><trkpt lat="43.4041659" lon="11.2375112"><ele>272.0</ele><time>2026-04-25T08:58:13.707Z</time></trkpt><trkpt lat="43.404232" lon="11.237448"><ele>272.0</ele><time>2026-04-25T08:58:15.796Z</time></trkpt><trkpt lat="43.4043134" lon="11.2373576"><ele>272.0</ele><time>2026-04-25T08:58:17.715Z</time></trkpt><trkpt lat="43.4043843" lon="11.2372558"><ele>272.0</ele><time>2026-04-25T08:58:19.706Z</time></trkpt><trkpt lat="43.4044567" lon="11.2371194"><ele>272.0</ele><time>2026-04-25T08:58:21.695Z</time></trkpt><trkpt lat="43.4045256" lon="11.2370044"><ele>271.33333333333337</ele><time>2026-04-25T08:58:23.708Z</time></trkpt><trkpt lat="43.4046151" lon="11.2368808"><ele>270.6666666666667</ele><time>2026-04-25T08:58:25.783Z</time></trkpt><trkpt lat="43.4046596" lon="11.2368029"><ele>270.0</ele><time>2026-04-25T08:58:26.781Z</time></trkpt><trkpt lat="43.4047074" lon="11.2367361"><ele>269.3333333333333</ele><time>2026-04-25T08:58:27.784Z</time></trkpt><trkpt lat="43.4047581" lon="11.2366784"><ele>268.66666666666663</ele><time>2026-04-25T08:58:28.693Z</time></trkpt><trkpt lat="43.4048347" lon="11.2365601"><ele>268.0</ele><time>2026-04-25T08:58:30.715Z</time></trkpt><trkpt lat="43.4049338" lon="11.2364755"><ele>267.0</ele><time>2026-04-25T08:58:32.791Z</time></trkpt><trkpt lat="43.4050037" lon="11.2364293"><ele>266.0</ele><time>2026-04-25T08:58:34.711Z</time></trkpt><trkpt lat="43.4050782" lon="11.2363122"><ele>265.0</ele><time>2026-04-25T08:58:36.787Z</time></trkpt><trkpt lat="43.4051341" lon="11.2362429"><ele>264.0</ele><time>2026-04-25T08:58:38.708Z</time></trkpt><trkpt lat="43.4051731" lon="11.2361626"><ele>263.0</ele><time>2026-04-25T08:58:40.727Z</time></trkpt><trkpt lat="43.4052392" lon="11.2360729"><ele>262.0</ele><time>2026-04-25T08:58:43.715Z</time></trkpt><trkpt lat="43.4053101" lon="11.2359942"><ele>262.0</ele><time>2026-04-25T08:58:46.792Z</time></trkpt><trkpt lat="43.405348" lon="11.2359133"><ele>262.0</ele><time>2026-04-25T08:58:48.718Z</time></trkpt><trkpt lat="43.4054015" lon="11.2358178"><ele>262.0</ele><time>2026-04-25T08:58:51.707Z</time></trkpt><trkpt lat="43.4054381" lon="11.2357398"><ele>262.0</ele><time>2026-04-25T08:58:53.733Z</time></trkpt><trkpt lat="43.405463" lon="11.2356541"><ele>262.0</ele><time>2026-04-25T08:58:55.708Z</time></trkpt><trkpt lat="43.4054847" lon="11.2355716"><ele>262.0</ele><time>2026-04-25T08:58:57.716Z</time></trkpt><trkpt lat="43.405486" lon="11.2354837"><ele>262.0</ele><time>2026-04-25T08:58:59.733Z</time></trkpt><trkpt lat="43.4054872" lon="11.2353889"><ele>262.16666666666663</ele><time>2026-04-25T08:59:01.795Z</time></trkpt><trkpt lat="43.4054716" lon="11.2352662"><ele>262.3333333333333</ele><time>2026-04-25T08:59:04.694Z</time></trkpt><trkpt lat="43.4054566" lon="11.235146"><ele>262.5</ele><time>2026-04-25T08:59:07.79Z</time></trkpt><trkpt lat="43.405455" lon="11.2350415"><ele>262.6666666666667</ele><time>2026-04-25T08:59:10.798Z</time></trkpt><trkpt lat="43.4054523" lon="11.2349388"><ele>262.83333333333337</ele><time>2026-04-25T08:59:13.702Z</time></trkpt><trkpt lat="43.405448" lon="11.2348491"><ele>263.0</ele><time>2026-04-25T08:59:16.783Z</time></trkpt><trkpt lat="43.4054657" lon="11.2347519"><ele>263.42857142857144</ele><time>2026-04-25T08:59:20.796Z</time></trkpt><trkpt lat="43.4054897" lon="11.2346713"><ele>263.85714285714283</ele><time>2026-04-25T08:59:23.712Z</time></trkpt><trkpt lat="43.4054963" lon="11.234578"><ele>264.2857142857143</ele><time>2026-04-25T08:59:26.718Z</time></trkpt><trkpt lat="43.4055108" lon="11.2344733"><ele>264.7142857142857</ele><time>2026-04-25T08:59:30.724Z</time></trkpt><trkpt lat="43.4055036" lon="11.2343753"><ele>265.1428571428571</ele><time>2026-04-25T08:59:33.713Z</time></trkpt><trkpt lat="43.405484" lon="11.2342589"><ele>265.57142857142856</ele><time>2026-04-25T08:59:36.711Z</time></trkpt><trkpt lat="43.4054714" lon="11.234154"><ele>266.0</ele><time>2026-04-25T08:59:41.788Z</time></trkpt><trkpt lat="43.405449" lon="11.2340364"><ele>266.5</ele><time>2026-04-25T08:59:44.712Z</time></trkpt><trkpt lat="43.4054508" lon="11.2339126"><ele>267.0</ele><time>2026-04-25T08:59:47.795Z</time></trkpt><trkpt lat="43.4054675" lon="11.233793"><ele>267.5</ele><time>2026-04-25T08:59:50.787Z</time></trkpt><trkpt lat="43.4054532" lon="11.2337055"><ele>268.0</ele><time>2026-04-25T08:59:53.702Z</time></trkpt><trkpt lat="43.4054519" lon="11.2336148"><ele>268.5</ele><time>2026-04-25T08:59:57.784Z</time></trkpt><trkpt lat="43.4054539" lon="11.233517"><ele>269.0</ele><time>2026-04-25T09:00:01.709Z</time></trkpt><trkpt lat="43.4054622" lon="11.233417"><ele>269.0</ele><time>2026-04-25T09:00:05.704Z</time></trkpt><trkpt lat="43.405477" lon="11.2333235"><ele>269.0</ele><time>2026-04-25T09:00:08.719Z</time></trkpt><trkpt lat="43.4054933" lon="11.2332386"><ele>269.0</ele><time>2026-04-25T09:00:12.787Z</time></trkpt><trkpt lat="43.4054936" lon="11.2331315"><ele>269.0</ele><time>2026-04-25T09:00:16.781Z</time></trkpt><trkpt lat="43.4055225" lon="11.2330301"><ele>269.0</ele><time>2026-04-25T09:00:21.791Z</time></trkpt><trkpt lat="43.4055485" lon="11.2329446"><ele>269.0</ele><time>2026-04-25T09:00:24.722Z</time></trkpt><trkpt lat="43.4055642" lon="11.2328554"><ele>269.0</ele><time>2026-04-25T09:00:27.786Z</time></trkpt><trkpt lat="43.4056075" lon="11.232779"><ele>271.14285714285717</ele><time>2026-04-25T09:00:30.789Z</time></trkpt><trkpt lat="43.4056393" lon="11.2326933"><ele>273.28571428571433</ele><time>2026-04-25T09:00:34.719Z</time></trkpt><trkpt lat="43.4056574" lon="11.2326099"><ele>275.42857142857144</ele><time>2026-04-25T09:00:37.713Z</time></trkpt><trkpt lat="43.405652" lon="11.232501"><ele>277.57142857142856</ele><time>2026-04-25T09:00:41.716Z</time></trkpt><trkpt lat="43.40567" lon="11.2324076"><ele>279.71428571428567</ele><time>2026-04-25T09:00:44.725Z</time></trkpt><trkpt lat="43.4056682" lon="11.2323045"><ele>281.85714285714283</ele><time>2026-04-25T09:00:48.691Z</time></trkpt><trkpt lat="43.4056791" lon="11.2322087"><ele>284.0</ele><time>2026-04-25T09:00:53.713Z</time></trkpt><trkpt lat="43.4057023" lon="11.2321147"><ele>284.85714285714283</ele><time>2026-04-25T09:00:57.698Z</time></trkpt><trkpt lat="43.405704" lon="11.2320187"><ele>285.71428571428567</ele><time>2026-04-25T09:01:01.797Z</time></trkpt><trkpt lat="43.4057174" lon="11.2319272"><ele>286.57142857142856</ele><time>2026-04-25T09:01:06.718Z</time></trkpt><trkpt lat="43.4057301" lon="11.2318237"><ele>287.42857142857144</ele><time>2026-04-25T09:01:10.711Z</time></trkpt><trkpt lat="43.4057357" lon="11.2317222"><ele>288.28571428571433</ele><time>2026-04-25T09:01:15.72Z</time></trkpt><trkpt lat="43.4057436" lon="11.2316274"><ele>289.14285714285717</ele><time>2026-04-25T09:01:18.724Z</time></trkpt><trkpt lat="43.4057623" lon="11.231538"><ele>290.0</ele><time>2026-04-25T09:01:21.785Z</time></trkpt><trkpt lat="43.4057919" lon="11.2314367"><ele>290.42857142857144</ele><time>2026-04-25T09:01:25.781Z</time></trkpt><trkpt lat="43.4058355" lon="11.2313405"><ele>290.8571428571429</ele><time>2026-04-25T09:01:29.716Z</time></trkpt><trkpt lat="43.4058608" lon="11.2312516"><ele>291.2857142857143</ele><time>2026-04-25T09:01:32.797Z</time></trkpt><trkpt lat="43.4058488" lon="11.2311482"><ele>291.7142857142857</ele><time>2026-04-25T09:01:36.706Z</time></trkpt><trkpt lat="43.4058549" lon="11.2310396"><ele>292.1428571428571</ele><time>2026-04-25T09:01:41.708Z</time></trkpt><trkpt lat="43.4058628" lon="11.2309514"><ele>292.57142857142856</ele><time>2026-04-25T09:01:45.716Z</time></trkpt><trkpt lat="43.4058672" lon="11.2308483"><ele>293.0</ele><time>2026-04-25T09:01:48.724Z</time></trkpt><trkpt lat="43.4058787" lon="11.2307593"><ele>292.99999999999994</ele><time>2026-04-25T09:01:51.734Z</time></trkpt><trkpt lat="43.4058852" lon="11.2306729"><ele>293.0</ele><time>2026-04-25T09:01:54.71Z</time></trkpt><trkpt lat="43.4058659" lon="11.230569"><ele>293.0</ele><time>2026-04-25T09:01:57.78Z</time></trkpt><trkpt lat="43.4058499" lon="11.2304781"><ele>293.0</ele><time>2026-04-25T09:02:00.712Z</time></trkpt><trkpt lat="43.4058704" lon="11.2303831"><ele>293.0</ele><time>2026-04-25T09:02:04.712Z</time></trkpt><trkpt lat="43.4058747" lon="11.230273"><ele>292.99999999999994</ele><time>2026-04-25T09:02:09.694Z</time></trkpt><trkpt lat="43.4058772" lon="11.2301813"><ele>293.0</ele><time>2026-04-25T09:02:14.711Z</time></trkpt><trkpt lat="43.4059105" lon="11.2300966"><ele>293.33333333333337</ele><time>2026-04-25T09:02:18.718Z</time></trkpt><trkpt lat="43.4059366" lon="11.2299984"><ele>293.6666666666667</ele><time>2026-04-25T09:02:21.712Z</time></trkpt><trkpt lat="43.405954" lon="11.2299123"><ele>294.0</ele><time>2026-04-25T09:02:23.708Z</time></trkpt><trkpt lat="43.4059909" lon="11.2298237"><ele>294.3333333333333</ele><time>2026-04-25T09:02:25.794Z</time></trkpt><trkpt lat="43.4060076" lon="11.2297393"><ele>294.66666666666663</ele><time>2026-04-25T09:02:27.793Z</time></trkpt><trkpt lat="43.4060269" lon="11.2296493"><ele>295.0</ele><time>2026-04-25T09:02:29.732Z</time></trkpt><trkpt lat="43.4060437" lon="11.2294808"><ele>295.0</ele><time>2026-04-25T09:02:31.779Z</time></trkpt><trkpt lat="43.4060489" lon="11.2293936"><ele>295.0</ele><time>2026-04-25T09:02:32.799Z</time></trkpt><trkpt lat="43.4060864" lon="11.2292343"><ele>295.0</ele><time>2026-04-25T09:02:34.726Z</time></trkpt><trkpt lat="43.4061294" lon="11.2291049"><ele>295.0</ele><time>2026-04-25T09:02:36.783Z</time></trkpt><trkpt lat="43.4061299" lon="11.2290095"><ele>295.0</ele><time>2026-04-25T09:02:37.789Z</time></trkpt><trkpt lat="43.4061258" lon="11.228868"><ele>294.4</ele><time>2026-04-25T09:02:39.717Z</time></trkpt><trkpt lat="43.4060959" lon="11.2287737"><ele>293.8</ele><time>2026-04-25T09:02:40.717Z</time></trkpt><trkpt lat="43.4060516" lon="11.2286343"><ele>293.2</ele><time>2026-04-25T09:02:42.794Z</time></trkpt><trkpt lat="43.4060148" lon="11.2285402"><ele>292.6</ele><time>2026-04-25T09:02:43.706Z</time></trkpt><trkpt lat="43.4059898" lon="11.228389"><ele>292.0</ele><time>2026-04-25T09:02:45.713Z</time></trkpt><trkpt lat="43.4059617" lon="11.228251"><ele>291.6</ele><time>2026-04-25T09:02:47.724Z</time></trkpt><trkpt lat="43.4059432" lon="11.2281342"><ele>291.2</ele><time>2026-04-25T09:02:49.71Z</time></trkpt><trkpt lat="43.4059272" lon="11.2279903"><ele>290.8</ele><time>2026-04-25T09:02:51.725Z</time></trkpt><trkpt lat="43.4059249" lon="11.2278931"><ele>290.4</ele><time>2026-04-25T09:02:53.723Z</time></trkpt><trkpt lat="43.4059411" lon="11.2277955"><ele>290.0</ele><time>2026-04-25T09:02:55.719Z</time></trkpt><trkpt lat="43.405959" lon="11.2276324"><ele>290.0</ele><time>2026-04-25T09:02:57.729Z</time></trkpt><trkpt lat="43.4059445" lon="11.2275372"><ele>290.0</ele><time>2026-04-25T09:02:58.716Z</time></trkpt><trkpt lat="43.4059442" lon="11.2273938"><ele>290.0</ele><time>2026-04-25T09:03:00.727Z</time></trkpt><trkpt lat="43.4059279" lon="11.2272605"><ele>290.0</ele><time>2026-04-25T09:03:02.798Z</time></trkpt><trkpt lat="43.4059383" lon="11.2270947"><ele>290.0</ele><time>2026-04-25T09:03:04.723Z</time></trkpt><trkpt lat="43.4059133" lon="11.2269252"><ele>289.83333333333337</ele><time>2026-04-25T09:03:06.801Z</time></trkpt><trkpt lat="43.4059031" lon="11.2268365"><ele>289.6666666666667</ele><time>2026-04-25T09:03:07.785Z</time></trkpt><trkpt lat="43.4058813" lon="11.2266801"><ele>289.5</ele><time>2026-04-25T09:03:09.717Z</time></trkpt><trkpt lat="43.4058691" lon="11.2265857"><ele>289.3333333333333</ele><time>2026-04-25T09:03:10.793Z</time></trkpt><trkpt lat="43.4058618" lon="11.226493"><ele>289.16666666666663</ele><time>2026-04-25T09:03:11.786Z</time></trkpt><trkpt lat="43.4058568" lon="11.2263758"><ele>289.0</ele><time>2026-04-25T09:03:12.795Z</time></trkpt><trkpt lat="43.4058549" lon="11.2262664"><ele>288.0</ele><time>2026-04-25T09:03:13.712Z</time></trkpt><trkpt lat="43.4058457" lon="11.2261666"><ele>287.0</ele><time>2026-04-25T09:03:14.714Z</time></trkpt><trkpt lat="43.4058375" lon="11.2260611"><ele>286.0</ele><time>2026-04-25T09:03:15.789Z</time></trkpt><trkpt lat="43.4058301" lon="11.2259646"><ele>285.0</ele><time>2026-04-25T09:03:16.788Z</time></trkpt><trkpt lat="43.4058343" lon="11.2257965"><ele>284.0</ele><time>2026-04-25T09:03:18.72Z</time></trkpt><trkpt lat="43.4058294" lon="11.2257056"><ele>283.0</ele><time>2026-04-25T09:03:19.71Z</time></trkpt><trkpt lat="43.4058108" lon="11.2255994"><ele>282.7142857142857</ele><time>2026-04-25T09:03:20.794Z</time></trkpt><trkpt lat="43.4058033" lon="11.2254702"><ele>282.42857142857144</ele><time>2026-04-25T09:03:21.782Z</time></trkpt><trkpt lat="43.4057996" lon="11.2253767"><ele>282.14285714285717</ele><time>2026-04-25T09:03:22.704Z</time></trkpt><trkpt lat="43.4057966" lon="11.2252767"><ele>281.8571428571429</ele><time>2026-04-25T09:03:23.705Z</time></trkpt><trkpt lat="43.4057958" lon="11.2251895"><ele>281.57142857142856</ele><time>2026-04-25T09:03:24.713Z</time></trkpt><trkpt lat="43.4058017" lon="11.225099"><ele>281.28571428571433</ele><time>2026-04-25T09:03:25.715Z</time></trkpt><trkpt lat="43.4058043" lon="11.225011"><ele>281.0</ele><time>2026-04-25T09:03:26.724Z</time></trkpt><trkpt lat="43.4058018" lon="11.2248423"><ele>280.83333333333337</ele><time>2026-04-25T09:03:28.718Z</time></trkpt><trkpt lat="43.4058072" lon="11.2247557"><ele>280.6666666666667</ele><time>2026-04-25T09:03:29.713Z</time></trkpt><trkpt lat="43.4058038" lon="11.2246561"><ele>280.5</ele><time>2026-04-25T09:03:30.713Z</time></trkpt><trkpt lat="43.405805" lon="11.22455"><ele>280.3333333333333</ele><time>2026-04-25T09:03:31.723Z</time></trkpt><trkpt lat="43.4057958" lon="11.2244603"><ele>280.16666666666663</ele><time>2026-04-25T09:03:32.712Z</time></trkpt><trkpt lat="43.4057958" lon="11.2242748"><ele>280.0</ele><time>2026-04-25T09:03:34.699Z</time></trkpt><trkpt lat="43.4058065" lon="11.2241024"><ele>280.0</ele><time>2026-04-25T09:03:36.794Z</time></trkpt><trkpt lat="43.4058093" lon="11.2240141"><ele>280.0</ele><time>2026-04-25T09:03:37.787Z</time></trkpt><trkpt lat="43.4058245" lon="11.2238429"><ele>280.0</ele><time>2026-04-25T09:03:39.719Z</time></trkpt><trkpt lat="43.4058238" lon="11.223746"><ele>280.0</ele><time>2026-04-25T09:03:40.785Z</time></trkpt><trkpt lat="43.4058204" lon="11.2236532"><ele>280.0</ele><time>2026-04-25T09:03:41.705Z</time></trkpt><trkpt lat="43.4058055" lon="11.2235168"><ele>280.0</ele><time>2026-04-25T09:03:43.696Z</time></trkpt><trkpt lat="43.4057902" lon="11.2233831"><ele>279.8</ele><time>2026-04-25T09:03:45.783Z</time></trkpt><trkpt lat="43.4057877" lon="11.2232751"><ele>279.6</ele><time>2026-04-25T09:03:47.793Z</time></trkpt><trkpt lat="43.4058021" lon="11.2231793"><ele>279.4</ele><time>2026-04-25T09:03:49.704Z</time></trkpt><trkpt lat="43.4057988" lon="11.2230455"><ele>279.2</ele><time>2026-04-25T09:03:51.71Z</time></trkpt><trkpt lat="43.4058318" lon="11.2228222"><ele>279.0</ele><time>2026-04-25T09:03:54.712Z</time></trkpt><trkpt lat="43.4058287" lon="11.2227222"><ele>277.6666666666667</ele><time>2026-04-25T09:03:55.711Z</time></trkpt><trkpt lat="43.4058343" lon="11.2225988"><ele>276.3333333333333</ele><time>2026-04-25T09:03:56.799Z</time></trkpt><trkpt lat="43.4058421" lon="11.2225012"><ele>275.0</ele><time>2026-04-25T09:03:57.779Z</time></trkpt><trkpt lat="43.4058578" lon="11.2223976"><ele>273.66666666666663</ele><time>2026-04-25T09:03:58.702Z</time></trkpt><trkpt lat="43.4058761" lon="11.2222595"><ele>272.3333333333333</ele><time>2026-04-25T09:03:59.716Z</time></trkpt><trkpt lat="43.4058939" lon="11.2221469"><ele>271.0</ele><time>2026-04-25T09:04:00.717Z</time></trkpt><trkpt lat="43.4059159" lon="11.2220591"><ele>270.40000000000003</ele><time>2026-04-25T09:04:01.713Z</time></trkpt><trkpt lat="43.405948" lon="11.2219719"><ele>269.8</ele><time>2026-04-25T09:04:02.714Z</time></trkpt><trkpt lat="43.4059847" lon="11.221892"><ele>269.20000000000005</ele><time>2026-04-25T09:04:03.716Z</time></trkpt><trkpt lat="43.4060375" lon="11.2217466"><ele>268.6</ele><time>2026-04-25T09:04:05.707Z</time></trkpt><trkpt lat="43.4061255" lon="11.221652"><ele>268.0</ele><time>2026-04-25T09:04:07.793Z</time></trkpt><trkpt lat="43.4062313" lon="11.2215897"><ele>268.0</ele><time>2026-04-25T09:04:09.724Z</time></trkpt><trkpt lat="43.4063246" lon="11.2215758"><ele>268.0</ele><time>2026-04-25T09:04:11.718Z</time></trkpt><trkpt lat="43.4064209" lon="11.2215737"><ele>268.0</ele><time>2026-04-25T09:04:13.71Z</time></trkpt><trkpt lat="43.4065227" lon="11.2215912"><ele>268.0</ele><time>2026-04-25T09:04:15.721Z</time></trkpt><trkpt lat="43.4066256" lon="11.2216085"><ele>268.0</ele><time>2026-04-25T09:04:17.789Z</time></trkpt><trkpt lat="43.4067263" lon="11.2216201"><ele>268.5</ele><time>2026-04-25T09:04:19.698Z</time></trkpt><trkpt lat="43.4068252" lon="11.2216319"><ele>269.0</ele><time>2026-04-25T09:04:21.79Z</time></trkpt><trkpt lat="43.406896" lon="11.2216337"><ele>269.5</ele><time>2026-04-25T09:04:24.709Z</time></trkpt><trkpt lat="43.4069632" lon="11.2215733"><ele>270.0</ele><time>2026-04-25T09:04:26.786Z</time></trkpt><trkpt lat="43.4070108" lon="11.2215033"><ele>270.5</ele><time>2026-04-25T09:04:28.692Z</time></trkpt><trkpt lat="43.4070386" lon="11.2213866"><ele>271.0</ele><time>2026-04-25T09:04:30.752Z</time></trkpt><trkpt lat="43.4070764" lon="11.2212961"><ele>271.0</ele><time>2026-04-25T09:04:32.715Z</time></trkpt><trkpt lat="43.4071389" lon="11.2212127"><ele>271.0</ele><time>2026-04-25T09:04:34.718Z</time></trkpt><trkpt lat="43.4072157" lon="11.221128"><ele>271.0</ele><time>2026-04-25T09:04:36.716Z</time></trkpt><trkpt lat="43.4072699" lon="11.2210798"><ele>271.0</ele><time>2026-04-25T09:04:37.717Z</time></trkpt><trkpt lat="43.4073875" lon="11.2210414"><ele>271.0</ele><time>2026-04-25T09:04:39.709Z</time></trkpt><trkpt lat="43.4074721" lon="11.2210397"><ele>268.0</ele><time>2026-04-25T09:04:40.721Z</time></trkpt><trkpt lat="43.4075531" lon="11.2210495"><ele>265.0</ele><time>2026-04-25T09:04:41.709Z</time></trkpt><trkpt lat="43.4076218" lon="11.2210753"><ele>262.0</ele><time>2026-04-25T09:04:42.705Z</time></trkpt><trkpt lat="43.4076779" lon="11.2211174"><ele>259.0</ele><time>2026-04-25T09:04:43.728Z</time></trkpt><trkpt lat="43.4077639" lon="11.2212107"><ele>255.99999999999997</ele><time>2026-04-25T09:04:45.703Z</time></trkpt><trkpt lat="43.4078463" lon="11.2212827"><ele>253.0</ele><time>2026-04-25T09:04:47.78Z</time></trkpt><trkpt lat="43.4079502" lon="11.2213004"><ele>250.0</ele><time>2026-04-25T09:04:49.707Z</time></trkpt><trkpt lat="43.4080085" lon="11.2212637"><ele>247.0</ele><time>2026-04-25T09:04:50.799Z</time></trkpt><trkpt lat="43.4080758" lon="11.2211264"><ele>244.0</ele><time>2026-04-25T09:04:52.794Z</time></trkpt><trkpt lat="43.4081072" lon="11.221051"><ele>241.0</ele><time>2026-04-25T09:04:53.71Z</time></trkpt><trkpt lat="43.4081613" lon="11.2209192"><ele>238.0</ele><time>2026-04-25T09:04:55.784Z</time></trkpt><trkpt lat="43.4081409" lon="11.2207411"><ele>237.60000000000002</ele><time>2026-04-25T09:04:57.799Z</time></trkpt><trkpt lat="43.4081737" lon="11.2205771"><ele>237.20000000000002</ele><time>2026-04-25T09:04:59.723Z</time></trkpt><trkpt lat="43.4081897" lon="11.22046"><ele>236.8</ele><time>2026-04-25T09:05:01.794Z</time></trkpt><trkpt lat="43.408216" lon="11.2203522"><ele>236.4</ele><time>2026-04-25T09:05:04.719Z</time></trkpt><trkpt lat="43.4082762" lon="11.2202953"><ele>236.0</ele><time>2026-04-25T09:05:07.725Z</time></trkpt><trkpt lat="43.4083731" lon="11.2202774"><ele>236.00000000000003</ele><time>2026-04-25T09:05:10.718Z</time></trkpt><trkpt lat="43.4084515" lon="11.2202865"><ele>236.0</ele><time>2026-04-25T09:05:12.71Z</time></trkpt><trkpt lat="43.408535" lon="11.2203212"><ele>236.0</ele><time>2026-04-25T09:05:13.716Z</time></trkpt><trkpt lat="43.4085989" lon="11.2203437"><ele>236.0</ele><time>2026-04-25T09:05:14.714Z</time></trkpt><trkpt lat="43.4087172" lon="11.2203549"><ele>236.00000000000003</ele><time>2026-04-25T09:05:16.725Z</time></trkpt><trkpt lat="43.4088146" lon="11.2203701"><ele>236.0</ele><time>2026-04-25T09:05:18.702Z</time></trkpt><trkpt lat="43.4089146" lon="11.2203769"><ele>234.66666666666669</ele><time>2026-04-25T09:05:20.785Z</time></trkpt><trkpt lat="43.4089774" lon="11.220352"><ele>233.33333333333334</ele><time>2026-04-25T09:05:21.786Z</time></trkpt><trkpt lat="43.4090742" lon="11.2203318"><ele>232.0</ele><time>2026-04-25T09:05:23.71Z</time></trkpt><trkpt lat="43.4091375" lon="11.2202956"><ele>230.66666666666669</ele><time>2026-04-25T09:05:24.721Z</time></trkpt><trkpt lat="43.4092088" lon="11.2202532"><ele>229.33333333333334</ele><time>2026-04-25T09:05:25.798Z</time></trkpt><trkpt lat="43.4092738" lon="11.2201975"><ele>228.0</ele><time>2026-04-25T09:05:26.793Z</time></trkpt><trkpt lat="43.4093277" lon="11.2201385"><ele>228.0</ele><time>2026-04-25T09:05:27.796Z</time></trkpt><trkpt lat="43.4093799" lon="11.2200151"><ele>228.0</ele><time>2026-04-25T09:05:29.714Z</time></trkpt><trkpt lat="43.4093707" lon="11.2198578"><ele>228.0</ele><time>2026-04-25T09:05:31.725Z</time></trkpt><trkpt lat="43.4093369" lon="11.2197248"><ele>228.0</ele><time>2026-04-25T09:05:33.701Z</time></trkpt><trkpt lat="43.4093189" lon="11.2196122"><ele>228.0</ele><time>2026-04-25T09:05:35.79Z</time></trkpt><trkpt lat="43.4092921" lon="11.2194922"><ele>228.2</ele><time>2026-04-25T09:05:37.797Z</time></trkpt><trkpt lat="43.4092686" lon="11.2193957"><ele>228.4</ele><time>2026-04-25T09:05:40.717Z</time></trkpt><trkpt lat="43.4092407" lon="11.2192657"><ele>228.59999999999997</ele><time>2026-04-25T09:05:42.71Z</time></trkpt><trkpt lat="43.4092371" lon="11.2191408"><ele>228.79999999999998</ele><time>2026-04-25T09:05:44.71Z</time></trkpt><trkpt lat="43.4091937" lon="11.2190065"><ele>229.0</ele><time>2026-04-25T09:05:46.716Z</time></trkpt><trkpt lat="43.4091462" lon="11.2188974"><ele>228.6</ele><time>2026-04-25T09:05:48.708Z</time></trkpt><trkpt lat="43.4091225" lon="11.2187637"><ele>228.2</ele><time>2026-04-25T09:05:51.784Z</time></trkpt><trkpt lat="43.4091413" lon="11.21864"><ele>227.79999999999998</ele><time>2026-04-25T09:05:54.71Z</time></trkpt><trkpt lat="43.4091891" lon="11.2185286"><ele>227.39999999999998</ele><time>2026-04-25T09:05:56.79Z</time></trkpt><trkpt lat="43.4092366" lon="11.2184271"><ele>227.0</ele><time>2026-04-25T09:05:58.737Z</time></trkpt><trkpt lat="43.4092719" lon="11.2183135"><ele>227.00000000000003</ele><time>2026-04-25T09:06:01.794Z</time></trkpt><trkpt lat="43.4092905" lon="11.2182146"><ele>227.0</ele><time>2026-04-25T09:06:04.722Z</time></trkpt><trkpt lat="43.409319" lon="11.2181351"><ele>227.0</ele><time>2026-04-25T09:06:06.795Z</time></trkpt><trkpt lat="43.4093701" lon="11.2180438"><ele>227.0</ele><time>2026-04-25T09:06:08.697Z</time></trkpt><trkpt lat="43.4094212" lon="11.2178821"><ele>227.00000000000003</ele><time>2026-04-25T09:06:10.789Z</time></trkpt><trkpt lat="43.4094415" lon="11.2177946"><ele>227.0</ele><time>2026-04-25T09:06:11.798Z</time></trkpt><trkpt lat="43.4094635" lon="11.2176966"><ele>225.66666666666669</ele><time>2026-04-25T09:06:12.798Z</time></trkpt><trkpt lat="43.4095006" lon="11.2176085"><ele>224.33333333333334</ele><time>2026-04-25T09:06:13.699Z</time></trkpt><trkpt lat="43.4095424" lon="11.2175393"><ele>223.0</ele><time>2026-04-25T09:06:14.719Z</time></trkpt><trkpt lat="43.4095734" lon="11.2174535"><ele>221.66666666666669</ele><time>2026-04-25T09:06:15.696Z</time></trkpt><trkpt lat="43.4096127" lon="11.2173732"><ele>220.33333333333334</ele><time>2026-04-25T09:06:16.724Z</time></trkpt><trkpt lat="43.4097067" lon="11.2172596"><ele>219.0</ele><time>2026-04-25T09:06:18.71Z</time></trkpt><trkpt lat="43.4098048" lon="11.2171459"><ele>218.79999999999998</ele><time>2026-04-25T09:06:20.725Z</time></trkpt><trkpt lat="43.4098799" lon="11.2170385"><ele>218.59999999999997</ele><time>2026-04-25T09:06:22.716Z</time></trkpt><trkpt lat="43.4099424" lon="11.216937"><ele>218.4</ele><time>2026-04-25T09:06:24.716Z</time></trkpt><trkpt lat="43.4100335" lon="11.2168229"><ele>218.2</ele><time>2026-04-25T09:06:26.699Z</time></trkpt><trkpt lat="43.4101429" lon="11.2167568"><ele>218.0</ele><time>2026-04-25T09:06:28.713Z</time></trkpt><trkpt lat="43.410239" lon="11.216711"><ele>218.0</ele><time>2026-04-25T09:06:30.758Z</time></trkpt><trkpt lat="43.4103351" lon="11.216647"><ele>218.0</ele><time>2026-04-25T09:06:32.794Z</time></trkpt><trkpt lat="43.4104153" lon="11.216609"><ele>218.0</ele><time>2026-04-25T09:06:34.701Z</time></trkpt><trkpt lat="43.4105097" lon="11.216612"><ele>218.0</ele><time>2026-04-25T09:06:36.784Z</time></trkpt><trkpt lat="43.4106022" lon="11.2166208"><ele>218.0</ele><time>2026-04-25T09:06:37.79Z</time></trkpt><trkpt lat="43.4106771" lon="11.2166203"><ele>217.0</ele><time>2026-04-25T09:06:38.717Z</time></trkpt><trkpt lat="43.4107905" lon="11.2165757"><ele>216.0</ele><time>2026-04-25T09:06:40.801Z</time></trkpt><trkpt lat="43.4108939" lon="11.2165591"><ele>215.0</ele><time>2026-04-25T09:06:42.791Z</time></trkpt><trkpt lat="43.4109865" lon="11.2165367"><ele>214.0</ele><time>2026-04-25T09:06:44.711Z</time></trkpt><trkpt lat="43.411094" lon="11.2165337"><ele>213.0</ele><time>2026-04-25T09:06:46.789Z</time></trkpt><trkpt lat="43.4112137" lon="11.2165379"><ele>210.0</ele><time>2026-04-25T09:06:48.696Z</time></trkpt><trkpt lat="43.4113453" lon="11.2165401"><ele>207.0</ele><time>2026-04-25T09:06:50.725Z</time></trkpt><trkpt lat="43.4114557" lon="11.2165399"><ele>204.0</ele><time>2026-04-25T09:06:52.731Z</time></trkpt><trkpt lat="43.4115639" lon="11.2165677"><ele>201.0</ele><time>2026-04-25T09:06:54.727Z</time></trkpt><trkpt lat="43.4116301" lon="11.216612"><ele>198.0</ele><time>2026-04-25T09:06:55.722Z</time></trkpt><trkpt lat="43.4117154" lon="11.2167279"><ele>198.0</ele><time>2026-04-25T09:06:57.709Z</time></trkpt><trkpt lat="43.4117624" lon="11.2168505"><ele>198.0</ele><time>2026-04-25T09:06:59.713Z</time></trkpt><trkpt lat="43.4117948" lon="11.2169928"><ele>198.0</ele><time>2026-04-25T09:07:01.722Z</time></trkpt><trkpt lat="43.4118399" lon="11.2171533"><ele>198.0</ele><time>2026-04-25T09:07:03.725Z</time></trkpt><trkpt lat="43.4118683" lon="11.2172495"><ele>198.0</ele><time>2026-04-25T09:07:04.721Z</time></trkpt><trkpt lat="43.4118904" lon="11.2173393"><ele>199.2</ele><time>2026-04-25T09:07:05.791Z</time></trkpt><trkpt lat="43.4119129" lon="11.2174264"><ele>200.4</ele><time>2026-04-25T09:07:06.79Z</time></trkpt><trkpt lat="43.411956" lon="11.2175833"><ele>201.6</ele><time>2026-04-25T09:07:08.708Z</time></trkpt><trkpt lat="43.4120063" lon="11.2177156"><ele>202.79999999999998</ele><time>2026-04-25T09:07:10.795Z</time></trkpt><trkpt lat="43.4120762" lon="11.2178338"><ele>204.0</ele><time>2026-04-25T09:07:12.716Z</time></trkpt><trkpt lat="43.4121811" lon="11.2178863"><ele>201.5</ele><time>2026-04-25T09:07:14.723Z</time></trkpt><trkpt lat="43.4122557" lon="11.2178712"><ele>199.0</ele><time>2026-04-25T09:07:15.791Z</time></trkpt><trkpt lat="43.4123179" lon="11.2178431"><ele>196.5</ele><time>2026-04-25T09:07:16.783Z</time></trkpt><trkpt lat="43.4123911" lon="11.2178042"><ele>194.0</ele><time>2026-04-25T09:07:17.727Z</time></trkpt><trkpt lat="43.4124634" lon="11.2177579"><ele>191.5</ele><time>2026-04-25T09:07:18.743Z</time></trkpt><trkpt lat="43.4125415" lon="11.2177188"><ele>189.0</ele><time>2026-04-25T09:07:19.718Z</time></trkpt><trkpt lat="43.4126217" lon="11.2176812"><ele>189.0</ele><time>2026-04-25T09:07:20.793Z</time></trkpt><trkpt lat="43.412687" lon="11.2176351"><ele>189.0</ele><time>2026-04-25T09:07:21.714Z</time></trkpt><trkpt lat="43.4127469" lon="11.2175938"><ele>189.0</ele><time>2026-04-25T09:07:22.788Z</time></trkpt><trkpt lat="43.4128481" lon="11.2175209"><ele>189.0</ele><time>2026-04-25T09:07:24.717Z</time></trkpt><trkpt lat="43.412946" lon="11.2174576"><ele>189.0</ele><time>2026-04-25T09:07:26.703Z</time></trkpt><trkpt lat="43.413001" lon="11.217413"><ele>189.0</ele><time>2026-04-25T09:07:27.713Z</time></trkpt><trkpt lat="43.4130646" lon="11.2173717"><ele>188.6</ele><time>2026-04-25T09:07:28.73Z</time></trkpt><trkpt lat="43.4131212" lon="11.2173242"><ele>188.2</ele><time>2026-04-25T09:07:29.72Z</time></trkpt><trkpt lat="43.4132026" lon="11.2172448"><ele>187.79999999999998</ele><time>2026-04-25T09:07:31.719Z</time></trkpt><trkpt lat="43.4132856" lon="11.217154"><ele>187.39999999999998</ele><time>2026-04-25T09:07:33.716Z</time></trkpt><trkpt lat="43.4133736" lon="11.2170644"><ele>187.0</ele><time>2026-04-25T09:07:35.718Z</time></trkpt><trkpt lat="43.4134666" lon="11.2169646"><ele>186.8</ele><time>2026-04-25T09:07:37.713Z</time></trkpt><trkpt lat="43.4135552" lon="11.2168669"><ele>186.6</ele><time>2026-04-25T09:07:39.711Z</time></trkpt><trkpt lat="43.4136455" lon="11.2167731"><ele>186.4</ele><time>2026-04-25T09:07:41.695Z</time></trkpt><trkpt lat="43.4137384" lon="11.2166842"><ele>186.20000000000002</ele><time>2026-04-25T09:07:43.706Z</time></trkpt><trkpt lat="43.4138306" lon="11.2166087"><ele>186.0</ele><time>2026-04-25T09:07:45.736Z</time></trkpt><trkpt lat="43.4139242" lon="11.2165433"><ele>185.4</ele><time>2026-04-25T09:07:47.794Z</time></trkpt><trkpt lat="43.414004" lon="11.2164477"><ele>184.8</ele><time>2026-04-25T09:07:49.725Z</time></trkpt><trkpt lat="43.4140869" lon="11.2163447"><ele>184.20000000000002</ele><time>2026-04-25T09:07:51.794Z</time></trkpt><trkpt lat="43.4141548" lon="11.2162496"><ele>183.60000000000002</ele><time>2026-04-25T09:07:53.724Z</time></trkpt><trkpt lat="43.4142377" lon="11.2161626"><ele>183.0</ele><time>2026-04-25T09:07:55.79Z</time></trkpt><trkpt lat="43.4143171" lon="11.2160854"><ele>183.0</ele><time>2026-04-25T09:07:57.782Z</time></trkpt><trkpt lat="43.4143873" lon="11.2160014"><ele>183.0</ele><time>2026-04-25T09:07:59.707Z</time></trkpt><trkpt lat="43.4144477" lon="11.21593"><ele>183.0</ele><time>2026-04-25T09:08:01.786Z</time></trkpt><trkpt lat="43.4144966" lon="11.2158564"><ele>183.0</ele><time>2026-04-25T09:08:03.731Z</time></trkpt><trkpt lat="43.41456" lon="11.2157772"><ele>183.0</ele><time>2026-04-25T09:08:05.711Z</time></trkpt><trkpt lat="43.4146167" lon="11.2157145"><ele>183.0</ele><time>2026-04-25T09:08:07.719Z</time></trkpt><trkpt lat="43.4146816" lon="11.2156523"><ele>183.0</ele><time>2026-04-25T09:08:09.712Z</time></trkpt><trkpt lat="43.4147334" lon="11.2155859"><ele>183.0</ele><time>2026-04-25T09:08:11.713Z</time></trkpt><trkpt lat="43.4147815" lon="11.2155213"><ele>183.0</ele><time>2026-04-25T09:08:13.722Z</time></trkpt><trkpt lat="43.4148343" lon="11.2154415"><ele>183.0</ele><time>2026-04-25T09:08:15.802Z</time></trkpt><trkpt lat="43.4148788" lon="11.215379"><ele>183.0</ele><time>2026-04-25T09:08:17.789Z</time></trkpt><trkpt lat="43.41494" lon="11.215321"><ele>183.0</ele><time>2026-04-25T09:08:19.727Z</time></trkpt><trkpt lat="43.415034" lon="11.215251"><ele>183.0</ele><time>2026-04-25T09:08:21.789Z</time></trkpt><trkpt lat="43.4151224" lon="11.2151923"><ele>183.0</ele><time>2026-04-25T09:08:23.702Z</time></trkpt><trkpt lat="43.4151912" lon="11.2150974"><ele>183.0</ele><time>2026-04-25T09:08:26.723Z</time></trkpt><trkpt lat="43.4152603" lon="11.2150041"><ele>183.0</ele><time>2026-04-25T09:08:28.704Z</time></trkpt><trkpt lat="43.4153191" lon="11.2149032"><ele>183.0</ele><time>2026-04-25T09:08:30.724Z</time></trkpt><trkpt lat="43.4153911" lon="11.214801"><ele>182.4</ele><time>2026-04-25T09:08:32.794Z</time></trkpt><trkpt lat="43.4154733" lon="11.21472"><ele>181.8</ele><time>2026-04-25T09:08:34.714Z</time></trkpt><trkpt lat="43.4155747" lon="11.2146338"><ele>181.2</ele><time>2026-04-25T09:08:36.699Z</time></trkpt><trkpt lat="43.415697" lon="11.2145623"><ele>180.6</ele><time>2026-04-25T09:08:38.705Z</time></trkpt><trkpt lat="43.4157655" lon="11.2145356"><ele>180.0</ele><time>2026-04-25T09:08:39.716Z</time></trkpt><trkpt lat="43.415833" lon="11.2145248"><ele>180.0</ele><time>2026-04-25T09:08:40.708Z</time></trkpt><trkpt lat="43.415896" lon="11.2145214"><ele>180.0</ele><time>2026-04-25T09:08:41.706Z</time></trkpt><trkpt lat="43.4159604" lon="11.2145207"><ele>180.0</ele><time>2026-04-25T09:08:42.718Z</time></trkpt><trkpt lat="43.4160884" lon="11.2145238"><ele>180.0</ele><time>2026-04-25T09:08:44.714Z</time></trkpt><trkpt lat="43.4161569" lon="11.2145363"><ele>180.0</ele><time>2026-04-25T09:08:45.716Z</time></trkpt><trkpt lat="43.4162714" lon="11.2145563"><ele>180.0</ele><time>2026-04-25T09:08:47.723Z</time></trkpt><trkpt lat="43.4163669" lon="11.2145583"><ele>179.4</ele><time>2026-04-25T09:08:49.72Z</time></trkpt><trkpt lat="43.4164791" lon="11.2145669"><ele>178.8</ele><time>2026-04-25T09:08:51.793Z</time></trkpt><trkpt lat="43.4165736" lon="11.214611"><ele>178.2</ele><time>2026-04-25T09:08:53.719Z</time></trkpt><trkpt lat="43.416664" lon="11.2146194"><ele>177.6</ele><time>2026-04-25T09:08:55.733Z</time></trkpt><trkpt lat="43.4167526" lon="11.2146208"><ele>177.0</ele><time>2026-04-25T09:08:57.784Z</time></trkpt><trkpt lat="43.4168402" lon="11.2146196"><ele>177.0</ele><time>2026-04-25T09:08:59.715Z</time></trkpt><trkpt lat="43.4169583" lon="11.2146232"><ele>177.0</ele><time>2026-04-25T09:09:01.79Z</time></trkpt><trkpt lat="43.4170547" lon="11.2146268"><ele>177.0</ele><time>2026-04-25T09:09:03.722Z</time></trkpt><trkpt lat="43.4171377" lon="11.2146387"><ele>177.0</ele><time>2026-04-25T09:09:05.788Z</time></trkpt><trkpt lat="43.4172256" lon="11.2146676"><ele>177.0</ele><time>2026-04-25T09:09:07.795Z</time></trkpt><trkpt lat="43.4173086" lon="11.2146988"><ele>177.0</ele><time>2026-04-25T09:09:09.724Z</time></trkpt><trkpt lat="43.4173955" lon="11.2146988"><ele>177.0</ele><time>2026-04-25T09:09:11.786Z</time></trkpt><trkpt lat="43.4174636" lon="11.214785"><ele>177.0</ele><time>2026-04-25T09:09:14.714Z</time></trkpt><trkpt lat="43.4174915" lon="11.2148634"><ele>177.0</ele><time>2026-04-25T09:09:16.717Z</time></trkpt><trkpt lat="43.4175187" lon="11.2149697"><ele>177.0</ele><time>2026-04-25T09:09:18.72Z</time></trkpt><trkpt lat="43.4175576" lon="11.2150916"><ele>177.0</ele><time>2026-04-25T09:09:20.721Z</time></trkpt><trkpt lat="43.4175893" lon="11.2152115"><ele>177.0</ele><time>2026-04-25T09:09:22.717Z</time></trkpt><trkpt lat="43.4176215" lon="11.2153368"><ele>177.0</ele><time>2026-04-25T09:09:24.699Z</time></trkpt><trkpt lat="43.4176511" lon="11.2154644"><ele>177.0</ele><time>2026-04-25T09:09:26.721Z</time></trkpt><trkpt lat="43.4177012" lon="11.2155862"><ele>177.0</ele><time>2026-04-25T09:09:28.722Z</time></trkpt><trkpt lat="43.4177491" lon="11.215708"><ele>177.0</ele><time>2026-04-25T09:09:30.71Z</time></trkpt><trkpt lat="43.4177927" lon="11.2158157"><ele>177.33333333333334</ele><time>2026-04-25T09:09:32.782Z</time></trkpt><trkpt lat="43.4178305" lon="11.2159266"><ele>177.66666666666666</ele><time>2026-04-25T09:09:34.719Z</time></trkpt><trkpt lat="43.4178684" lon="11.2160299"><ele>178.0</ele><time>2026-04-25T09:09:36.796Z</time></trkpt><trkpt lat="43.4179139" lon="11.2161345"><ele>178.33333333333331</ele><time>2026-04-25T09:09:39.722Z</time></trkpt><trkpt lat="43.4179598" lon="11.216257"><ele>178.66666666666666</ele><time>2026-04-25T09:09:42.786Z</time></trkpt><trkpt lat="43.4179878" lon="11.2163371"><ele>179.0</ele><time>2026-04-25T09:09:44.718Z</time></trkpt><trkpt lat="43.4180183" lon="11.216421"><ele>179.85714285714286</ele><time>2026-04-25T09:09:46.699Z</time></trkpt><trkpt lat="43.4180493" lon="11.2165072"><ele>180.71428571428572</ele><time>2026-04-25T09:09:48.714Z</time></trkpt><trkpt lat="43.4180784" lon="11.2165844"><ele>181.57142857142856</ele><time>2026-04-25T09:09:50.72Z</time></trkpt><trkpt lat="43.4181127" lon="11.2166627"><ele>182.42857142857144</ele><time>2026-04-25T09:09:52.721Z</time></trkpt><trkpt lat="43.4181466" lon="11.2167433"><ele>183.28571428571428</ele><time>2026-04-25T09:09:54.715Z</time></trkpt><trkpt lat="43.4181786" lon="11.2168214"><ele>184.14285714285714</ele><time>2026-04-25T09:09:56.715Z</time></trkpt><trkpt lat="43.4182221" lon="11.2169362"><ele>185.0</ele><time>2026-04-25T09:09:59.729Z</time></trkpt><trkpt lat="43.4182612" lon="11.2170384"><ele>185.0</ele><time>2026-04-25T09:10:02.785Z</time></trkpt><trkpt lat="43.4183045" lon="11.2171307"><ele>185.0</ele><time>2026-04-25T09:10:05.709Z</time></trkpt><trkpt lat="43.4183433" lon="11.2172312"><ele>185.0</ele><time>2026-04-25T09:10:08.709Z</time></trkpt><trkpt lat="43.418375" lon="11.2173204"><ele>185.0</ele><time>2026-04-25T09:10:10.794Z</time></trkpt><trkpt lat="43.4184135" lon="11.2174091"><ele>185.0</ele><time>2026-04-25T09:10:12.796Z</time></trkpt><trkpt lat="43.4184617" lon="11.2175221"><ele>185.0</ele><time>2026-04-25T09:10:15.801Z</time></trkpt><trkpt lat="43.4185016" lon="11.2176259"><ele>185.5</ele><time>2026-04-25T09:10:18.723Z</time></trkpt><trkpt lat="43.4185499" lon="11.2177471"><ele>186.0</ele><time>2026-04-25T09:10:21.791Z</time></trkpt><trkpt lat="43.4185785" lon="11.2178545"><ele>186.5</ele><time>2026-04-25T09:10:23.706Z</time></trkpt><trkpt lat="43.4186065" lon="11.2179532"><ele>187.0</ele><time>2026-04-25T09:10:25.695Z</time></trkpt><trkpt lat="43.4186431" lon="11.2180613"><ele>187.5</ele><time>2026-04-25T09:10:28.718Z</time></trkpt><trkpt lat="43.4186913" lon="11.2181633"><ele>188.0</ele><time>2026-04-25T09:10:31.724Z</time></trkpt><trkpt lat="43.4187335" lon="11.2182689"><ele>188.42857142857142</ele><time>2026-04-25T09:10:34.732Z</time></trkpt><trkpt lat="43.4187908" lon="11.2183808"><ele>188.85714285714283</ele><time>2026-04-25T09:10:37.729Z</time></trkpt><trkpt lat="43.4188249" lon="11.2184557"><ele>189.28571428571428</ele><time>2026-04-25T09:10:39.722Z</time></trkpt><trkpt lat="43.4188615" lon="11.2185306"><ele>189.71428571428572</ele><time>2026-04-25T09:10:41.702Z</time></trkpt><trkpt lat="43.4189081" lon="11.2185892"><ele>190.14285714285714</ele><time>2026-04-25T09:10:43.726Z</time></trkpt><trkpt lat="43.4189561" lon="11.2186545"><ele>190.57142857142858</ele><time>2026-04-25T09:10:45.783Z</time></trkpt><trkpt lat="43.418998" lon="11.2187208"><ele>191.0</ele><time>2026-04-25T09:10:47.801Z</time></trkpt><trkpt lat="43.4190691" lon="11.2188392"><ele>191.0</ele><time>2026-04-25T09:10:50.788Z</time></trkpt><trkpt lat="43.4191128" lon="11.218909"><ele>191.0</ele><time>2026-04-25T09:10:52.714Z</time></trkpt><trkpt lat="43.4191559" lon="11.2189809"><ele>191.0</ele><time>2026-04-25T09:10:54.734Z</time></trkpt><trkpt lat="43.4191991" lon="11.2190464"><ele>191.0</ele><time>2026-04-25T09:10:56.806Z</time></trkpt><trkpt lat="43.4192409" lon="11.2191183"><ele>191.0</ele><time>2026-04-25T09:10:58.725Z</time></trkpt><trkpt lat="43.4192791" lon="11.2192134"><ele>191.0</ele><time>2026-04-25T09:11:00.716Z</time></trkpt><trkpt lat="43.4193069" lon="11.2192937"><ele>191.0</ele><time>2026-04-25T09:11:02.717Z</time></trkpt><trkpt lat="43.4193653" lon="11.2193912"><ele>191.2857142857143</ele><time>2026-04-25T09:11:05.718Z</time></trkpt><trkpt lat="43.4193996" lon="11.2194694"><ele>191.57142857142856</ele><time>2026-04-25T09:11:07.719Z</time></trkpt><trkpt lat="43.4194302" lon="11.2195514"><ele>191.85714285714286</ele><time>2026-04-25T09:11:09.717Z</time></trkpt><trkpt lat="43.4194578" lon="11.2196308"><ele>192.14285714285717</ele><time>2026-04-25T09:11:11.787Z</time></trkpt><trkpt lat="43.4194803" lon="11.2197153"><ele>192.42857142857144</ele><time>2026-04-25T09:11:13.717Z</time></trkpt><trkpt lat="43.4195078" lon="11.2197995"><ele>192.71428571428572</ele><time>2026-04-25T09:11:15.713Z</time></trkpt><trkpt lat="43.4195309" lon="11.2198846"><ele>193.0</ele><time>2026-04-25T09:11:17.787Z</time></trkpt><trkpt lat="43.4195432" lon="11.2199763"><ele>193.16666666666666</ele><time>2026-04-25T09:11:19.712Z</time></trkpt><trkpt lat="43.4195588" lon="11.2201024"><ele>193.33333333333331</ele><time>2026-04-25T09:11:22.708Z</time></trkpt><trkpt lat="43.4195715" lon="11.2201939"><ele>193.5</ele><time>2026-04-25T09:11:24.717Z</time></trkpt><trkpt lat="43.4195932" lon="11.2203361"><ele>193.66666666666669</ele><time>2026-04-25T09:11:27.794Z</time></trkpt><trkpt lat="43.4196404" lon="11.2203946"><ele>193.83333333333334</ele><time>2026-04-25T09:11:28.712Z</time></trkpt><trkpt lat="43.4196773" lon="11.2205039"><ele>194.0</ele><time>2026-04-25T09:11:30.714Z</time></trkpt><trkpt lat="43.4196793" lon="11.2206299"><ele>194.66666666666669</ele><time>2026-04-25T09:11:33.731Z</time></trkpt><trkpt lat="43.4196867" lon="11.2207509"><ele>195.33333333333334</ele><time>2026-04-25T09:11:36.731Z</time></trkpt><trkpt lat="43.4197015" lon="11.2208618"><ele>196.0</ele><time>2026-04-25T09:11:39.742Z</time></trkpt><trkpt lat="43.4197099" lon="11.2209697"><ele>196.66666666666669</ele><time>2026-04-25T09:11:42.722Z</time></trkpt><trkpt lat="43.4197266" lon="11.2210995"><ele>197.33333333333334</ele><time>2026-04-25T09:11:45.794Z</time></trkpt><trkpt lat="43.419752" lon="11.2211842"><ele>198.0</ele><time>2026-04-25T09:11:47.789Z</time></trkpt><trkpt lat="43.4197776" lon="11.2213037"><ele>198.0</ele><time>2026-04-25T09:11:49.724Z</time></trkpt><trkpt lat="43.4197978" lon="11.2213893"><ele>198.0</ele><time>2026-04-25T09:11:51.793Z</time></trkpt><trkpt lat="43.4198216" lon="11.221505"><ele>198.0</ele><time>2026-04-25T09:11:54.736Z</time></trkpt><trkpt lat="43.4198563" lon="11.2216161"><ele>198.0</ele><time>2026-04-25T09:11:57.786Z</time></trkpt><trkpt lat="43.4199127" lon="11.2217182"><ele>198.0</ele><time>2026-04-25T09:12:00.723Z</time></trkpt><trkpt lat="43.4199473" lon="11.2218273"><ele>198.0</ele><time>2026-04-25T09:12:03.72Z</time></trkpt><trkpt lat="43.4199823" lon="11.2219272"><ele>198.33333333333334</ele><time>2026-04-25T09:12:06.803Z</time></trkpt><trkpt lat="43.4199962" lon="11.2220607"><ele>198.66666666666669</ele><time>2026-04-25T09:12:09.715Z</time></trkpt><trkpt lat="43.4200332" lon="11.2221406"><ele>199.0</ele><time>2026-04-25T09:12:11.725Z</time></trkpt><trkpt lat="43.420088" lon="11.2222146"><ele>199.33333333333334</ele><time>2026-04-25T09:12:13.719Z</time></trkpt><trkpt lat="43.4201514" lon="11.2222714"><ele>199.66666666666669</ele><time>2026-04-25T09:12:15.721Z</time></trkpt><trkpt lat="43.4202122" lon="11.2223337"><ele>200.0</ele><time>2026-04-25T09:12:17.717Z</time></trkpt><trkpt lat="43.420263" lon="11.222398"><ele>200.00000000000003</ele><time>2026-04-25T09:12:19.723Z</time></trkpt><trkpt lat="43.4203193" lon="11.2224645"><ele>200.0</ele><time>2026-04-25T09:12:21.784Z</time></trkpt><trkpt lat="43.4203746" lon="11.2225505"><ele>200.0</ele><time>2026-04-25T09:12:23.722Z</time></trkpt><trkpt lat="43.4204332" lon="11.2226322"><ele>200.0</ele><time>2026-04-25T09:12:25.698Z</time></trkpt><trkpt lat="43.4204925" lon="11.2227064"><ele>200.00000000000003</ele><time>2026-04-25T09:12:27.731Z</time></trkpt><trkpt lat="43.4205569" lon="11.2227877"><ele>200.0</ele><time>2026-04-25T09:12:29.715Z</time></trkpt><trkpt lat="43.4206192" lon="11.222874"><ele>200.0</ele><time>2026-04-25T09:12:31.718Z</time></trkpt><trkpt lat="43.4206878" lon="11.2229658"><ele>200.0</ele><time>2026-04-25T09:12:33.704Z</time></trkpt><trkpt lat="43.4207459" lon="11.2230702"><ele>200.0</ele><time>2026-04-25T09:12:35.784Z</time></trkpt><trkpt lat="43.4208091" lon="11.2231732"><ele>200.0</ele><time>2026-04-25T09:12:37.735Z</time></trkpt><trkpt lat="43.4208818" lon="11.2232623"><ele>200.0</ele><time>2026-04-25T09:12:39.738Z</time></trkpt><trkpt lat="43.4209469" lon="11.2233638"><ele>200.4</ele><time>2026-04-25T09:12:41.726Z</time></trkpt><trkpt lat="43.4210123" lon="11.2234634"><ele>200.8</ele><time>2026-04-25T09:12:43.721Z</time></trkpt><trkpt lat="43.4210704" lon="11.2235635"><ele>201.2</ele><time>2026-04-25T09:12:45.736Z</time></trkpt><trkpt lat="43.4211209" lon="11.2236717"><ele>201.6</ele><time>2026-04-25T09:12:47.724Z</time></trkpt><trkpt lat="43.4211691" lon="11.2237874"><ele>202.0</ele><time>2026-04-25T09:12:49.732Z</time></trkpt><trkpt lat="43.4212155" lon="11.2239055"><ele>201.6</ele><time>2026-04-25T09:12:51.724Z</time></trkpt><trkpt lat="43.421261" lon="11.2240256"><ele>201.2</ele><time>2026-04-25T09:12:53.714Z</time></trkpt><trkpt lat="43.4213065" lon="11.2241548"><ele>200.8</ele><time>2026-04-25T09:12:55.711Z</time></trkpt><trkpt lat="43.4213511" lon="11.2242815"><ele>200.4</ele><time>2026-04-25T09:12:57.79Z</time></trkpt><trkpt lat="43.4213938" lon="11.2244067"><ele>200.0</ele><time>2026-04-25T09:12:59.739Z</time></trkpt><trkpt lat="43.4214382" lon="11.2245236"><ele>200.0</ele><time>2026-04-25T09:13:01.693Z</time></trkpt><trkpt lat="43.4214722" lon="11.2246368"><ele>200.0</ele><time>2026-04-25T09:13:03.729Z</time></trkpt><trkpt lat="43.4215148" lon="11.2247644"><ele>200.0</ele><time>2026-04-25T09:13:05.796Z</time></trkpt><trkpt lat="43.4215462" lon="11.2248987"><ele>200.0</ele><time>2026-04-25T09:13:07.729Z</time></trkpt><trkpt lat="43.421586" lon="11.2250226"><ele>200.0</ele><time>2026-04-25T09:13:09.709Z</time></trkpt><trkpt lat="43.4216185" lon="11.2251533"><ele>199.8</ele><time>2026-04-25T09:13:11.792Z</time></trkpt><trkpt lat="43.4216524" lon="11.2252892"><ele>199.6</ele><time>2026-04-25T09:13:13.697Z</time></trkpt><trkpt lat="43.4216945" lon="11.225418"><ele>199.39999999999998</ele><time>2026-04-25T09:13:15.724Z</time></trkpt><trkpt lat="43.4217244" lon="11.2255443"><ele>199.2</ele><time>2026-04-25T09:13:17.724Z</time></trkpt><trkpt lat="43.4217793" lon="11.225641"><ele>199.0</ele><time>2026-04-25T09:13:19.732Z</time></trkpt><trkpt lat="43.4218777" lon="11.2256246"><ele>199.0</ele><time>2026-04-25T09:13:21.703Z</time></trkpt><trkpt lat="43.4220007" lon="11.2255849"><ele>199.0</ele><time>2026-04-25T09:13:23.725Z</time></trkpt><trkpt lat="43.4220636" lon="11.2255665"><ele>199.0</ele><time>2026-04-25T09:13:24.717Z</time></trkpt><trkpt lat="43.4221839" lon="11.2255384"><ele>199.0</ele><time>2026-04-25T09:13:26.794Z</time></trkpt><trkpt lat="43.4222485" lon="11.2255479"><ele>199.0</ele><time>2026-04-25T09:13:27.725Z</time></trkpt><trkpt lat="43.4223621" lon="11.225499"><ele>198.2</ele><time>2026-04-25T09:13:29.722Z</time></trkpt><trkpt lat="43.4224213" lon="11.2254518"><ele>197.39999999999998</ele><time>2026-04-25T09:13:30.713Z</time></trkpt><trkpt lat="43.4225306" lon="11.2253919"><ele>196.6</ele><time>2026-04-25T09:13:32.803Z</time></trkpt><trkpt lat="43.4225949" lon="11.2253787"><ele>195.8</ele><time>2026-04-25T09:13:33.714Z</time></trkpt><trkpt lat="43.422701" lon="11.2253515"><ele>195.0</ele><time>2026-04-25T09:13:35.796Z</time></trkpt><trkpt lat="43.4227912" lon="11.2253071"><ele>195.0</ele><time>2026-04-25T09:13:37.708Z</time></trkpt><trkpt lat="43.4228717" lon="11.2252612"><ele>195.0</ele><time>2026-04-25T09:13:39.719Z</time></trkpt><trkpt lat="43.4229618" lon="11.2252293"><ele>195.0</ele><time>2026-04-25T09:13:41.792Z</time></trkpt><trkpt lat="43.42308" lon="11.2251943"><ele>195.0</ele><time>2026-04-25T09:13:43.723Z</time></trkpt><trkpt lat="43.4231803" lon="11.2251638"><ele>195.0</ele><time>2026-04-25T09:13:45.719Z</time></trkpt><trkpt lat="43.4232875" lon="11.2251236"><ele>195.0</ele><time>2026-04-25T09:13:47.786Z</time></trkpt><trkpt lat="43.4233949" lon="11.2251038"><ele>195.0</ele><time>2026-04-25T09:13:49.728Z</time></trkpt><trkpt lat="43.4234619" lon="11.2250917"><ele>195.0</ele><time>2026-04-25T09:13:50.725Z</time></trkpt><trkpt lat="43.4235267" lon="11.2250825"><ele>195.0</ele><time>2026-04-25T09:13:51.712Z</time></trkpt><trkpt lat="43.4236331" lon="11.2250514"><ele>195.0</ele><time>2026-04-25T09:13:53.723Z</time></trkpt><trkpt lat="43.4237524" lon="11.2250167"><ele>195.0</ele><time>2026-04-25T09:13:55.74Z</time></trkpt><trkpt lat="43.4238539" lon="11.2249824"><ele>195.0</ele><time>2026-04-25T09:13:57.731Z</time></trkpt><trkpt lat="43.4239591" lon="11.2249581"><ele>195.0</ele><time>2026-04-25T09:13:59.732Z</time></trkpt><trkpt lat="43.4240713" lon="11.2249214"><ele>195.0</ele><time>2026-04-25T09:14:01.697Z</time></trkpt><trkpt lat="43.4241867" lon="11.2248873"><ele>195.0</ele><time>2026-04-25T09:14:03.726Z</time></trkpt><trkpt lat="43.4242909" lon="11.2248412"><ele>195.0</ele><time>2026-04-25T09:14:05.785Z</time></trkpt><trkpt lat="43.4243879" lon="11.2248044"><ele>195.0</ele><time>2026-04-25T09:14:07.728Z</time></trkpt><trkpt lat="43.4244674" lon="11.2247996"><ele>195.0</ele><time>2026-04-25T09:14:10.704Z</time></trkpt><trkpt lat="43.4245374" lon="11.2248147"><ele>195.0</ele><time>2026-04-25T09:14:12.803Z</time></trkpt><trkpt lat="43.4246212" lon="11.2247919"><ele>195.0</ele><time>2026-04-25T09:14:15.724Z</time></trkpt><trkpt lat="43.4246928" lon="11.2247683"><ele>195.0</ele><time>2026-04-25T09:14:18.714Z</time></trkpt><trkpt lat="43.424753" lon="11.2247322"><ele>195.57142857142856</ele><time>2026-04-25T09:14:22.728Z</time></trkpt><trkpt lat="43.4248165" lon="11.224691"><ele>196.14285714285714</ele><time>2026-04-25T09:14:25.724Z</time></trkpt><trkpt lat="43.4248871" lon="11.2246917"><ele>196.71428571428572</ele><time>2026-04-25T09:14:28.716Z</time></trkpt><trkpt lat="43.4249557" lon="11.2246734"><ele>197.28571428571428</ele><time>2026-04-25T09:14:31.713Z</time></trkpt><trkpt lat="43.4250183" lon="11.2246496"><ele>197.85714285714286</ele><time>2026-04-25T09:14:36.782Z</time></trkpt><trkpt lat="43.4250871" lon="11.2245944"><ele>198.42857142857142</ele><time>2026-04-25T09:14:39.705Z</time></trkpt><trkpt lat="43.4251311" lon="11.2245201"><ele>199.0</ele><time>2026-04-25T09:14:41.784Z</time></trkpt><trkpt lat="43.4252038" lon="11.2245042"><ele>198.99999999999997</ele><time>2026-04-25T09:14:45.725Z</time></trkpt><trkpt lat="43.4252859" lon="11.2245182"><ele>199.0</ele><time>2026-04-25T09:14:50.794Z</time></trkpt><trkpt lat="43.4253716" lon="11.224499"><ele>199.0</ele><time>2026-04-25T09:14:53.793Z</time></trkpt><trkpt lat="43.4254677" lon="11.2245024"><ele>199.0</ele><time>2026-04-25T09:14:56.799Z</time></trkpt><trkpt lat="43.4255425" lon="11.2244805"><ele>198.99999999999997</ele><time>2026-04-25T09:15:00.721Z</time></trkpt><trkpt lat="43.4256053" lon="11.2244435"><ele>199.0</ele><time>2026-04-25T09:15:04.727Z</time></trkpt><trkpt lat="43.4256694" lon="11.2244215"><ele>199.85714285714283</ele><time>2026-04-25T09:15:10.722Z</time></trkpt><trkpt lat="43.4257409" lon="11.2244059"><ele>200.71428571428572</ele><time>2026-04-25T09:15:14.729Z</time></trkpt><trkpt lat="43.4258117" lon="11.2243897"><ele>201.57142857142856</ele><time>2026-04-25T09:15:19.716Z</time></trkpt><trkpt lat="43.4258813" lon="11.2243883"><ele>202.42857142857142</ele><time>2026-04-25T09:15:24.718Z</time></trkpt><trkpt lat="43.4259519" lon="11.2243465"><ele>203.28571428571428</ele><time>2026-04-25T09:15:29.718Z</time></trkpt><trkpt lat="43.4260228" lon="11.2243398"><ele>204.14285714285714</ele><time>2026-04-25T09:15:33.708Z</time></trkpt><trkpt lat="43.4260891" lon="11.2243244"><ele>205.0</ele><time>2026-04-25T09:15:37.73Z</time></trkpt><trkpt lat="43.4261613" lon="11.2242973"><ele>205.0</ele><time>2026-04-25T09:15:41.731Z</time></trkpt><trkpt lat="43.4262228" lon="11.2242596"><ele>205.0</ele><time>2026-04-25T09:15:46.703Z</time></trkpt><trkpt lat="43.4262944" lon="11.2243251"><ele>205.0</ele><time>2026-04-25T09:15:49.715Z</time></trkpt><trkpt lat="43.4263547" lon="11.2243513"><ele>205.0</ele><time>2026-04-25T09:15:51.799Z</time></trkpt><trkpt lat="43.4264171" lon="11.2243054"><ele>205.0</ele><time>2026-04-25T09:15:57.782Z</time></trkpt><trkpt lat="43.4264705" lon="11.2242322"><ele>205.0</ele><time>2026-04-25T09:16:02.713Z</time></trkpt><trkpt lat="43.4265263" lon="11.2241803"><ele>205.0</ele><time>2026-04-25T09:16:12.723Z</time></trkpt><trkpt lat="43.426595" lon="11.224135"><ele>206.0</ele><time>2026-04-25T09:16:28.715Z</time></trkpt><trkpt lat="43.4266695" lon="11.2241031"><ele>207.0</ele><time>2026-04-25T09:16:32.792Z</time></trkpt><trkpt lat="43.4267349" lon="11.224069"><ele>208.0</ele><time>2026-04-25T09:16:37.71Z</time></trkpt><trkpt lat="43.4267974" lon="11.2240344"><ele>209.0</ele><time>2026-04-25T09:16:41.714Z</time></trkpt><trkpt lat="43.4268629" lon="11.2240115"><ele>210.0</ele><time>2026-04-25T09:16:50.792Z</time></trkpt><trkpt lat="43.4269252" lon="11.2239921"><ele>211.0</ele><time>2026-04-25T09:16:57.788Z</time></trkpt><trkpt lat="43.4269934" lon="11.2239673"><ele>212.0</ele><time>2026-04-25T09:17:00.798Z</time></trkpt><trkpt lat="43.4270656" lon="11.2239716"><ele>213.14285714285714</ele><time>2026-04-25T09:17:05.783Z</time></trkpt><trkpt lat="43.4271365" lon="11.2240039"><ele>214.28571428571428</ele><time>2026-04-25T09:17:07.788Z</time></trkpt><trkpt lat="43.4272098" lon="11.2240028"><ele>215.42857142857142</ele><time>2026-04-25T09:17:12.723Z</time></trkpt><trkpt lat="43.4272765" lon="11.2239985"><ele>216.57142857142856</ele><time>2026-04-25T09:17:18.727Z</time></trkpt><trkpt lat="43.4273347" lon="11.2240506"><ele>217.71428571428572</ele><time>2026-04-25T09:17:28.697Z</time></trkpt><trkpt lat="43.4273927" lon="11.2240932"><ele>218.85714285714283</ele><time>2026-04-25T09:17:34.733Z</time></trkpt><trkpt lat="43.4273421" lon="11.2241557"><ele>220.0</ele><time>2026-04-25T09:18:19.715Z</time></trkpt><trkpt lat="43.4273266" lon="11.2242608"><ele>221.49999999999997</ele><time>2026-04-25T09:18:22.704Z</time></trkpt><trkpt lat="43.4272975" lon="11.2243679"><ele>223.0</ele><time>2026-04-25T09:18:26.712Z</time></trkpt><trkpt lat="43.4272994" lon="11.2244614"><ele>224.5</ele><time>2026-04-25T09:18:29.722Z</time></trkpt><trkpt lat="43.42732" lon="11.2245677"><ele>226.0</ele><time>2026-04-25T09:18:32.7Z</time></trkpt><trkpt lat="43.4273668" lon="11.2246382"><ele>227.49999999999997</ele><time>2026-04-25T09:18:35.703Z</time></trkpt><trkpt lat="43.427436" lon="11.224679"><ele>229.0</ele><time>2026-04-25T09:18:38.716Z</time></trkpt><trkpt lat="43.4275102" lon="11.2246995"><ele>228.99999999999997</ele><time>2026-04-25T09:18:42.714Z</time></trkpt><trkpt lat="43.4275857" lon="11.2246954"><ele>229.0</ele><time>2026-04-25T09:18:45.719Z</time></trkpt><trkpt lat="43.4276513" lon="11.2246615"><ele>229.0</ele><time>2026-04-25T09:18:48.728Z</time></trkpt><trkpt lat="43.4277236" lon="11.2246277"><ele>229.0</ele><time>2026-04-25T09:18:52.73Z</time></trkpt><trkpt lat="43.4278018" lon="11.2246014"><ele>228.99999999999997</ele><time>2026-04-25T09:18:56.711Z</time></trkpt><trkpt lat="43.4278976" lon="11.2245912"><ele>229.0</ele><time>2026-04-25T09:18:59.721Z</time></trkpt><trkpt lat="43.427978" lon="11.2245872"><ele>227.39999999999998</ele><time>2026-04-25T09:19:02.722Z</time></trkpt><trkpt lat="43.4280582" lon="11.2246536"><ele>225.79999999999998</ele><time>2026-04-25T09:19:05.705Z</time></trkpt><trkpt lat="43.428123" lon="11.2246962"><ele>224.20000000000002</ele><time>2026-04-25T09:19:07.725Z</time></trkpt><trkpt lat="43.4282216" lon="11.2247266"><ele>222.60000000000002</ele><time>2026-04-25T09:19:10.714Z</time></trkpt><trkpt lat="43.4283265" lon="11.224722"><ele>221.0</ele><time>2026-04-25T09:19:12.703Z</time></trkpt><trkpt lat="43.42843" lon="11.2247137"><ele>221.00000000000003</ele><time>2026-04-25T09:19:14.709Z</time></trkpt><trkpt lat="43.4285253" lon="11.2246732"><ele>221.0</ele><time>2026-04-25T09:19:16.705Z</time></trkpt><trkpt lat="43.4286392" lon="11.2245857"><ele>221.0</ele><time>2026-04-25T09:19:18.7Z</time></trkpt><trkpt lat="43.4287032" lon="11.2245424"><ele>221.0</ele><time>2026-04-25T09:19:19.702Z</time></trkpt><trkpt lat="43.4287723" lon="11.2245033"><ele>221.00000000000003</ele><time>2026-04-25T09:19:20.71Z</time></trkpt><trkpt lat="43.4288303" lon="11.2244644"><ele>221.0</ele><time>2026-04-25T09:19:21.715Z</time></trkpt><trkpt lat="43.4289469" lon="11.2243888"><ele>220.00000000000003</ele><time>2026-04-25T09:19:23.715Z</time></trkpt><trkpt lat="43.429004" lon="11.2243364"><ele>219.0</ele><time>2026-04-25T09:19:24.705Z</time></trkpt><trkpt lat="43.4290644" lon="11.2242785"><ele>218.0</ele><time>2026-04-25T09:19:25.721Z</time></trkpt><trkpt lat="43.4291271" lon="11.2242251"><ele>217.0</ele><time>2026-04-25T09:19:26.712Z</time></trkpt><trkpt lat="43.429186" lon="11.2241749"><ele>216.0</ele><time>2026-04-25T09:19:27.72Z</time></trkpt><trkpt lat="43.4292528" lon="11.2241223"><ele>215.00000000000003</ele><time>2026-04-25T09:19:28.72Z</time></trkpt><trkpt lat="43.4293296" lon="11.224073"><ele>214.0</ele><time>2026-04-25T09:19:29.717Z</time></trkpt><trkpt lat="43.4294046" lon="11.22402"><ele>213.6</ele><time>2026-04-25T09:19:30.701Z</time></trkpt><trkpt lat="43.4294828" lon="11.2239636"><ele>213.2</ele><time>2026-04-25T09:19:31.699Z</time></trkpt><trkpt lat="43.4295628" lon="11.2239093"><ele>212.79999999999998</ele><time>2026-04-25T09:19:32.712Z</time></trkpt><trkpt lat="43.4296428" lon="11.2238496"><ele>212.39999999999998</ele><time>2026-04-25T09:19:33.736Z</time></trkpt><trkpt lat="43.429703" lon="11.2237862"><ele>212.0</ele><time>2026-04-25T09:19:34.703Z</time></trkpt><trkpt lat="43.4297905" lon="11.2236952"><ele>213.0</ele><time>2026-04-25T09:19:36.718Z</time></trkpt><trkpt lat="43.4298595" lon="11.2236325"><ele>214.0</ele><time>2026-04-25T09:19:38.715Z</time></trkpt><trkpt lat="43.4299262" lon="11.2235769"><ele>215.0</ele><time>2026-04-25T09:19:42.71Z</time></trkpt><trkpt lat="43.4299871" lon="11.2235303"><ele>216.0</ele><time>2026-04-25T09:19:46.701Z</time></trkpt><trkpt lat="43.4300403" lon="11.2234807"><ele>217.0</ele><time>2026-04-25T09:19:50.721Z</time></trkpt><trkpt lat="43.430108" lon="11.2234381"><ele>218.0</ele><time>2026-04-25T09:19:55.712Z</time></trkpt><trkpt lat="43.4301686" lon="11.2233937"><ele>219.0</ele><time>2026-04-25T09:19:59.71Z</time></trkpt><trkpt lat="43.4302328" lon="11.2233668"><ele>219.0</ele><time>2026-04-25T09:20:04.712Z</time></trkpt><trkpt lat="43.4302943" lon="11.223337"><ele>219.0</ele><time>2026-04-25T09:20:09.709Z</time></trkpt><trkpt lat="43.4303578" lon="11.2233111"><ele>219.0</ele><time>2026-04-25T09:20:14.724Z</time></trkpt><trkpt lat="43.4304094" lon="11.2232589"><ele>219.0</ele><time>2026-04-25T09:20:20.707Z</time></trkpt><trkpt lat="43.4304691" lon="11.2232057"><ele>219.0</ele><time>2026-04-25T09:20:27.721Z</time></trkpt><trkpt lat="43.4305217" lon="11.2231534"><ele>219.0</ele><time>2026-04-25T09:20:35.706Z</time></trkpt><trkpt lat="43.4305824" lon="11.2230887"><ele>219.0</ele><time>2026-04-25T09:20:41.705Z</time></trkpt><trkpt lat="43.4306438" lon="11.2230396"><ele>221.0</ele><time>2026-04-25T09:20:47.703Z</time></trkpt><trkpt lat="43.4307059" lon="11.2229844"><ele>223.0</ele><time>2026-04-25T09:20:54.707Z</time></trkpt><trkpt lat="43.4307748" lon="11.2229657"><ele>225.0</ele><time>2026-04-25T09:21:03.727Z</time></trkpt><trkpt lat="43.4308268" lon="11.2229"><ele>227.0</ele><time>2026-04-25T09:21:10.712Z</time></trkpt><trkpt lat="43.4308838" lon="11.2228611"><ele>229.0</ele><time>2026-04-25T09:21:16.704Z</time></trkpt><trkpt lat="43.4309411" lon="11.2228067"><ele>231.0</ele><time>2026-04-25T09:21:23.719Z</time></trkpt><trkpt lat="43.4309929" lon="11.2227561"><ele>233.0</ele><time>2026-04-25T09:21:31.721Z</time></trkpt><trkpt lat="43.4310484" lon="11.2226959"><ele>233.0</ele><time>2026-04-25T09:21:40.709Z</time></trkpt><trkpt lat="43.4311048" lon="11.2226459"><ele>233.0</ele><time>2026-04-25T09:21:49.713Z</time></trkpt><trkpt lat="43.4311648" lon="11.2225901"><ele>233.0</ele><time>2026-04-25T09:21:55.723Z</time></trkpt><trkpt lat="43.4312274" lon="11.2225609"><ele>233.0</ele><time>2026-04-25T09:22:03.733Z</time></trkpt><trkpt lat="43.4313019" lon="11.222514"><ele>233.0</ele><time>2026-04-25T09:22:12.712Z</time></trkpt><trkpt lat="43.431365" lon="11.2224649"><ele>233.0</ele><time>2026-04-25T09:22:17.718Z</time></trkpt><trkpt lat="43.4314258" lon="11.2224317"><ele>233.0</ele><time>2026-04-25T09:22:21.713Z</time></trkpt><trkpt lat="43.4314823" lon="11.222386"><ele>234.0</ele><time>2026-04-25T09:22:25.704Z</time></trkpt><trkpt lat="43.4315363" lon="11.2223253"><ele>235.0</ele><time>2026-04-25T09:22:29.709Z</time></trkpt><trkpt lat="43.4315985" lon="11.2222824"><ele>236.0</ele><time>2026-04-25T09:22:34.697Z</time></trkpt><trkpt lat="43.4316701" lon="11.2222563"><ele>237.0</ele><time>2026-04-25T09:22:39.723Z</time></trkpt><trkpt lat="43.4317232" lon="11.2222043"><ele>238.0</ele><time>2026-04-25T09:22:42.737Z</time></trkpt><trkpt lat="43.4318006" lon="11.2221477"><ele>239.0</ele><time>2026-04-25T09:22:45.702Z</time></trkpt><trkpt lat="43.4318647" lon="11.2221049"><ele>240.0</ele><time>2026-04-25T09:22:47.712Z</time></trkpt><trkpt lat="43.4319519" lon="11.2220553"><ele>240.0</ele><time>2026-04-25T09:22:49.711Z</time></trkpt><trkpt lat="43.4320578" lon="11.2219964"><ele>240.0</ele><time>2026-04-25T09:22:51.719Z</time></trkpt><trkpt lat="43.432174" lon="11.221916"><ele>240.0</ele><time>2026-04-25T09:22:53.711Z</time></trkpt><trkpt lat="43.4322424" lon="11.2218734"><ele>240.0</ele><time>2026-04-25T09:22:54.733Z</time></trkpt><trkpt lat="43.4323116" lon="11.2218288"><ele>240.0</ele><time>2026-04-25T09:22:55.704Z</time></trkpt><trkpt lat="43.4323822" lon="11.2217773"><ele>239.66666666666666</ele><time>2026-04-25T09:22:56.712Z</time></trkpt><trkpt lat="43.4324496" lon="11.221726"><ele>239.33333333333331</ele><time>2026-04-25T09:22:57.7Z</time></trkpt><trkpt lat="43.4325163" lon="11.221681"><ele>239.0</ele><time>2026-04-25T09:22:58.709Z</time></trkpt><trkpt lat="43.4325818" lon="11.2216378"><ele>238.66666666666666</ele><time>2026-04-25T09:22:59.722Z</time></trkpt><trkpt lat="43.4326439" lon="11.2215923"><ele>238.33333333333331</ele><time>2026-04-25T09:23:00.724Z</time></trkpt><trkpt lat="43.4327529" lon="11.2215218"><ele>238.0</ele><time>2026-04-25T09:23:02.708Z</time></trkpt><trkpt lat="43.4328506" lon="11.2214502"><ele>237.99999999999997</ele><time>2026-04-25T09:23:04.719Z</time></trkpt><trkpt lat="43.4329382" lon="11.2213943"><ele>238.0</ele><time>2026-04-25T09:23:06.709Z</time></trkpt><trkpt lat="43.4330198" lon="11.2213494"><ele>238.0</ele><time>2026-04-25T09:23:08.709Z</time></trkpt><trkpt lat="43.4330976" lon="11.2212992"><ele>238.0</ele><time>2026-04-25T09:23:10.702Z</time></trkpt><trkpt lat="43.433169" lon="11.2212624"><ele>237.99999999999997</ele><time>2026-04-25T09:23:12.719Z</time></trkpt><trkpt lat="43.4332421" lon="11.2212168"><ele>238.0</ele><time>2026-04-25T09:23:14.713Z</time></trkpt><trkpt lat="43.433324" lon="11.2211234"><ele>237.83333333333331</ele><time>2026-04-25T09:23:16.706Z</time></trkpt><trkpt lat="43.4333363" lon="11.2209829"><ele>237.66666666666666</ele><time>2026-04-25T09:23:18.707Z</time></trkpt><trkpt lat="43.4332888" lon="11.2208478"><ele>237.5</ele><time>2026-04-25T09:23:20.704Z</time></trkpt><trkpt lat="43.433233" lon="11.220758"><ele>237.33333333333331</ele><time>2026-04-25T09:23:22.712Z</time></trkpt><trkpt lat="43.4331968" lon="11.2206819"><ele>237.16666666666666</ele><time>2026-04-25T09:23:24.719Z</time></trkpt><trkpt lat="43.4331605" lon="11.2205898"><ele>237.0</ele><time>2026-04-25T09:23:27.706Z</time></trkpt><trkpt lat="43.4331253" lon="11.2205099"><ele>236.99999999999997</ele><time>2026-04-25T09:23:30.705Z</time></trkpt><trkpt lat="43.4330914" lon="11.220433"><ele>237.0</ele><time>2026-04-25T09:23:33.72Z</time></trkpt><trkpt lat="43.4330541" lon="11.2203547"><ele>236.99999999999997</ele><time>2026-04-25T09:23:36.707Z</time></trkpt><trkpt lat="43.4330179" lon="11.2202731"><ele>236.99999999999997</ele><time>2026-04-25T09:23:39.707Z</time></trkpt><trkpt lat="43.4329743" lon="11.2201878"><ele>237.0</ele><time>2026-04-25T09:23:43.712Z</time></trkpt><trkpt lat="43.4329235" lon="11.2201067"><ele>236.99999999999997</ele><time>2026-04-25T09:23:47.708Z</time></trkpt><trkpt lat="43.432888" lon="11.2200349"><ele>236.99999999999997</ele><time>2026-04-25T09:23:51.726Z</time></trkpt><trkpt lat="43.4328525" lon="11.2199436"><ele>237.28571428571425</ele><time>2026-04-25T09:23:56.711Z</time></trkpt><trkpt lat="43.4328125" lon="11.219862"><ele>237.57142857142856</ele><time>2026-04-25T09:24:00.714Z</time></trkpt><trkpt lat="43.4327769" lon="11.2197829"><ele>237.85714285714286</ele><time>2026-04-25T09:24:05.712Z</time></trkpt><trkpt lat="43.4327539" lon="11.2196861"><ele>238.14285714285714</ele><time>2026-04-25T09:24:11.706Z</time></trkpt><trkpt lat="43.4327375" lon="11.2195946"><ele>238.42857142857144</ele><time>2026-04-25T09:24:16.706Z</time></trkpt><trkpt lat="43.4327345" lon="11.2195061"><ele>238.71428571428575</ele><time>2026-04-25T09:24:20.723Z</time></trkpt><trkpt lat="43.4327487" lon="11.2194171"><ele>239.00000000000003</ele><time>2026-04-25T09:24:25.707Z</time></trkpt><trkpt lat="43.4327736" lon="11.2193272"><ele>239.33333333333334</ele><time>2026-04-25T09:24:29.707Z</time></trkpt><trkpt lat="43.4328116" lon="11.2192257"><ele>239.66666666666669</ele><time>2026-04-25T09:24:33.705Z</time></trkpt><trkpt lat="43.432839" lon="11.2191236"><ele>240.0</ele><time>2026-04-25T09:24:36.712Z</time></trkpt><trkpt lat="43.4328542" lon="11.2190155"><ele>240.33333333333331</ele><time>2026-04-25T09:24:39.696Z</time></trkpt><trkpt lat="43.4328713" lon="11.2189266"><ele>240.66666666666666</ele><time>2026-04-25T09:24:41.719Z</time></trkpt><trkpt lat="43.4328848" lon="11.2188041"><ele>241.0</ele><time>2026-04-25T09:24:44.726Z</time></trkpt><trkpt lat="43.4328957" lon="11.2186773"><ele>240.99999999999997</ele><time>2026-04-25T09:24:47.694Z</time></trkpt><trkpt lat="43.4329033" lon="11.2185691"><ele>241.0</ele><time>2026-04-25T09:24:49.707Z</time></trkpt><trkpt lat="43.4329205" lon="11.2184511"><ele>241.0</ele><time>2026-04-25T09:24:51.693Z</time></trkpt><trkpt lat="43.4329162" lon="11.2183379"><ele>241.0</ele><time>2026-04-25T09:24:53.707Z</time></trkpt><trkpt lat="43.4329342" lon="11.2182332"><ele>240.99999999999997</ele><time>2026-04-25T09:24:55.701Z</time></trkpt><trkpt lat="43.4329439" lon="11.2181424"><ele>241.0</ele><time>2026-04-25T09:24:57.727Z</time></trkpt><trkpt lat="43.4329603" lon="11.2180506"><ele>241.66666666666666</ele><time>2026-04-25T09:24:59.716Z</time></trkpt><trkpt lat="43.4329802" lon="11.2179459"><ele>242.33333333333331</ele><time>2026-04-25T09:25:01.719Z</time></trkpt><trkpt lat="43.4329926" lon="11.2178446"><ele>243.0</ele><time>2026-04-25T09:25:03.701Z</time></trkpt><trkpt lat="43.4330101" lon="11.2177246"><ele>243.66666666666669</ele><time>2026-04-25T09:25:05.702Z</time></trkpt><trkpt lat="43.4330154" lon="11.2176093"><ele>244.33333333333334</ele><time>2026-04-25T09:25:07.706Z</time></trkpt><trkpt lat="43.4330175" lon="11.2174907"><ele>245.0</ele><time>2026-04-25T09:25:09.709Z</time></trkpt><trkpt lat="43.4330207" lon="11.2173771"><ele>245.00000000000003</ele><time>2026-04-25T09:25:11.708Z</time></trkpt><trkpt lat="43.4330163" lon="11.2172739"><ele>245.0</ele><time>2026-04-25T09:25:13.716Z</time></trkpt><trkpt lat="43.4330061" lon="11.2171708"><ele>245.0</ele><time>2026-04-25T09:25:15.709Z</time></trkpt><trkpt lat="43.4329939" lon="11.2170558"><ele>245.0</ele><time>2026-04-25T09:25:17.723Z</time></trkpt><trkpt lat="43.4329888" lon="11.2169589"><ele>245.00000000000003</ele><time>2026-04-25T09:25:19.697Z</time></trkpt><trkpt lat="43.4329825" lon="11.2168471"><ele>245.0</ele><time>2026-04-25T09:25:21.7Z</time></trkpt><trkpt lat="43.4329725" lon="11.2167346"><ele>245.66666666666669</ele><time>2026-04-25T09:25:23.725Z</time></trkpt><trkpt lat="43.4329616" lon="11.2166302"><ele>246.33333333333334</ele><time>2026-04-25T09:25:25.709Z</time></trkpt><trkpt lat="43.4329405" lon="11.2165323"><ele>247.0</ele><time>2026-04-25T09:25:27.701Z</time></trkpt><trkpt lat="43.4329223" lon="11.216441"><ele>247.66666666666669</ele><time>2026-04-25T09:25:29.745Z</time></trkpt><trkpt lat="43.4329069" lon="11.2163515"><ele>248.33333333333334</ele><time>2026-04-25T09:25:31.724Z</time></trkpt><trkpt lat="43.4328878" lon="11.2162479"><ele>249.0</ele><time>2026-04-25T09:25:34.725Z</time></trkpt><trkpt lat="43.432833" lon="11.2161476"><ele>249.57142857142856</ele><time>2026-04-25T09:25:37.698Z</time></trkpt><trkpt lat="43.4327973" lon="11.2160693"><ele>250.1428571428571</ele><time>2026-04-25T09:25:39.698Z</time></trkpt><trkpt lat="43.4327633" lon="11.2159875"><ele>250.71428571428572</ele><time>2026-04-25T09:25:41.707Z</time></trkpt><trkpt lat="43.4327388" lon="11.2158896"><ele>251.28571428571428</ele><time>2026-04-25T09:25:43.714Z</time></trkpt><trkpt lat="43.4327112" lon="11.2158024"><ele>251.85714285714286</ele><time>2026-04-25T09:25:45.718Z</time></trkpt><trkpt lat="43.4326815" lon="11.215718"><ele>252.42857142857144</ele><time>2026-04-25T09:25:47.711Z</time></trkpt><trkpt lat="43.4326536" lon="11.2156204"><ele>253.00000000000003</ele><time>2026-04-25T09:25:49.712Z</time></trkpt><trkpt lat="43.4326236" lon="11.2155357"><ele>253.16666666666666</ele><time>2026-04-25T09:25:51.728Z</time></trkpt><trkpt lat="43.4326045" lon="11.2154487"><ele>253.33333333333331</ele><time>2026-04-25T09:25:53.71Z</time></trkpt><trkpt lat="43.4325853" lon="11.2153606"><ele>253.5</ele><time>2026-04-25T09:25:55.715Z</time></trkpt><trkpt lat="43.4325662" lon="11.2152291"><ele>253.66666666666669</ele><time>2026-04-25T09:25:58.711Z</time></trkpt><trkpt lat="43.4325325" lon="11.2151303"><ele>253.83333333333334</ele><time>2026-04-25T09:26:00.727Z</time></trkpt><trkpt lat="43.4325068" lon="11.2150223"><ele>254.0</ele><time>2026-04-25T09:26:03.713Z</time></trkpt><trkpt lat="43.432495" lon="11.2149242"><ele>254.0</ele><time>2026-04-25T09:26:06.71Z</time></trkpt><trkpt lat="43.4324771" lon="11.214823"><ele>253.99999999999997</ele><time>2026-04-25T09:26:09.711Z</time></trkpt><trkpt lat="43.4324601" lon="11.2146891"><ele>253.99999999999997</ele><time>2026-04-25T09:26:12.698Z</time></trkpt><trkpt lat="43.4324611" lon="11.2145516"><ele>254.0</ele><time>2026-04-25T09:26:14.715Z</time></trkpt><trkpt lat="43.4324601" lon="11.2143907"><ele>254.0</ele><time>2026-04-25T09:26:16.704Z</time></trkpt><trkpt lat="43.4324544" lon="11.2143014"><ele>253.39999999999998</ele><time>2026-04-25T09:26:17.701Z</time></trkpt><trkpt lat="43.4324471" lon="11.2141979"><ele>252.79999999999998</ele><time>2026-04-25T09:26:18.703Z</time></trkpt><trkpt lat="43.4324295" lon="11.214085"><ele>252.20000000000002</ele><time>2026-04-25T09:26:19.701Z</time></trkpt><trkpt lat="43.4324027" lon="11.2139499"><ele>251.60000000000002</ele><time>2026-04-25T09:26:20.695Z</time></trkpt><trkpt lat="43.4323746" lon="11.2138123"><ele>251.0</ele><time>2026-04-25T09:26:21.716Z</time></trkpt><trkpt lat="43.4323452" lon="11.2136818"><ele>249.66666666666669</ele><time>2026-04-25T09:26:22.707Z</time></trkpt><trkpt lat="43.4323171" lon="11.2135682"><ele>248.33333333333334</ele><time>2026-04-25T09:26:23.711Z</time></trkpt><trkpt lat="43.4322899" lon="11.2134505"><ele>247.0</ele><time>2026-04-25T09:26:24.723Z</time></trkpt><trkpt lat="43.4322653" lon="11.2133296"><ele>245.66666666666669</ele><time>2026-04-25T09:26:25.706Z</time></trkpt><trkpt lat="43.4322458" lon="11.2132095"><ele>244.33333333333334</ele><time>2026-04-25T09:26:26.725Z</time></trkpt><trkpt lat="43.4322321" lon="11.213105"><ele>243.0</ele><time>2026-04-25T09:26:27.711Z</time></trkpt><trkpt lat="43.432218" lon="11.2129965"><ele>243.33333333333334</ele><time>2026-04-25T09:26:28.7Z</time></trkpt><trkpt lat="43.4322052" lon="11.2128939"><ele>243.66666666666669</ele><time>2026-04-25T09:26:29.736Z</time></trkpt><trkpt lat="43.4321746" lon="11.2127117"><ele>244.0</ele><time>2026-04-25T09:26:31.707Z</time></trkpt><trkpt lat="43.432159" lon="11.2126153"><ele>244.33333333333334</ele><time>2026-04-25T09:26:32.714Z</time></trkpt><trkpt lat="43.4321435" lon="11.2125236"><ele>244.66666666666669</ele><time>2026-04-25T09:26:33.7Z</time></trkpt><trkpt lat="43.4321289" lon="11.2124366"><ele>245.0</ele><time>2026-04-25T09:26:34.714Z</time></trkpt><trkpt lat="43.4321177" lon="11.2123457"><ele>246.6</ele><time>2026-04-25T09:26:35.699Z</time></trkpt><trkpt lat="43.4320887" lon="11.2121836"><ele>248.2</ele><time>2026-04-25T09:26:37.712Z</time></trkpt><trkpt lat="43.4320507" lon="11.2120469"><ele>249.8</ele><time>2026-04-25T09:26:39.715Z</time></trkpt><trkpt lat="43.4320198" lon="11.2119328"><ele>251.4</ele><time>2026-04-25T09:26:41.723Z</time></trkpt><trkpt lat="43.4319971" lon="11.2118324"><ele>253.0</ele><time>2026-04-25T09:26:43.711Z</time></trkpt><trkpt lat="43.4319602" lon="11.2117172"><ele>253.00000000000003</ele><time>2026-04-25T09:26:46.709Z</time></trkpt><trkpt lat="43.4319428" lon="11.211626"><ele>253.0</ele><time>2026-04-25T09:26:49.699Z</time></trkpt><trkpt lat="43.4319171" lon="11.2115271"><ele>253.00000000000003</ele><time>2026-04-25T09:26:53.703Z</time></trkpt><trkpt lat="43.4318962" lon="11.2114392"><ele>253.00000000000003</ele><time>2026-04-25T09:26:57.709Z</time></trkpt><trkpt lat="43.4318731" lon="11.2113423"><ele>253.0</ele><time>2026-04-25T09:27:02.736Z</time></trkpt><trkpt lat="43.4318472" lon="11.2112527"><ele>253.00000000000003</ele><time>2026-04-25T09:27:07.717Z</time></trkpt><trkpt lat="43.4318195" lon="11.211174"><ele>253.00000000000003</ele><time>2026-04-25T09:27:12.717Z</time></trkpt><trkpt lat="43.4317786" lon="11.2110933"><ele>253.8571428571429</ele><time>2026-04-25T09:27:17.714Z</time></trkpt><trkpt lat="43.4317462" lon="11.211014"><ele>254.71428571428572</ele><time>2026-04-25T09:27:23.714Z</time></trkpt><trkpt lat="43.4317132" lon="11.2109279"><ele>255.57142857142858</ele><time>2026-04-25T09:27:28.696Z</time></trkpt><trkpt lat="43.4316839" lon="11.2108402"><ele>256.42857142857144</ele><time>2026-04-25T09:27:35.717Z</time></trkpt><trkpt lat="43.4316604" lon="11.2107572"><ele>257.2857142857143</ele><time>2026-04-25T09:27:41.7Z</time></trkpt><trkpt lat="43.4316607" lon="11.2106614"><ele>258.14285714285717</ele><time>2026-04-25T09:27:46.72Z</time></trkpt><trkpt lat="43.431609" lon="11.2105818"><ele>259.0</ele><time>2026-04-25T09:27:51.701Z</time></trkpt><trkpt lat="43.4315819" lon="11.2104992"><ele>259.3333333333333</ele><time>2026-04-25T09:27:55.705Z</time></trkpt><trkpt lat="43.4316119" lon="11.2104172"><ele>259.66666666666663</ele><time>2026-04-25T09:27:59.735Z</time></trkpt><trkpt lat="43.4316604" lon="11.2103026"><ele>260.0</ele><time>2026-04-25T09:28:03.701Z</time></trkpt><trkpt lat="43.4317116" lon="11.2102198"><ele>260.3333333333333</ele><time>2026-04-25T09:28:05.72Z</time></trkpt><trkpt lat="43.4317723" lon="11.2101334"><ele>260.6666666666667</ele><time>2026-04-25T09:28:07.722Z</time></trkpt><trkpt lat="43.4318093" lon="11.210051"><ele>261.0</ele><time>2026-04-25T09:28:08.706Z</time></trkpt><trkpt lat="43.4318493" lon="11.2099769"><ele>261.0</ele><time>2026-04-25T09:28:09.712Z</time></trkpt><trkpt lat="43.4318931" lon="11.209898"><ele>261.0</ele><time>2026-04-25T09:28:10.718Z</time></trkpt><trkpt lat="43.4319291" lon="11.2098218"><ele>261.0</ele><time>2026-04-25T09:28:11.702Z</time></trkpt><trkpt lat="43.4319555" lon="11.2097346"><ele>261.0</ele><time>2026-04-25T09:28:12.7Z</time></trkpt><trkpt lat="43.4319613" lon="11.2096401"><ele>261.0</ele><time>2026-04-25T09:28:13.716Z</time></trkpt><trkpt lat="43.4319553" lon="11.2095124"><ele>261.0</ele><time>2026-04-25T09:28:15.722Z</time></trkpt><trkpt lat="43.4319296" lon="11.20942"><ele>261.0</ele><time>2026-04-25T09:28:19.721Z</time></trkpt><trkpt lat="43.431893" lon="11.209341"><ele>260.7142857142857</ele><time>2026-04-25T09:28:23.706Z</time></trkpt><trkpt lat="43.4318698" lon="11.209244"><ele>260.42857142857144</ele><time>2026-04-25T09:28:29.704Z</time></trkpt><trkpt lat="43.431838" lon="11.2091638"><ele>260.1428571428571</ele><time>2026-04-25T09:28:32.718Z</time></trkpt><trkpt lat="43.4318089" lon="11.2090722"><ele>259.8571428571429</ele><time>2026-04-25T09:28:36.713Z</time></trkpt><trkpt lat="43.4317848" lon="11.2089854"><ele>259.57142857142856</ele><time>2026-04-25T09:28:39.713Z</time></trkpt><trkpt lat="43.4317525" lon="11.2088849"><ele>259.2857142857143</ele><time>2026-04-25T09:28:42.724Z</time></trkpt><trkpt lat="43.4317221" lon="11.208786"><ele>259.0</ele><time>2026-04-25T09:28:45.717Z</time></trkpt><trkpt lat="43.431687" lon="11.2086661"><ele>259.0</ele><time>2026-04-25T09:28:48.695Z</time></trkpt><trkpt lat="43.4316653" lon="11.2085807"><ele>259.0</ele><time>2026-04-25T09:28:50.714Z</time></trkpt><trkpt lat="43.4316475" lon="11.2084939"><ele>259.0</ele><time>2026-04-25T09:28:52.702Z</time></trkpt><trkpt lat="43.4316323" lon="11.208396"><ele>259.0</ele><time>2026-04-25T09:28:54.698Z</time></trkpt><trkpt lat="43.4316242" lon="11.2083042"><ele>259.0</ele><time>2026-04-25T09:28:56.698Z</time></trkpt><trkpt lat="43.4316258" lon="11.208214"><ele>259.0</ele><time>2026-04-25T09:28:58.706Z</time></trkpt><trkpt lat="43.4316149" lon="11.2080888"><ele>259.0</ele><time>2026-04-25T09:29:01.722Z</time></trkpt><trkpt lat="43.4316047" lon="11.2079809"><ele>259.5</ele><time>2026-04-25T09:29:03.707Z</time></trkpt><trkpt lat="43.431598" lon="11.2078532"><ele>260.0</ele><time>2026-04-25T09:29:06.694Z</time></trkpt><trkpt lat="43.4315974" lon="11.2077599"><ele>260.5</ele><time>2026-04-25T09:29:08.708Z</time></trkpt><trkpt lat="43.4316154" lon="11.2076611"><ele>261.0</ele><time>2026-04-25T09:29:11.723Z</time></trkpt><trkpt lat="43.43163" lon="11.2075435"><ele>261.5</ele><time>2026-04-25T09:29:14.706Z</time></trkpt><trkpt lat="43.4316386" lon="11.2073983"><ele>262.0</ele><time>2026-04-25T09:29:16.7Z</time></trkpt><trkpt lat="43.431645" lon="11.2072449"><ele>262.0</ele><time>2026-04-25T09:29:18.702Z</time></trkpt><trkpt lat="43.4316589" lon="11.2070944"><ele>262.0</ele><time>2026-04-25T09:29:20.71Z</time></trkpt><trkpt lat="43.4316752" lon="11.2069478"><ele>262.0</ele><time>2026-04-25T09:29:22.702Z</time></trkpt><trkpt lat="43.4316656" lon="11.2067959"><ele>262.0</ele><time>2026-04-25T09:29:24.718Z</time></trkpt><trkpt lat="43.4316608" lon="11.2066549"><ele>262.0</ele><time>2026-04-25T09:29:26.704Z</time></trkpt><trkpt lat="43.4316567" lon="11.2065111"><ele>262.2</ele><time>2026-04-25T09:29:28.699Z</time></trkpt><trkpt lat="43.4316749" lon="11.2063739"><ele>262.4</ele><time>2026-04-25T09:29:30.702Z</time></trkpt><trkpt lat="43.4316847" lon="11.2062482"><ele>262.6</ele><time>2026-04-25T09:29:32.715Z</time></trkpt><trkpt lat="43.4317036" lon="11.2061052"><ele>262.8</ele><time>2026-04-25T09:29:34.698Z</time></trkpt><trkpt lat="43.4317324" lon="11.2059523"><ele>263.0</ele><time>2026-04-25T09:29:36.702Z</time></trkpt><trkpt lat="43.4317466" lon="11.205801"><ele>263.0</ele><time>2026-04-25T09:29:38.695Z</time></trkpt><trkpt lat="43.4317484" lon="11.2056721"><ele>263.0</ele><time>2026-04-25T09:29:40.717Z</time></trkpt><trkpt lat="43.431752" lon="11.2055365"><ele>263.0</ele><time>2026-04-25T09:29:42.721Z</time></trkpt><trkpt lat="43.431732" lon="11.2053786"><ele>263.0</ele><time>2026-04-25T09:29:44.712Z</time></trkpt><trkpt lat="43.4316828" lon="11.2052187"><ele>263.0</ele><time>2026-04-25T09:29:46.715Z</time></trkpt><trkpt lat="43.4316527" lon="11.205133"><ele>262.83333333333337</ele><time>2026-04-25T09:29:47.694Z</time></trkpt><trkpt lat="43.4316261" lon="11.2050513"><ele>262.6666666666667</ele><time>2026-04-25T09:29:48.701Z</time></trkpt><trkpt lat="43.4315752" lon="11.2049053"><ele>262.5</ele><time>2026-04-25T09:29:50.694Z</time></trkpt><trkpt lat="43.4315489" lon="11.204825"><ele>262.3333333333333</ele><time>2026-04-25T09:29:51.716Z</time></trkpt><trkpt lat="43.4315203" lon="11.2047414"><ele>262.16666666666663</ele><time>2026-04-25T09:29:52.714Z</time></trkpt><trkpt lat="43.4314597" lon="11.2045913"><ele>262.0</ele><time>2026-04-25T09:29:54.716Z</time></trkpt><trkpt lat="43.4314333" lon="11.2045119"><ele>261.75</ele><time>2026-04-25T09:29:55.721Z</time></trkpt><trkpt lat="43.4313741" lon="11.204375"><ele>261.5</ele><time>2026-04-25T09:29:57.706Z</time></trkpt><trkpt lat="43.4313181" lon="11.2042262"><ele>261.25</ele><time>2026-04-25T09:29:59.719Z</time></trkpt><trkpt lat="43.4312699" lon="11.204078"><ele>261.0</ele><time>2026-04-25T09:30:01.708Z</time></trkpt><trkpt lat="43.4312362" lon="11.2039316"><ele>260.1666666666667</ele><time>2026-04-25T09:30:03.704Z</time></trkpt><trkpt lat="43.431236" lon="11.2037629"><ele>259.3333333333333</ele><time>2026-04-25T09:30:05.711Z</time></trkpt><trkpt lat="43.4312494" lon="11.2036723"><ele>258.5</ele><time>2026-04-25T09:30:06.726Z</time></trkpt><trkpt lat="43.4312648" lon="11.2035862"><ele>257.66666666666663</ele><time>2026-04-25T09:30:07.696Z</time></trkpt><trkpt lat="43.4313026" lon="11.203421"><ele>256.8333333333333</ele><time>2026-04-25T09:30:09.702Z</time></trkpt><trkpt lat="43.4313301" lon="11.2033428"><ele>256.0</ele><time>2026-04-25T09:30:10.707Z</time></trkpt><trkpt lat="43.4313551" lon="11.2032617"><ele>256.0</ele><time>2026-04-25T09:30:11.721Z</time></trkpt><trkpt lat="43.4313791" lon="11.2031782"><ele>256.0</ele><time>2026-04-25T09:30:12.703Z</time></trkpt><trkpt lat="43.4314033" lon="11.2030974"><ele>256.0</ele><time>2026-04-25T09:30:13.713Z</time></trkpt><trkpt lat="43.4314462" lon="11.2029407"><ele>256.0</ele><time>2026-04-25T09:30:15.728Z</time></trkpt><trkpt lat="43.4314888" lon="11.2027967"><ele>256.0</ele><time>2026-04-25T09:30:17.699Z</time></trkpt><trkpt lat="43.4315304" lon="11.202665"><ele>255.99999999999997</ele><time>2026-04-25T09:30:19.7Z</time></trkpt><trkpt lat="43.431571" lon="11.2025455"><ele>256.0</ele><time>2026-04-25T09:30:21.728Z</time></trkpt><trkpt lat="43.4316113" lon="11.2024644"><ele>256.0</ele><time>2026-04-25T09:30:23.705Z</time></trkpt><trkpt lat="43.4316517" lon="11.2023869"><ele>256.0</ele><time>2026-04-25T09:30:25.697Z</time></trkpt><trkpt lat="43.4316892" lon="11.202284"><ele>255.99999999999997</ele><time>2026-04-25T09:30:27.697Z</time></trkpt><trkpt lat="43.4317166" lon="11.2021755"><ele>256.0</ele><time>2026-04-25T09:30:29.708Z</time></trkpt><trkpt lat="43.4317515" lon="11.2020744"><ele>255.99999999999997</ele><time>2026-04-25T09:30:31.714Z</time></trkpt><trkpt lat="43.4317692" lon="11.2019579"><ele>256.0</ele><time>2026-04-25T09:30:34.71Z</time></trkpt><trkpt lat="43.4317886" lon="11.2018604"><ele>256.0</ele><time>2026-04-25T09:30:37.716Z</time></trkpt><trkpt lat="43.4318129" lon="11.20175"><ele>256.0</ele><time>2026-04-25T09:30:40.719Z</time></trkpt><trkpt lat="43.4318314" lon="11.2016466"><ele>255.99999999999997</ele><time>2026-04-25T09:30:42.701Z</time></trkpt><trkpt lat="43.4318559" lon="11.2015163"><ele>256.0</ele><time>2026-04-25T09:30:44.707Z</time></trkpt><trkpt lat="43.4318382" lon="11.2013475"><ele>256.40000000000003</ele><time>2026-04-25T09:30:46.708Z</time></trkpt><trkpt lat="43.4318548" lon="11.2012296"><ele>256.8</ele><time>2026-04-25T09:30:48.716Z</time></trkpt><trkpt lat="43.4318631" lon="11.201084"><ele>257.20000000000005</ele><time>2026-04-25T09:30:50.702Z</time></trkpt><trkpt lat="43.4318872" lon="11.2009212"><ele>257.6</ele><time>2026-04-25T09:30:52.715Z</time></trkpt><trkpt lat="43.4318918" lon="11.2008276"><ele>258.0</ele><time>2026-04-25T09:30:53.719Z</time></trkpt><trkpt lat="43.4319191" lon="11.2006757"><ele>258.4</ele><time>2026-04-25T09:30:55.713Z</time></trkpt><trkpt lat="43.4319529" lon="11.2005317"><ele>258.8</ele><time>2026-04-25T09:30:57.715Z</time></trkpt><trkpt lat="43.4319774" lon="11.2003774"><ele>259.2</ele><time>2026-04-25T09:30:59.707Z</time></trkpt><trkpt lat="43.4319812" lon="11.2002736"><ele>259.6</ele><time>2026-04-25T09:31:00.727Z</time></trkpt><trkpt lat="43.4320193" lon="11.2001812"><ele>260.0</ele><time>2026-04-25T09:31:02.703Z</time></trkpt><trkpt lat="43.4320446" lon="11.2000739"><ele>260.0</ele><time>2026-04-25T09:31:04.699Z</time></trkpt><trkpt lat="43.4320811" lon="11.1999509"><ele>260.0</ele><time>2026-04-25T09:31:06.723Z</time></trkpt><trkpt lat="43.4321153" lon="11.1998149"><ele>260.0</ele><time>2026-04-25T09:31:08.705Z</time></trkpt><trkpt lat="43.4321339" lon="11.1996792"><ele>260.0</ele><time>2026-04-25T09:31:10.7Z</time></trkpt><trkpt lat="43.4321492" lon="11.199515"><ele>260.0</ele><time>2026-04-25T09:31:12.698Z</time></trkpt><trkpt lat="43.432156" lon="11.1993662"><ele>258.6</ele><time>2026-04-25T09:31:14.696Z</time></trkpt><trkpt lat="43.4321494" lon="11.1992531"><ele>257.2</ele><time>2026-04-25T09:31:15.72Z</time></trkpt><trkpt lat="43.4321318" lon="11.1990942"><ele>255.8</ele><time>2026-04-25T09:31:17.703Z</time></trkpt><trkpt lat="43.4321679" lon="11.1989664"><ele>254.4</ele><time>2026-04-25T09:31:19.711Z</time></trkpt><trkpt lat="43.4321973" lon="11.19881"><ele>253.0</ele><time>2026-04-25T09:31:21.718Z</time></trkpt><trkpt lat="43.4322253" lon="11.1986355"><ele>250.83333333333331</ele><time>2026-04-25T09:31:23.695Z</time></trkpt><trkpt lat="43.4322652" lon="11.1984833"><ele>248.66666666666666</ele><time>2026-04-25T09:31:25.696Z</time></trkpt><trkpt lat="43.4322847" lon="11.1983967"><ele>246.5</ele><time>2026-04-25T09:31:26.727Z</time></trkpt><trkpt lat="43.4323446" lon="11.1982421"><ele>244.33333333333331</ele><time>2026-04-25T09:31:28.717Z</time></trkpt><trkpt lat="43.4323785" lon="11.1981638"><ele>242.16666666666666</ele><time>2026-04-25T09:31:29.705Z</time></trkpt><trkpt lat="43.4324122" lon="11.1980784"><ele>240.0</ele><time>2026-04-25T09:31:30.712Z</time></trkpt><trkpt lat="43.4324665" lon="11.1979251"><ele>240.0</ele><time>2026-04-25T09:31:32.696Z</time></trkpt><trkpt lat="43.4324813" lon="11.197837"><ele>240.0</ele><time>2026-04-25T09:31:33.706Z</time></trkpt><trkpt lat="43.4324977" lon="11.1977526"><ele>240.0</ele><time>2026-04-25T09:31:34.718Z</time></trkpt><trkpt lat="43.4325271" lon="11.1975916"><ele>240.0</ele><time>2026-04-25T09:31:36.717Z</time></trkpt><trkpt lat="43.432544" lon="11.1974809"><ele>240.0</ele><time>2026-04-25T09:31:37.709Z</time></trkpt><trkpt lat="43.4325375" lon="11.1973707"><ele>240.0</ele><time>2026-04-25T09:31:39.7Z</time></trkpt><trkpt lat="43.4325241" lon="11.197186"><ele>240.83333333333334</ele><time>2026-04-25T09:31:41.699Z</time></trkpt><trkpt lat="43.4325293" lon="11.197081"><ele>241.66666666666669</ele><time>2026-04-25T09:31:42.699Z</time></trkpt><trkpt lat="43.4325622" lon="11.1969618"><ele>242.5</ele><time>2026-04-25T09:31:44.707Z</time></trkpt><trkpt lat="43.4325789" lon="11.1968745"><ele>243.33333333333334</ele><time>2026-04-25T09:31:45.699Z</time></trkpt><trkpt lat="43.4326166" lon="11.1967392"><ele>244.16666666666669</ele><time>2026-04-25T09:31:47.691Z</time></trkpt><trkpt lat="43.4326542" lon="11.196657"><ele>245.0</ele><time>2026-04-25T09:31:48.706Z</time></trkpt><trkpt lat="43.4326986" lon="11.1965593"><ele>244.50000000000003</ele><time>2026-04-25T09:31:50.714Z</time></trkpt><trkpt lat="43.4327606" lon="11.1964738"><ele>244.0</ele><time>2026-04-25T09:31:52.697Z</time></trkpt><trkpt lat="43.4328235" lon="11.1963836"><ele>243.5</ele><time>2026-04-25T09:31:55.716Z</time></trkpt><trkpt lat="43.4328497" lon="11.1962665"><ele>243.0</ele><time>2026-04-25T09:31:58.736Z</time></trkpt><trkpt lat="43.432883" lon="11.1961698"><ele>242.50000000000003</ele><time>2026-04-25T09:32:00.697Z</time></trkpt><trkpt lat="43.4329308" lon="11.1960819"><ele>242.0</ele><time>2026-04-25T09:32:02.713Z</time></trkpt><trkpt lat="43.4329851" lon="11.1959909"><ele>242.0</ele><time>2026-04-25T09:32:04.709Z</time></trkpt><trkpt lat="43.4330198" lon="11.195905"><ele>242.0</ele><time>2026-04-25T09:32:06.705Z</time></trkpt><trkpt lat="43.4330594" lon="11.1958045"><ele>242.0</ele><time>2026-04-25T09:32:08.713Z</time></trkpt><trkpt lat="43.4331198" lon="11.1956874"><ele>242.0</ele><time>2026-04-25T09:32:11.71Z</time></trkpt><trkpt lat="43.433168" lon="11.1955818"><ele>242.0</ele><time>2026-04-25T09:32:13.706Z</time></trkpt><trkpt lat="43.4332425" lon="11.1954604"><ele>242.83333333333334</ele><time>2026-04-25T09:32:15.724Z</time></trkpt><trkpt lat="43.4332689" lon="11.1953618"><ele>243.66666666666669</ele><time>2026-04-25T09:32:16.723Z</time></trkpt><trkpt lat="43.4333358" lon="11.1952434"><ele>244.5</ele><time>2026-04-25T09:32:18.728Z</time></trkpt><trkpt lat="43.4333947" lon="11.1951518"><ele>245.33333333333331</ele><time>2026-04-25T09:32:21.717Z</time></trkpt><trkpt lat="43.4334637" lon="11.1951027"><ele>246.16666666666666</ele><time>2026-04-25T09:32:23.714Z</time></trkpt><trkpt lat="43.4335381" lon="11.1950749"><ele>247.0</ele><time>2026-04-25T09:32:25.722Z</time></trkpt><trkpt lat="43.4336171" lon="11.1950327"><ele>246.99999999999997</ele><time>2026-04-25T09:32:27.698Z</time></trkpt><trkpt lat="43.4336825" lon="11.1949959"><ele>247.0</ele><time>2026-04-25T09:32:29.699Z</time></trkpt><trkpt lat="43.4337547" lon="11.1949818"><ele>247.0</ele><time>2026-04-25T09:32:31.699Z</time></trkpt><trkpt lat="43.4338291" lon="11.1949735"><ele>247.0</ele><time>2026-04-25T09:32:34.717Z</time></trkpt><trkpt lat="43.4338942" lon="11.1949802"><ele>246.99999999999997</ele><time>2026-04-25T09:32:36.734Z</time></trkpt><trkpt lat="43.4339582" lon="11.1949584"><ele>247.0</ele><time>2026-04-25T09:32:38.692Z</time></trkpt><trkpt lat="43.4340588" lon="11.1949196"><ele>246.83333333333331</ele><time>2026-04-25T09:32:41.707Z</time></trkpt><trkpt lat="43.4341387" lon="11.1948697"><ele>246.66666666666666</ele><time>2026-04-25T09:32:44.7Z</time></trkpt><trkpt lat="43.4342117" lon="11.1948422"><ele>246.5</ele><time>2026-04-25T09:32:47.702Z</time></trkpt><trkpt lat="43.4342796" lon="11.1948217"><ele>246.33333333333331</ele><time>2026-04-25T09:32:50.709Z</time></trkpt><trkpt lat="43.4343563" lon="11.1947918"><ele>246.16666666666666</ele><time>2026-04-25T09:32:53.725Z</time></trkpt><trkpt lat="43.4344244" lon="11.1947153"><ele>246.0</ele><time>2026-04-25T09:32:56.717Z</time></trkpt><trkpt lat="43.4344949" lon="11.1946577"><ele>246.0</ele><time>2026-04-25T09:32:59.701Z</time></trkpt><trkpt lat="43.4345732" lon="11.1946087"><ele>246.0</ele><time>2026-04-25T09:33:02.71Z</time></trkpt><trkpt lat="43.4346376" lon="11.194545"><ele>246.0</ele><time>2026-04-25T09:33:05.695Z</time></trkpt><trkpt lat="43.434707" lon="11.1945211"><ele>246.0</ele><time>2026-04-25T09:33:10.711Z</time></trkpt><trkpt lat="43.434766" lon="11.1944596"><ele>246.0</ele><time>2026-04-25T09:33:13.717Z</time></trkpt><trkpt lat="43.4348209" lon="11.194392"><ele>246.0</ele><time>2026-04-25T09:33:16.697Z</time></trkpt><trkpt lat="43.4348698" lon="11.1943091"><ele>245.83333333333334</ele><time>2026-04-25T09:33:19.707Z</time></trkpt><trkpt lat="43.4349374" lon="11.1942121"><ele>245.66666666666669</ele><time>2026-04-25T09:33:21.696Z</time></trkpt><trkpt lat="43.4349882" lon="11.1941023"><ele>245.5</ele><time>2026-04-25T09:33:23.716Z</time></trkpt><trkpt lat="43.4350257" lon="11.1940057"><ele>245.33333333333334</ele><time>2026-04-25T09:33:25.697Z</time></trkpt><trkpt lat="43.4350661" lon="11.1939117"><ele>245.16666666666669</ele><time>2026-04-25T09:33:27.701Z</time></trkpt><trkpt lat="43.4350938" lon="11.1938033"><ele>245.0</ele><time>2026-04-25T09:33:29.702Z</time></trkpt><trkpt lat="43.4351065" lon="11.193676"><ele>245.0</ele><time>2026-04-25T09:33:31.701Z</time></trkpt><trkpt lat="43.43511" lon="11.1935305"><ele>245.0</ele><time>2026-04-25T09:33:33.701Z</time></trkpt><trkpt lat="43.4351254" lon="11.1934134"><ele>245.0</ele><time>2026-04-25T09:33:35.7Z</time></trkpt><trkpt lat="43.4351366" lon="11.1933073"><ele>245.0</ele><time>2026-04-25T09:33:37.718Z</time></trkpt><trkpt lat="43.4351525" lon="11.1931592"><ele>245.0</ele><time>2026-04-25T09:33:39.711Z</time></trkpt><trkpt lat="43.4351632" lon="11.1929909"><ele>244.00000000000003</ele><time>2026-04-25T09:33:41.704Z</time></trkpt><trkpt lat="43.4351644" lon="11.1928777"><ele>243.0</ele><time>2026-04-25T09:33:42.718Z</time></trkpt><trkpt lat="43.4351746" lon="11.1927631"><ele>242.0</ele><time>2026-04-25T09:33:43.702Z</time></trkpt><trkpt lat="43.4351787" lon="11.1926549"><ele>241.0</ele><time>2026-04-25T09:33:44.717Z</time></trkpt><trkpt lat="43.4351727" lon="11.1925271"><ele>240.00000000000003</ele><time>2026-04-25T09:33:45.705Z</time></trkpt><trkpt lat="43.4351645" lon="11.1924058"><ele>239.0</ele><time>2026-04-25T09:33:46.702Z</time></trkpt><trkpt lat="43.4351574" lon="11.1922512"><ele>239.0</ele><time>2026-04-25T09:33:47.712Z</time></trkpt><trkpt lat="43.4351547" lon="11.1921023"><ele>238.99999999999997</ele><time>2026-04-25T09:33:48.704Z</time></trkpt><trkpt lat="43.4351483" lon="11.1919864"><ele>238.99999999999997</ele><time>2026-04-25T09:33:49.694Z</time></trkpt><trkpt lat="43.4351489" lon="11.1918703"><ele>239.0</ele><time>2026-04-25T09:33:50.699Z</time></trkpt><trkpt lat="43.4351382" lon="11.1917336"><ele>239.0</ele><time>2026-04-25T09:33:51.691Z</time></trkpt><trkpt lat="43.4351276" lon="11.1916342"><ele>239.00000000000003</ele><time>2026-04-25T09:33:52.703Z</time></trkpt><trkpt lat="43.4351344" lon="11.1915283"><ele>239.0</ele><time>2026-04-25T09:33:53.707Z</time></trkpt><trkpt lat="43.4351376" lon="11.1914332"><ele>239.0</ele><time>2026-04-25T09:33:54.708Z</time></trkpt><trkpt lat="43.4351579" lon="11.1912794"><ele>239.0</ele><time>2026-04-25T09:33:56.71Z</time></trkpt><trkpt lat="43.4351896" lon="11.1911531"><ele>239.00000000000003</ele><time>2026-04-25T09:33:58.726Z</time></trkpt><trkpt lat="43.4352071" lon="11.1910502"><ele>239.0</ele><time>2026-04-25T09:34:00.707Z</time></trkpt><trkpt lat="43.43528" lon="11.1909442"><ele>239.79999999999998</ele><time>2026-04-25T09:34:02.695Z</time></trkpt><trkpt lat="43.4353482" lon="11.1908425"><ele>240.59999999999997</ele><time>2026-04-25T09:34:04.708Z</time></trkpt><trkpt lat="43.4354" lon="11.1907701"><ele>241.4</ele><time>2026-04-25T09:34:06.704Z</time></trkpt><trkpt lat="43.4354436" lon="11.1906802"><ele>242.2</ele><time>2026-04-25T09:34:08.712Z</time></trkpt><trkpt lat="43.4355156" lon="11.1905836"><ele>243.0</ele><time>2026-04-25T09:34:10.724Z</time></trkpt><trkpt lat="43.4355804" lon="11.1904498"><ele>241.33333333333334</ele><time>2026-04-25T09:34:12.7Z</time></trkpt><trkpt lat="43.4356549" lon="11.1903131"><ele>239.66666666666669</ele><time>2026-04-25T09:34:14.712Z</time></trkpt><trkpt lat="43.4357017" lon="11.1902292"><ele>238.0</ele><time>2026-04-25T09:34:15.718Z</time></trkpt><trkpt lat="43.4357545" lon="11.1901519"><ele>236.33333333333334</ele><time>2026-04-25T09:34:16.711Z</time></trkpt><trkpt lat="43.4358153" lon="11.1900556"><ele>234.66666666666669</ele><time>2026-04-25T09:34:17.704Z</time></trkpt><trkpt lat="43.4358594" lon="11.189967"><ele>233.0</ele><time>2026-04-25T09:34:18.726Z</time></trkpt><trkpt lat="43.4359271" lon="11.1898406"><ele>233.00000000000003</ele><time>2026-04-25T09:34:20.697Z</time></trkpt><trkpt lat="43.4359665" lon="11.1897617"><ele>233.0</ele><time>2026-04-25T09:34:21.705Z</time></trkpt><trkpt lat="43.4360191" lon="11.1896987"><ele>233.0</ele><time>2026-04-25T09:34:22.715Z</time></trkpt><trkpt lat="43.4360788" lon="11.1896081"><ele>233.0</ele><time>2026-04-25T09:34:23.694Z</time></trkpt><trkpt lat="43.4361114" lon="11.1895314"><ele>233.00000000000003</ele><time>2026-04-25T09:34:24.712Z</time></trkpt><trkpt lat="43.4361389" lon="11.1893834"><ele>233.0</ele><time>2026-04-25T09:34:26.705Z</time></trkpt><trkpt lat="43.4361198" lon="11.1892501"><ele>233.00000000000003</ele><time>2026-04-25T09:34:28.72Z</time></trkpt><trkpt lat="43.4361181" lon="11.1891139"><ele>233.0</ele><time>2026-04-25T09:34:30.728Z</time></trkpt><trkpt lat="43.436133" lon="11.1890052"><ele>233.0</ele><time>2026-04-25T09:34:32.703Z</time></trkpt><trkpt lat="43.4361468" lon="11.1889144"><ele>233.0</ele><time>2026-04-25T09:34:34.698Z</time></trkpt><trkpt lat="43.4361692" lon="11.1888324"><ele>233.00000000000003</ele><time>2026-04-25T09:34:37.709Z</time></trkpt><trkpt lat="43.4361736" lon="11.1887242"><ele>233.0</ele><time>2026-04-25T09:34:40.697Z</time></trkpt><trkpt lat="43.4361488" lon="11.1885949"><ele>233.00000000000003</ele><time>2026-04-25T09:34:43.708Z</time></trkpt><trkpt lat="43.4361334" lon="11.1884835"><ele>233.0</ele><time>2026-04-25T09:34:46.705Z</time></trkpt><trkpt lat="43.436131" lon="11.1883815"><ele>233.0</ele><time>2026-04-25T09:34:48.693Z</time></trkpt><trkpt lat="43.4361393" lon="11.1882484"><ele>233.0</ele><time>2026-04-25T09:34:50.704Z</time></trkpt><trkpt lat="43.4361902" lon="11.1881238"><ele>233.00000000000003</ele><time>2026-04-25T09:34:52.704Z</time></trkpt><trkpt lat="43.4362328" lon="11.1880594"><ele>233.0</ele><time>2026-04-25T09:34:53.729Z</time></trkpt><trkpt lat="43.4363314" lon="11.187973"><ele>231.50000000000003</ele><time>2026-04-25T09:34:55.711Z</time></trkpt><trkpt lat="43.4364105" lon="11.1878427"><ele>230.0</ele><time>2026-04-25T09:34:57.702Z</time></trkpt><trkpt lat="43.4364465" lon="11.1877112"><ele>228.5</ele><time>2026-04-25T09:34:59.702Z</time></trkpt><trkpt lat="43.4364376" lon="11.1876098"><ele>227.0</ele><time>2026-04-25T09:35:01.702Z</time></trkpt><trkpt lat="43.4364594" lon="11.1875277"><ele>225.50000000000003</ele><time>2026-04-25T09:35:04.715Z</time></trkpt><trkpt lat="43.4365382" lon="11.187519"><ele>224.0</ele><time>2026-04-25T09:35:07.719Z</time></trkpt><trkpt lat="43.436619" lon="11.1874502"><ele>224.00000000000003</ele><time>2026-04-25T09:35:10.704Z</time></trkpt><trkpt lat="43.4367062" lon="11.1873699"><ele>224.0</ele><time>2026-04-25T09:35:12.707Z</time></trkpt><trkpt lat="43.4367801" lon="11.1873121"><ele>224.0</ele><time>2026-04-25T09:35:14.706Z</time></trkpt><trkpt lat="43.4368609" lon="11.1873027"><ele>224.0</ele><time>2026-04-25T09:35:17.701Z</time></trkpt><trkpt lat="43.4369378" lon="11.1872848"><ele>224.00000000000003</ele><time>2026-04-25T09:35:20.695Z</time></trkpt><trkpt lat="43.4370009" lon="11.1872686"><ele>224.0</ele><time>2026-04-25T09:35:22.713Z</time></trkpt><trkpt lat="43.4370812" lon="11.1872037"><ele>223.66666666666669</ele><time>2026-04-25T09:35:24.698Z</time></trkpt><trkpt lat="43.4371691" lon="11.187162"><ele>223.33333333333334</ele><time>2026-04-25T09:35:26.704Z</time></trkpt><trkpt lat="43.4372385" lon="11.1871105"><ele>223.0</ele><time>2026-04-25T09:35:28.705Z</time></trkpt><trkpt lat="43.4373199" lon="11.187082"><ele>222.66666666666669</ele><time>2026-04-25T09:35:30.716Z</time></trkpt><trkpt lat="43.4373917" lon="11.1870546"><ele>222.33333333333334</ele><time>2026-04-25T09:35:32.708Z</time></trkpt><trkpt lat="43.4374424" lon="11.1869806"><ele>222.0</ele><time>2026-04-25T09:35:34.71Z</time></trkpt><trkpt lat="43.4375167" lon="11.1869384"><ele>222.0</ele><time>2026-04-25T09:35:37.703Z</time></trkpt><trkpt lat="43.4375826" lon="11.1869051"><ele>222.0</ele><time>2026-04-25T09:35:39.701Z</time></trkpt><trkpt lat="43.4376481" lon="11.1868579"><ele>222.0</ele><time>2026-04-25T09:35:41.705Z</time></trkpt><trkpt lat="43.4376998" lon="11.1867503"><ele>222.0</ele><time>2026-04-25T09:35:43.701Z</time></trkpt><trkpt lat="43.4377861" lon="11.1866527"><ele>222.0</ele><time>2026-04-25T09:35:45.7Z</time></trkpt><trkpt lat="43.4378789" lon="11.1865546"><ele>219.39999999999998</ele><time>2026-04-25T09:35:47.697Z</time></trkpt><trkpt lat="43.4379586" lon="11.1864461"><ele>216.79999999999998</ele><time>2026-04-25T09:35:49.706Z</time></trkpt><trkpt lat="43.4380315" lon="11.1863407"><ele>214.2</ele><time>2026-04-25T09:35:51.726Z</time></trkpt><trkpt lat="43.438117" lon="11.1862616"><ele>211.6</ele><time>2026-04-25T09:35:53.714Z</time></trkpt><trkpt lat="43.4381663" lon="11.1861794"><ele>209.0</ele><time>2026-04-25T09:35:54.718Z</time></trkpt><trkpt lat="43.4382033" lon="11.1860987"><ele>207.75</ele><time>2026-04-25T09:35:55.715Z</time></trkpt><trkpt lat="43.4382805" lon="11.186008"><ele>206.5</ele><time>2026-04-25T09:35:57.705Z</time></trkpt><trkpt lat="43.4383741" lon="11.185889"><ele>205.25</ele><time>2026-04-25T09:35:59.709Z</time></trkpt><trkpt lat="43.4384672" lon="11.1857871"><ele>204.0</ele><time>2026-04-25T09:36:01.704Z</time></trkpt><trkpt lat="43.4385608" lon="11.1856989"><ele>201.83333333333334</ele><time>2026-04-25T09:36:03.71Z</time></trkpt><trkpt lat="43.4386351" lon="11.1856239"><ele>199.66666666666666</ele><time>2026-04-25T09:36:05.711Z</time></trkpt><trkpt lat="43.4386008" lon="11.185535"><ele>197.5</ele><time>2026-04-25T09:36:07.7Z</time></trkpt><trkpt lat="43.4385147" lon="11.1855166"><ele>195.33333333333331</ele><time>2026-04-25T09:36:09.702Z</time></trkpt><trkpt lat="43.4384216" lon="11.1855144"><ele>193.16666666666666</ele><time>2026-04-25T09:36:11.722Z</time></trkpt><trkpt lat="43.4383281" lon="11.1855286"><ele>191.0</ele><time>2026-04-25T09:36:13.696Z</time></trkpt><trkpt lat="43.4382308" lon="11.1855267"><ele>191.0</ele><time>2026-04-25T09:36:15.713Z</time></trkpt><trkpt lat="43.4381324" lon="11.1855304"><ele>191.0</ele><time>2026-04-25T09:36:17.717Z</time></trkpt><trkpt lat="43.4380534" lon="11.1855451"><ele>191.0</ele><time>2026-04-25T09:36:19.712Z</time></trkpt><trkpt lat="43.4379763" lon="11.1855623"><ele>191.0</ele><time>2026-04-25T09:36:21.702Z</time></trkpt><trkpt lat="43.4378982" lon="11.1855779"><ele>191.0</ele><time>2026-04-25T09:36:23.698Z</time></trkpt><trkpt lat="43.4378118" lon="11.1855727"><ele>191.0</ele><time>2026-04-25T09:36:25.714Z</time></trkpt><trkpt lat="43.4377157" lon="11.1855712"><ele>190.20000000000002</ele><time>2026-04-25T09:36:27.69Z</time></trkpt><trkpt lat="43.4376239" lon="11.1855743"><ele>189.4</ele><time>2026-04-25T09:36:29.703Z</time></trkpt><trkpt lat="43.4375205" lon="11.1855469"><ele>188.6</ele><time>2026-04-25T09:36:31.703Z</time></trkpt><trkpt lat="43.4374173" lon="11.1855093"><ele>187.8</ele><time>2026-04-25T09:36:33.703Z</time></trkpt><trkpt lat="43.4372989" lon="11.1854655"><ele>187.0</ele><time>2026-04-25T09:36:35.716Z</time></trkpt><trkpt lat="43.4372352" lon="11.1854452"><ele>187.0</ele><time>2026-04-25T09:36:36.786Z</time></trkpt><trkpt lat="43.4371691" lon="11.1854213"><ele>187.0</ele><time>2026-04-25T09:36:37.715Z</time></trkpt><trkpt lat="43.4370968" lon="11.1853953"><ele>187.0</ele><time>2026-04-25T09:36:38.726Z</time></trkpt><trkpt lat="43.4370327" lon="11.1853632"><ele>187.0</ele><time>2026-04-25T09:36:39.698Z</time></trkpt><trkpt lat="43.4369466" lon="11.1853301"><ele>187.0</ele><time>2026-04-25T09:36:40.7Z</time></trkpt><trkpt lat="43.4368462" lon="11.1852899"><ele>187.0</ele><time>2026-04-25T09:36:41.719Z</time></trkpt><trkpt lat="43.4367483" lon="11.1852468"><ele>186.6</ele><time>2026-04-25T09:36:42.786Z</time></trkpt><trkpt lat="43.4366611" lon="11.185228"><ele>186.2</ele><time>2026-04-25T09:36:43.708Z</time></trkpt><trkpt lat="43.4365724" lon="11.1852072"><ele>185.8</ele><time>2026-04-25T09:36:44.719Z</time></trkpt><trkpt lat="43.4364803" lon="11.1851608"><ele>185.4</ele><time>2026-04-25T09:36:45.795Z</time></trkpt><trkpt lat="43.43639" lon="11.1851335"><ele>185.0</ele><time>2026-04-25T09:36:46.796Z</time></trkpt><trkpt lat="43.4362971" lon="11.1851053"><ele>184.6</ele><time>2026-04-25T09:36:47.798Z</time></trkpt><trkpt lat="43.4362045" lon="11.1850893"><ele>184.2</ele><time>2026-04-25T09:36:48.709Z</time></trkpt><trkpt lat="43.4361013" lon="11.1850718"><ele>183.8</ele><time>2026-04-25T09:36:49.717Z</time></trkpt><trkpt lat="43.4360009" lon="11.1850564"><ele>183.4</ele><time>2026-04-25T09:36:50.8Z</time></trkpt><trkpt lat="43.4359004" lon="11.1850441"><ele>183.0</ele><time>2026-04-25T09:36:51.704Z</time></trkpt><trkpt lat="43.4357924" lon="11.1850321"><ele>183.0</ele><time>2026-04-25T09:36:52.725Z</time></trkpt><trkpt lat="43.4356943" lon="11.1850219"><ele>183.0</ele><time>2026-04-25T09:36:53.723Z</time></trkpt><trkpt lat="43.4355957" lon="11.1850154"><ele>183.0</ele><time>2026-04-25T09:36:54.727Z</time></trkpt><trkpt lat="43.4355011" lon="11.1850047"><ele>183.0</ele><time>2026-04-25T09:36:55.707Z</time></trkpt><trkpt lat="43.4354082" lon="11.1849931"><ele>183.0</ele><time>2026-04-25T09:36:56.7Z</time></trkpt><trkpt lat="43.4353196" lon="11.184977"><ele>182.83333333333334</ele><time>2026-04-25T09:36:57.725Z</time></trkpt><trkpt lat="43.4352394" lon="11.1849563"><ele>182.66666666666666</ele><time>2026-04-25T09:36:58.697Z</time></trkpt><trkpt lat="43.4351648" lon="11.1849382"><ele>182.5</ele><time>2026-04-25T09:36:59.719Z</time></trkpt><trkpt lat="43.4350832" lon="11.1849154"><ele>182.33333333333331</ele><time>2026-04-25T09:37:00.793Z</time></trkpt><trkpt lat="43.4350032" lon="11.1848969"><ele>182.16666666666666</ele><time>2026-04-25T09:37:01.796Z</time></trkpt><trkpt lat="43.4349057" lon="11.1848674"><ele>182.0</ele><time>2026-04-25T09:37:02.795Z</time></trkpt><trkpt lat="43.4348045" lon="11.1848302"><ele>178.75</ele><time>2026-04-25T09:37:03.717Z</time></trkpt><trkpt lat="43.4346954" lon="11.1847903"><ele>175.5</ele><time>2026-04-25T09:37:04.716Z</time></trkpt><trkpt lat="43.43457" lon="11.1847317"><ele>172.25</ele><time>2026-04-25T09:37:05.783Z</time></trkpt><trkpt lat="43.4344501" lon="11.1846797"><ele>169.0</ele><time>2026-04-25T09:37:06.794Z</time></trkpt><trkpt lat="43.4343157" lon="11.1846258"><ele>169.0</ele><time>2026-04-25T09:37:07.786Z</time></trkpt><trkpt lat="43.4341795" lon="11.1845748"><ele>169.0</ele><time>2026-04-25T09:37:08.713Z</time></trkpt><trkpt lat="43.4340485" lon="11.184532"><ele>169.0</ele><time>2026-04-25T09:37:09.715Z</time></trkpt><trkpt lat="43.4339136" lon="11.184486"><ele>169.0</ele><time>2026-04-25T09:37:10.721Z</time></trkpt><trkpt lat="43.4337738" lon="11.1844535"><ele>168.5</ele><time>2026-04-25T09:37:11.695Z</time></trkpt><trkpt lat="43.4336266" lon="11.1844177"><ele>168.0</ele><time>2026-04-25T09:37:12.789Z</time></trkpt><trkpt lat="43.4334928" lon="11.1843991"><ele>167.5</ele><time>2026-04-25T09:37:13.717Z</time></trkpt><trkpt lat="43.4333498" lon="11.1843544"><ele>167.0</ele><time>2026-04-25T09:37:14.72Z</time></trkpt><trkpt lat="43.4332095" lon="11.184318"><ele>167.0</ele><time>2026-04-25T09:37:15.797Z</time></trkpt><trkpt lat="43.4330917" lon="11.1842766"><ele>167.0</ele><time>2026-04-25T09:37:16.795Z</time></trkpt><trkpt lat="43.4329802" lon="11.1842167"><ele>167.0</ele><time>2026-04-25T09:37:17.708Z</time></trkpt><trkpt lat="43.4328699" lon="11.1841543"><ele>167.0</ele><time>2026-04-25T09:37:18.718Z</time></trkpt><trkpt lat="43.4327695" lon="11.1840968"><ele>167.39999999999998</ele><time>2026-04-25T09:37:19.729Z</time></trkpt><trkpt lat="43.4326746" lon="11.1840618"><ele>167.79999999999998</ele><time>2026-04-25T09:37:20.804Z</time></trkpt><trkpt lat="43.4325841" lon="11.1840179"><ele>168.2</ele><time>2026-04-25T09:37:21.794Z</time></trkpt><trkpt lat="43.4324844" lon="11.1839803"><ele>168.6</ele><time>2026-04-25T09:37:22.784Z</time></trkpt><trkpt lat="43.4323985" lon="11.1839343"><ele>169.0</ele><time>2026-04-25T09:37:23.71Z</time></trkpt><trkpt lat="43.4323081" lon="11.1838883"><ele>166.5</ele><time>2026-04-25T09:37:24.712Z</time></trkpt><trkpt lat="43.4322043" lon="11.1838344"><ele>164.0</ele><time>2026-04-25T09:37:25.715Z</time></trkpt><trkpt lat="43.4320907" lon="11.1837921"><ele>161.5</ele><time>2026-04-25T09:37:26.715Z</time></trkpt><trkpt lat="43.431971" lon="11.1837551"><ele>159.0</ele><time>2026-04-25T09:37:27.714Z</time></trkpt><trkpt lat="43.4318531" lon="11.1837187"><ele>158.0</ele><time>2026-04-25T09:37:28.711Z</time></trkpt><trkpt lat="43.4317399" lon="11.183701"><ele>157.0</ele><time>2026-04-25T09:37:29.719Z</time></trkpt><trkpt lat="43.4316368" lon="11.1836863"><ele>156.0</ele><time>2026-04-25T09:37:30.711Z</time></trkpt><trkpt lat="43.4315346" lon="11.1836688"><ele>155.0</ele><time>2026-04-25T09:37:31.696Z</time></trkpt><trkpt lat="43.4314373" lon="11.1836527"><ele>154.0</ele><time>2026-04-25T09:37:32.726Z</time></trkpt><trkpt lat="43.4313437" lon="11.1836259"><ele>155.6</ele><time>2026-04-25T09:37:33.691Z</time></trkpt><trkpt lat="43.4312578" lon="11.1835657"><ele>157.2</ele><time>2026-04-25T09:37:34.709Z</time></trkpt><trkpt lat="43.4311962" lon="11.1834526"><ele>158.79999999999998</ele><time>2026-04-25T09:37:35.721Z</time></trkpt><trkpt lat="43.431137" lon="11.1833405"><ele>160.4</ele><time>2026-04-25T09:37:36.799Z</time></trkpt><trkpt lat="43.4310932" lon="11.1832218"><ele>162.0</ele><time>2026-04-25T09:37:37.786Z</time></trkpt><trkpt lat="43.4310593" lon="11.1831236"><ele>163.16666666666666</ele><time>2026-04-25T09:37:38.712Z</time></trkpt><trkpt lat="43.4310218" lon="11.1830392"><ele>164.33333333333334</ele><time>2026-04-25T09:37:39.708Z</time></trkpt><trkpt lat="43.4310028" lon="11.1829536"><ele>165.5</ele><time>2026-04-25T09:37:40.72Z</time></trkpt><trkpt lat="43.4309941" lon="11.1828564"><ele>166.66666666666669</ele><time>2026-04-25T09:37:41.782Z</time></trkpt><trkpt lat="43.4310174" lon="11.1827186"><ele>167.83333333333334</ele><time>2026-04-25T09:37:43.707Z</time></trkpt><trkpt lat="43.4310147" lon="11.1826173"><ele>169.0</ele><time>2026-04-25T09:37:45.717Z</time></trkpt><trkpt lat="43.430998" lon="11.1825123"><ele>169.0</ele><time>2026-04-25T09:37:47.788Z</time></trkpt><trkpt lat="43.4309915" lon="11.1824118"><ele>169.0</ele><time>2026-04-25T09:37:50.796Z</time></trkpt><trkpt lat="43.4309902" lon="11.1823124"><ele>169.0</ele><time>2026-04-25T09:37:53.701Z</time></trkpt><trkpt lat="43.4309769" lon="11.1822161"><ele>169.0</ele><time>2026-04-25T09:37:55.719Z</time></trkpt><trkpt lat="43.4309292" lon="11.1821377"><ele>169.0</ele><time>2026-04-25T09:37:59.721Z</time></trkpt><trkpt lat="43.43093" lon="11.1820289"><ele>169.0</ele><time>2026-04-25T09:38:05.718Z</time></trkpt><trkpt lat="43.4309286" lon="11.1819353"><ele>169.0</ele><time>2026-04-25T09:38:10.711Z</time></trkpt><trkpt lat="43.4309136" lon="11.1818357"><ele>168.85714285714286</ele><time>2026-04-25T09:38:15.71Z</time></trkpt><trkpt lat="43.4309248" lon="11.1817325"><ele>168.71428571428572</ele><time>2026-04-25T09:38:20.717Z</time></trkpt><trkpt lat="43.4309051" lon="11.1816479"><ele>168.57142857142856</ele><time>2026-04-25T09:38:26.72Z</time></trkpt><trkpt lat="43.4308699" lon="11.1815431"><ele>168.42857142857144</ele><time>2026-04-25T09:38:30.797Z</time></trkpt><trkpt lat="43.4308777" lon="11.181434"><ele>168.28571428571428</ele><time>2026-04-25T09:38:33.705Z</time></trkpt><trkpt lat="43.4308294" lon="11.1813742"><ele>168.14285714285714</ele><time>2026-04-25T09:38:36.792Z</time></trkpt><trkpt lat="43.4307708" lon="11.1813266"><ele>168.0</ele><time>2026-04-25T09:38:38.73Z</time></trkpt><trkpt lat="43.4306908" lon="11.181275"><ele>167.16666666666666</ele><time>2026-04-25T09:38:41.732Z</time></trkpt><trkpt lat="43.4306205" lon="11.18122"><ele>166.33333333333334</ele><time>2026-04-25T09:38:44.726Z</time></trkpt><trkpt lat="43.4305491" lon="11.1811462"><ele>165.5</ele><time>2026-04-25T09:38:47.732Z</time></trkpt><trkpt lat="43.4304966" lon="11.1810879"><ele>164.66666666666669</ele><time>2026-04-25T09:38:49.703Z</time></trkpt><trkpt lat="43.4304489" lon="11.1810263"><ele>163.83333333333334</ele><time>2026-04-25T09:38:51.718Z</time></trkpt><trkpt lat="43.4303955" lon="11.1809735"><ele>163.0</ele><time>2026-04-25T09:38:53.698Z</time></trkpt><trkpt lat="43.4303253" lon="11.1809074"><ele>163.0</ele><time>2026-04-25T09:38:56.789Z</time></trkpt><trkpt lat="43.4302727" lon="11.1808526"><ele>163.0</ele><time>2026-04-25T09:38:58.702Z</time></trkpt><trkpt lat="43.4302078" lon="11.1808021"><ele>163.0</ele><time>2026-04-25T09:39:00.79Z</time></trkpt><trkpt lat="43.4301455" lon="11.1807887"><ele>163.0</ele><time>2026-04-25T09:39:01.779Z</time></trkpt><trkpt lat="43.4300662" lon="11.1808027"><ele>163.0</ele><time>2026-04-25T09:39:03.73Z</time></trkpt><trkpt lat="43.4299594" lon="11.1808458"><ele>163.0</ele><time>2026-04-25T09:39:05.792Z</time></trkpt><trkpt lat="43.4298574" lon="11.180927"><ele>163.0</ele><time>2026-04-25T09:39:07.723Z</time></trkpt><trkpt lat="43.4297911" lon="11.1809737"><ele>163.0</ele><time>2026-04-25T09:39:08.797Z</time></trkpt><trkpt lat="43.4297358" lon="11.1810183"><ele>163.0</ele><time>2026-04-25T09:39:09.701Z</time></trkpt><trkpt lat="43.4296722" lon="11.181061"><ele>163.0</ele><time>2026-04-25T09:39:10.727Z</time></trkpt><trkpt lat="43.4296119" lon="11.1811001"><ele>163.0</ele><time>2026-04-25T09:39:11.789Z</time></trkpt><trkpt lat="43.4295423" lon="11.1811307"><ele>163.0</ele><time>2026-04-25T09:39:12.778Z</time></trkpt><trkpt lat="43.4294632" lon="11.1811563"><ele>163.0</ele><time>2026-04-25T09:39:13.725Z</time></trkpt><trkpt lat="43.4293808" lon="11.1811523"><ele>162.33333333333334</ele><time>2026-04-25T09:39:14.707Z</time></trkpt><trkpt lat="43.4293032" lon="11.1811332"><ele>161.66666666666669</ele><time>2026-04-25T09:39:15.719Z</time></trkpt><trkpt lat="43.4292382" lon="11.1810829"><ele>161.0</ele><time>2026-04-25T09:39:16.716Z</time></trkpt><trkpt lat="43.4291798" lon="11.1810197"><ele>160.33333333333334</ele><time>2026-04-25T09:39:17.734Z</time></trkpt><trkpt lat="43.4291277" lon="11.1809403"><ele>159.66666666666666</ele><time>2026-04-25T09:39:18.713Z</time></trkpt><trkpt lat="43.4290831" lon="11.1808513"><ele>159.0</ele><time>2026-04-25T09:39:19.716Z</time></trkpt><trkpt lat="43.4290355" lon="11.1807499"><ele>157.33333333333334</ele><time>2026-04-25T09:39:20.703Z</time></trkpt><trkpt lat="43.4289911" lon="11.1806535"><ele>155.66666666666666</ele><time>2026-04-25T09:39:21.722Z</time></trkpt><trkpt lat="43.4289351" lon="11.1805837"><ele>154.0</ele><time>2026-04-25T09:39:22.782Z</time></trkpt><trkpt lat="43.4288818" lon="11.1805254"><ele>152.33333333333331</ele><time>2026-04-25T09:39:23.722Z</time></trkpt><trkpt lat="43.4288201" lon="11.1804803"><ele>150.66666666666666</ele><time>2026-04-25T09:39:24.722Z</time></trkpt><trkpt lat="43.4287213" lon="11.1804243"><ele>149.0</ele><time>2026-04-25T09:39:26.733Z</time></trkpt><trkpt lat="43.428643" lon="11.180468"><ele>149.75</ele><time>2026-04-25T09:39:28.71Z</time></trkpt><trkpt lat="43.4285515" lon="11.1806506"><ele>150.5</ele><time>2026-04-25T09:39:30.714Z</time></trkpt><trkpt lat="43.4284779" lon="11.1807934"><ele>151.25</ele><time>2026-04-25T09:39:31.784Z</time></trkpt><trkpt lat="43.4284009" lon="11.1809411"><ele>152.0</ele><time>2026-04-25T09:39:32.797Z</time></trkpt><trkpt lat="43.4283332" lon="11.1810821"><ele>152.0</ele><time>2026-04-25T09:39:33.703Z</time></trkpt><trkpt lat="43.4282645" lon="11.1812335"><ele>152.0</ele><time>2026-04-25T09:39:34.723Z</time></trkpt><trkpt lat="43.4282016" lon="11.1813735"><ele>152.0</ele><time>2026-04-25T09:39:35.712Z</time></trkpt><trkpt lat="43.4281397" lon="11.181512"><ele>152.0</ele><time>2026-04-25T09:39:36.782Z</time></trkpt><trkpt lat="43.4280882" lon="11.1816258"><ele>152.66666666666666</ele><time>2026-04-25T09:39:37.784Z</time></trkpt><trkpt lat="43.4280295" lon="11.1817081"><ele>153.33333333333331</ele><time>2026-04-25T09:39:38.723Z</time></trkpt><trkpt lat="43.4279584" lon="11.1817518"><ele>154.0</ele><time>2026-04-25T09:39:39.702Z</time></trkpt><trkpt lat="43.4278721" lon="11.1817479"><ele>154.66666666666666</ele><time>2026-04-25T09:39:40.806Z</time></trkpt><trkpt lat="43.4277821" lon="11.1817262"><ele>155.33333333333334</ele><time>2026-04-25T09:39:41.794Z</time></trkpt><trkpt lat="43.4276877" lon="11.1816885"><ele>156.0</ele><time>2026-04-25T09:39:42.792Z</time></trkpt><trkpt lat="43.4276036" lon="11.1816415"><ele>154.85714285714286</ele><time>2026-04-25T09:39:43.706Z</time></trkpt><trkpt lat="43.4275299" lon="11.1816022"><ele>153.7142857142857</ele><time>2026-04-25T09:39:44.713Z</time></trkpt><trkpt lat="43.4274519" lon="11.1815909"><ele>152.57142857142856</ele><time>2026-04-25T09:39:45.705Z</time></trkpt><trkpt lat="43.4273813" lon="11.1816192"><ele>151.42857142857144</ele><time>2026-04-25T09:39:46.719Z</time></trkpt><trkpt lat="43.4273228" lon="11.1816643"><ele>150.28571428571428</ele><time>2026-04-25T09:39:47.712Z</time></trkpt><trkpt lat="43.427264" lon="11.181714"><ele>149.14285714285714</ele><time>2026-04-25T09:39:48.714Z</time></trkpt><trkpt lat="43.4272043" lon="11.1817596"><ele>148.0</ele><time>2026-04-25T09:39:49.72Z</time></trkpt><trkpt lat="43.4271368" lon="11.1818032"><ele>147.0</ele><time>2026-04-25T09:39:50.715Z</time></trkpt><trkpt lat="43.4270637" lon="11.1818394"><ele>146.0</ele><time>2026-04-25T09:39:51.717Z</time></trkpt><trkpt lat="43.4269938" lon="11.1818655"><ele>145.0</ele><time>2026-04-25T09:39:52.715Z</time></trkpt><trkpt lat="43.4269318" lon="11.1818829"><ele>144.0</ele><time>2026-04-25T09:39:53.713Z</time></trkpt><trkpt lat="43.4268223" lon="11.181921"><ele>143.0</ele><time>2026-04-25T09:39:55.718Z</time></trkpt><trkpt lat="43.4266915" lon="11.1819724"><ele>143.0</ele><time>2026-04-25T09:39:57.714Z</time></trkpt><trkpt lat="43.4265992" lon="11.182008"><ele>143.0</ele><time>2026-04-25T09:39:58.714Z</time></trkpt><trkpt lat="43.42651" lon="11.1820448"><ele>143.0</ele><time>2026-04-25T09:39:59.713Z</time></trkpt><trkpt lat="43.4264239" lon="11.1820743"><ele>143.0</ele><time>2026-04-25T09:40:00.796Z</time></trkpt><trkpt lat="43.4263397" lon="11.1820888"><ele>143.0</ele><time>2026-04-25T09:40:01.786Z</time></trkpt><trkpt lat="43.426256" lon="11.1820945"><ele>143.0</ele><time>2026-04-25T09:40:02.792Z</time></trkpt><trkpt lat="43.4261642" lon="11.1820908"><ele>143.33333333333331</ele><time>2026-04-25T09:40:03.708Z</time></trkpt><trkpt lat="43.4260761" lon="11.182082"><ele>143.66666666666666</ele><time>2026-04-25T09:40:04.718Z</time></trkpt><trkpt lat="43.4259958" lon="11.1820864"><ele>144.0</ele><time>2026-04-25T09:40:05.785Z</time></trkpt><trkpt lat="43.4259186" lon="11.1821126"><ele>144.33333333333334</ele><time>2026-04-25T09:40:06.754Z</time></trkpt><trkpt lat="43.4258541" lon="11.1821589"><ele>144.66666666666669</ele><time>2026-04-25T09:40:07.784Z</time></trkpt><trkpt lat="43.425798" lon="11.182229"><ele>145.0</ele><time>2026-04-25T09:40:08.696Z</time></trkpt><trkpt lat="43.4257583" lon="11.182302"><ele>144.5</ele><time>2026-04-25T09:40:09.701Z</time></trkpt><trkpt lat="43.4257227" lon="11.1823845"><ele>144.0</ele><time>2026-04-25T09:40:10.798Z</time></trkpt><trkpt lat="43.4256916" lon="11.1824604"><ele>143.5</ele><time>2026-04-25T09:40:11.781Z</time></trkpt><trkpt lat="43.4256525" lon="11.182529"><ele>143.0</ele><time>2026-04-25T09:40:12.696Z</time></trkpt><trkpt lat="43.425618" lon="11.1826026"><ele>142.5</ele><time>2026-04-25T09:40:13.787Z</time></trkpt><trkpt lat="43.4255587" lon="11.1827332"><ele>142.0</ele><time>2026-04-25T09:40:15.698Z</time></trkpt><trkpt lat="43.4254939" lon="11.1828539"><ele>144.0</ele><time>2026-04-25T09:40:17.786Z</time></trkpt><trkpt lat="43.4254356" lon="11.1829591"><ele>146.0</ele><time>2026-04-25T09:40:19.721Z</time></trkpt><trkpt lat="43.4253879" lon="11.1830509"><ele>148.0</ele><time>2026-04-25T09:40:21.71Z</time></trkpt><trkpt lat="43.4253411" lon="11.1831477"><ele>150.0</ele><time>2026-04-25T09:40:24.721Z</time></trkpt><trkpt lat="43.4253159" lon="11.1832355"><ele>152.0</ele><time>2026-04-25T09:40:27.719Z</time></trkpt><trkpt lat="43.4252664" lon="11.1833123"><ele>154.0</ele><time>2026-04-25T09:40:33.716Z</time></trkpt><trkpt lat="43.4251976" lon="11.1833188"><ele>154.0</ele><time>2026-04-25T09:40:39.707Z</time></trkpt><trkpt lat="43.4251205" lon="11.1832944"><ele>154.0</ele><time>2026-04-25T09:40:48.788Z</time></trkpt><trkpt lat="43.4250673" lon="11.1832358"><ele>154.0</ele><time>2026-04-25T09:40:51.785Z</time></trkpt><trkpt lat="43.4250792" lon="11.1831347"><ele>154.0</ele><time>2026-04-25T09:40:56.795Z</time></trkpt><trkpt lat="43.4250492" lon="11.1830558"><ele>154.0</ele><time>2026-04-25T09:41:02.698Z</time></trkpt><trkpt lat="43.4250007" lon="11.1829788"><ele>154.0</ele><time>2026-04-25T09:41:07.707Z</time></trkpt><trkpt lat="43.4249296" lon="11.1829321"><ele>154.0</ele><time>2026-04-25T09:41:11.726Z</time></trkpt><trkpt lat="43.4248643" lon="11.1828778"><ele>154.85714285714286</ele><time>2026-04-25T09:41:15.792Z</time></trkpt><trkpt lat="43.4248004" lon="11.1828421"><ele>155.71428571428572</ele><time>2026-04-25T09:41:18.692Z</time></trkpt><trkpt lat="43.4247569" lon="11.1827717"><ele>156.57142857142856</ele><time>2026-04-25T09:41:21.797Z</time></trkpt><trkpt lat="43.4247163" lon="11.1826666"><ele>157.42857142857144</ele><time>2026-04-25T09:41:27.781Z</time></trkpt><trkpt lat="43.424675" lon="11.1825793"><ele>158.28571428571428</ele><time>2026-04-25T09:41:32.784Z</time></trkpt><trkpt lat="43.4246493" lon="11.1824906"><ele>159.14285714285714</ele><time>2026-04-25T09:41:37.716Z</time></trkpt><trkpt lat="43.4245959" lon="11.1824409"><ele>160.0</ele><time>2026-04-25T09:41:41.71Z</time></trkpt><trkpt lat="43.4245415" lon="11.1823906"><ele>160.83333333333334</ele><time>2026-04-25T09:41:44.717Z</time></trkpt><trkpt lat="43.4244715" lon="11.1823484"><ele>161.66666666666669</ele><time>2026-04-25T09:41:54.719Z</time></trkpt><trkpt lat="43.4243789" lon="11.1823443"><ele>162.5</ele><time>2026-04-25T09:41:57.784Z</time></trkpt><trkpt lat="43.424314" lon="11.1823697"><ele>163.33333333333334</ele><time>2026-04-25T09:42:00.781Z</time></trkpt><trkpt lat="43.4242407" lon="11.1823271"><ele>164.16666666666666</ele><time>2026-04-25T09:42:07.799Z</time></trkpt><trkpt lat="43.424187" lon="11.1822672"><ele>165.0</ele><time>2026-04-25T09:42:13.714Z</time></trkpt><trkpt lat="43.4242045" lon="11.1821784"><ele>165.0</ele><time>2026-04-25T09:42:17.717Z</time></trkpt><trkpt lat="43.4242354" lon="11.1820865"><ele>165.0</ele><time>2026-04-25T09:42:20.724Z</time></trkpt><trkpt lat="43.4242841" lon="11.1819978"><ele>165.0</ele><time>2026-04-25T09:42:24.722Z</time></trkpt><trkpt lat="43.4243382" lon="11.181934"><ele>165.0</ele><time>2026-04-25T09:42:27.793Z</time></trkpt><trkpt lat="43.4243474" lon="11.1818478"><ele>165.0</ele><time>2026-04-25T09:42:29.717Z</time></trkpt><trkpt lat="43.4243904" lon="11.1817448"><ele>165.0</ele><time>2026-04-25T09:42:32.788Z</time></trkpt><trkpt lat="43.424418" lon="11.1816466"><ele>165.00000000000003</ele><time>2026-04-25T09:42:34.72Z</time></trkpt><trkpt lat="43.4244521" lon="11.1815578"><ele>165.0</ele><time>2026-04-25T09:42:37.786Z</time></trkpt><trkpt lat="43.4245099" lon="11.1815069"><ele>165.0</ele><time>2026-04-25T09:42:39.711Z</time></trkpt><trkpt lat="43.4245599" lon="11.1814204"><ele>165.0</ele><time>2026-04-25T09:42:41.797Z</time></trkpt><trkpt lat="43.4245575" lon="11.1813329"><ele>165.0</ele><time>2026-04-25T09:42:43.706Z</time></trkpt><trkpt lat="43.4245279" lon="11.1812563"><ele>165.00000000000003</ele><time>2026-04-25T09:42:46.712Z</time></trkpt><trkpt lat="43.4244616" lon="11.1812116"><ele>165.0</ele><time>2026-04-25T09:42:49.7Z</time></trkpt><trkpt lat="43.4243838" lon="11.1812279"><ele>165.16666666666666</ele><time>2026-04-25T09:42:52.713Z</time></trkpt><trkpt lat="43.4242979" lon="11.1812467"><ele>165.33333333333334</ele><time>2026-04-25T09:42:55.712Z</time></trkpt><trkpt lat="43.4242164" lon="11.1812415"><ele>165.5</ele><time>2026-04-25T09:42:58.794Z</time></trkpt><trkpt lat="43.4241572" lon="11.1811754"><ele>165.66666666666669</ele><time>2026-04-25T09:43:02.793Z</time></trkpt><trkpt lat="43.4241335" lon="11.1810842"><ele>165.83333333333334</ele><time>2026-04-25T09:43:04.702Z</time></trkpt><trkpt lat="43.4241217" lon="11.1809617"><ele>166.0</ele><time>2026-04-25T09:43:07.778Z</time></trkpt><trkpt lat="43.4240768" lon="11.1808608"><ele>166.0</ele><time>2026-04-25T09:43:10.723Z</time></trkpt><trkpt lat="43.4240559" lon="11.1807782"><ele>166.0</ele><time>2026-04-25T09:43:12.785Z</time></trkpt><trkpt lat="43.4240373" lon="11.1806879"><ele>166.0</ele><time>2026-04-25T09:43:15.783Z</time></trkpt><trkpt lat="43.4240325" lon="11.1805962"><ele>166.0</ele><time>2026-04-25T09:43:18.718Z</time></trkpt><trkpt lat="43.4240295" lon="11.1804423"><ele>166.0</ele><time>2026-04-25T09:43:22.713Z</time></trkpt><trkpt lat="43.424013" lon="11.1803445"><ele>166.0</ele><time>2026-04-25T09:43:25.713Z</time></trkpt><trkpt lat="43.4239982" lon="11.1802368"><ele>166.28571428571428</ele><time>2026-04-25T09:43:28.714Z</time></trkpt><trkpt lat="43.4239912" lon="11.1801444"><ele>166.57142857142858</ele><time>2026-04-25T09:43:31.716Z</time></trkpt><trkpt lat="43.4239638" lon="11.1800493"><ele>166.85714285714286</ele><time>2026-04-25T09:43:34.726Z</time></trkpt><trkpt lat="43.4239047" lon="11.180002"><ele>167.14285714285714</ele><time>2026-04-25T09:43:36.795Z</time></trkpt><trkpt lat="43.4238236" lon="11.179958"><ele>167.42857142857144</ele><time>2026-04-25T09:43:40.708Z</time></trkpt><trkpt lat="43.4237448" lon="11.1799514"><ele>167.71428571428572</ele><time>2026-04-25T09:43:43.702Z</time></trkpt><trkpt lat="43.423679" lon="11.1799601"><ele>168.0</ele><time>2026-04-25T09:43:45.795Z</time></trkpt><trkpt lat="43.4236109" lon="11.1799464"><ele>168.33333333333334</ele><time>2026-04-25T09:43:48.712Z</time></trkpt><trkpt lat="43.4235455" lon="11.1799705"><ele>168.66666666666666</ele><time>2026-04-25T09:43:50.807Z</time></trkpt><trkpt lat="43.4234861" lon="11.1801025"><ele>169.0</ele><time>2026-04-25T09:43:52.689Z</time></trkpt><trkpt lat="43.4234268" lon="11.1801612"><ele>169.33333333333331</ele><time>2026-04-25T09:43:54.721Z</time></trkpt><trkpt lat="43.4233689" lon="11.1801963"><ele>169.66666666666666</ele><time>2026-04-25T09:43:56.73Z</time></trkpt><trkpt lat="43.4232862" lon="11.1802267"><ele>170.0</ele><time>2026-04-25T09:43:59.722Z</time></trkpt><trkpt lat="43.4231942" lon="11.1802374"><ele>170.0</ele><time>2026-04-25T09:44:02.733Z</time></trkpt><trkpt lat="43.4231265" lon="11.1802572"><ele>170.0</ele><time>2026-04-25T09:44:04.719Z</time></trkpt><trkpt lat="43.4230476" lon="11.1802494"><ele>170.0</ele><time>2026-04-25T09:44:07.72Z</time></trkpt><trkpt lat="43.4229659" lon="11.1802315"><ele>170.0</ele><time>2026-04-25T09:44:09.762Z</time></trkpt><trkpt lat="43.4228908" lon="11.1802403"><ele>170.0</ele><time>2026-04-25T09:44:11.723Z</time></trkpt><trkpt lat="43.4228215" lon="11.1802463"><ele>170.0</ele><time>2026-04-25T09:44:13.701Z</time></trkpt><trkpt lat="43.4227529" lon="11.1802602"><ele>170.0</ele><time>2026-04-25T09:44:15.793Z</time></trkpt><trkpt lat="43.4226641" lon="11.1803042"><ele>170.33333333333331</ele><time>2026-04-25T09:44:18.699Z</time></trkpt><trkpt lat="43.4226198" lon="11.1804604"><ele>170.66666666666666</ele><time>2026-04-25T09:44:20.795Z</time></trkpt><trkpt lat="43.422579" lon="11.1805526"><ele>171.0</ele><time>2026-04-25T09:44:22.789Z</time></trkpt><trkpt lat="43.4225136" lon="11.1805864"><ele>171.33333333333334</ele><time>2026-04-25T09:44:24.723Z</time></trkpt><trkpt lat="43.422431" lon="11.1805876"><ele>171.66666666666669</ele><time>2026-04-25T09:44:26.706Z</time></trkpt><trkpt lat="43.4223606" lon="11.1806045"><ele>172.0</ele><time>2026-04-25T09:44:28.706Z</time></trkpt><trkpt lat="43.4223016" lon="11.1806768"><ele>171.66666666666669</ele><time>2026-04-25T09:44:31.794Z</time></trkpt><trkpt lat="43.4222864" lon="11.1807916"><ele>171.33333333333334</ele><time>2026-04-25T09:44:33.698Z</time></trkpt><trkpt lat="43.4222819" lon="11.1809062"><ele>171.0</ele><time>2026-04-25T09:44:36.725Z</time></trkpt><trkpt lat="43.4222771" lon="11.1810279"><ele>170.66666666666666</ele><time>2026-04-25T09:44:39.709Z</time></trkpt><trkpt lat="43.4222657" lon="11.1811164"><ele>170.33333333333331</ele><time>2026-04-25T09:44:41.694Z</time></trkpt><trkpt lat="43.4221977" lon="11.181165"><ele>170.0</ele><time>2026-04-25T09:44:44.72Z</time></trkpt><trkpt lat="43.4221288" lon="11.1811988"><ele>174.0</ele><time>2026-04-25T09:44:47.797Z</time></trkpt><trkpt lat="43.4220696" lon="11.1811525"><ele>174.0</ele><time>2026-04-25T09:44:59.721Z</time></trkpt><trkpt lat="43.4220071" lon="11.1811676"><ele>174.0</ele><time>2026-04-25T09:45:35.691Z</time></trkpt></trkseg></trk></gpx>